<?xml version="1.0" encoding="UTF-8" standalone="no" ?>
<gpx xmlns="http://www.topografix.com/GPX/1/1" xmlns:xsi="http://www.w3.org/2001/XMLSchema-instance" xsi:schemaLocation="http://www.topografix.com/GPX/1/1 http://www.topografix.com/GPX/1/1/gpx.xsd" version="1.1" creator="VisuGPX - https://www.visugpx.com">
  <metadata>
    <name>Saint-Etienne du Rouvray - Orival - La Mare Asse</name>
  </metadata>
  <trk>
    <name><![CDATA[Saint-Etienne du Rouvray - Orival - La Mare Asse_2]]></name>
    <trkseg>
      <trkpt lat="49.2873" lon="1.11359">
        <ele>59.8</ele>
        <time>2019-11-11T09:58:36Z</time>
      </trkpt>
      <trkpt lat="49.28732" lon="1.11362">
        <ele>59.8</ele>
        <time>2019-11-11T09:58:37Z</time>
      </trkpt>
      <trkpt lat="49.28735" lon="1.11365">
        <ele>59.7</ele>
        <time>2019-11-11T09:58:38Z</time>
      </trkpt>
      <trkpt lat="49.28737" lon="1.11367">
        <ele>59.7</ele>
        <time>2019-11-11T09:58:39Z</time>
      </trkpt>
      <trkpt lat="49.2874" lon="1.1137">
        <ele>59.7</ele>
        <time>2019-11-11T09:58:40Z</time>
      </trkpt>
      <trkpt lat="49.28743" lon="1.11374">
        <ele>59.6</ele>
        <time>2019-11-11T09:58:41Z</time>
      </trkpt>
      <trkpt lat="49.28746" lon="1.11376">
        <ele>59.6</ele>
        <time>2019-11-11T09:58:42Z</time>
      </trkpt>
      <trkpt lat="49.28749" lon="1.11379">
        <ele>59.5</ele>
        <time>2019-11-11T09:58:43Z</time>
      </trkpt>
      <trkpt lat="49.28752" lon="1.11383">
        <ele>57.1</ele>
        <time>2019-11-11T09:58:44Z</time>
      </trkpt>
      <trkpt lat="49.28755" lon="1.11386">
        <ele>57.1</ele>
        <time>2019-11-11T09:58:45Z</time>
      </trkpt>
      <trkpt lat="49.28758" lon="1.1139">
        <ele>57.1</ele>
        <time>2019-11-11T09:58:46Z</time>
      </trkpt>
      <trkpt lat="49.28762" lon="1.11396">
        <ele>57.1</ele>
        <time>2019-11-11T09:58:47Z</time>
      </trkpt>
      <trkpt lat="49.28765" lon="1.114">
        <ele>57.1</ele>
        <time>2019-11-11T09:58:48Z</time>
      </trkpt>
      <trkpt lat="49.2877" lon="1.11404">
        <ele>57</ele>
        <time>2019-11-11T09:58:49Z</time>
      </trkpt>
      <trkpt lat="49.28774" lon="1.11409">
        <ele>57</ele>
        <time>2019-11-11T09:58:50Z</time>
      </trkpt>
      <trkpt lat="49.28778" lon="1.11413">
        <ele>56.9</ele>
        <time>2019-11-11T09:58:51Z</time>
      </trkpt>
      <trkpt lat="49.28781" lon="1.11418">
        <ele>56.1</ele>
        <time>2019-11-11T09:58:52Z</time>
      </trkpt>
      <trkpt lat="49.28785" lon="1.11423">
        <ele>55.9</ele>
        <time>2019-11-11T09:58:53Z</time>
      </trkpt>
      <trkpt lat="49.28789" lon="1.11427">
        <ele>55.7</ele>
        <time>2019-11-11T09:58:54Z</time>
      </trkpt>
      <trkpt lat="49.28792" lon="1.11432">
        <ele>55.6</ele>
        <time>2019-11-11T09:58:55Z</time>
      </trkpt>
      <trkpt lat="49.28795" lon="1.11436">
        <ele>55.5</ele>
        <time>2019-11-11T09:58:56Z</time>
      </trkpt>
      <trkpt lat="49.28798" lon="1.1144">
        <ele>55.4</ele>
        <time>2019-11-11T09:58:57Z</time>
      </trkpt>
      <trkpt lat="49.28801" lon="1.11445">
        <ele>55.3</ele>
        <time>2019-11-11T09:58:58Z</time>
      </trkpt>
      <trkpt lat="49.28804" lon="1.1145">
        <ele>55.1</ele>
        <time>2019-11-11T09:58:59Z</time>
      </trkpt>
      <trkpt lat="49.28808" lon="1.11454">
        <ele>55</ele>
        <time>2019-11-11T09:59:00Z</time>
      </trkpt>
      <trkpt lat="49.28812" lon="1.11458">
        <ele>54.9</ele>
        <time>2019-11-11T09:59:01Z</time>
      </trkpt>
      <trkpt lat="49.28815" lon="1.11463">
        <ele>54.7</ele>
        <time>2019-11-11T09:59:02Z</time>
      </trkpt>
      <trkpt lat="49.28819" lon="1.11467">
        <ele>54.5</ele>
        <time>2019-11-11T09:59:03Z</time>
      </trkpt>
      <trkpt lat="49.28822" lon="1.11471">
        <ele>54.3</ele>
        <time>2019-11-11T09:59:04Z</time>
      </trkpt>
      <trkpt lat="49.28826" lon="1.11476">
        <ele>54</ele>
        <time>2019-11-11T09:59:05Z</time>
      </trkpt>
      <trkpt lat="49.2883" lon="1.1148">
        <ele>53.8</ele>
        <time>2019-11-11T09:59:06Z</time>
      </trkpt>
      <trkpt lat="49.28833" lon="1.11485">
        <ele>53.4</ele>
        <time>2019-11-11T09:59:07Z</time>
      </trkpt>
      <trkpt lat="49.28837" lon="1.11489">
        <ele>51.9</ele>
        <time>2019-11-11T09:59:08Z</time>
      </trkpt>
      <trkpt lat="49.28841" lon="1.11494">
        <ele>51.9</ele>
        <time>2019-11-11T09:59:09Z</time>
      </trkpt>
      <trkpt lat="49.28845" lon="1.11499">
        <ele>51.8</ele>
        <time>2019-11-11T09:59:10Z</time>
      </trkpt>
      <trkpt lat="49.28849" lon="1.11504">
        <ele>50.5</ele>
        <time>2019-11-11T09:59:11Z</time>
      </trkpt>
      <trkpt lat="49.28853" lon="1.11508">
        <ele>50.2</ele>
        <time>2019-11-11T09:59:12Z</time>
      </trkpt>
      <trkpt lat="49.28856" lon="1.11513">
        <ele>49.9</ele>
        <time>2019-11-11T09:59:13Z</time>
      </trkpt>
      <trkpt lat="49.2886" lon="1.11519">
        <ele>49.7</ele>
        <time>2019-11-11T09:59:14Z</time>
      </trkpt>
      <trkpt lat="49.28864" lon="1.11524">
        <ele>49.5</ele>
        <time>2019-11-11T09:59:15Z</time>
      </trkpt>
      <trkpt lat="49.28868" lon="1.11529">
        <ele>49.3</ele>
        <time>2019-11-11T09:59:16Z</time>
      </trkpt>
      <trkpt lat="49.28871" lon="1.11534">
        <ele>49.2</ele>
        <time>2019-11-11T09:59:17Z</time>
      </trkpt>
      <trkpt lat="49.28875" lon="1.11539">
        <ele>49</ele>
        <time>2019-11-11T09:59:18Z</time>
      </trkpt>
      <trkpt lat="49.28879" lon="1.11544">
        <ele>48.9</ele>
        <time>2019-11-11T09:59:19Z</time>
      </trkpt>
      <trkpt lat="49.28882" lon="1.11548">
        <ele>48.9</ele>
        <time>2019-11-11T09:59:20Z</time>
      </trkpt>
      <trkpt lat="49.28886" lon="1.11552">
        <ele>48.8</ele>
        <time>2019-11-11T09:59:21Z</time>
      </trkpt>
      <trkpt lat="49.28888" lon="1.11556">
        <ele>48.7</ele>
        <time>2019-11-11T09:59:22Z</time>
      </trkpt>
      <trkpt lat="49.28891" lon="1.1156">
        <ele>48.7</ele>
        <time>2019-11-11T09:59:23Z</time>
      </trkpt>
      <trkpt lat="49.28893" lon="1.11563">
        <ele>48.6</ele>
        <time>2019-11-11T09:59:24Z</time>
      </trkpt>
      <trkpt lat="49.28896" lon="1.11567">
        <ele>48.6</ele>
        <time>2019-11-11T09:59:25Z</time>
      </trkpt>
      <trkpt lat="49.289" lon="1.11571">
        <ele>48.5</ele>
        <time>2019-11-11T09:59:26Z</time>
      </trkpt>
      <trkpt lat="49.28903" lon="1.11576">
        <ele>48.4</ele>
        <time>2019-11-11T09:59:27Z</time>
      </trkpt>
      <trkpt lat="49.28905" lon="1.11581">
        <ele>48.3</ele>
        <time>2019-11-11T09:59:28Z</time>
      </trkpt>
      <trkpt lat="49.28907" lon="1.11586">
        <ele>48.8</ele>
        <time>2019-11-11T09:59:29Z</time>
      </trkpt>
      <trkpt lat="49.28911" lon="1.1159">
        <ele>48.7</ele>
        <time>2019-11-11T09:59:30Z</time>
      </trkpt>
      <trkpt lat="49.28914" lon="1.11594">
        <ele>48.9</ele>
        <time>2019-11-11T09:59:31Z</time>
      </trkpt>
      <trkpt lat="49.28917" lon="1.11598">
        <ele>48.8</ele>
        <time>2019-11-11T09:59:32Z</time>
      </trkpt>
      <trkpt lat="49.2892" lon="1.11602">
        <ele>49</ele>
        <time>2019-11-11T09:59:33Z</time>
      </trkpt>
      <trkpt lat="49.28924" lon="1.11607">
        <ele>49.2</ele>
        <time>2019-11-11T09:59:34Z</time>
      </trkpt>
      <trkpt lat="49.28927" lon="1.11611">
        <ele>49.4</ele>
        <time>2019-11-11T09:59:35Z</time>
      </trkpt>
      <trkpt lat="49.28932" lon="1.11615">
        <ele>49.5</ele>
        <time>2019-11-11T09:59:36Z</time>
      </trkpt>
      <trkpt lat="49.28936" lon="1.1162">
        <ele>49.7</ele>
        <time>2019-11-11T09:59:37Z</time>
      </trkpt>
      <trkpt lat="49.28939" lon="1.11624">
        <ele>49.8</ele>
        <time>2019-11-11T09:59:38Z</time>
      </trkpt>
      <trkpt lat="49.28944" lon="1.11628">
        <ele>49.9</ele>
        <time>2019-11-11T09:59:39Z</time>
      </trkpt>
      <trkpt lat="49.28948" lon="1.11633">
        <ele>50</ele>
        <time>2019-11-11T09:59:40Z</time>
      </trkpt>
      <trkpt lat="49.28951" lon="1.11638">
        <ele>50.1</ele>
        <time>2019-11-11T09:59:41Z</time>
      </trkpt>
      <trkpt lat="49.28955" lon="1.11642">
        <ele>50.1</ele>
        <time>2019-11-11T09:59:42Z</time>
      </trkpt>
      <trkpt lat="49.28959" lon="1.11647">
        <ele>50.2</ele>
        <time>2019-11-11T09:59:43Z</time>
      </trkpt>
      <trkpt lat="49.28962" lon="1.11651">
        <ele>50.2</ele>
        <time>2019-11-11T09:59:44Z</time>
      </trkpt>
      <trkpt lat="49.28966" lon="1.11655">
        <ele>50.3</ele>
        <time>2019-11-11T09:59:45Z</time>
      </trkpt>
      <trkpt lat="49.28969" lon="1.11659">
        <ele>50.3</ele>
        <time>2019-11-11T09:59:46Z</time>
      </trkpt>
      <trkpt lat="49.28972" lon="1.11663">
        <ele>50.4</ele>
        <time>2019-11-11T09:59:47Z</time>
      </trkpt>
      <trkpt lat="49.28976" lon="1.11667">
        <ele>51</ele>
        <time>2019-11-11T09:59:48Z</time>
      </trkpt>
      <trkpt lat="49.2898" lon="1.11672">
        <ele>51</ele>
        <time>2019-11-11T09:59:49Z</time>
      </trkpt>
      <trkpt lat="49.28983" lon="1.11676">
        <ele>51</ele>
        <time>2019-11-11T09:59:50Z</time>
      </trkpt>
      <trkpt lat="49.28987" lon="1.1168">
        <ele>50.9</ele>
        <time>2019-11-11T09:59:51Z</time>
      </trkpt>
      <trkpt lat="49.2899" lon="1.11683">
        <ele>50.9</ele>
        <time>2019-11-11T09:59:52Z</time>
      </trkpt>
      <trkpt lat="49.28993" lon="1.11687">
        <ele>50.8</ele>
        <time>2019-11-11T09:59:53Z</time>
      </trkpt>
      <trkpt lat="49.28997" lon="1.11691">
        <ele>50.8</ele>
        <time>2019-11-11T09:59:54Z</time>
      </trkpt>
      <trkpt lat="49.29001" lon="1.11696">
        <ele>48.7</ele>
        <time>2019-11-11T09:59:55Z</time>
      </trkpt>
      <trkpt lat="49.29005" lon="1.117">
        <ele>48.5</ele>
        <time>2019-11-11T09:59:56Z</time>
      </trkpt>
      <trkpt lat="49.29009" lon="1.11705">
        <ele>48.3</ele>
        <time>2019-11-11T09:59:57Z</time>
      </trkpt>
      <trkpt lat="49.29013" lon="1.1171">
        <ele>48.1</ele>
        <time>2019-11-11T09:59:58Z</time>
      </trkpt>
      <trkpt lat="49.29016" lon="1.11715">
        <ele>47.9</ele>
        <time>2019-11-11T09:59:59Z</time>
      </trkpt>
      <trkpt lat="49.2902" lon="1.11719">
        <ele>47.8</ele>
        <time>2019-11-11T10:00:00Z</time>
      </trkpt>
      <trkpt lat="49.29023" lon="1.11724">
        <ele>47.7</ele>
        <time>2019-11-11T10:00:01Z</time>
      </trkpt>
      <trkpt lat="49.29026" lon="1.11728">
        <ele>47.6</ele>
        <time>2019-11-11T10:00:02Z</time>
      </trkpt>
      <trkpt lat="49.2903" lon="1.11733">
        <ele>47.4</ele>
        <time>2019-11-11T10:00:03Z</time>
      </trkpt>
      <trkpt lat="49.29034" lon="1.11738">
        <ele>47.3</ele>
        <time>2019-11-11T10:00:04Z</time>
      </trkpt>
      <trkpt lat="49.29038" lon="1.11743">
        <ele>47.1</ele>
        <time>2019-11-11T10:00:05Z</time>
      </trkpt>
      <trkpt lat="49.29042" lon="1.11748">
        <ele>46.9</ele>
        <time>2019-11-11T10:00:06Z</time>
      </trkpt>
      <trkpt lat="49.29046" lon="1.11752">
        <ele>45.7</ele>
        <time>2019-11-11T10:00:07Z</time>
      </trkpt>
      <trkpt lat="49.2905" lon="1.11757">
        <ele>45.6</ele>
        <time>2019-11-11T10:00:08Z</time>
      </trkpt>
      <trkpt lat="49.29054" lon="1.11761">
        <ele>45.4</ele>
        <time>2019-11-11T10:00:09Z</time>
      </trkpt>
      <trkpt lat="49.29058" lon="1.11766">
        <ele>45.3</ele>
        <time>2019-11-11T10:00:10Z</time>
      </trkpt>
      <trkpt lat="49.29062" lon="1.11771">
        <ele>45.3</ele>
        <time>2019-11-11T10:00:11Z</time>
      </trkpt>
      <trkpt lat="49.29066" lon="1.11776">
        <ele>45.2</ele>
        <time>2019-11-11T10:00:12Z</time>
      </trkpt>
      <trkpt lat="49.2907" lon="1.11781">
        <ele>45.2</ele>
        <time>2019-11-11T10:00:13Z</time>
      </trkpt>
      <trkpt lat="49.29074" lon="1.11785">
        <ele>45.2</ele>
        <time>2019-11-11T10:00:14Z</time>
      </trkpt>
      <trkpt lat="49.29078" lon="1.1179">
        <ele>45.1</ele>
        <time>2019-11-11T10:00:15Z</time>
      </trkpt>
      <trkpt lat="49.29081" lon="1.11794">
        <ele>45.1</ele>
        <time>2019-11-11T10:00:16Z</time>
      </trkpt>
      <trkpt lat="49.29085" lon="1.11799">
        <ele>44.2</ele>
        <time>2019-11-11T10:00:17Z</time>
      </trkpt>
      <trkpt lat="49.29089" lon="1.11804">
        <ele>44.2</ele>
        <time>2019-11-11T10:00:18Z</time>
      </trkpt>
      <trkpt lat="49.29093" lon="1.11809">
        <ele>44.2</ele>
        <time>2019-11-11T10:00:19Z</time>
      </trkpt>
      <trkpt lat="49.29097" lon="1.11814">
        <ele>44.2</ele>
        <time>2019-11-11T10:00:20Z</time>
      </trkpt>
      <trkpt lat="49.291" lon="1.11819">
        <ele>44.3</ele>
        <time>2019-11-11T10:00:21Z</time>
      </trkpt>
      <trkpt lat="49.29103" lon="1.11823">
        <ele>44.3</ele>
        <time>2019-11-11T10:00:22Z</time>
      </trkpt>
      <trkpt lat="49.29107" lon="1.11828">
        <ele>44.4</ele>
        <time>2019-11-11T10:00:23Z</time>
      </trkpt>
      <trkpt lat="49.2911" lon="1.11832">
        <ele>44.4</ele>
        <time>2019-11-11T10:00:24Z</time>
      </trkpt>
      <trkpt lat="49.29114" lon="1.11836">
        <ele>45.8</ele>
        <time>2019-11-11T10:00:25Z</time>
      </trkpt>
      <trkpt lat="49.29118" lon="1.11841">
        <ele>46</ele>
        <time>2019-11-11T10:00:26Z</time>
      </trkpt>
      <trkpt lat="49.29121" lon="1.11845">
        <ele>46.1</ele>
        <time>2019-11-11T10:00:27Z</time>
      </trkpt>
      <trkpt lat="49.29125" lon="1.11848">
        <ele>46.2</ele>
        <time>2019-11-11T10:00:28Z</time>
      </trkpt>
      <trkpt lat="49.29129" lon="1.11853">
        <ele>46.3</ele>
        <time>2019-11-11T10:00:29Z</time>
      </trkpt>
      <trkpt lat="49.29132" lon="1.11858">
        <ele>46.4</ele>
        <time>2019-11-11T10:00:30Z</time>
      </trkpt>
      <trkpt lat="49.29136" lon="1.11862">
        <ele>46.5</ele>
        <time>2019-11-11T10:00:31Z</time>
      </trkpt>
      <trkpt lat="49.2914" lon="1.11867">
        <ele>46.6</ele>
        <time>2019-11-11T10:00:32Z</time>
      </trkpt>
      <trkpt lat="49.29143" lon="1.11872">
        <ele>46.7</ele>
        <time>2019-11-11T10:00:33Z</time>
      </trkpt>
      <trkpt lat="49.29146" lon="1.11876">
        <ele>46.7</ele>
        <time>2019-11-11T10:00:34Z</time>
      </trkpt>
      <trkpt lat="49.2915" lon="1.1188">
        <ele>46.8</ele>
        <time>2019-11-11T10:00:35Z</time>
      </trkpt>
      <trkpt lat="49.29154" lon="1.11884">
        <ele>46.9</ele>
        <time>2019-11-11T10:00:36Z</time>
      </trkpt>
      <trkpt lat="49.29157" lon="1.11889">
        <ele>47</ele>
        <time>2019-11-11T10:00:37Z</time>
      </trkpt>
      <trkpt lat="49.29161" lon="1.11892">
        <ele>47.1</ele>
        <time>2019-11-11T10:00:38Z</time>
      </trkpt>
      <trkpt lat="49.29165" lon="1.11897">
        <ele>47.2</ele>
        <time>2019-11-11T10:00:39Z</time>
      </trkpt>
      <trkpt lat="49.29168" lon="1.11901">
        <ele>46.9</ele>
        <time>2019-11-11T10:00:40Z</time>
      </trkpt>
      <trkpt lat="49.29171" lon="1.11904">
        <ele>47</ele>
        <time>2019-11-11T10:00:41Z</time>
      </trkpt>
      <trkpt lat="49.29175" lon="1.11909">
        <ele>47.1</ele>
        <time>2019-11-11T10:00:42Z</time>
      </trkpt>
      <trkpt lat="49.29178" lon="1.11913">
        <ele>47</ele>
        <time>2019-11-11T10:00:43Z</time>
      </trkpt>
      <trkpt lat="49.29182" lon="1.11918">
        <ele>47.4</ele>
        <time>2019-11-11T10:00:44Z</time>
      </trkpt>
      <trkpt lat="49.29186" lon="1.11922">
        <ele>47.2</ele>
        <time>2019-11-11T10:00:45Z</time>
      </trkpt>
      <trkpt lat="49.2919" lon="1.11927">
        <ele>47.1</ele>
        <time>2019-11-11T10:00:46Z</time>
      </trkpt>
      <trkpt lat="49.29194" lon="1.11932">
        <ele>46.9</ele>
        <time>2019-11-11T10:00:47Z</time>
      </trkpt>
      <trkpt lat="49.29197" lon="1.11937">
        <ele>46.9</ele>
        <time>2019-11-11T10:00:48Z</time>
      </trkpt>
      <trkpt lat="49.29201" lon="1.11942">
        <ele>46.8</ele>
        <time>2019-11-11T10:00:49Z</time>
      </trkpt>
      <trkpt lat="49.29205" lon="1.11947">
        <ele>46.7</ele>
        <time>2019-11-11T10:00:50Z</time>
      </trkpt>
      <trkpt lat="49.29209" lon="1.11951">
        <ele>46.7</ele>
        <time>2019-11-11T10:00:51Z</time>
      </trkpt>
      <trkpt lat="49.29213" lon="1.11956">
        <ele>46.6</ele>
        <time>2019-11-11T10:00:52Z</time>
      </trkpt>
      <trkpt lat="49.29217" lon="1.11961">
        <ele>46.6</ele>
        <time>2019-11-11T10:00:53Z</time>
      </trkpt>
      <trkpt lat="49.2922" lon="1.11966">
        <ele>46.6</ele>
        <time>2019-11-11T10:00:54Z</time>
      </trkpt>
      <trkpt lat="49.29224" lon="1.11971">
        <ele>46.6</ele>
        <time>2019-11-11T10:00:55Z</time>
      </trkpt>
      <trkpt lat="49.29228" lon="1.11976">
        <ele>46.5</ele>
        <time>2019-11-11T10:00:56Z</time>
      </trkpt>
      <trkpt lat="49.29232" lon="1.1198">
        <ele>46.5</ele>
        <time>2019-11-11T10:00:57Z</time>
      </trkpt>
      <trkpt lat="49.29235" lon="1.11985">
        <ele>46.4</ele>
        <time>2019-11-11T10:00:58Z</time>
      </trkpt>
      <trkpt lat="49.29239" lon="1.1199">
        <ele>46.3</ele>
        <time>2019-11-11T10:00:59Z</time>
      </trkpt>
      <trkpt lat="49.29243" lon="1.11995">
        <ele>46.2</ele>
        <time>2019-11-11T10:01:00Z</time>
      </trkpt>
      <trkpt lat="49.29247" lon="1.12">
        <ele>46.3</ele>
        <time>2019-11-11T10:01:01Z</time>
      </trkpt>
      <trkpt lat="49.29251" lon="1.12005">
        <ele>45.9</ele>
        <time>2019-11-11T10:01:02Z</time>
      </trkpt>
      <trkpt lat="49.29255" lon="1.12009">
        <ele>45.8</ele>
        <time>2019-11-11T10:01:03Z</time>
      </trkpt>
      <trkpt lat="49.29259" lon="1.12014">
        <ele>45.7</ele>
        <time>2019-11-11T10:01:04Z</time>
      </trkpt>
      <trkpt lat="49.29262" lon="1.12019">
        <ele>45.7</ele>
        <time>2019-11-11T10:01:05Z</time>
      </trkpt>
      <trkpt lat="49.29266" lon="1.12024">
        <ele>45.6</ele>
        <time>2019-11-11T10:01:06Z</time>
      </trkpt>
      <trkpt lat="49.2927" lon="1.12028">
        <ele>45.6</ele>
        <time>2019-11-11T10:01:07Z</time>
      </trkpt>
      <trkpt lat="49.29274" lon="1.12033">
        <ele>45.5</ele>
        <time>2019-11-11T10:01:08Z</time>
      </trkpt>
      <trkpt lat="49.29278" lon="1.12037">
        <ele>45.5</ele>
        <time>2019-11-11T10:01:09Z</time>
      </trkpt>
      <trkpt lat="49.29281" lon="1.12042">
        <ele>45.5</ele>
        <time>2019-11-11T10:01:10Z</time>
      </trkpt>
      <trkpt lat="49.29284" lon="1.12046">
        <ele>45.4</ele>
        <time>2019-11-11T10:01:11Z</time>
      </trkpt>
      <trkpt lat="49.29287" lon="1.1205">
        <ele>45.4</ele>
        <time>2019-11-11T10:01:12Z</time>
      </trkpt>
      <trkpt lat="49.29291" lon="1.12053">
        <ele>45.3</ele>
        <time>2019-11-11T10:01:13Z</time>
      </trkpt>
      <trkpt lat="49.29294" lon="1.12058">
        <ele>45.2</ele>
        <time>2019-11-11T10:01:14Z</time>
      </trkpt>
      <trkpt lat="49.29298" lon="1.12063">
        <ele>45.1</ele>
        <time>2019-11-11T10:01:15Z</time>
      </trkpt>
      <trkpt lat="49.29301" lon="1.12067">
        <ele>45</ele>
        <time>2019-11-11T10:01:16Z</time>
      </trkpt>
      <trkpt lat="49.29305" lon="1.12071">
        <ele>44.8</ele>
        <time>2019-11-11T10:01:17Z</time>
      </trkpt>
      <trkpt lat="49.29309" lon="1.12076">
        <ele>44.6</ele>
        <time>2019-11-11T10:01:18Z</time>
      </trkpt>
      <trkpt lat="49.29313" lon="1.12081">
        <ele>44.4</ele>
        <time>2019-11-11T10:01:19Z</time>
      </trkpt>
      <trkpt lat="49.29317" lon="1.12086">
        <ele>43.9</ele>
        <time>2019-11-11T10:01:20Z</time>
      </trkpt>
      <trkpt lat="49.2932" lon="1.12091">
        <ele>43.9</ele>
        <time>2019-11-11T10:01:21Z</time>
      </trkpt>
      <trkpt lat="49.29324" lon="1.12097">
        <ele>43.8</ele>
        <time>2019-11-11T10:01:22Z</time>
      </trkpt>
      <trkpt lat="49.29328" lon="1.12101">
        <ele>43.8</ele>
        <time>2019-11-11T10:01:23Z</time>
      </trkpt>
      <trkpt lat="49.29332" lon="1.12105">
        <ele>43.9</ele>
        <time>2019-11-11T10:01:24Z</time>
      </trkpt>
      <trkpt lat="49.29335" lon="1.1211">
        <ele>42.5</ele>
        <time>2019-11-11T10:01:25Z</time>
      </trkpt>
      <trkpt lat="49.29339" lon="1.12114">
        <ele>42.4</ele>
        <time>2019-11-11T10:01:26Z</time>
      </trkpt>
      <trkpt lat="49.29342" lon="1.12119">
        <ele>42.4</ele>
        <time>2019-11-11T10:01:27Z</time>
      </trkpt>
      <trkpt lat="49.29346" lon="1.12122">
        <ele>42.3</ele>
        <time>2019-11-11T10:01:28Z</time>
      </trkpt>
      <trkpt lat="49.29349" lon="1.12125">
        <ele>42.3</ele>
        <time>2019-11-11T10:01:29Z</time>
      </trkpt>
      <trkpt lat="49.29352" lon="1.12126">
        <ele>42.3</ele>
        <time>2019-11-11T10:01:30Z</time>
      </trkpt>
      <trkpt lat="49.29355" lon="1.12127">
        <ele>42.3</ele>
        <time>2019-11-11T10:01:31Z</time>
      </trkpt>
      <trkpt lat="49.29358" lon="1.12128">
        <ele>42.3</ele>
        <time>2019-11-11T10:01:32Z</time>
      </trkpt>
      <trkpt lat="49.2936" lon="1.1213">
        <ele>42.3</ele>
        <time>2019-11-11T10:01:33Z</time>
      </trkpt>
      <trkpt lat="49.29362" lon="1.12132">
        <ele>42.3</ele>
        <time>2019-11-11T10:01:34Z</time>
      </trkpt>
      <trkpt lat="49.29364" lon="1.12135">
        <ele>42.2</ele>
        <time>2019-11-11T10:01:35Z</time>
      </trkpt>
      <trkpt lat="49.29366" lon="1.12139">
        <ele>42.2</ele>
        <time>2019-11-11T10:01:36Z</time>
      </trkpt>
      <trkpt lat="49.29368" lon="1.12144">
        <ele>42.2</ele>
        <time>2019-11-11T10:01:37Z</time>
      </trkpt>
      <trkpt lat="49.29369" lon="1.12149">
        <ele>42.2</ele>
        <time>2019-11-11T10:01:38Z</time>
      </trkpt>
      <trkpt lat="49.2937" lon="1.12154">
        <ele>42.2</ele>
        <time>2019-11-11T10:01:39Z</time>
      </trkpt>
      <trkpt lat="49.29371" lon="1.12159">
        <ele>42.2</ele>
        <time>2019-11-11T10:01:40Z</time>
      </trkpt>
      <trkpt lat="49.29372" lon="1.12164">
        <ele>42.2</ele>
        <time>2019-11-11T10:01:41Z</time>
      </trkpt>
      <trkpt lat="49.29373" lon="1.1217">
        <ele>42.2</ele>
        <time>2019-11-11T10:01:42Z</time>
      </trkpt>
      <trkpt lat="49.29374" lon="1.12176">
        <ele>42.2</ele>
        <time>2019-11-11T10:01:43Z</time>
      </trkpt>
      <trkpt lat="49.29375" lon="1.12182">
        <ele>42.2</ele>
        <time>2019-11-11T10:01:44Z</time>
      </trkpt>
      <trkpt lat="49.29376" lon="1.12188">
        <ele>42.2</ele>
        <time>2019-11-11T10:01:45Z</time>
      </trkpt>
      <trkpt lat="49.29377" lon="1.12193">
        <ele>42.2</ele>
        <time>2019-11-11T10:01:46Z</time>
      </trkpt>
      <trkpt lat="49.29378" lon="1.12199">
        <ele>42.2</ele>
        <time>2019-11-11T10:01:47Z</time>
      </trkpt>
      <trkpt lat="49.29379" lon="1.12204">
        <ele>42.2</ele>
        <time>2019-11-11T10:01:48Z</time>
      </trkpt>
      <trkpt lat="49.2938" lon="1.1221">
        <ele>42.2</ele>
        <time>2019-11-11T10:01:49Z</time>
      </trkpt>
      <trkpt lat="49.29381" lon="1.12216">
        <ele>42.2</ele>
        <time>2019-11-11T10:01:50Z</time>
      </trkpt>
      <trkpt lat="49.29382" lon="1.12221">
        <ele>42.3</ele>
        <time>2019-11-11T10:01:51Z</time>
      </trkpt>
      <trkpt lat="49.29383" lon="1.12227">
        <ele>42.3</ele>
        <time>2019-11-11T10:01:52Z</time>
      </trkpt>
      <trkpt lat="49.29384" lon="1.12233">
        <ele>42.3</ele>
        <time>2019-11-11T10:01:53Z</time>
      </trkpt>
      <trkpt lat="49.29385" lon="1.12239">
        <ele>42.3</ele>
        <time>2019-11-11T10:01:54Z</time>
      </trkpt>
      <trkpt lat="49.29386" lon="1.12245">
        <ele>42.3</ele>
        <time>2019-11-11T10:01:55Z</time>
      </trkpt>
      <trkpt lat="49.29387" lon="1.12251">
        <ele>43</ele>
        <time>2019-11-11T10:01:56Z</time>
      </trkpt>
      <trkpt lat="49.29388" lon="1.12257">
        <ele>43</ele>
        <time>2019-11-11T10:01:57Z</time>
      </trkpt>
      <trkpt lat="49.29389" lon="1.12263">
        <ele>43.1</ele>
        <time>2019-11-11T10:01:58Z</time>
      </trkpt>
      <trkpt lat="49.2939" lon="1.12268">
        <ele>43.1</ele>
        <time>2019-11-11T10:01:59Z</time>
      </trkpt>
      <trkpt lat="49.29391" lon="1.12274">
        <ele>43.2</ele>
        <time>2019-11-11T10:02:00Z</time>
      </trkpt>
      <trkpt lat="49.29392" lon="1.12281">
        <ele>43.3</ele>
        <time>2019-11-11T10:02:01Z</time>
      </trkpt>
      <trkpt lat="49.29393" lon="1.12287">
        <ele>43.4</ele>
        <time>2019-11-11T10:02:02Z</time>
      </trkpt>
      <trkpt lat="49.29394" lon="1.12293">
        <ele>43.5</ele>
        <time>2019-11-11T10:02:03Z</time>
      </trkpt>
      <trkpt lat="49.29395" lon="1.123">
        <ele>43.7</ele>
        <time>2019-11-11T10:02:04Z</time>
      </trkpt>
      <trkpt lat="49.29396" lon="1.12307">
        <ele>43.8</ele>
        <time>2019-11-11T10:02:05Z</time>
      </trkpt>
      <trkpt lat="49.29397" lon="1.12313">
        <ele>43.9</ele>
        <time>2019-11-11T10:02:06Z</time>
      </trkpt>
      <trkpt lat="49.29397" lon="1.1232">
        <ele>44</ele>
        <time>2019-11-11T10:02:07Z</time>
      </trkpt>
      <trkpt lat="49.29397" lon="1.12327">
        <ele>44.2</ele>
        <time>2019-11-11T10:02:08Z</time>
      </trkpt>
      <trkpt lat="49.29397" lon="1.12334">
        <ele>45.4</ele>
        <time>2019-11-11T10:02:09Z</time>
      </trkpt>
      <trkpt lat="49.29396" lon="1.1234">
        <ele>45.5</ele>
        <time>2019-11-11T10:02:10Z</time>
      </trkpt>
      <trkpt lat="49.29394" lon="1.12347">
        <ele>45.6</ele>
        <time>2019-11-11T10:02:11Z</time>
      </trkpt>
      <trkpt lat="49.29392" lon="1.12353">
        <ele>45.7</ele>
        <time>2019-11-11T10:02:12Z</time>
      </trkpt>
      <trkpt lat="49.2939" lon="1.12359">
        <ele>45.8</ele>
        <time>2019-11-11T10:02:13Z</time>
      </trkpt>
      <trkpt lat="49.29387" lon="1.12364">
        <ele>45.9</ele>
        <time>2019-11-11T10:02:14Z</time>
      </trkpt>
      <trkpt lat="49.29384" lon="1.1237">
        <ele>46</ele>
        <time>2019-11-11T10:02:15Z</time>
      </trkpt>
      <trkpt lat="49.2938" lon="1.12374">
        <ele>46</ele>
        <time>2019-11-11T10:02:16Z</time>
      </trkpt>
      <trkpt lat="49.29377" lon="1.12379">
        <ele>46.1</ele>
        <time>2019-11-11T10:02:17Z</time>
      </trkpt>
      <trkpt lat="49.29373" lon="1.12383">
        <ele>46.1</ele>
        <time>2019-11-11T10:02:18Z</time>
      </trkpt>
      <trkpt lat="49.2937" lon="1.12387">
        <ele>46.2</ele>
        <time>2019-11-11T10:02:19Z</time>
      </trkpt>
      <trkpt lat="49.29367" lon="1.12391">
        <ele>46.2</ele>
        <time>2019-11-11T10:02:20Z</time>
      </trkpt>
      <trkpt lat="49.29364" lon="1.12395">
        <ele>46.3</ele>
        <time>2019-11-11T10:02:21Z</time>
      </trkpt>
      <trkpt lat="49.29361" lon="1.12398">
        <ele>46.3</ele>
        <time>2019-11-11T10:02:22Z</time>
      </trkpt>
      <trkpt lat="49.29358" lon="1.12401">
        <ele>46.4</ele>
        <time>2019-11-11T10:02:23Z</time>
      </trkpt>
      <trkpt lat="49.29355" lon="1.12405">
        <ele>46.4</ele>
        <time>2019-11-11T10:02:24Z</time>
      </trkpt>
      <trkpt lat="49.29351" lon="1.12408">
        <ele>46.5</ele>
        <time>2019-11-11T10:02:25Z</time>
      </trkpt>
      <trkpt lat="49.29348" lon="1.12412">
        <ele>46.6</ele>
        <time>2019-11-11T10:02:26Z</time>
      </trkpt>
      <trkpt lat="49.29345" lon="1.12416">
        <ele>46.7</ele>
        <time>2019-11-11T10:02:27Z</time>
      </trkpt>
      <trkpt lat="49.29342" lon="1.1242">
        <ele>47.4</ele>
        <time>2019-11-11T10:02:28Z</time>
      </trkpt>
      <trkpt lat="49.29339" lon="1.12425">
        <ele>47.4</ele>
        <time>2019-11-11T10:02:29Z</time>
      </trkpt>
      <trkpt lat="49.29336" lon="1.1243">
        <ele>47.5</ele>
        <time>2019-11-11T10:02:30Z</time>
      </trkpt>
      <trkpt lat="49.29333" lon="1.12436">
        <ele>47.7</ele>
        <time>2019-11-11T10:02:31Z</time>
      </trkpt>
      <trkpt lat="49.2933" lon="1.12441">
        <ele>47.9</ele>
        <time>2019-11-11T10:02:32Z</time>
      </trkpt>
      <trkpt lat="49.29328" lon="1.12447">
        <ele>48</ele>
        <time>2019-11-11T10:02:33Z</time>
      </trkpt>
      <trkpt lat="49.29326" lon="1.12453">
        <ele>48.1</ele>
        <time>2019-11-11T10:02:34Z</time>
      </trkpt>
      <trkpt lat="49.29324" lon="1.12459">
        <ele>48.2</ele>
        <time>2019-11-11T10:02:35Z</time>
      </trkpt>
      <trkpt lat="49.29323" lon="1.12465">
        <ele>48.3</ele>
        <time>2019-11-11T10:02:36Z</time>
      </trkpt>
      <trkpt lat="49.29321" lon="1.12473">
        <ele>48.4</ele>
        <time>2019-11-11T10:02:37Z</time>
      </trkpt>
      <trkpt lat="49.2932" lon="1.12479">
        <ele>48.4</ele>
        <time>2019-11-11T10:02:38Z</time>
      </trkpt>
      <trkpt lat="49.29319" lon="1.12486">
        <ele>48.5</ele>
        <time>2019-11-11T10:02:39Z</time>
      </trkpt>
      <trkpt lat="49.29318" lon="1.12493">
        <ele>48.6</ele>
        <time>2019-11-11T10:02:40Z</time>
      </trkpt>
      <trkpt lat="49.29317" lon="1.125">
        <ele>48.8</ele>
        <time>2019-11-11T10:02:41Z</time>
      </trkpt>
      <trkpt lat="49.29316" lon="1.12506">
        <ele>48.7</ele>
        <time>2019-11-11T10:02:42Z</time>
      </trkpt>
      <trkpt lat="49.29315" lon="1.12513">
        <ele>48.7</ele>
        <time>2019-11-11T10:02:43Z</time>
      </trkpt>
      <trkpt lat="49.29314" lon="1.12519">
        <ele>48.7</ele>
        <time>2019-11-11T10:02:44Z</time>
      </trkpt>
      <trkpt lat="49.29313" lon="1.12526">
        <ele>48.6</ele>
        <time>2019-11-11T10:02:45Z</time>
      </trkpt>
      <trkpt lat="49.29312" lon="1.12533">
        <ele>48.6</ele>
        <time>2019-11-11T10:02:46Z</time>
      </trkpt>
      <trkpt lat="49.29311" lon="1.12539">
        <ele>48.6</ele>
        <time>2019-11-11T10:02:47Z</time>
      </trkpt>
      <trkpt lat="49.2931" lon="1.12546">
        <ele>48.6</ele>
        <time>2019-11-11T10:02:48Z</time>
      </trkpt>
      <trkpt lat="49.2931" lon="1.12552">
        <ele>48.6</ele>
        <time>2019-11-11T10:02:49Z</time>
      </trkpt>
      <trkpt lat="49.29309" lon="1.12559">
        <ele>48.6</ele>
        <time>2019-11-11T10:02:50Z</time>
      </trkpt>
      <trkpt lat="49.29308" lon="1.12566">
        <ele>48.6</ele>
        <time>2019-11-11T10:02:51Z</time>
      </trkpt>
      <trkpt lat="49.29307" lon="1.12572">
        <ele>48.6</ele>
        <time>2019-11-11T10:02:52Z</time>
      </trkpt>
      <trkpt lat="49.29306" lon="1.12579">
        <ele>48.6</ele>
        <time>2019-11-11T10:02:53Z</time>
      </trkpt>
      <trkpt lat="49.29305" lon="1.12586">
        <ele>48.9</ele>
        <time>2019-11-11T10:02:54Z</time>
      </trkpt>
      <trkpt lat="49.29304" lon="1.12593">
        <ele>48.9</ele>
        <time>2019-11-11T10:02:55Z</time>
      </trkpt>
      <trkpt lat="49.29304" lon="1.126">
        <ele>48.9</ele>
        <time>2019-11-11T10:02:56Z</time>
      </trkpt>
      <trkpt lat="49.29303" lon="1.12606">
        <ele>49</ele>
        <time>2019-11-11T10:02:57Z</time>
      </trkpt>
      <trkpt lat="49.29302" lon="1.12613">
        <ele>49</ele>
        <time>2019-11-11T10:02:58Z</time>
      </trkpt>
      <trkpt lat="49.29302" lon="1.1262">
        <ele>49</ele>
        <time>2019-11-11T10:02:59Z</time>
      </trkpt>
      <trkpt lat="49.29301" lon="1.12627">
        <ele>49.1</ele>
        <time>2019-11-11T10:03:00Z</time>
      </trkpt>
      <trkpt lat="49.29301" lon="1.12634">
        <ele>49.1</ele>
        <time>2019-11-11T10:03:01Z</time>
      </trkpt>
      <trkpt lat="49.293" lon="1.12641">
        <ele>49.2</ele>
        <time>2019-11-11T10:03:02Z</time>
      </trkpt>
      <trkpt lat="49.29299" lon="1.12648">
        <ele>49.2</ele>
        <time>2019-11-11T10:03:03Z</time>
      </trkpt>
      <trkpt lat="49.29298" lon="1.12655">
        <ele>49.2</ele>
        <time>2019-11-11T10:03:04Z</time>
      </trkpt>
      <trkpt lat="49.29297" lon="1.12662">
        <ele>49.2</ele>
        <time>2019-11-11T10:03:05Z</time>
      </trkpt>
      <trkpt lat="49.29297" lon="1.12669">
        <ele>49.9</ele>
        <time>2019-11-11T10:03:06Z</time>
      </trkpt>
      <trkpt lat="49.29296" lon="1.12676">
        <ele>49.9</ele>
        <time>2019-11-11T10:03:07Z</time>
      </trkpt>
      <trkpt lat="49.29295" lon="1.12683">
        <ele>49.9</ele>
        <time>2019-11-11T10:03:08Z</time>
      </trkpt>
      <trkpt lat="49.29295" lon="1.1269">
        <ele>49.9</ele>
        <time>2019-11-11T10:03:09Z</time>
      </trkpt>
      <trkpt lat="49.29294" lon="1.12697">
        <ele>49.9</ele>
        <time>2019-11-11T10:03:10Z</time>
      </trkpt>
      <trkpt lat="49.29293" lon="1.12704">
        <ele>50</ele>
        <time>2019-11-11T10:03:11Z</time>
      </trkpt>
      <trkpt lat="49.29292" lon="1.1271">
        <ele>50</ele>
        <time>2019-11-11T10:03:12Z</time>
      </trkpt>
      <trkpt lat="49.29291" lon="1.12718">
        <ele>50.1</ele>
        <time>2019-11-11T10:03:13Z</time>
      </trkpt>
      <trkpt lat="49.2929" lon="1.12725">
        <ele>50.1</ele>
        <time>2019-11-11T10:03:14Z</time>
      </trkpt>
      <trkpt lat="49.2929" lon="1.12732">
        <ele>50.1</ele>
        <time>2019-11-11T10:03:15Z</time>
      </trkpt>
      <trkpt lat="49.29289" lon="1.12739">
        <ele>50.1</ele>
        <time>2019-11-11T10:03:16Z</time>
      </trkpt>
      <trkpt lat="49.29288" lon="1.12746">
        <ele>50.2</ele>
        <time>2019-11-11T10:03:17Z</time>
      </trkpt>
      <trkpt lat="49.29287" lon="1.12753">
        <ele>50.9</ele>
        <time>2019-11-11T10:03:18Z</time>
      </trkpt>
      <trkpt lat="49.29286" lon="1.12761">
        <ele>51</ele>
        <time>2019-11-11T10:03:19Z</time>
      </trkpt>
      <trkpt lat="49.29285" lon="1.12768">
        <ele>51</ele>
        <time>2019-11-11T10:03:20Z</time>
      </trkpt>
      <trkpt lat="49.29285" lon="1.12775">
        <ele>51</ele>
        <time>2019-11-11T10:03:21Z</time>
      </trkpt>
      <trkpt lat="49.29284" lon="1.12782">
        <ele>51.1</ele>
        <time>2019-11-11T10:03:22Z</time>
      </trkpt>
      <trkpt lat="49.29283" lon="1.12789">
        <ele>51.2</ele>
        <time>2019-11-11T10:03:23Z</time>
      </trkpt>
      <trkpt lat="49.29282" lon="1.12796">
        <ele>51.2</ele>
        <time>2019-11-11T10:03:24Z</time>
      </trkpt>
      <trkpt lat="49.29281" lon="1.12803">
        <ele>51.2</ele>
        <time>2019-11-11T10:03:25Z</time>
      </trkpt>
      <trkpt lat="49.29281" lon="1.1281">
        <ele>51.3</ele>
        <time>2019-11-11T10:03:26Z</time>
      </trkpt>
      <trkpt lat="49.2928" lon="1.12817">
        <ele>51.3</ele>
        <time>2019-11-11T10:03:27Z</time>
      </trkpt>
      <trkpt lat="49.29279" lon="1.12824">
        <ele>51.3</ele>
        <time>2019-11-11T10:03:28Z</time>
      </trkpt>
      <trkpt lat="49.29278" lon="1.12831">
        <ele>51.3</ele>
        <time>2019-11-11T10:03:29Z</time>
      </trkpt>
      <trkpt lat="49.29278" lon="1.12838">
        <ele>52.5</ele>
        <time>2019-11-11T10:03:30Z</time>
      </trkpt>
      <trkpt lat="49.29277" lon="1.12845">
        <ele>52.5</ele>
        <time>2019-11-11T10:03:31Z</time>
      </trkpt>
      <trkpt lat="49.29276" lon="1.12852">
        <ele>52.6</ele>
        <time>2019-11-11T10:03:32Z</time>
      </trkpt>
      <trkpt lat="49.29275" lon="1.12859">
        <ele>52.7</ele>
        <time>2019-11-11T10:03:33Z</time>
      </trkpt>
      <trkpt lat="49.29275" lon="1.12866">
        <ele>52.9</ele>
        <time>2019-11-11T10:03:34Z</time>
      </trkpt>
      <trkpt lat="49.29274" lon="1.12873">
        <ele>53</ele>
        <time>2019-11-11T10:03:35Z</time>
      </trkpt>
      <trkpt lat="49.29273" lon="1.1288">
        <ele>53.1</ele>
        <time>2019-11-11T10:03:36Z</time>
      </trkpt>
      <trkpt lat="49.29273" lon="1.12887">
        <ele>53.1</ele>
        <time>2019-11-11T10:03:37Z</time>
      </trkpt>
      <trkpt lat="49.29272" lon="1.12894">
        <ele>53.2</ele>
        <time>2019-11-11T10:03:38Z</time>
      </trkpt>
      <trkpt lat="49.29271" lon="1.12901">
        <ele>53.2</ele>
        <time>2019-11-11T10:03:39Z</time>
      </trkpt>
      <trkpt lat="49.2927" lon="1.12908">
        <ele>53.2</ele>
        <time>2019-11-11T10:03:40Z</time>
      </trkpt>
      <trkpt lat="49.2927" lon="1.12915">
        <ele>53.3</ele>
        <time>2019-11-11T10:03:41Z</time>
      </trkpt>
      <trkpt lat="49.29269" lon="1.12922">
        <ele>54.3</ele>
        <time>2019-11-11T10:03:42Z</time>
      </trkpt>
      <trkpt lat="49.29268" lon="1.12929">
        <ele>54.4</ele>
        <time>2019-11-11T10:03:43Z</time>
      </trkpt>
      <trkpt lat="49.29267" lon="1.12936">
        <ele>54.5</ele>
        <time>2019-11-11T10:03:44Z</time>
      </trkpt>
      <trkpt lat="49.29266" lon="1.12943">
        <ele>54.7</ele>
        <time>2019-11-11T10:03:45Z</time>
      </trkpt>
      <trkpt lat="49.29266" lon="1.1295">
        <ele>54.9</ele>
        <time>2019-11-11T10:03:46Z</time>
      </trkpt>
      <trkpt lat="49.29265" lon="1.12958">
        <ele>55</ele>
        <time>2019-11-11T10:03:47Z</time>
      </trkpt>
      <trkpt lat="49.29264" lon="1.12965">
        <ele>55.2</ele>
        <time>2019-11-11T10:03:48Z</time>
      </trkpt>
      <trkpt lat="49.29263" lon="1.12972">
        <ele>55.3</ele>
        <time>2019-11-11T10:03:49Z</time>
      </trkpt>
      <trkpt lat="49.29263" lon="1.12979">
        <ele>55.4</ele>
        <time>2019-11-11T10:03:50Z</time>
      </trkpt>
      <trkpt lat="49.29262" lon="1.12986">
        <ele>55.5</ele>
        <time>2019-11-11T10:03:51Z</time>
      </trkpt>
      <trkpt lat="49.29261" lon="1.12993">
        <ele>55.7</ele>
        <time>2019-11-11T10:03:52Z</time>
      </trkpt>
      <trkpt lat="49.29261" lon="1.13">
        <ele>55.7</ele>
        <time>2019-11-11T10:03:53Z</time>
      </trkpt>
      <trkpt lat="49.2926" lon="1.13007">
        <ele>55.8</ele>
        <time>2019-11-11T10:03:54Z</time>
      </trkpt>
      <trkpt lat="49.29259" lon="1.13014">
        <ele>55.8</ele>
        <time>2019-11-11T10:03:55Z</time>
      </trkpt>
      <trkpt lat="49.29258" lon="1.13021">
        <ele>55.7</ele>
        <time>2019-11-11T10:03:56Z</time>
      </trkpt>
      <trkpt lat="49.29257" lon="1.13029">
        <ele>55.6</ele>
        <time>2019-11-11T10:03:57Z</time>
      </trkpt>
      <trkpt lat="49.29256" lon="1.13036">
        <ele>55.6</ele>
        <time>2019-11-11T10:03:58Z</time>
      </trkpt>
      <trkpt lat="49.29255" lon="1.13043">
        <ele>55.5</ele>
        <time>2019-11-11T10:03:59Z</time>
      </trkpt>
      <trkpt lat="49.29254" lon="1.1305">
        <ele>55.4</ele>
        <time>2019-11-11T10:04:00Z</time>
      </trkpt>
      <trkpt lat="49.29254" lon="1.13057">
        <ele>55.4</ele>
        <time>2019-11-11T10:04:01Z</time>
      </trkpt>
      <trkpt lat="49.29253" lon="1.13064">
        <ele>55.3</ele>
        <time>2019-11-11T10:04:02Z</time>
      </trkpt>
      <trkpt lat="49.29252" lon="1.13072">
        <ele>55.2</ele>
        <time>2019-11-11T10:04:03Z</time>
      </trkpt>
      <trkpt lat="49.29251" lon="1.13079">
        <ele>55.1</ele>
        <time>2019-11-11T10:04:04Z</time>
      </trkpt>
      <trkpt lat="49.2925" lon="1.13086">
        <ele>55.1</ele>
        <time>2019-11-11T10:04:05Z</time>
      </trkpt>
      <trkpt lat="49.29249" lon="1.13093">
        <ele>55.4</ele>
        <time>2019-11-11T10:04:06Z</time>
      </trkpt>
      <trkpt lat="49.29248" lon="1.131">
        <ele>55.7</ele>
        <time>2019-11-11T10:04:07Z</time>
      </trkpt>
      <trkpt lat="49.29247" lon="1.13107">
        <ele>55.8</ele>
        <time>2019-11-11T10:04:08Z</time>
      </trkpt>
      <trkpt lat="49.29246" lon="1.13114">
        <ele>56</ele>
        <time>2019-11-11T10:04:09Z</time>
      </trkpt>
      <trkpt lat="49.29245" lon="1.13122">
        <ele>56.1</ele>
        <time>2019-11-11T10:04:10Z</time>
      </trkpt>
      <trkpt lat="49.29244" lon="1.13129">
        <ele>56.2</ele>
        <time>2019-11-11T10:04:11Z</time>
      </trkpt>
      <trkpt lat="49.29243" lon="1.13136">
        <ele>56.3</ele>
        <time>2019-11-11T10:04:12Z</time>
      </trkpt>
      <trkpt lat="49.29242" lon="1.13144">
        <ele>56.4</ele>
        <time>2019-11-11T10:04:13Z</time>
      </trkpt>
      <trkpt lat="49.29241" lon="1.13151">
        <ele>56.5</ele>
        <time>2019-11-11T10:04:14Z</time>
      </trkpt>
      <trkpt lat="49.2924" lon="1.13158">
        <ele>56.6</ele>
        <time>2019-11-11T10:04:15Z</time>
      </trkpt>
      <trkpt lat="49.29239" lon="1.13165">
        <ele>56.7</ele>
        <time>2019-11-11T10:04:16Z</time>
      </trkpt>
      <trkpt lat="49.29238" lon="1.13172">
        <ele>57</ele>
        <time>2019-11-11T10:04:17Z</time>
      </trkpt>
      <trkpt lat="49.29237" lon="1.13179">
        <ele>57</ele>
        <time>2019-11-11T10:04:18Z</time>
      </trkpt>
      <trkpt lat="49.29236" lon="1.13186">
        <ele>57.1</ele>
        <time>2019-11-11T10:04:19Z</time>
      </trkpt>
      <trkpt lat="49.29236" lon="1.13193">
        <ele>57.1</ele>
        <time>2019-11-11T10:04:20Z</time>
      </trkpt>
      <trkpt lat="49.29235" lon="1.132">
        <ele>57.2</ele>
        <time>2019-11-11T10:04:21Z</time>
      </trkpt>
      <trkpt lat="49.29235" lon="1.13207">
        <ele>57.3</ele>
        <time>2019-11-11T10:04:22Z</time>
      </trkpt>
      <trkpt lat="49.29234" lon="1.13214">
        <ele>57.4</ele>
        <time>2019-11-11T10:04:23Z</time>
      </trkpt>
      <trkpt lat="49.29233" lon="1.13221">
        <ele>57.5</ele>
        <time>2019-11-11T10:04:24Z</time>
      </trkpt>
      <trkpt lat="49.29232" lon="1.13229">
        <ele>57.6</ele>
        <time>2019-11-11T10:04:25Z</time>
      </trkpt>
      <trkpt lat="49.29232" lon="1.13235">
        <ele>57.7</ele>
        <time>2019-11-11T10:04:26Z</time>
      </trkpt>
      <trkpt lat="49.29231" lon="1.13242">
        <ele>57.8</ele>
        <time>2019-11-11T10:04:27Z</time>
      </trkpt>
      <trkpt lat="49.2923" lon="1.13249">
        <ele>57.9</ele>
        <time>2019-11-11T10:04:28Z</time>
      </trkpt>
      <trkpt lat="49.29229" lon="1.13256">
        <ele>58.2</ele>
        <time>2019-11-11T10:04:29Z</time>
      </trkpt>
      <trkpt lat="49.29228" lon="1.13263">
        <ele>58.1</ele>
        <time>2019-11-11T10:04:30Z</time>
      </trkpt>
      <trkpt lat="49.29228" lon="1.1327">
        <ele>58.1</ele>
        <time>2019-11-11T10:04:31Z</time>
      </trkpt>
      <trkpt lat="49.29227" lon="1.13277">
        <ele>58</ele>
        <time>2019-11-11T10:04:32Z</time>
      </trkpt>
      <trkpt lat="49.29226" lon="1.13284">
        <ele>58</ele>
        <time>2019-11-11T10:04:33Z</time>
      </trkpt>
      <trkpt lat="49.29225" lon="1.13291">
        <ele>58</ele>
        <time>2019-11-11T10:04:34Z</time>
      </trkpt>
      <trkpt lat="49.29224" lon="1.13298">
        <ele>58</ele>
        <time>2019-11-11T10:04:35Z</time>
      </trkpt>
      <trkpt lat="49.29223" lon="1.13305">
        <ele>58</ele>
        <time>2019-11-11T10:04:36Z</time>
      </trkpt>
      <trkpt lat="49.29222" lon="1.13312">
        <ele>58</ele>
        <time>2019-11-11T10:04:37Z</time>
      </trkpt>
      <trkpt lat="49.29221" lon="1.13319">
        <ele>58.1</ele>
        <time>2019-11-11T10:04:38Z</time>
      </trkpt>
      <trkpt lat="49.2922" lon="1.13326">
        <ele>58.1</ele>
        <time>2019-11-11T10:04:39Z</time>
      </trkpt>
      <trkpt lat="49.29219" lon="1.13334">
        <ele>57.9</ele>
        <time>2019-11-11T10:04:40Z</time>
      </trkpt>
      <trkpt lat="49.29218" lon="1.13341">
        <ele>57.8</ele>
        <time>2019-11-11T10:04:41Z</time>
      </trkpt>
      <trkpt lat="49.29217" lon="1.13348">
        <ele>57.8</ele>
        <time>2019-11-11T10:04:42Z</time>
      </trkpt>
      <trkpt lat="49.29216" lon="1.13355">
        <ele>57.7</ele>
        <time>2019-11-11T10:04:43Z</time>
      </trkpt>
      <trkpt lat="49.29216" lon="1.13362">
        <ele>57.7</ele>
        <time>2019-11-11T10:04:44Z</time>
      </trkpt>
      <trkpt lat="49.29215" lon="1.13369">
        <ele>57.6</ele>
        <time>2019-11-11T10:04:45Z</time>
      </trkpt>
      <trkpt lat="49.29215" lon="1.13376">
        <ele>57.5</ele>
        <time>2019-11-11T10:04:46Z</time>
      </trkpt>
      <trkpt lat="49.29214" lon="1.13384">
        <ele>57.5</ele>
        <time>2019-11-11T10:04:47Z</time>
      </trkpt>
      <trkpt lat="49.29213" lon="1.13391">
        <ele>57.4</ele>
        <time>2019-11-11T10:04:48Z</time>
      </trkpt>
      <trkpt lat="49.29212" lon="1.13398">
        <ele>57.4</ele>
        <time>2019-11-11T10:04:49Z</time>
      </trkpt>
      <trkpt lat="49.29212" lon="1.13405">
        <ele>57.3</ele>
        <time>2019-11-11T10:04:50Z</time>
      </trkpt>
      <trkpt lat="49.29211" lon="1.13413">
        <ele>57.3</ele>
        <time>2019-11-11T10:04:51Z</time>
      </trkpt>
      <trkpt lat="49.2921" lon="1.1342">
        <ele>56.5</ele>
        <time>2019-11-11T10:04:52Z</time>
      </trkpt>
      <trkpt lat="49.29209" lon="1.13427">
        <ele>56.5</ele>
        <time>2019-11-11T10:04:53Z</time>
      </trkpt>
      <trkpt lat="49.29208" lon="1.13434">
        <ele>56.5</ele>
        <time>2019-11-11T10:04:54Z</time>
      </trkpt>
      <trkpt lat="49.29207" lon="1.13442">
        <ele>56.4</ele>
        <time>2019-11-11T10:04:55Z</time>
      </trkpt>
      <trkpt lat="49.29206" lon="1.13449">
        <ele>56.3</ele>
        <time>2019-11-11T10:04:56Z</time>
      </trkpt>
      <trkpt lat="49.29205" lon="1.13456">
        <ele>56.3</ele>
        <time>2019-11-11T10:04:57Z</time>
      </trkpt>
      <trkpt lat="49.29204" lon="1.13464">
        <ele>56.2</ele>
        <time>2019-11-11T10:04:58Z</time>
      </trkpt>
      <trkpt lat="49.29203" lon="1.13471">
        <ele>56.2</ele>
        <time>2019-11-11T10:04:59Z</time>
      </trkpt>
      <trkpt lat="49.29202" lon="1.13478">
        <ele>56.2</ele>
        <time>2019-11-11T10:05:00Z</time>
      </trkpt>
      <trkpt lat="49.29201" lon="1.13485">
        <ele>56.2</ele>
        <time>2019-11-11T10:05:01Z</time>
      </trkpt>
      <trkpt lat="49.292" lon="1.13493">
        <ele>56.2</ele>
        <time>2019-11-11T10:05:02Z</time>
      </trkpt>
      <trkpt lat="49.292" lon="1.135">
        <ele>55.8</ele>
        <time>2019-11-11T10:05:03Z</time>
      </trkpt>
      <trkpt lat="49.29199" lon="1.13508">
        <ele>55.4</ele>
        <time>2019-11-11T10:05:04Z</time>
      </trkpt>
      <trkpt lat="49.29198" lon="1.13515">
        <ele>55.4</ele>
        <time>2019-11-11T10:05:05Z</time>
      </trkpt>
      <trkpt lat="49.29197" lon="1.13522">
        <ele>55.3</ele>
        <time>2019-11-11T10:05:06Z</time>
      </trkpt>
      <trkpt lat="49.29196" lon="1.13529">
        <ele>55.3</ele>
        <time>2019-11-11T10:05:07Z</time>
      </trkpt>
      <trkpt lat="49.29195" lon="1.13537">
        <ele>55.2</ele>
        <time>2019-11-11T10:05:08Z</time>
      </trkpt>
      <trkpt lat="49.29194" lon="1.13544">
        <ele>55.1</ele>
        <time>2019-11-11T10:05:09Z</time>
      </trkpt>
      <trkpt lat="49.29193" lon="1.13551">
        <ele>55.1</ele>
        <time>2019-11-11T10:05:10Z</time>
      </trkpt>
      <trkpt lat="49.29192" lon="1.13559">
        <ele>55</ele>
        <time>2019-11-11T10:05:11Z</time>
      </trkpt>
      <trkpt lat="49.29191" lon="1.13566">
        <ele>55</ele>
        <time>2019-11-11T10:05:12Z</time>
      </trkpt>
      <trkpt lat="49.2919" lon="1.13574">
        <ele>55</ele>
        <time>2019-11-11T10:05:13Z</time>
      </trkpt>
      <trkpt lat="49.29189" lon="1.13582">
        <ele>55</ele>
        <time>2019-11-11T10:05:14Z</time>
      </trkpt>
      <trkpt lat="49.29188" lon="1.13589">
        <ele>54.8</ele>
        <time>2019-11-11T10:05:15Z</time>
      </trkpt>
      <trkpt lat="49.29187" lon="1.13597">
        <ele>54.8</ele>
        <time>2019-11-11T10:05:16Z</time>
      </trkpt>
      <trkpt lat="49.29187" lon="1.13605">
        <ele>54.7</ele>
        <time>2019-11-11T10:05:17Z</time>
      </trkpt>
      <trkpt lat="49.29186" lon="1.13612">
        <ele>54.7</ele>
        <time>2019-11-11T10:05:18Z</time>
      </trkpt>
      <trkpt lat="49.29185" lon="1.1362">
        <ele>54.7</ele>
        <time>2019-11-11T10:05:19Z</time>
      </trkpt>
      <trkpt lat="49.29184" lon="1.13628">
        <ele>54.7</ele>
        <time>2019-11-11T10:05:20Z</time>
      </trkpt>
      <trkpt lat="49.29183" lon="1.13635">
        <ele>54.6</ele>
        <time>2019-11-11T10:05:21Z</time>
      </trkpt>
      <trkpt lat="49.29182" lon="1.13643">
        <ele>54.6</ele>
        <time>2019-11-11T10:05:22Z</time>
      </trkpt>
      <trkpt lat="49.29181" lon="1.1365">
        <ele>54.5</ele>
        <time>2019-11-11T10:05:23Z</time>
      </trkpt>
      <trkpt lat="49.29181" lon="1.13658">
        <ele>54.4</ele>
        <time>2019-11-11T10:05:24Z</time>
      </trkpt>
      <trkpt lat="49.2918" lon="1.13666">
        <ele>54.4</ele>
        <time>2019-11-11T10:05:25Z</time>
      </trkpt>
      <trkpt lat="49.29179" lon="1.13674">
        <ele>54.7</ele>
        <time>2019-11-11T10:05:26Z</time>
      </trkpt>
      <trkpt lat="49.29178" lon="1.13681">
        <ele>54.8</ele>
        <time>2019-11-11T10:05:27Z</time>
      </trkpt>
      <trkpt lat="49.29177" lon="1.13689">
        <ele>54.9</ele>
        <time>2019-11-11T10:05:28Z</time>
      </trkpt>
      <trkpt lat="49.29176" lon="1.13697">
        <ele>55</ele>
        <time>2019-11-11T10:05:29Z</time>
      </trkpt>
      <trkpt lat="49.29175" lon="1.13705">
        <ele>55.1</ele>
        <time>2019-11-11T10:05:30Z</time>
      </trkpt>
      <trkpt lat="49.29174" lon="1.13713">
        <ele>55.2</ele>
        <time>2019-11-11T10:05:31Z</time>
      </trkpt>
      <trkpt lat="49.29173" lon="1.13721">
        <ele>55.2</ele>
        <time>2019-11-11T10:05:32Z</time>
      </trkpt>
      <trkpt lat="49.29172" lon="1.13729">
        <ele>55.2</ele>
        <time>2019-11-11T10:05:33Z</time>
      </trkpt>
      <trkpt lat="49.29171" lon="1.13737">
        <ele>55.2</ele>
        <time>2019-11-11T10:05:34Z</time>
      </trkpt>
      <trkpt lat="49.2917" lon="1.13745">
        <ele>55.1</ele>
        <time>2019-11-11T10:05:35Z</time>
      </trkpt>
      <trkpt lat="49.29169" lon="1.13753">
        <ele>55.1</ele>
        <time>2019-11-11T10:05:36Z</time>
      </trkpt>
      <trkpt lat="49.29168" lon="1.13761">
        <ele>55.3</ele>
        <time>2019-11-11T10:05:37Z</time>
      </trkpt>
      <trkpt lat="49.29167" lon="1.13769">
        <ele>55.4</ele>
        <time>2019-11-11T10:05:38Z</time>
      </trkpt>
      <trkpt lat="49.29167" lon="1.13777">
        <ele>55.5</ele>
        <time>2019-11-11T10:05:39Z</time>
      </trkpt>
      <trkpt lat="49.29166" lon="1.13784">
        <ele>55.3</ele>
        <time>2019-11-11T10:05:40Z</time>
      </trkpt>
      <trkpt lat="49.29165" lon="1.13792">
        <ele>55.3</ele>
        <time>2019-11-11T10:05:41Z</time>
      </trkpt>
      <trkpt lat="49.29164" lon="1.138">
        <ele>55.4</ele>
        <time>2019-11-11T10:05:42Z</time>
      </trkpt>
      <trkpt lat="49.29163" lon="1.13808">
        <ele>55.5</ele>
        <time>2019-11-11T10:05:43Z</time>
      </trkpt>
      <trkpt lat="49.29163" lon="1.13816">
        <ele>55.6</ele>
        <time>2019-11-11T10:05:44Z</time>
      </trkpt>
      <trkpt lat="49.29162" lon="1.13824">
        <ele>55.7</ele>
        <time>2019-11-11T10:05:45Z</time>
      </trkpt>
      <trkpt lat="49.29161" lon="1.13833">
        <ele>55.8</ele>
        <time>2019-11-11T10:05:46Z</time>
      </trkpt>
      <trkpt lat="49.2916" lon="1.13841">
        <ele>55.9</ele>
        <time>2019-11-11T10:05:47Z</time>
      </trkpt>
      <trkpt lat="49.29159" lon="1.13849">
        <ele>55.9</ele>
        <time>2019-11-11T10:05:48Z</time>
      </trkpt>
      <trkpt lat="49.29159" lon="1.13856">
        <ele>55.9</ele>
        <time>2019-11-11T10:05:49Z</time>
      </trkpt>
      <trkpt lat="49.29158" lon="1.13864">
        <ele>55.9</ele>
        <time>2019-11-11T10:05:50Z</time>
      </trkpt>
      <trkpt lat="49.29157" lon="1.13872">
        <ele>56</ele>
        <time>2019-11-11T10:05:51Z</time>
      </trkpt>
      <trkpt lat="49.29155" lon="1.13879">
        <ele>56</ele>
        <time>2019-11-11T10:05:52Z</time>
      </trkpt>
      <trkpt lat="49.29154" lon="1.13887">
        <ele>56.1</ele>
        <time>2019-11-11T10:05:53Z</time>
      </trkpt>
      <trkpt lat="49.29153" lon="1.13893">
        <ele>56.2</ele>
        <time>2019-11-11T10:05:54Z</time>
      </trkpt>
      <trkpt lat="49.29152" lon="1.13901">
        <ele>56.3</ele>
        <time>2019-11-11T10:05:55Z</time>
      </trkpt>
      <trkpt lat="49.29151" lon="1.13909">
        <ele>56.3</ele>
        <time>2019-11-11T10:05:56Z</time>
      </trkpt>
      <trkpt lat="49.2915" lon="1.13918">
        <ele>56.6</ele>
        <time>2019-11-11T10:05:57Z</time>
      </trkpt>
      <trkpt lat="49.29149" lon="1.13927">
        <ele>56.5</ele>
        <time>2019-11-11T10:05:58Z</time>
      </trkpt>
      <trkpt lat="49.29148" lon="1.13936">
        <ele>56.5</ele>
        <time>2019-11-11T10:05:59Z</time>
      </trkpt>
      <trkpt lat="49.29147" lon="1.13945">
        <ele>56.4</ele>
        <time>2019-11-11T10:06:00Z</time>
      </trkpt>
      <trkpt lat="49.29146" lon="1.13955">
        <ele>56.4</ele>
        <time>2019-11-11T10:06:01Z</time>
      </trkpt>
      <trkpt lat="49.29145" lon="1.13964">
        <ele>56.4</ele>
        <time>2019-11-11T10:06:02Z</time>
      </trkpt>
      <trkpt lat="49.29143" lon="1.13974">
        <ele>56.5</ele>
        <time>2019-11-11T10:06:03Z</time>
      </trkpt>
      <trkpt lat="49.29142" lon="1.13983">
        <ele>56.5</ele>
        <time>2019-11-11T10:06:04Z</time>
      </trkpt>
      <trkpt lat="49.29141" lon="1.13993">
        <ele>56.5</ele>
        <time>2019-11-11T10:06:05Z</time>
      </trkpt>
      <trkpt lat="49.2914" lon="1.14002">
        <ele>56.8</ele>
        <time>2019-11-11T10:06:06Z</time>
      </trkpt>
      <trkpt lat="49.29139" lon="1.14012">
        <ele>56.8</ele>
        <time>2019-11-11T10:06:07Z</time>
      </trkpt>
      <trkpt lat="49.29138" lon="1.14021">
        <ele>56.8</ele>
        <time>2019-11-11T10:06:08Z</time>
      </trkpt>
      <trkpt lat="49.29137" lon="1.14031">
        <ele>56.8</ele>
        <time>2019-11-11T10:06:09Z</time>
      </trkpt>
      <trkpt lat="49.29136" lon="1.14041">
        <ele>56.8</ele>
        <time>2019-11-11T10:06:10Z</time>
      </trkpt>
      <trkpt lat="49.29135" lon="1.14051">
        <ele>56.9</ele>
        <time>2019-11-11T10:06:11Z</time>
      </trkpt>
      <trkpt lat="49.29134" lon="1.14061">
        <ele>56.9</ele>
        <time>2019-11-11T10:06:12Z</time>
      </trkpt>
      <trkpt lat="49.29132" lon="1.14071">
        <ele>56.9</ele>
        <time>2019-11-11T10:06:13Z</time>
      </trkpt>
      <trkpt lat="49.29131" lon="1.14081">
        <ele>56.9</ele>
        <time>2019-11-11T10:06:14Z</time>
      </trkpt>
      <trkpt lat="49.2913" lon="1.14091">
        <ele>56.1</ele>
        <time>2019-11-11T10:06:15Z</time>
      </trkpt>
      <trkpt lat="49.29129" lon="1.14102">
        <ele>55.9</ele>
        <time>2019-11-11T10:06:16Z</time>
      </trkpt>
      <trkpt lat="49.29128" lon="1.14112">
        <ele>55.7</ele>
        <time>2019-11-11T10:06:17Z</time>
      </trkpt>
      <trkpt lat="49.29126" lon="1.14123">
        <ele>55.5</ele>
        <time>2019-11-11T10:06:18Z</time>
      </trkpt>
      <trkpt lat="49.29125" lon="1.14134">
        <ele>55.3</ele>
        <time>2019-11-11T10:06:19Z</time>
      </trkpt>
      <trkpt lat="49.29124" lon="1.14145">
        <ele>55.2</ele>
        <time>2019-11-11T10:06:20Z</time>
      </trkpt>
      <trkpt lat="49.29122" lon="1.14156">
        <ele>55.1</ele>
        <time>2019-11-11T10:06:21Z</time>
      </trkpt>
      <trkpt lat="49.29121" lon="1.14166">
        <ele>55</ele>
        <time>2019-11-11T10:06:22Z</time>
      </trkpt>
      <trkpt lat="49.2912" lon="1.14177">
        <ele>52.8</ele>
        <time>2019-11-11T10:06:23Z</time>
      </trkpt>
      <trkpt lat="49.29119" lon="1.14187">
        <ele>52.6</ele>
        <time>2019-11-11T10:06:24Z</time>
      </trkpt>
      <trkpt lat="49.29117" lon="1.14198">
        <ele>52.4</ele>
        <time>2019-11-11T10:06:25Z</time>
      </trkpt>
      <trkpt lat="49.29116" lon="1.14208">
        <ele>52.2</ele>
        <time>2019-11-11T10:06:26Z</time>
      </trkpt>
      <trkpt lat="49.29115" lon="1.14219">
        <ele>51.9</ele>
        <time>2019-11-11T10:06:27Z</time>
      </trkpt>
      <trkpt lat="49.29114" lon="1.14229">
        <ele>51.8</ele>
        <time>2019-11-11T10:06:28Z</time>
      </trkpt>
      <trkpt lat="49.29112" lon="1.1424">
        <ele>51.7</ele>
        <time>2019-11-11T10:06:29Z</time>
      </trkpt>
      <trkpt lat="49.29111" lon="1.14251">
        <ele>49.9</ele>
        <time>2019-11-11T10:06:30Z</time>
      </trkpt>
      <trkpt lat="49.2911" lon="1.14261">
        <ele>49.8</ele>
        <time>2019-11-11T10:06:31Z</time>
      </trkpt>
      <trkpt lat="49.29109" lon="1.14271">
        <ele>49.7</ele>
        <time>2019-11-11T10:06:32Z</time>
      </trkpt>
      <trkpt lat="49.29108" lon="1.14281">
        <ele>49.5</ele>
        <time>2019-11-11T10:06:33Z</time>
      </trkpt>
      <trkpt lat="49.29107" lon="1.14291">
        <ele>49.4</ele>
        <time>2019-11-11T10:06:34Z</time>
      </trkpt>
      <trkpt lat="49.29106" lon="1.143">
        <ele>49.4</ele>
        <time>2019-11-11T10:06:35Z</time>
      </trkpt>
      <trkpt lat="49.29105" lon="1.14308">
        <ele>49.5</ele>
        <time>2019-11-11T10:06:36Z</time>
      </trkpt>
      <trkpt lat="49.29104" lon="1.14315">
        <ele>49.6</ele>
        <time>2019-11-11T10:06:37Z</time>
      </trkpt>
      <trkpt lat="49.29103" lon="1.14321">
        <ele>49.8</ele>
        <time>2019-11-11T10:06:38Z</time>
      </trkpt>
      <trkpt lat="49.29103" lon="1.14327">
        <ele>49.9</ele>
        <time>2019-11-11T10:06:39Z</time>
      </trkpt>
      <trkpt lat="49.29102" lon="1.14333">
        <ele>50</ele>
        <time>2019-11-11T10:06:40Z</time>
      </trkpt>
      <trkpt lat="49.29101" lon="1.14337">
        <ele>49</ele>
        <time>2019-11-11T10:06:41Z</time>
      </trkpt>
      <trkpt lat="49.29101" lon="1.14341">
        <ele>48.8</ele>
        <time>2019-11-11T10:06:42Z</time>
      </trkpt>
      <trkpt lat="49.29102" lon="1.14344">
        <ele>48.6</ele>
        <time>2019-11-11T10:06:43Z</time>
      </trkpt>
      <trkpt lat="49.29102" lon="1.14347">
        <ele>48.5</ele>
        <time>2019-11-11T10:06:44Z</time>
      </trkpt>
      <trkpt lat="49.29102" lon="1.1435">
        <ele>48.3</ele>
        <time>2019-11-11T10:06:45Z</time>
      </trkpt>
      <trkpt lat="49.291" lon="1.14353">
        <ele>48.3</ele>
        <time>2019-11-11T10:06:46Z</time>
      </trkpt>
      <trkpt lat="49.29099" lon="1.14357">
        <ele>48.1</ele>
        <time>2019-11-11T10:06:47Z</time>
      </trkpt>
      <trkpt lat="49.29098" lon="1.14362">
        <ele>47.9</ele>
        <time>2019-11-11T10:06:48Z</time>
      </trkpt>
      <trkpt lat="49.29097" lon="1.14368">
        <ele>47.7</ele>
        <time>2019-11-11T10:06:49Z</time>
      </trkpt>
      <trkpt lat="49.29096" lon="1.14375">
        <ele>47.6</ele>
        <time>2019-11-11T10:06:50Z</time>
      </trkpt>
      <trkpt lat="49.29096" lon="1.14382">
        <ele>47.4</ele>
        <time>2019-11-11T10:06:51Z</time>
      </trkpt>
      <trkpt lat="49.29095" lon="1.14389">
        <ele>47.4</ele>
        <time>2019-11-11T10:06:52Z</time>
      </trkpt>
      <trkpt lat="49.29094" lon="1.14396">
        <ele>47.5</ele>
        <time>2019-11-11T10:06:53Z</time>
      </trkpt>
      <trkpt lat="49.29093" lon="1.14403">
        <ele>47.7</ele>
        <time>2019-11-11T10:06:54Z</time>
      </trkpt>
      <trkpt lat="49.29092" lon="1.1441">
        <ele>48</ele>
        <time>2019-11-11T10:06:55Z</time>
      </trkpt>
      <trkpt lat="49.29091" lon="1.14418">
        <ele>47.7</ele>
        <time>2019-11-11T10:06:56Z</time>
      </trkpt>
      <trkpt lat="49.2909" lon="1.14425">
        <ele>47.3</ele>
        <time>2019-11-11T10:06:57Z</time>
      </trkpt>
      <trkpt lat="49.29089" lon="1.14432">
        <ele>46.7</ele>
        <time>2019-11-11T10:06:58Z</time>
      </trkpt>
      <trkpt lat="49.29088" lon="1.1444">
        <ele>46.1</ele>
        <time>2019-11-11T10:06:59Z</time>
      </trkpt>
      <trkpt lat="49.29087" lon="1.14447">
        <ele>45.7</ele>
        <time>2019-11-11T10:07:00Z</time>
      </trkpt>
      <trkpt lat="49.29086" lon="1.14455">
        <ele>45.4</ele>
        <time>2019-11-11T10:07:01Z</time>
      </trkpt>
      <trkpt lat="49.29085" lon="1.14462">
        <ele>45.2</ele>
        <time>2019-11-11T10:07:02Z</time>
      </trkpt>
      <trkpt lat="49.29084" lon="1.14469">
        <ele>45</ele>
        <time>2019-11-11T10:07:03Z</time>
      </trkpt>
      <trkpt lat="49.29083" lon="1.14476">
        <ele>47.8</ele>
        <time>2019-11-11T10:07:04Z</time>
      </trkpt>
      <trkpt lat="49.29083" lon="1.14482">
        <ele>47.4</ele>
        <time>2019-11-11T10:07:05Z</time>
      </trkpt>
      <trkpt lat="49.29082" lon="1.14488">
        <ele>46.8</ele>
        <time>2019-11-11T10:07:06Z</time>
      </trkpt>
      <trkpt lat="49.29081" lon="1.14494">
        <ele>46.1</ele>
        <time>2019-11-11T10:07:07Z</time>
      </trkpt>
      <trkpt lat="49.2908" lon="1.14499">
        <ele>45.6</ele>
        <time>2019-11-11T10:07:08Z</time>
      </trkpt>
      <trkpt lat="49.29079" lon="1.14504">
        <ele>45.5</ele>
        <time>2019-11-11T10:07:09Z</time>
      </trkpt>
      <trkpt lat="49.29078" lon="1.14509">
        <ele>45.8</ele>
        <time>2019-11-11T10:07:10Z</time>
      </trkpt>
      <trkpt lat="49.29077" lon="1.14514">
        <ele>46</ele>
        <time>2019-11-11T10:07:11Z</time>
      </trkpt>
      <trkpt lat="49.29077" lon="1.14519">
        <ele>46.2</ele>
        <time>2019-11-11T10:07:12Z</time>
      </trkpt>
      <trkpt lat="49.29077" lon="1.14525">
        <ele>46.3</ele>
        <time>2019-11-11T10:07:13Z</time>
      </trkpt>
      <trkpt lat="49.29076" lon="1.14531">
        <ele>46.4</ele>
        <time>2019-11-11T10:07:14Z</time>
      </trkpt>
      <trkpt lat="49.29076" lon="1.14537">
        <ele>46.5</ele>
        <time>2019-11-11T10:07:15Z</time>
      </trkpt>
      <trkpt lat="49.29076" lon="1.14543">
        <ele>46.5</ele>
        <time>2019-11-11T10:07:16Z</time>
      </trkpt>
      <trkpt lat="49.29076" lon="1.14548">
        <ele>46.4</ele>
        <time>2019-11-11T10:07:17Z</time>
      </trkpt>
      <trkpt lat="49.29075" lon="1.14553">
        <ele>46.4</ele>
        <time>2019-11-11T10:07:18Z</time>
      </trkpt>
      <trkpt lat="49.29074" lon="1.14558">
        <ele>46.3</ele>
        <time>2019-11-11T10:07:19Z</time>
      </trkpt>
      <trkpt lat="49.29073" lon="1.14563">
        <ele>46.2</ele>
        <time>2019-11-11T10:07:20Z</time>
      </trkpt>
      <trkpt lat="49.29072" lon="1.14567">
        <ele>46.1</ele>
        <time>2019-11-11T10:07:21Z</time>
      </trkpt>
      <trkpt lat="49.29072" lon="1.14571">
        <ele>46</ele>
        <time>2019-11-11T10:07:22Z</time>
      </trkpt>
      <trkpt lat="49.29071" lon="1.14574">
        <ele>46</ele>
        <time>2019-11-11T10:07:23Z</time>
      </trkpt>
      <trkpt lat="49.2907" lon="1.14576">
        <ele>46</ele>
        <time>2019-11-11T10:07:24Z</time>
      </trkpt>
      <trkpt lat="49.2907" lon="1.14579">
        <ele>45.9</ele>
        <time>2019-11-11T10:07:25Z</time>
      </trkpt>
      <trkpt lat="49.29071" lon="1.14583">
        <ele>45.8</ele>
        <time>2019-11-11T10:07:26Z</time>
      </trkpt>
      <trkpt lat="49.29071" lon="1.14588">
        <ele>45.9</ele>
        <time>2019-11-11T10:07:27Z</time>
      </trkpt>
      <trkpt lat="49.29071" lon="1.14593">
        <ele>46</ele>
        <time>2019-11-11T10:07:28Z</time>
      </trkpt>
      <trkpt lat="49.2907" lon="1.14599">
        <ele>46.2</ele>
        <time>2019-11-11T10:07:29Z</time>
      </trkpt>
      <trkpt lat="49.2907" lon="1.14606">
        <ele>46.4</ele>
        <time>2019-11-11T10:07:30Z</time>
      </trkpt>
      <trkpt lat="49.29069" lon="1.14612">
        <ele>46.6</ele>
        <time>2019-11-11T10:07:31Z</time>
      </trkpt>
      <trkpt lat="49.29068" lon="1.14619">
        <ele>46.7</ele>
        <time>2019-11-11T10:07:32Z</time>
      </trkpt>
      <trkpt lat="49.29067" lon="1.14626">
        <ele>46.8</ele>
        <time>2019-11-11T10:07:33Z</time>
      </trkpt>
      <trkpt lat="49.29066" lon="1.14633">
        <ele>46.8</ele>
        <time>2019-11-11T10:07:34Z</time>
      </trkpt>
      <trkpt lat="49.29066" lon="1.1464">
        <ele>46.8</ele>
        <time>2019-11-11T10:07:35Z</time>
      </trkpt>
      <trkpt lat="49.29065" lon="1.14647">
        <ele>46.8</ele>
        <time>2019-11-11T10:07:36Z</time>
      </trkpt>
      <trkpt lat="49.29064" lon="1.14654">
        <ele>46.8</ele>
        <time>2019-11-11T10:07:37Z</time>
      </trkpt>
      <trkpt lat="49.29064" lon="1.14661">
        <ele>46.8</ele>
        <time>2019-11-11T10:07:38Z</time>
      </trkpt>
      <trkpt lat="49.29063" lon="1.14668">
        <ele>47.7</ele>
        <time>2019-11-11T10:07:39Z</time>
      </trkpt>
      <trkpt lat="49.29062" lon="1.14674">
        <ele>47.8</ele>
        <time>2019-11-11T10:07:40Z</time>
      </trkpt>
      <trkpt lat="49.29062" lon="1.14681">
        <ele>48</ele>
        <time>2019-11-11T10:07:41Z</time>
      </trkpt>
      <trkpt lat="49.29061" lon="1.14687">
        <ele>48.1</ele>
        <time>2019-11-11T10:07:42Z</time>
      </trkpt>
      <trkpt lat="49.2906" lon="1.14694">
        <ele>48.3</ele>
        <time>2019-11-11T10:07:43Z</time>
      </trkpt>
      <trkpt lat="49.29059" lon="1.147">
        <ele>48.5</ele>
        <time>2019-11-11T10:07:44Z</time>
      </trkpt>
      <trkpt lat="49.29058" lon="1.14706">
        <ele>48.6</ele>
        <time>2019-11-11T10:07:45Z</time>
      </trkpt>
      <trkpt lat="49.29057" lon="1.14712">
        <ele>48.7</ele>
        <time>2019-11-11T10:07:46Z</time>
      </trkpt>
      <trkpt lat="49.29057" lon="1.14718">
        <ele>48.8</ele>
        <time>2019-11-11T10:07:47Z</time>
      </trkpt>
      <trkpt lat="49.29056" lon="1.14724">
        <ele>48.8</ele>
        <time>2019-11-11T10:07:48Z</time>
      </trkpt>
      <trkpt lat="49.29056" lon="1.1473">
        <ele>48.9</ele>
        <time>2019-11-11T10:07:49Z</time>
      </trkpt>
      <trkpt lat="49.29055" lon="1.14735">
        <ele>48.9</ele>
        <time>2019-11-11T10:07:50Z</time>
      </trkpt>
      <trkpt lat="49.29055" lon="1.14741">
        <ele>48.9</ele>
        <time>2019-11-11T10:07:51Z</time>
      </trkpt>
      <trkpt lat="49.29054" lon="1.14747">
        <ele>49</ele>
        <time>2019-11-11T10:07:52Z</time>
      </trkpt>
      <trkpt lat="49.29054" lon="1.14753">
        <ele>49.9</ele>
        <time>2019-11-11T10:07:53Z</time>
      </trkpt>
      <trkpt lat="49.29053" lon="1.14759">
        <ele>49.9</ele>
        <time>2019-11-11T10:07:54Z</time>
      </trkpt>
      <trkpt lat="49.29052" lon="1.14765">
        <ele>50</ele>
        <time>2019-11-11T10:07:55Z</time>
      </trkpt>
      <trkpt lat="49.29052" lon="1.14771">
        <ele>50.1</ele>
        <time>2019-11-11T10:07:56Z</time>
      </trkpt>
      <trkpt lat="49.29051" lon="1.14777">
        <ele>50.2</ele>
        <time>2019-11-11T10:07:57Z</time>
      </trkpt>
      <trkpt lat="49.29051" lon="1.14783">
        <ele>50.3</ele>
        <time>2019-11-11T10:07:58Z</time>
      </trkpt>
      <trkpt lat="49.2905" lon="1.14789">
        <ele>50.3</ele>
        <time>2019-11-11T10:07:59Z</time>
      </trkpt>
      <trkpt lat="49.29049" lon="1.14795">
        <ele>50.4</ele>
        <time>2019-11-11T10:08:00Z</time>
      </trkpt>
      <trkpt lat="49.29048" lon="1.14802">
        <ele>50.5</ele>
        <time>2019-11-11T10:08:01Z</time>
      </trkpt>
      <trkpt lat="49.29047" lon="1.14808">
        <ele>50.5</ele>
        <time>2019-11-11T10:08:02Z</time>
      </trkpt>
      <trkpt lat="49.29047" lon="1.14814">
        <ele>50.5</ele>
        <time>2019-11-11T10:08:03Z</time>
      </trkpt>
      <trkpt lat="49.29046" lon="1.14821">
        <ele>50.6</ele>
        <time>2019-11-11T10:08:04Z</time>
      </trkpt>
      <trkpt lat="49.29045" lon="1.14827">
        <ele>50.6</ele>
        <time>2019-11-11T10:08:05Z</time>
      </trkpt>
      <trkpt lat="49.29044" lon="1.14833">
        <ele>50.6</ele>
        <time>2019-11-11T10:08:06Z</time>
      </trkpt>
      <trkpt lat="49.29043" lon="1.1484">
        <ele>51.1</ele>
        <time>2019-11-11T10:08:07Z</time>
      </trkpt>
      <trkpt lat="49.29042" lon="1.14846">
        <ele>51.2</ele>
        <time>2019-11-11T10:08:08Z</time>
      </trkpt>
      <trkpt lat="49.29041" lon="1.14852">
        <ele>51.2</ele>
        <time>2019-11-11T10:08:09Z</time>
      </trkpt>
      <trkpt lat="49.29041" lon="1.14859">
        <ele>51.2</ele>
        <time>2019-11-11T10:08:10Z</time>
      </trkpt>
      <trkpt lat="49.2904" lon="1.14865">
        <ele>51.2</ele>
        <time>2019-11-11T10:08:11Z</time>
      </trkpt>
      <trkpt lat="49.29039" lon="1.14872">
        <ele>51.3</ele>
        <time>2019-11-11T10:08:12Z</time>
      </trkpt>
      <trkpt lat="49.29038" lon="1.14879">
        <ele>51.3</ele>
        <time>2019-11-11T10:08:13Z</time>
      </trkpt>
      <trkpt lat="49.29037" lon="1.14886">
        <ele>51.3</ele>
        <time>2019-11-11T10:08:14Z</time>
      </trkpt>
      <trkpt lat="49.29036" lon="1.14893">
        <ele>51.4</ele>
        <time>2019-11-11T10:08:15Z</time>
      </trkpt>
      <trkpt lat="49.29035" lon="1.149">
        <ele>51.4</ele>
        <time>2019-11-11T10:08:16Z</time>
      </trkpt>
      <trkpt lat="49.29034" lon="1.14907">
        <ele>51.4</ele>
        <time>2019-11-11T10:08:17Z</time>
      </trkpt>
      <trkpt lat="49.29033" lon="1.14914">
        <ele>51.4</ele>
        <time>2019-11-11T10:08:18Z</time>
      </trkpt>
      <trkpt lat="49.29032" lon="1.14921">
        <ele>52.6</ele>
        <time>2019-11-11T10:08:19Z</time>
      </trkpt>
      <trkpt lat="49.29031" lon="1.14927">
        <ele>52.7</ele>
        <time>2019-11-11T10:08:20Z</time>
      </trkpt>
      <trkpt lat="49.29031" lon="1.14934">
        <ele>52.8</ele>
        <time>2019-11-11T10:08:21Z</time>
      </trkpt>
      <trkpt lat="49.2903" lon="1.14941">
        <ele>52.9</ele>
        <time>2019-11-11T10:08:22Z</time>
      </trkpt>
      <trkpt lat="49.2903" lon="1.14947">
        <ele>53</ele>
        <time>2019-11-11T10:08:23Z</time>
      </trkpt>
      <trkpt lat="49.2903" lon="1.14953">
        <ele>53.1</ele>
        <time>2019-11-11T10:08:24Z</time>
      </trkpt>
      <trkpt lat="49.29029" lon="1.1496">
        <ele>53.2</ele>
        <time>2019-11-11T10:08:25Z</time>
      </trkpt>
      <trkpt lat="49.29028" lon="1.14966">
        <ele>53.4</ele>
        <time>2019-11-11T10:08:26Z</time>
      </trkpt>
      <trkpt lat="49.29028" lon="1.14973">
        <ele>53.5</ele>
        <time>2019-11-11T10:08:27Z</time>
      </trkpt>
      <trkpt lat="49.29027" lon="1.14979">
        <ele>53.6</ele>
        <time>2019-11-11T10:08:28Z</time>
      </trkpt>
      <trkpt lat="49.29026" lon="1.14986">
        <ele>53.6</ele>
        <time>2019-11-11T10:08:29Z</time>
      </trkpt>
      <trkpt lat="49.29025" lon="1.14992">
        <ele>53.7</ele>
        <time>2019-11-11T10:08:30Z</time>
      </trkpt>
      <trkpt lat="49.29024" lon="1.14999">
        <ele>53.8</ele>
        <time>2019-11-11T10:08:31Z</time>
      </trkpt>
      <trkpt lat="49.29023" lon="1.15005">
        <ele>56.1</ele>
        <time>2019-11-11T10:08:32Z</time>
      </trkpt>
      <trkpt lat="49.29023" lon="1.15012">
        <ele>56.3</ele>
        <time>2019-11-11T10:08:33Z</time>
      </trkpt>
      <trkpt lat="49.29022" lon="1.15019">
        <ele>56.5</ele>
        <time>2019-11-11T10:08:34Z</time>
      </trkpt>
      <trkpt lat="49.29021" lon="1.15025">
        <ele>56.7</ele>
        <time>2019-11-11T10:08:35Z</time>
      </trkpt>
      <trkpt lat="49.2902" lon="1.15031">
        <ele>56.9</ele>
        <time>2019-11-11T10:08:36Z</time>
      </trkpt>
      <trkpt lat="49.29019" lon="1.15038">
        <ele>57.1</ele>
        <time>2019-11-11T10:08:37Z</time>
      </trkpt>
      <trkpt lat="49.29019" lon="1.15044">
        <ele>57.2</ele>
        <time>2019-11-11T10:08:38Z</time>
      </trkpt>
      <trkpt lat="49.29018" lon="1.1505">
        <ele>57.4</ele>
        <time>2019-11-11T10:08:39Z</time>
      </trkpt>
      <trkpt lat="49.29017" lon="1.15057">
        <ele>57.5</ele>
        <time>2019-11-11T10:08:40Z</time>
      </trkpt>
      <trkpt lat="49.29017" lon="1.15063">
        <ele>57.6</ele>
        <time>2019-11-11T10:08:41Z</time>
      </trkpt>
      <trkpt lat="49.29016" lon="1.1507">
        <ele>57.6</ele>
        <time>2019-11-11T10:08:42Z</time>
      </trkpt>
      <trkpt lat="49.29016" lon="1.15076">
        <ele>57.6</ele>
        <time>2019-11-11T10:08:43Z</time>
      </trkpt>
      <trkpt lat="49.29015" lon="1.15083">
        <ele>57.6</ele>
        <time>2019-11-11T10:08:44Z</time>
      </trkpt>
      <trkpt lat="49.29014" lon="1.1509">
        <ele>59.5</ele>
        <time>2019-11-11T10:08:45Z</time>
      </trkpt>
      <trkpt lat="49.29014" lon="1.15097">
        <ele>60</ele>
        <time>2019-11-11T10:08:46Z</time>
      </trkpt>
      <trkpt lat="49.29013" lon="1.15104">
        <ele>60.4</ele>
        <time>2019-11-11T10:08:47Z</time>
      </trkpt>
      <trkpt lat="49.29012" lon="1.15111">
        <ele>60.8</ele>
        <time>2019-11-11T10:08:48Z</time>
      </trkpt>
      <trkpt lat="49.29011" lon="1.15118">
        <ele>61.1</ele>
        <time>2019-11-11T10:08:49Z</time>
      </trkpt>
      <trkpt lat="49.2901" lon="1.15125">
        <ele>61.4</ele>
        <time>2019-11-11T10:08:50Z</time>
      </trkpt>
      <trkpt lat="49.29009" lon="1.15132">
        <ele>61.5</ele>
        <time>2019-11-11T10:08:51Z</time>
      </trkpt>
      <trkpt lat="49.29009" lon="1.15138">
        <ele>61.6</ele>
        <time>2019-11-11T10:08:52Z</time>
      </trkpt>
      <trkpt lat="49.29008" lon="1.15145">
        <ele>61.7</ele>
        <time>2019-11-11T10:08:53Z</time>
      </trkpt>
      <trkpt lat="49.29007" lon="1.15151">
        <ele>61.6</ele>
        <time>2019-11-11T10:08:54Z</time>
      </trkpt>
      <trkpt lat="49.29007" lon="1.15157">
        <ele>61.5</ele>
        <time>2019-11-11T10:08:55Z</time>
      </trkpt>
      <trkpt lat="49.29006" lon="1.15163">
        <ele>61.4</ele>
        <time>2019-11-11T10:08:56Z</time>
      </trkpt>
      <trkpt lat="49.29005" lon="1.15169">
        <ele>61.7</ele>
        <time>2019-11-11T10:08:57Z</time>
      </trkpt>
      <trkpt lat="49.29005" lon="1.15175">
        <ele>62.1</ele>
        <time>2019-11-11T10:08:58Z</time>
      </trkpt>
      <trkpt lat="49.29004" lon="1.15182">
        <ele>62.6</ele>
        <time>2019-11-11T10:08:59Z</time>
      </trkpt>
      <trkpt lat="49.29003" lon="1.15188">
        <ele>62.9</ele>
        <time>2019-11-11T10:09:00Z</time>
      </trkpt>
      <trkpt lat="49.29003" lon="1.15194">
        <ele>63.1</ele>
        <time>2019-11-11T10:09:01Z</time>
      </trkpt>
      <trkpt lat="49.29002" lon="1.152">
        <ele>63.3</ele>
        <time>2019-11-11T10:09:02Z</time>
      </trkpt>
      <trkpt lat="49.29001" lon="1.15206">
        <ele>63.3</ele>
        <time>2019-11-11T10:09:03Z</time>
      </trkpt>
      <trkpt lat="49.29" lon="1.15212">
        <ele>59.4</ele>
        <time>2019-11-11T10:09:04Z</time>
      </trkpt>
      <trkpt lat="49.29" lon="1.15218">
        <ele>59.5</ele>
        <time>2019-11-11T10:09:05Z</time>
      </trkpt>
      <trkpt lat="49.28999" lon="1.15224">
        <ele>59.7</ele>
        <time>2019-11-11T10:09:06Z</time>
      </trkpt>
      <trkpt lat="49.28998" lon="1.1523">
        <ele>60</ele>
        <time>2019-11-11T10:09:07Z</time>
      </trkpt>
      <trkpt lat="49.28998" lon="1.15236">
        <ele>60.4</ele>
        <time>2019-11-11T10:09:08Z</time>
      </trkpt>
      <trkpt lat="49.28997" lon="1.15242">
        <ele>60.9</ele>
        <time>2019-11-11T10:09:09Z</time>
      </trkpt>
      <trkpt lat="49.28996" lon="1.15248">
        <ele>61.3</ele>
        <time>2019-11-11T10:09:10Z</time>
      </trkpt>
      <trkpt lat="49.28996" lon="1.15254">
        <ele>61.6</ele>
        <time>2019-11-11T10:09:11Z</time>
      </trkpt>
      <trkpt lat="49.28995" lon="1.1526">
        <ele>61.4</ele>
        <time>2019-11-11T10:09:12Z</time>
      </trkpt>
      <trkpt lat="49.28995" lon="1.15266">
        <ele>61.2</ele>
        <time>2019-11-11T10:09:13Z</time>
      </trkpt>
      <trkpt lat="49.28994" lon="1.15272">
        <ele>61.1</ele>
        <time>2019-11-11T10:09:14Z</time>
      </trkpt>
      <trkpt lat="49.28993" lon="1.15278">
        <ele>61.1</ele>
        <time>2019-11-11T10:09:15Z</time>
      </trkpt>
      <trkpt lat="49.28993" lon="1.15285">
        <ele>61.1</ele>
        <time>2019-11-11T10:09:16Z</time>
      </trkpt>
      <trkpt lat="49.28992" lon="1.15291">
        <ele>61.2</ele>
        <time>2019-11-11T10:09:17Z</time>
      </trkpt>
      <trkpt lat="49.28991" lon="1.15297">
        <ele>61.3</ele>
        <time>2019-11-11T10:09:18Z</time>
      </trkpt>
      <trkpt lat="49.2899" lon="1.15303">
        <ele>61.5</ele>
        <time>2019-11-11T10:09:19Z</time>
      </trkpt>
      <trkpt lat="49.2899" lon="1.15309">
        <ele>61.7</ele>
        <time>2019-11-11T10:09:20Z</time>
      </trkpt>
      <trkpt lat="49.28989" lon="1.15315">
        <ele>61.9</ele>
        <time>2019-11-11T10:09:21Z</time>
      </trkpt>
      <trkpt lat="49.28988" lon="1.15321">
        <ele>62.2</ele>
        <time>2019-11-11T10:09:22Z</time>
      </trkpt>
      <trkpt lat="49.28987" lon="1.15327">
        <ele>62.4</ele>
        <time>2019-11-11T10:09:23Z</time>
      </trkpt>
      <trkpt lat="49.28986" lon="1.15333">
        <ele>62.5</ele>
        <time>2019-11-11T10:09:24Z</time>
      </trkpt>
      <trkpt lat="49.28985" lon="1.15339">
        <ele>63.2</ele>
        <time>2019-11-11T10:09:25Z</time>
      </trkpt>
      <trkpt lat="49.28985" lon="1.15345">
        <ele>63.1</ele>
        <time>2019-11-11T10:09:26Z</time>
      </trkpt>
      <trkpt lat="49.28984" lon="1.15351">
        <ele>63</ele>
        <time>2019-11-11T10:09:27Z</time>
      </trkpt>
      <trkpt lat="49.28983" lon="1.15357">
        <ele>62.9</ele>
        <time>2019-11-11T10:09:28Z</time>
      </trkpt>
      <trkpt lat="49.28983" lon="1.15363">
        <ele>62.9</ele>
        <time>2019-11-11T10:09:29Z</time>
      </trkpt>
      <trkpt lat="49.28982" lon="1.15369">
        <ele>62.9</ele>
        <time>2019-11-11T10:09:30Z</time>
      </trkpt>
      <trkpt lat="49.28981" lon="1.15375">
        <ele>62.9</ele>
        <time>2019-11-11T10:09:31Z</time>
      </trkpt>
      <trkpt lat="49.2898" lon="1.1538">
        <ele>63</ele>
        <time>2019-11-11T10:09:32Z</time>
      </trkpt>
      <trkpt lat="49.2898" lon="1.15387">
        <ele>63.1</ele>
        <time>2019-11-11T10:09:33Z</time>
      </trkpt>
      <trkpt lat="49.28979" lon="1.15393">
        <ele>63.2</ele>
        <time>2019-11-11T10:09:34Z</time>
      </trkpt>
      <trkpt lat="49.28978" lon="1.15399">
        <ele>63.3</ele>
        <time>2019-11-11T10:09:35Z</time>
      </trkpt>
      <trkpt lat="49.28977" lon="1.15405">
        <ele>63.4</ele>
        <time>2019-11-11T10:09:36Z</time>
      </trkpt>
      <trkpt lat="49.28977" lon="1.15412">
        <ele>63.5</ele>
        <time>2019-11-11T10:09:37Z</time>
      </trkpt>
      <trkpt lat="49.28976" lon="1.15418">
        <ele>63.8</ele>
        <time>2019-11-11T10:09:38Z</time>
      </trkpt>
      <trkpt lat="49.28975" lon="1.15425">
        <ele>63.7</ele>
        <time>2019-11-11T10:09:39Z</time>
      </trkpt>
      <trkpt lat="49.28974" lon="1.15431">
        <ele>63.6</ele>
        <time>2019-11-11T10:09:40Z</time>
      </trkpt>
      <trkpt lat="49.28974" lon="1.15438">
        <ele>63.5</ele>
        <time>2019-11-11T10:09:41Z</time>
      </trkpt>
      <trkpt lat="49.28973" lon="1.15444">
        <ele>63.4</ele>
        <time>2019-11-11T10:09:42Z</time>
      </trkpt>
      <trkpt lat="49.28972" lon="1.15451">
        <ele>63.3</ele>
        <time>2019-11-11T10:09:43Z</time>
      </trkpt>
      <trkpt lat="49.28971" lon="1.15458">
        <ele>63.3</ele>
        <time>2019-11-11T10:09:44Z</time>
      </trkpt>
      <trkpt lat="49.28971" lon="1.15464">
        <ele>63.3</ele>
        <time>2019-11-11T10:09:45Z</time>
      </trkpt>
      <trkpt lat="49.2897" lon="1.15471">
        <ele>63.4</ele>
        <time>2019-11-11T10:09:46Z</time>
      </trkpt>
      <trkpt lat="49.28969" lon="1.15478">
        <ele>63.4</ele>
        <time>2019-11-11T10:09:47Z</time>
      </trkpt>
      <trkpt lat="49.28968" lon="1.15484">
        <ele>63.4</ele>
        <time>2019-11-11T10:09:48Z</time>
      </trkpt>
      <trkpt lat="49.28967" lon="1.15491">
        <ele>63.4</ele>
        <time>2019-11-11T10:09:49Z</time>
      </trkpt>
      <trkpt lat="49.28966" lon="1.15498">
        <ele>63.4</ele>
        <time>2019-11-11T10:09:50Z</time>
      </trkpt>
      <trkpt lat="49.28965" lon="1.15505">
        <ele>63.5</ele>
        <time>2019-11-11T10:09:51Z</time>
      </trkpt>
      <trkpt lat="49.28964" lon="1.15512">
        <ele>63.4</ele>
        <time>2019-11-11T10:09:52Z</time>
      </trkpt>
      <trkpt lat="49.28963" lon="1.15519">
        <ele>63.3</ele>
        <time>2019-11-11T10:09:53Z</time>
      </trkpt>
      <trkpt lat="49.28963" lon="1.15526">
        <ele>63.3</ele>
        <time>2019-11-11T10:09:54Z</time>
      </trkpt>
      <trkpt lat="49.28962" lon="1.15533">
        <ele>63.2</ele>
        <time>2019-11-11T10:09:55Z</time>
      </trkpt>
      <trkpt lat="49.28961" lon="1.1554">
        <ele>63.1</ele>
        <time>2019-11-11T10:09:56Z</time>
      </trkpt>
      <trkpt lat="49.2896" lon="1.15547">
        <ele>63.1</ele>
        <time>2019-11-11T10:09:57Z</time>
      </trkpt>
      <trkpt lat="49.2896" lon="1.15554">
        <ele>63.1</ele>
        <time>2019-11-11T10:09:58Z</time>
      </trkpt>
      <trkpt lat="49.28959" lon="1.15561">
        <ele>63</ele>
        <time>2019-11-11T10:09:59Z</time>
      </trkpt>
      <trkpt lat="49.28959" lon="1.15568">
        <ele>63</ele>
        <time>2019-11-11T10:10:00Z</time>
      </trkpt>
      <trkpt lat="49.28958" lon="1.15575">
        <ele>63</ele>
        <time>2019-11-11T10:10:01Z</time>
      </trkpt>
      <trkpt lat="49.28957" lon="1.15582">
        <ele>62.9</ele>
        <time>2019-11-11T10:10:02Z</time>
      </trkpt>
      <trkpt lat="49.28956" lon="1.15589">
        <ele>62.2</ele>
        <time>2019-11-11T10:10:03Z</time>
      </trkpt>
      <trkpt lat="49.28955" lon="1.15596">
        <ele>62.1</ele>
        <time>2019-11-11T10:10:04Z</time>
      </trkpt>
      <trkpt lat="49.28954" lon="1.15603">
        <ele>62</ele>
        <time>2019-11-11T10:10:05Z</time>
      </trkpt>
      <trkpt lat="49.28953" lon="1.1561">
        <ele>61.9</ele>
        <time>2019-11-11T10:10:06Z</time>
      </trkpt>
      <trkpt lat="49.28953" lon="1.15617">
        <ele>61.9</ele>
        <time>2019-11-11T10:10:07Z</time>
      </trkpt>
      <trkpt lat="49.28952" lon="1.15623">
        <ele>61.8</ele>
        <time>2019-11-11T10:10:08Z</time>
      </trkpt>
      <trkpt lat="49.28951" lon="1.1563">
        <ele>61.7</ele>
        <time>2019-11-11T10:10:09Z</time>
      </trkpt>
      <trkpt lat="49.2895" lon="1.15637">
        <ele>61.6</ele>
        <time>2019-11-11T10:10:10Z</time>
      </trkpt>
      <trkpt lat="49.28949" lon="1.15643">
        <ele>61.5</ele>
        <time>2019-11-11T10:10:11Z</time>
      </trkpt>
      <trkpt lat="49.28948" lon="1.1565">
        <ele>61.3</ele>
        <time>2019-11-11T10:10:12Z</time>
      </trkpt>
      <trkpt lat="49.28948" lon="1.15656">
        <ele>61.3</ele>
        <time>2019-11-11T10:10:13Z</time>
      </trkpt>
      <trkpt lat="49.28947" lon="1.15661">
        <ele>61.2</ele>
        <time>2019-11-11T10:10:14Z</time>
      </trkpt>
      <trkpt lat="49.28946" lon="1.15667">
        <ele>61.3</ele>
        <time>2019-11-11T10:10:15Z</time>
      </trkpt>
      <trkpt lat="49.28946" lon="1.15672">
        <ele>61.4</ele>
        <time>2019-11-11T10:10:16Z</time>
      </trkpt>
      <trkpt lat="49.28945" lon="1.15677">
        <ele>61.4</ele>
        <time>2019-11-11T10:10:17Z</time>
      </trkpt>
      <trkpt lat="49.28944" lon="1.15682">
        <ele>61.5</ele>
        <time>2019-11-11T10:10:18Z</time>
      </trkpt>
      <trkpt lat="49.28943" lon="1.15687">
        <ele>61.6</ele>
        <time>2019-11-11T10:10:19Z</time>
      </trkpt>
      <trkpt lat="49.28943" lon="1.15691">
        <ele>61.7</ele>
        <time>2019-11-11T10:10:20Z</time>
      </trkpt>
      <trkpt lat="49.28942" lon="1.15695">
        <ele>61.8</ele>
        <time>2019-11-11T10:10:21Z</time>
      </trkpt>
      <trkpt lat="49.28942" lon="1.15698">
        <ele>61.9</ele>
        <time>2019-11-11T10:10:22Z</time>
      </trkpt>
      <trkpt lat="49.28942" lon="1.15701">
        <ele>62</ele>
        <time>2019-11-11T10:10:23Z</time>
      </trkpt>
      <trkpt lat="49.28942" lon="1.15703">
        <ele>62</ele>
        <time>2019-11-11T10:10:24Z</time>
      </trkpt>
      <trkpt lat="49.28942" lon="1.15705">
        <ele>62.1</ele>
        <time>2019-11-11T10:10:25Z</time>
      </trkpt>
      <trkpt lat="49.28942" lon="1.15707">
        <ele>62.2</ele>
        <time>2019-11-11T10:10:26Z</time>
      </trkpt>
      <trkpt lat="49.28942" lon="1.15709">
        <ele>62.2</ele>
        <time>2019-11-11T10:10:27Z</time>
      </trkpt>
      <trkpt lat="49.28942" lon="1.15709">
        <ele>62.2</ele>
        <time>2019-11-11T10:10:28Z</time>
      </trkpt>
      <trkpt lat="49.28942" lon="1.15715">
        <ele>62.4</ele>
        <time>2019-11-11T10:10:32Z</time>
      </trkpt>
      <trkpt lat="49.28943" lon="1.15719">
        <ele>62.5</ele>
        <time>2019-11-11T10:10:33Z</time>
      </trkpt>
      <trkpt lat="49.28945" lon="1.15721">
        <ele>62.5</ele>
        <time>2019-11-11T10:10:34Z</time>
      </trkpt>
      <trkpt lat="49.28948" lon="1.15723">
        <ele>62.6</ele>
        <time>2019-11-11T10:10:35Z</time>
      </trkpt>
      <trkpt lat="49.28951" lon="1.15723">
        <ele>62.5</ele>
        <time>2019-11-11T10:10:36Z</time>
      </trkpt>
      <trkpt lat="49.28954" lon="1.15722">
        <ele>62.5</ele>
        <time>2019-11-11T10:10:37Z</time>
      </trkpt>
      <trkpt lat="49.28957" lon="1.15722">
        <ele>62.5</ele>
        <time>2019-11-11T10:10:38Z</time>
      </trkpt>
      <trkpt lat="49.28961" lon="1.15721">
        <ele>62.4</ele>
        <time>2019-11-11T10:10:39Z</time>
      </trkpt>
      <trkpt lat="49.28964" lon="1.15721">
        <ele>62.4</ele>
        <time>2019-11-11T10:10:40Z</time>
      </trkpt>
      <trkpt lat="49.28968" lon="1.1572">
        <ele>62.4</ele>
        <time>2019-11-11T10:10:41Z</time>
      </trkpt>
      <trkpt lat="49.28971" lon="1.1572">
        <ele>62.4</ele>
        <time>2019-11-11T10:10:42Z</time>
      </trkpt>
      <trkpt lat="49.28975" lon="1.15719">
        <ele>62.3</ele>
        <time>2019-11-11T10:10:43Z</time>
      </trkpt>
      <trkpt lat="49.28979" lon="1.15719">
        <ele>62.3</ele>
        <time>2019-11-11T10:10:44Z</time>
      </trkpt>
      <trkpt lat="49.28983" lon="1.15719">
        <ele>62.3</ele>
        <time>2019-11-11T10:10:45Z</time>
      </trkpt>
      <trkpt lat="49.28986" lon="1.15718">
        <ele>62.3</ele>
        <time>2019-11-11T10:10:46Z</time>
      </trkpt>
      <trkpt lat="49.2899" lon="1.15718">
        <ele>62.3</ele>
        <time>2019-11-11T10:10:47Z</time>
      </trkpt>
      <trkpt lat="49.28994" lon="1.15718">
        <ele>62.3</ele>
        <time>2019-11-11T10:10:48Z</time>
      </trkpt>
      <trkpt lat="49.28998" lon="1.15717">
        <ele>62.3</ele>
        <time>2019-11-11T10:10:49Z</time>
      </trkpt>
      <trkpt lat="49.29002" lon="1.15717">
        <ele>63</ele>
        <time>2019-11-11T10:10:50Z</time>
      </trkpt>
      <trkpt lat="49.29005" lon="1.15716">
        <ele>63</ele>
        <time>2019-11-11T10:10:51Z</time>
      </trkpt>
      <trkpt lat="49.29009" lon="1.15716">
        <ele>63.1</ele>
        <time>2019-11-11T10:10:52Z</time>
      </trkpt>
      <trkpt lat="49.29012" lon="1.15715">
        <ele>63.1</ele>
        <time>2019-11-11T10:10:53Z</time>
      </trkpt>
      <trkpt lat="49.29016" lon="1.15715">
        <ele>63.1</ele>
        <time>2019-11-11T10:10:54Z</time>
      </trkpt>
      <trkpt lat="49.29019" lon="1.15714">
        <ele>63.2</ele>
        <time>2019-11-11T10:10:55Z</time>
      </trkpt>
      <trkpt lat="49.29023" lon="1.15714">
        <ele>63.2</ele>
        <time>2019-11-11T10:10:56Z</time>
      </trkpt>
      <trkpt lat="49.29026" lon="1.15713">
        <ele>63.3</ele>
        <time>2019-11-11T10:10:57Z</time>
      </trkpt>
      <trkpt lat="49.29029" lon="1.15713">
        <ele>63.3</ele>
        <time>2019-11-11T10:10:58Z</time>
      </trkpt>
      <trkpt lat="49.29033" lon="1.15712">
        <ele>63.3</ele>
        <time>2019-11-11T10:10:59Z</time>
      </trkpt>
      <trkpt lat="49.29036" lon="1.15712">
        <ele>63.4</ele>
        <time>2019-11-11T10:11:00Z</time>
      </trkpt>
      <trkpt lat="49.2904" lon="1.15711">
        <ele>63.4</ele>
        <time>2019-11-11T10:11:01Z</time>
      </trkpt>
      <trkpt lat="49.29044" lon="1.15711">
        <ele>63.5</ele>
        <time>2019-11-11T10:11:02Z</time>
      </trkpt>
      <trkpt lat="49.29048" lon="1.1571">
        <ele>63.5</ele>
        <time>2019-11-11T10:11:03Z</time>
      </trkpt>
      <trkpt lat="49.29052" lon="1.1571">
        <ele>63.6</ele>
        <time>2019-11-11T10:11:04Z</time>
      </trkpt>
      <trkpt lat="49.29056" lon="1.15709">
        <ele>63.6</ele>
        <time>2019-11-11T10:11:05Z</time>
      </trkpt>
      <trkpt lat="49.2906" lon="1.15708">
        <ele>63.7</ele>
        <time>2019-11-11T10:11:06Z</time>
      </trkpt>
      <trkpt lat="49.29064" lon="1.15708">
        <ele>63.8</ele>
        <time>2019-11-11T10:11:07Z</time>
      </trkpt>
      <trkpt lat="49.29068" lon="1.15707">
        <ele>63.8</ele>
        <time>2019-11-11T10:11:08Z</time>
      </trkpt>
      <trkpt lat="49.29072" lon="1.15707">
        <ele>63.9</ele>
        <time>2019-11-11T10:11:09Z</time>
      </trkpt>
      <trkpt lat="49.29076" lon="1.15706">
        <ele>63.9</ele>
        <time>2019-11-11T10:11:10Z</time>
      </trkpt>
      <trkpt lat="49.2908" lon="1.15706">
        <ele>64</ele>
        <time>2019-11-11T10:11:11Z</time>
      </trkpt>
      <trkpt lat="49.29085" lon="1.15706">
        <ele>64.5</ele>
        <time>2019-11-11T10:11:12Z</time>
      </trkpt>
      <trkpt lat="49.29089" lon="1.15705">
        <ele>64.5</ele>
        <time>2019-11-11T10:11:13Z</time>
      </trkpt>
      <trkpt lat="49.29093" lon="1.15704">
        <ele>64.5</ele>
        <time>2019-11-11T10:11:14Z</time>
      </trkpt>
      <trkpt lat="49.29098" lon="1.15704">
        <ele>64.5</ele>
        <time>2019-11-11T10:11:15Z</time>
      </trkpt>
      <trkpt lat="49.29102" lon="1.15703">
        <ele>64.5</ele>
        <time>2019-11-11T10:11:16Z</time>
      </trkpt>
      <trkpt lat="49.29106" lon="1.15702">
        <ele>64.5</ele>
        <time>2019-11-11T10:11:17Z</time>
      </trkpt>
      <trkpt lat="49.29111" lon="1.15702">
        <ele>64.5</ele>
        <time>2019-11-11T10:11:18Z</time>
      </trkpt>
      <trkpt lat="49.29115" lon="1.15701">
        <ele>64.5</ele>
        <time>2019-11-11T10:11:19Z</time>
      </trkpt>
      <trkpt lat="49.2912" lon="1.15701">
        <ele>64.5</ele>
        <time>2019-11-11T10:11:20Z</time>
      </trkpt>
      <trkpt lat="49.29124" lon="1.15701">
        <ele>64.5</ele>
        <time>2019-11-11T10:11:21Z</time>
      </trkpt>
      <trkpt lat="49.29129" lon="1.157">
        <ele>64.5</ele>
        <time>2019-11-11T10:11:22Z</time>
      </trkpt>
      <trkpt lat="49.29134" lon="1.15699">
        <ele>64.5</ele>
        <time>2019-11-11T10:11:23Z</time>
      </trkpt>
      <trkpt lat="49.29138" lon="1.15699">
        <ele>64.6</ele>
        <time>2019-11-11T10:11:24Z</time>
      </trkpt>
      <trkpt lat="49.29143" lon="1.15698">
        <ele>64.6</ele>
        <time>2019-11-11T10:11:25Z</time>
      </trkpt>
      <trkpt lat="49.29147" lon="1.15698">
        <ele>64.6</ele>
        <time>2019-11-11T10:11:26Z</time>
      </trkpt>
      <trkpt lat="49.29152" lon="1.15697">
        <ele>64.7</ele>
        <time>2019-11-11T10:11:27Z</time>
      </trkpt>
      <trkpt lat="49.29156" lon="1.15696">
        <ele>64.8</ele>
        <time>2019-11-11T10:11:28Z</time>
      </trkpt>
      <trkpt lat="49.29161" lon="1.15696">
        <ele>64.8</ele>
        <time>2019-11-11T10:11:29Z</time>
      </trkpt>
      <trkpt lat="49.29166" lon="1.15696">
        <ele>64.8</ele>
        <time>2019-11-11T10:11:30Z</time>
      </trkpt>
      <trkpt lat="49.2917" lon="1.15695">
        <ele>64.1</ele>
        <time>2019-11-11T10:11:31Z</time>
      </trkpt>
      <trkpt lat="49.29174" lon="1.15695">
        <ele>64.1</ele>
        <time>2019-11-11T10:11:32Z</time>
      </trkpt>
      <trkpt lat="49.29179" lon="1.15694">
        <ele>64</ele>
        <time>2019-11-11T10:11:33Z</time>
      </trkpt>
      <trkpt lat="49.29183" lon="1.15693">
        <ele>64</ele>
        <time>2019-11-11T10:11:34Z</time>
      </trkpt>
      <trkpt lat="49.29188" lon="1.15693">
        <ele>63.8</ele>
        <time>2019-11-11T10:11:35Z</time>
      </trkpt>
      <trkpt lat="49.29192" lon="1.15692">
        <ele>63.8</ele>
        <time>2019-11-11T10:11:36Z</time>
      </trkpt>
      <trkpt lat="49.29197" lon="1.15691">
        <ele>63.7</ele>
        <time>2019-11-11T10:11:37Z</time>
      </trkpt>
      <trkpt lat="49.29202" lon="1.15691">
        <ele>63.5</ele>
        <time>2019-11-11T10:11:38Z</time>
      </trkpt>
      <trkpt lat="49.29206" lon="1.1569">
        <ele>63.5</ele>
        <time>2019-11-11T10:11:39Z</time>
      </trkpt>
      <trkpt lat="49.29211" lon="1.15689">
        <ele>63.4</ele>
        <time>2019-11-11T10:11:40Z</time>
      </trkpt>
      <trkpt lat="49.29215" lon="1.15689">
        <ele>63.3</ele>
        <time>2019-11-11T10:11:41Z</time>
      </trkpt>
      <trkpt lat="49.2922" lon="1.15688">
        <ele>63.2</ele>
        <time>2019-11-11T10:11:42Z</time>
      </trkpt>
      <trkpt lat="49.29225" lon="1.15688">
        <ele>63.2</ele>
        <time>2019-11-11T10:11:43Z</time>
      </trkpt>
      <trkpt lat="49.2923" lon="1.15687">
        <ele>63.1</ele>
        <time>2019-11-11T10:11:44Z</time>
      </trkpt>
      <trkpt lat="49.29235" lon="1.15686">
        <ele>63.1</ele>
        <time>2019-11-11T10:11:45Z</time>
      </trkpt>
      <trkpt lat="49.2924" lon="1.15686">
        <ele>63</ele>
        <time>2019-11-11T10:11:46Z</time>
      </trkpt>
      <trkpt lat="49.29245" lon="1.15685">
        <ele>63</ele>
        <time>2019-11-11T10:11:47Z</time>
      </trkpt>
      <trkpt lat="49.2925" lon="1.15684">
        <ele>63</ele>
        <time>2019-11-11T10:11:48Z</time>
      </trkpt>
      <trkpt lat="49.29255" lon="1.15684">
        <ele>62.5</ele>
        <time>2019-11-11T10:11:49Z</time>
      </trkpt>
      <trkpt lat="49.2926" lon="1.15683">
        <ele>62.5</ele>
        <time>2019-11-11T10:11:50Z</time>
      </trkpt>
      <trkpt lat="49.29265" lon="1.15683">
        <ele>62.5</ele>
        <time>2019-11-11T10:11:51Z</time>
      </trkpt>
      <trkpt lat="49.2927" lon="1.15682">
        <ele>62.5</ele>
        <time>2019-11-11T10:11:52Z</time>
      </trkpt>
      <trkpt lat="49.29275" lon="1.15682">
        <ele>62.4</ele>
        <time>2019-11-11T10:11:53Z</time>
      </trkpt>
      <trkpt lat="49.2928" lon="1.15682">
        <ele>62.4</ele>
        <time>2019-11-11T10:11:54Z</time>
      </trkpt>
      <trkpt lat="49.29285" lon="1.15681">
        <ele>62.4</ele>
        <time>2019-11-11T10:11:55Z</time>
      </trkpt>
      <trkpt lat="49.2929" lon="1.15681">
        <ele>62.3</ele>
        <time>2019-11-11T10:11:56Z</time>
      </trkpt>
      <trkpt lat="49.29295" lon="1.15681">
        <ele>62.3</ele>
        <time>2019-11-11T10:11:57Z</time>
      </trkpt>
      <trkpt lat="49.293" lon="1.1568">
        <ele>62.3</ele>
        <time>2019-11-11T10:11:58Z</time>
      </trkpt>
      <trkpt lat="49.29305" lon="1.15679">
        <ele>62.3</ele>
        <time>2019-11-11T10:11:59Z</time>
      </trkpt>
      <trkpt lat="49.2931" lon="1.15679">
        <ele>62.2</ele>
        <time>2019-11-11T10:12:00Z</time>
      </trkpt>
      <trkpt lat="49.29315" lon="1.15678">
        <ele>62.2</ele>
        <time>2019-11-11T10:12:01Z</time>
      </trkpt>
      <trkpt lat="49.2932" lon="1.15678">
        <ele>62.2</ele>
        <time>2019-11-11T10:12:02Z</time>
      </trkpt>
      <trkpt lat="49.29325" lon="1.15677">
        <ele>62.2</ele>
        <time>2019-11-11T10:12:03Z</time>
      </trkpt>
      <trkpt lat="49.2933" lon="1.15677">
        <ele>62.1</ele>
        <time>2019-11-11T10:12:04Z</time>
      </trkpt>
      <trkpt lat="49.29335" lon="1.15676">
        <ele>61.9</ele>
        <time>2019-11-11T10:12:05Z</time>
      </trkpt>
      <trkpt lat="49.29341" lon="1.15675">
        <ele>61.9</ele>
        <time>2019-11-11T10:12:06Z</time>
      </trkpt>
      <trkpt lat="49.29346" lon="1.15675">
        <ele>61.9</ele>
        <time>2019-11-11T10:12:07Z</time>
      </trkpt>
      <trkpt lat="49.29351" lon="1.15674">
        <ele>61.9</ele>
        <time>2019-11-11T10:12:08Z</time>
      </trkpt>
      <trkpt lat="49.29356" lon="1.15674">
        <ele>61.8</ele>
        <time>2019-11-11T10:12:09Z</time>
      </trkpt>
      <trkpt lat="49.29361" lon="1.15673">
        <ele>61.8</ele>
        <time>2019-11-11T10:12:10Z</time>
      </trkpt>
      <trkpt lat="49.29367" lon="1.15672">
        <ele>61.7</ele>
        <time>2019-11-11T10:12:11Z</time>
      </trkpt>
      <trkpt lat="49.29372" lon="1.15672">
        <ele>61.7</ele>
        <time>2019-11-11T10:12:12Z</time>
      </trkpt>
      <trkpt lat="49.29377" lon="1.15671">
        <ele>61.6</ele>
        <time>2019-11-11T10:12:13Z</time>
      </trkpt>
      <trkpt lat="49.29383" lon="1.1567">
        <ele>61.6</ele>
        <time>2019-11-11T10:12:14Z</time>
      </trkpt>
      <trkpt lat="49.29388" lon="1.1567">
        <ele>61.5</ele>
        <time>2019-11-11T10:12:15Z</time>
      </trkpt>
      <trkpt lat="49.29393" lon="1.15669">
        <ele>61.5</ele>
        <time>2019-11-11T10:12:16Z</time>
      </trkpt>
      <trkpt lat="49.29398" lon="1.15669">
        <ele>61.4</ele>
        <time>2019-11-11T10:12:17Z</time>
      </trkpt>
      <trkpt lat="49.29403" lon="1.15668">
        <ele>61.3</ele>
        <time>2019-11-11T10:12:18Z</time>
      </trkpt>
      <trkpt lat="49.29408" lon="1.15667">
        <ele>61.2</ele>
        <time>2019-11-11T10:12:19Z</time>
      </trkpt>
      <trkpt lat="49.29413" lon="1.15667">
        <ele>61.1</ele>
        <time>2019-11-11T10:12:20Z</time>
      </trkpt>
      <trkpt lat="49.29419" lon="1.15666">
        <ele>60.8</ele>
        <time>2019-11-11T10:12:21Z</time>
      </trkpt>
      <trkpt lat="49.29424" lon="1.15665">
        <ele>60.5</ele>
        <time>2019-11-11T10:12:22Z</time>
      </trkpt>
      <trkpt lat="49.2943" lon="1.15664">
        <ele>60.2</ele>
        <time>2019-11-11T10:12:23Z</time>
      </trkpt>
      <trkpt lat="49.29435" lon="1.15664">
        <ele>60</ele>
        <time>2019-11-11T10:12:24Z</time>
      </trkpt>
      <trkpt lat="49.29441" lon="1.15663">
        <ele>59.8</ele>
        <time>2019-11-11T10:12:25Z</time>
      </trkpt>
      <trkpt lat="49.29446" lon="1.15662">
        <ele>59.6</ele>
        <time>2019-11-11T10:12:26Z</time>
      </trkpt>
      <trkpt lat="49.29452" lon="1.15661">
        <ele>59.5</ele>
        <time>2019-11-11T10:12:27Z</time>
      </trkpt>
      <trkpt lat="49.29458" lon="1.1566">
        <ele>59.4</ele>
        <time>2019-11-11T10:12:28Z</time>
      </trkpt>
      <trkpt lat="49.29463" lon="1.15659">
        <ele>59.3</ele>
        <time>2019-11-11T10:12:29Z</time>
      </trkpt>
      <trkpt lat="49.29469" lon="1.15657">
        <ele>59.2</ele>
        <time>2019-11-11T10:12:30Z</time>
      </trkpt>
      <trkpt lat="49.29474" lon="1.15656">
        <ele>59.1</ele>
        <time>2019-11-11T10:12:31Z</time>
      </trkpt>
      <trkpt lat="49.2948" lon="1.15655">
        <ele>59.1</ele>
        <time>2019-11-11T10:12:32Z</time>
      </trkpt>
      <trkpt lat="49.29485" lon="1.15654">
        <ele>59</ele>
        <time>2019-11-11T10:12:33Z</time>
      </trkpt>
      <trkpt lat="49.29491" lon="1.15653">
        <ele>59</ele>
        <time>2019-11-11T10:12:34Z</time>
      </trkpt>
      <trkpt lat="49.29497" lon="1.15652">
        <ele>59</ele>
        <time>2019-11-11T10:12:35Z</time>
      </trkpt>
      <trkpt lat="49.29503" lon="1.1565">
        <ele>58</ele>
        <time>2019-11-11T10:12:36Z</time>
      </trkpt>
      <trkpt lat="49.29508" lon="1.15649">
        <ele>57.9</ele>
        <time>2019-11-11T10:12:37Z</time>
      </trkpt>
      <trkpt lat="49.29514" lon="1.15649">
        <ele>57.8</ele>
        <time>2019-11-11T10:12:38Z</time>
      </trkpt>
      <trkpt lat="49.2952" lon="1.15649">
        <ele>57.6</ele>
        <time>2019-11-11T10:12:39Z</time>
      </trkpt>
      <trkpt lat="49.29527" lon="1.15649">
        <ele>57.5</ele>
        <time>2019-11-11T10:12:40Z</time>
      </trkpt>
      <trkpt lat="49.29533" lon="1.1565">
        <ele>57.3</ele>
        <time>2019-11-11T10:12:41Z</time>
      </trkpt>
      <trkpt lat="49.29539" lon="1.15652">
        <ele>57.2</ele>
        <time>2019-11-11T10:12:42Z</time>
      </trkpt>
      <trkpt lat="49.29545" lon="1.15655">
        <ele>57.1</ele>
        <time>2019-11-11T10:12:43Z</time>
      </trkpt>
      <trkpt lat="49.29551" lon="1.1566">
        <ele>57</ele>
        <time>2019-11-11T10:12:44Z</time>
      </trkpt>
      <trkpt lat="49.29557" lon="1.15664">
        <ele>56.8</ele>
        <time>2019-11-11T10:12:45Z</time>
      </trkpt>
      <trkpt lat="49.29563" lon="1.15668">
        <ele>57.2</ele>
        <time>2019-11-11T10:12:46Z</time>
      </trkpt>
      <trkpt lat="49.2957" lon="1.15669">
        <ele>56.9</ele>
        <time>2019-11-11T10:12:47Z</time>
      </trkpt>
      <trkpt lat="49.29576" lon="1.15669">
        <ele>56.6</ele>
        <time>2019-11-11T10:12:48Z</time>
      </trkpt>
      <trkpt lat="49.29583" lon="1.15666">
        <ele>56</ele>
        <time>2019-11-11T10:12:49Z</time>
      </trkpt>
      <trkpt lat="49.29589" lon="1.15662">
        <ele>55.2</ele>
        <time>2019-11-11T10:12:50Z</time>
      </trkpt>
      <trkpt lat="49.29594" lon="1.15655">
        <ele>54.6</ele>
        <time>2019-11-11T10:12:51Z</time>
      </trkpt>
      <trkpt lat="49.29598" lon="1.15648">
        <ele>54.2</ele>
        <time>2019-11-11T10:12:52Z</time>
      </trkpt>
      <trkpt lat="49.296" lon="1.1564">
        <ele>53.9</ele>
        <time>2019-11-11T10:12:53Z</time>
      </trkpt>
      <trkpt lat="49.29602" lon="1.15631">
        <ele>53.8</ele>
        <time>2019-11-11T10:12:54Z</time>
      </trkpt>
      <trkpt lat="49.29603" lon="1.15623">
        <ele>53.7</ele>
        <time>2019-11-11T10:12:55Z</time>
      </trkpt>
      <trkpt lat="49.29602" lon="1.15615">
        <ele>53.8</ele>
        <time>2019-11-11T10:12:56Z</time>
      </trkpt>
      <trkpt lat="49.29601" lon="1.15607">
        <ele>54</ele>
        <time>2019-11-11T10:12:57Z</time>
      </trkpt>
      <trkpt lat="49.29601" lon="1.156">
        <ele>54.1</ele>
        <time>2019-11-11T10:12:58Z</time>
      </trkpt>
      <trkpt lat="49.29601" lon="1.15593">
        <ele>54.3</ele>
        <time>2019-11-11T10:12:59Z</time>
      </trkpt>
      <trkpt lat="49.29602" lon="1.15587">
        <ele>54.3</ele>
        <time>2019-11-11T10:13:00Z</time>
      </trkpt>
      <trkpt lat="49.29604" lon="1.15581">
        <ele>54.1</ele>
        <time>2019-11-11T10:13:01Z</time>
      </trkpt>
      <trkpt lat="49.29606" lon="1.15576">
        <ele>53.9</ele>
        <time>2019-11-11T10:13:02Z</time>
      </trkpt>
      <trkpt lat="49.29609" lon="1.15571">
        <ele>53.6</ele>
        <time>2019-11-11T10:13:03Z</time>
      </trkpt>
      <trkpt lat="49.29613" lon="1.15568">
        <ele>53.4</ele>
        <time>2019-11-11T10:13:04Z</time>
      </trkpt>
      <trkpt lat="49.29617" lon="1.15564">
        <ele>53.2</ele>
        <time>2019-11-11T10:13:05Z</time>
      </trkpt>
      <trkpt lat="49.29622" lon="1.15562">
        <ele>52.9</ele>
        <time>2019-11-11T10:13:06Z</time>
      </trkpt>
      <trkpt lat="49.29627" lon="1.1556">
        <ele>52.7</ele>
        <time>2019-11-11T10:13:07Z</time>
      </trkpt>
      <trkpt lat="49.29632" lon="1.15559">
        <ele>52.5</ele>
        <time>2019-11-11T10:13:08Z</time>
      </trkpt>
      <trkpt lat="49.29638" lon="1.15559">
        <ele>52.3</ele>
        <time>2019-11-11T10:13:09Z</time>
      </trkpt>
      <trkpt lat="49.29644" lon="1.15562">
        <ele>52</ele>
        <time>2019-11-11T10:13:10Z</time>
      </trkpt>
      <trkpt lat="49.29651" lon="1.15565">
        <ele>51.7</ele>
        <time>2019-11-11T10:13:11Z</time>
      </trkpt>
      <trkpt lat="49.29657" lon="1.1557">
        <ele>51.3</ele>
        <time>2019-11-11T10:13:12Z</time>
      </trkpt>
      <trkpt lat="49.29663" lon="1.15575">
        <ele>50.8</ele>
        <time>2019-11-11T10:13:13Z</time>
      </trkpt>
      <trkpt lat="49.29669" lon="1.15581">
        <ele>49.7</ele>
        <time>2019-11-11T10:13:14Z</time>
      </trkpt>
      <trkpt lat="49.29676" lon="1.15587">
        <ele>49</ele>
        <time>2019-11-11T10:13:15Z</time>
      </trkpt>
      <trkpt lat="49.29682" lon="1.15593">
        <ele>48.4</ele>
        <time>2019-11-11T10:13:16Z</time>
      </trkpt>
      <trkpt lat="49.29689" lon="1.15599">
        <ele>47.8</ele>
        <time>2019-11-11T10:13:17Z</time>
      </trkpt>
      <trkpt lat="49.29696" lon="1.15606">
        <ele>47.4</ele>
        <time>2019-11-11T10:13:18Z</time>
      </trkpt>
      <trkpt lat="49.29703" lon="1.15611">
        <ele>47.1</ele>
        <time>2019-11-11T10:13:19Z</time>
      </trkpt>
      <trkpt lat="49.2971" lon="1.15616">
        <ele>46.8</ele>
        <time>2019-11-11T10:13:20Z</time>
      </trkpt>
      <trkpt lat="49.29719" lon="1.15619">
        <ele>46.4</ele>
        <time>2019-11-11T10:13:21Z</time>
      </trkpt>
      <trkpt lat="49.29727" lon="1.15621">
        <ele>46.1</ele>
        <time>2019-11-11T10:13:22Z</time>
      </trkpt>
      <trkpt lat="49.29736" lon="1.15622">
        <ele>45.8</ele>
        <time>2019-11-11T10:13:23Z</time>
      </trkpt>
      <trkpt lat="49.29745" lon="1.15621">
        <ele>45.7</ele>
        <time>2019-11-11T10:13:24Z</time>
      </trkpt>
      <trkpt lat="49.29754" lon="1.1562">
        <ele>42.2</ele>
        <time>2019-11-11T10:13:25Z</time>
      </trkpt>
      <trkpt lat="49.29762" lon="1.15619">
        <ele>42.1</ele>
        <time>2019-11-11T10:13:26Z</time>
      </trkpt>
      <trkpt lat="49.29771" lon="1.15617">
        <ele>42</ele>
        <time>2019-11-11T10:13:27Z</time>
      </trkpt>
      <trkpt lat="49.2978" lon="1.15616">
        <ele>41.8</ele>
        <time>2019-11-11T10:13:28Z</time>
      </trkpt>
      <trkpt lat="49.29788" lon="1.15614">
        <ele>41.6</ele>
        <time>2019-11-11T10:13:29Z</time>
      </trkpt>
      <trkpt lat="49.29796" lon="1.15613">
        <ele>41.4</ele>
        <time>2019-11-11T10:13:30Z</time>
      </trkpt>
      <trkpt lat="49.29805" lon="1.15611">
        <ele>41.2</ele>
        <time>2019-11-11T10:13:31Z</time>
      </trkpt>
      <trkpt lat="49.29813" lon="1.1561">
        <ele>41.1</ele>
        <time>2019-11-11T10:13:32Z</time>
      </trkpt>
      <trkpt lat="49.29821" lon="1.15609">
        <ele>40.9</ele>
        <time>2019-11-11T10:13:33Z</time>
      </trkpt>
      <trkpt lat="49.29829" lon="1.15608">
        <ele>40.9</ele>
        <time>2019-11-11T10:13:34Z</time>
      </trkpt>
      <trkpt lat="49.29837" lon="1.15608">
        <ele>39.1</ele>
        <time>2019-11-11T10:13:35Z</time>
      </trkpt>
      <trkpt lat="49.29845" lon="1.15607">
        <ele>39</ele>
        <time>2019-11-11T10:13:36Z</time>
      </trkpt>
      <trkpt lat="49.29854" lon="1.15606">
        <ele>38.8</ele>
        <time>2019-11-11T10:13:37Z</time>
      </trkpt>
      <trkpt lat="49.29862" lon="1.15606">
        <ele>38.7</ele>
        <time>2019-11-11T10:13:38Z</time>
      </trkpt>
      <trkpt lat="49.29871" lon="1.15605">
        <ele>38.5</ele>
        <time>2019-11-11T10:13:39Z</time>
      </trkpt>
      <trkpt lat="49.29879" lon="1.15604">
        <ele>38.4</ele>
        <time>2019-11-11T10:13:40Z</time>
      </trkpt>
      <trkpt lat="49.29888" lon="1.15603">
        <ele>38.4</ele>
        <time>2019-11-11T10:13:41Z</time>
      </trkpt>
      <trkpt lat="49.29897" lon="1.15601">
        <ele>38.4</ele>
        <time>2019-11-11T10:13:42Z</time>
      </trkpt>
      <trkpt lat="49.29905" lon="1.15599">
        <ele>38.4</ele>
        <time>2019-11-11T10:13:43Z</time>
      </trkpt>
      <trkpt lat="49.29914" lon="1.15598">
        <ele>38.5</ele>
        <time>2019-11-11T10:13:44Z</time>
      </trkpt>
      <trkpt lat="49.29922" lon="1.15597">
        <ele>36.8</ele>
        <time>2019-11-11T10:13:45Z</time>
      </trkpt>
      <trkpt lat="49.29931" lon="1.15595">
        <ele>36.4</ele>
        <time>2019-11-11T10:13:46Z</time>
      </trkpt>
      <trkpt lat="49.2994" lon="1.15595">
        <ele>35.7</ele>
        <time>2019-11-11T10:13:47Z</time>
      </trkpt>
      <trkpt lat="49.29948" lon="1.15595">
        <ele>35.1</ele>
        <time>2019-11-11T10:13:48Z</time>
      </trkpt>
      <trkpt lat="49.29957" lon="1.15594">
        <ele>34.6</ele>
        <time>2019-11-11T10:13:49Z</time>
      </trkpt>
      <trkpt lat="49.29965" lon="1.15593">
        <ele>34.1</ele>
        <time>2019-11-11T10:13:50Z</time>
      </trkpt>
      <trkpt lat="49.29974" lon="1.15592">
        <ele>33.5</ele>
        <time>2019-11-11T10:13:51Z</time>
      </trkpt>
      <trkpt lat="49.29982" lon="1.15592">
        <ele>33</ele>
        <time>2019-11-11T10:13:52Z</time>
      </trkpt>
      <trkpt lat="49.29989" lon="1.15591">
        <ele>32.5</ele>
        <time>2019-11-11T10:13:53Z</time>
      </trkpt>
      <trkpt lat="49.29995" lon="1.1559">
        <ele>32</ele>
        <time>2019-11-11T10:13:54Z</time>
      </trkpt>
      <trkpt lat="49.30002" lon="1.15589">
        <ele>30.8</ele>
        <time>2019-11-11T10:13:55Z</time>
      </trkpt>
      <trkpt lat="49.30008" lon="1.15588">
        <ele>30.7</ele>
        <time>2019-11-11T10:13:56Z</time>
      </trkpt>
      <trkpt lat="49.30015" lon="1.15587">
        <ele>30.6</ele>
        <time>2019-11-11T10:13:57Z</time>
      </trkpt>
      <trkpt lat="49.30021" lon="1.15586">
        <ele>30.4</ele>
        <time>2019-11-11T10:13:58Z</time>
      </trkpt>
      <trkpt lat="49.30027" lon="1.15586">
        <ele>30.3</ele>
        <time>2019-11-11T10:13:59Z</time>
      </trkpt>
      <trkpt lat="49.30034" lon="1.15585">
        <ele>30.2</ele>
        <time>2019-11-11T10:14:00Z</time>
      </trkpt>
      <trkpt lat="49.3004" lon="1.15584">
        <ele>30</ele>
        <time>2019-11-11T10:14:01Z</time>
      </trkpt>
      <trkpt lat="49.30046" lon="1.15583">
        <ele>29.9</ele>
        <time>2019-11-11T10:14:02Z</time>
      </trkpt>
      <trkpt lat="49.30052" lon="1.15583">
        <ele>29.8</ele>
        <time>2019-11-11T10:14:03Z</time>
      </trkpt>
      <trkpt lat="49.30058" lon="1.15582">
        <ele>29.7</ele>
        <time>2019-11-11T10:14:04Z</time>
      </trkpt>
      <trkpt lat="49.30064" lon="1.15581">
        <ele>29.6</ele>
        <time>2019-11-11T10:14:05Z</time>
      </trkpt>
      <trkpt lat="49.3007" lon="1.1558">
        <ele>29.4</ele>
        <time>2019-11-11T10:14:06Z</time>
      </trkpt>
      <trkpt lat="49.30076" lon="1.15579">
        <ele>29.3</ele>
        <time>2019-11-11T10:14:07Z</time>
      </trkpt>
      <trkpt lat="49.30082" lon="1.15578">
        <ele>29.2</ele>
        <time>2019-11-11T10:14:08Z</time>
      </trkpt>
      <trkpt lat="49.30088" lon="1.15577">
        <ele>28.7</ele>
        <time>2019-11-11T10:14:09Z</time>
      </trkpt>
      <trkpt lat="49.30094" lon="1.15576">
        <ele>28.6</ele>
        <time>2019-11-11T10:14:10Z</time>
      </trkpt>
      <trkpt lat="49.301" lon="1.15575">
        <ele>28.5</ele>
        <time>2019-11-11T10:14:11Z</time>
      </trkpt>
      <trkpt lat="49.30107" lon="1.15574">
        <ele>28.3</ele>
        <time>2019-11-11T10:14:12Z</time>
      </trkpt>
      <trkpt lat="49.30113" lon="1.15573">
        <ele>28.2</ele>
        <time>2019-11-11T10:14:13Z</time>
      </trkpt>
      <trkpt lat="49.30119" lon="1.15572">
        <ele>28.1</ele>
        <time>2019-11-11T10:14:14Z</time>
      </trkpt>
      <trkpt lat="49.30125" lon="1.15571">
        <ele>28</ele>
        <time>2019-11-11T10:14:15Z</time>
      </trkpt>
      <trkpt lat="49.30132" lon="1.1557">
        <ele>27.9</ele>
        <time>2019-11-11T10:14:16Z</time>
      </trkpt>
      <trkpt lat="49.30138" lon="1.15569">
        <ele>27.8</ele>
        <time>2019-11-11T10:14:17Z</time>
      </trkpt>
      <trkpt lat="49.30144" lon="1.15569">
        <ele>27.7</ele>
        <time>2019-11-11T10:14:18Z</time>
      </trkpt>
      <trkpt lat="49.3015" lon="1.15568">
        <ele>27.6</ele>
        <time>2019-11-11T10:14:19Z</time>
      </trkpt>
      <trkpt lat="49.30156" lon="1.15568">
        <ele>27.5</ele>
        <time>2019-11-11T10:14:20Z</time>
      </trkpt>
      <trkpt lat="49.30162" lon="1.15567">
        <ele>27.5</ele>
        <time>2019-11-11T10:14:21Z</time>
      </trkpt>
      <trkpt lat="49.30168" lon="1.15566">
        <ele>26.5</ele>
        <time>2019-11-11T10:14:22Z</time>
      </trkpt>
      <trkpt lat="49.30174" lon="1.15565">
        <ele>26.5</ele>
        <time>2019-11-11T10:14:23Z</time>
      </trkpt>
      <trkpt lat="49.3018" lon="1.15564">
        <ele>26.4</ele>
        <time>2019-11-11T10:14:24Z</time>
      </trkpt>
      <trkpt lat="49.30186" lon="1.15564">
        <ele>26.3</ele>
        <time>2019-11-11T10:14:25Z</time>
      </trkpt>
      <trkpt lat="49.30192" lon="1.15563">
        <ele>26.2</ele>
        <time>2019-11-11T10:14:26Z</time>
      </trkpt>
      <trkpt lat="49.30198" lon="1.15562">
        <ele>26.1</ele>
        <time>2019-11-11T10:14:27Z</time>
      </trkpt>
      <trkpt lat="49.30204" lon="1.15561">
        <ele>26.1</ele>
        <time>2019-11-11T10:14:28Z</time>
      </trkpt>
      <trkpt lat="49.3021" lon="1.1556">
        <ele>26</ele>
        <time>2019-11-11T10:14:29Z</time>
      </trkpt>
      <trkpt lat="49.30217" lon="1.1556">
        <ele>25.9</ele>
        <time>2019-11-11T10:14:30Z</time>
      </trkpt>
      <trkpt lat="49.30223" lon="1.1556">
        <ele>25.8</ele>
        <time>2019-11-11T10:14:31Z</time>
      </trkpt>
      <trkpt lat="49.30229" lon="1.1556">
        <ele>25.7</ele>
        <time>2019-11-11T10:14:32Z</time>
      </trkpt>
      <trkpt lat="49.30235" lon="1.1556">
        <ele>25.6</ele>
        <time>2019-11-11T10:14:33Z</time>
      </trkpt>
      <trkpt lat="49.30242" lon="1.15559">
        <ele>25.6</ele>
        <time>2019-11-11T10:14:34Z</time>
      </trkpt>
      <trkpt lat="49.30248" lon="1.15559">
        <ele>25.5</ele>
        <time>2019-11-11T10:14:35Z</time>
      </trkpt>
      <trkpt lat="49.30254" lon="1.15558">
        <ele>24.6</ele>
        <time>2019-11-11T10:14:36Z</time>
      </trkpt>
      <trkpt lat="49.30261" lon="1.15557">
        <ele>24.5</ele>
        <time>2019-11-11T10:14:37Z</time>
      </trkpt>
      <trkpt lat="49.30267" lon="1.15557">
        <ele>24.5</ele>
        <time>2019-11-11T10:14:38Z</time>
      </trkpt>
      <trkpt lat="49.30273" lon="1.15556">
        <ele>24.5</ele>
        <time>2019-11-11T10:14:39Z</time>
      </trkpt>
      <trkpt lat="49.30279" lon="1.15555">
        <ele>24.4</ele>
        <time>2019-11-11T10:14:40Z</time>
      </trkpt>
      <trkpt lat="49.30285" lon="1.15554">
        <ele>24.3</ele>
        <time>2019-11-11T10:14:41Z</time>
      </trkpt>
      <trkpt lat="49.30291" lon="1.15554">
        <ele>24.3</ele>
        <time>2019-11-11T10:14:42Z</time>
      </trkpt>
      <trkpt lat="49.30297" lon="1.15553">
        <ele>24.2</ele>
        <time>2019-11-11T10:14:43Z</time>
      </trkpt>
      <trkpt lat="49.30303" lon="1.15552">
        <ele>24.2</ele>
        <time>2019-11-11T10:14:44Z</time>
      </trkpt>
      <trkpt lat="49.30309" lon="1.15551">
        <ele>24.1</ele>
        <time>2019-11-11T10:14:45Z</time>
      </trkpt>
      <trkpt lat="49.30314" lon="1.1555">
        <ele>24.1</ele>
        <time>2019-11-11T10:14:46Z</time>
      </trkpt>
      <trkpt lat="49.30319" lon="1.15549">
        <ele>24.1</ele>
        <time>2019-11-11T10:14:47Z</time>
      </trkpt>
      <trkpt lat="49.30324" lon="1.15549">
        <ele>24</ele>
        <time>2019-11-11T10:14:48Z</time>
      </trkpt>
      <trkpt lat="49.30328" lon="1.15549">
        <ele>24</ele>
        <time>2019-11-11T10:14:49Z</time>
      </trkpt>
      <trkpt lat="49.30332" lon="1.15549">
        <ele>24</ele>
        <time>2019-11-11T10:14:50Z</time>
      </trkpt>
      <trkpt lat="49.30336" lon="1.15549">
        <ele>23.1</ele>
        <time>2019-11-11T10:14:51Z</time>
      </trkpt>
      <trkpt lat="49.30339" lon="1.15552">
        <ele>23.1</ele>
        <time>2019-11-11T10:14:52Z</time>
      </trkpt>
      <trkpt lat="49.30341" lon="1.15556">
        <ele>23.2</ele>
        <time>2019-11-11T10:14:53Z</time>
      </trkpt>
      <trkpt lat="49.30342" lon="1.15561">
        <ele>23.2</ele>
        <time>2019-11-11T10:14:54Z</time>
      </trkpt>
      <trkpt lat="49.30342" lon="1.15568">
        <ele>23.4</ele>
        <time>2019-11-11T10:14:55Z</time>
      </trkpt>
      <trkpt lat="49.30342" lon="1.15575">
        <ele>23.5</ele>
        <time>2019-11-11T10:14:56Z</time>
      </trkpt>
      <trkpt lat="49.30343" lon="1.15582">
        <ele>23.6</ele>
        <time>2019-11-11T10:14:57Z</time>
      </trkpt>
      <trkpt lat="49.30344" lon="1.1559">
        <ele>23.5</ele>
        <time>2019-11-11T10:14:58Z</time>
      </trkpt>
      <trkpt lat="49.30345" lon="1.15597">
        <ele>23.4</ele>
        <time>2019-11-11T10:14:59Z</time>
      </trkpt>
      <trkpt lat="49.30346" lon="1.15605">
        <ele>23.3</ele>
        <time>2019-11-11T10:15:00Z</time>
      </trkpt>
      <trkpt lat="49.30347" lon="1.15612">
        <ele>23.2</ele>
        <time>2019-11-11T10:15:01Z</time>
      </trkpt>
      <trkpt lat="49.30348" lon="1.1562">
        <ele>23.1</ele>
        <time>2019-11-11T10:15:02Z</time>
      </trkpt>
      <trkpt lat="49.30349" lon="1.15628">
        <ele>23.1</ele>
        <time>2019-11-11T10:15:03Z</time>
      </trkpt>
      <trkpt lat="49.3035" lon="1.15636">
        <ele>23.1</ele>
        <time>2019-11-11T10:15:04Z</time>
      </trkpt>
      <trkpt lat="49.30351" lon="1.15644">
        <ele>23.1</ele>
        <time>2019-11-11T10:15:05Z</time>
      </trkpt>
      <trkpt lat="49.30352" lon="1.15652">
        <ele>23.2</ele>
        <time>2019-11-11T10:15:06Z</time>
      </trkpt>
      <trkpt lat="49.30353" lon="1.15661">
        <ele>23.2</ele>
        <time>2019-11-11T10:15:07Z</time>
      </trkpt>
      <trkpt lat="49.30354" lon="1.15669">
        <ele>23</ele>
        <time>2019-11-11T10:15:08Z</time>
      </trkpt>
      <trkpt lat="49.30354" lon="1.15677">
        <ele>23</ele>
        <time>2019-11-11T10:15:09Z</time>
      </trkpt>
      <trkpt lat="49.30355" lon="1.15686">
        <ele>22.8</ele>
        <time>2019-11-11T10:15:10Z</time>
      </trkpt>
      <trkpt lat="49.30355" lon="1.15694">
        <ele>22.8</ele>
        <time>2019-11-11T10:15:11Z</time>
      </trkpt>
      <trkpt lat="49.30356" lon="1.15703">
        <ele>22.7</ele>
        <time>2019-11-11T10:15:12Z</time>
      </trkpt>
      <trkpt lat="49.30356" lon="1.15712">
        <ele>22.8</ele>
        <time>2019-11-11T10:15:13Z</time>
      </trkpt>
      <trkpt lat="49.30357" lon="1.1572">
        <ele>22.8</ele>
        <time>2019-11-11T10:15:14Z</time>
      </trkpt>
      <trkpt lat="49.30357" lon="1.15729">
        <ele>22.9</ele>
        <time>2019-11-11T10:15:15Z</time>
      </trkpt>
      <trkpt lat="49.30358" lon="1.15738">
        <ele>23</ele>
        <time>2019-11-11T10:15:16Z</time>
      </trkpt>
      <trkpt lat="49.30359" lon="1.15747">
        <ele>23</ele>
        <time>2019-11-11T10:15:17Z</time>
      </trkpt>
      <trkpt lat="49.3036" lon="1.15756">
        <ele>23</ele>
        <time>2019-11-11T10:15:18Z</time>
      </trkpt>
      <trkpt lat="49.30362" lon="1.15764">
        <ele>22.8</ele>
        <time>2019-11-11T10:15:19Z</time>
      </trkpt>
      <trkpt lat="49.30364" lon="1.15773">
        <ele>22.7</ele>
        <time>2019-11-11T10:15:20Z</time>
      </trkpt>
      <trkpt lat="49.30365" lon="1.15782">
        <ele>22.6</ele>
        <time>2019-11-11T10:15:21Z</time>
      </trkpt>
      <trkpt lat="49.30367" lon="1.15791">
        <ele>22.6</ele>
        <time>2019-11-11T10:15:22Z</time>
      </trkpt>
      <trkpt lat="49.30369" lon="1.15799">
        <ele>22.5</ele>
        <time>2019-11-11T10:15:23Z</time>
      </trkpt>
      <trkpt lat="49.30371" lon="1.15808">
        <ele>22.5</ele>
        <time>2019-11-11T10:15:24Z</time>
      </trkpt>
      <trkpt lat="49.30373" lon="1.15816">
        <ele>22.4</ele>
        <time>2019-11-11T10:15:25Z</time>
      </trkpt>
      <trkpt lat="49.30374" lon="1.15825">
        <ele>22.4</ele>
        <time>2019-11-11T10:15:26Z</time>
      </trkpt>
      <trkpt lat="49.30376" lon="1.15833">
        <ele>22.3</ele>
        <time>2019-11-11T10:15:27Z</time>
      </trkpt>
      <trkpt lat="49.30377" lon="1.15842">
        <ele>22.1</ele>
        <time>2019-11-11T10:15:28Z</time>
      </trkpt>
      <trkpt lat="49.30379" lon="1.1585">
        <ele>21.9</ele>
        <time>2019-11-11T10:15:29Z</time>
      </trkpt>
      <trkpt lat="49.3038" lon="1.15858">
        <ele>21.9</ele>
        <time>2019-11-11T10:15:30Z</time>
      </trkpt>
      <trkpt lat="49.30381" lon="1.15866">
        <ele>21.8</ele>
        <time>2019-11-11T10:15:31Z</time>
      </trkpt>
      <trkpt lat="49.30382" lon="1.15874">
        <ele>21.8</ele>
        <time>2019-11-11T10:15:32Z</time>
      </trkpt>
      <trkpt lat="49.30382" lon="1.15881">
        <ele>21.8</ele>
        <time>2019-11-11T10:15:33Z</time>
      </trkpt>
      <trkpt lat="49.30383" lon="1.15889">
        <ele>21.7</ele>
        <time>2019-11-11T10:15:34Z</time>
      </trkpt>
      <trkpt lat="49.30383" lon="1.15897">
        <ele>21.7</ele>
        <time>2019-11-11T10:15:35Z</time>
      </trkpt>
      <trkpt lat="49.30384" lon="1.15904">
        <ele>21.6</ele>
        <time>2019-11-11T10:15:36Z</time>
      </trkpt>
      <trkpt lat="49.30384" lon="1.15911">
        <ele>21.5</ele>
        <time>2019-11-11T10:15:37Z</time>
      </trkpt>
      <trkpt lat="49.30385" lon="1.15918">
        <ele>21.7</ele>
        <time>2019-11-11T10:15:38Z</time>
      </trkpt>
      <trkpt lat="49.30385" lon="1.15924">
        <ele>21.7</ele>
        <time>2019-11-11T10:15:39Z</time>
      </trkpt>
      <trkpt lat="49.30386" lon="1.15928">
        <ele>21.7</ele>
        <time>2019-11-11T10:15:40Z</time>
      </trkpt>
      <trkpt lat="49.30387" lon="1.15931">
        <ele>21.7</ele>
        <time>2019-11-11T10:15:41Z</time>
      </trkpt>
      <trkpt lat="49.30388" lon="1.15933">
        <ele>21.7</ele>
        <time>2019-11-11T10:15:42Z</time>
      </trkpt>
      <trkpt lat="49.30389" lon="1.15933">
        <ele>21.7</ele>
        <time>2019-11-11T10:15:43Z</time>
      </trkpt>
      <trkpt lat="49.30389" lon="1.15934">
        <ele>21.7</ele>
        <time>2019-11-11T10:15:44Z</time>
      </trkpt>
      <trkpt lat="49.3039" lon="1.15935">
        <ele>21.7</ele>
        <time>2019-11-11T10:15:45Z</time>
      </trkpt>
      <trkpt lat="49.30391" lon="1.15937">
        <ele>21.7</ele>
        <time>2019-11-11T10:15:46Z</time>
      </trkpt>
      <trkpt lat="49.30393" lon="1.1594">
        <ele>21.7</ele>
        <time>2019-11-11T10:15:47Z</time>
      </trkpt>
      <trkpt lat="49.30396" lon="1.15941">
        <ele>21.7</ele>
        <time>2019-11-11T10:15:48Z</time>
      </trkpt>
      <trkpt lat="49.30399" lon="1.15942">
        <ele>21.6</ele>
        <time>2019-11-11T10:15:49Z</time>
      </trkpt>
      <trkpt lat="49.30403" lon="1.15941">
        <ele>21.5</ele>
        <time>2019-11-11T10:15:50Z</time>
      </trkpt>
      <trkpt lat="49.30407" lon="1.15939">
        <ele>21.4</ele>
        <time>2019-11-11T10:15:51Z</time>
      </trkpt>
      <trkpt lat="49.30411" lon="1.15937">
        <ele>21.3</ele>
        <time>2019-11-11T10:15:52Z</time>
      </trkpt>
      <trkpt lat="49.30416" lon="1.15934">
        <ele>21.1</ele>
        <time>2019-11-11T10:15:53Z</time>
      </trkpt>
      <trkpt lat="49.30421" lon="1.15932">
        <ele>19.1</ele>
        <time>2019-11-11T10:15:54Z</time>
      </trkpt>
      <trkpt lat="49.30426" lon="1.15929">
        <ele>19</ele>
        <time>2019-11-11T10:15:55Z</time>
      </trkpt>
      <trkpt lat="49.30431" lon="1.15927">
        <ele>18.9</ele>
        <time>2019-11-11T10:15:56Z</time>
      </trkpt>
      <trkpt lat="49.30437" lon="1.15925">
        <ele>18.6</ele>
        <time>2019-11-11T10:15:57Z</time>
      </trkpt>
      <trkpt lat="49.30443" lon="1.15923">
        <ele>18.4</ele>
        <time>2019-11-11T10:15:58Z</time>
      </trkpt>
      <trkpt lat="49.30449" lon="1.15921">
        <ele>18.1</ele>
        <time>2019-11-11T10:15:59Z</time>
      </trkpt>
      <trkpt lat="49.30455" lon="1.15919">
        <ele>17.8</ele>
        <time>2019-11-11T10:16:00Z</time>
      </trkpt>
      <trkpt lat="49.30462" lon="1.15917">
        <ele>17.5</ele>
        <time>2019-11-11T10:16:01Z</time>
      </trkpt>
      <trkpt lat="49.30469" lon="1.15916">
        <ele>16.9</ele>
        <time>2019-11-11T10:16:02Z</time>
      </trkpt>
      <trkpt lat="49.30476" lon="1.15914">
        <ele>16.5</ele>
        <time>2019-11-11T10:16:03Z</time>
      </trkpt>
      <trkpt lat="49.30483" lon="1.15913">
        <ele>16.2</ele>
        <time>2019-11-11T10:16:04Z</time>
      </trkpt>
      <trkpt lat="49.30489" lon="1.15912">
        <ele>15.9</ele>
        <time>2019-11-11T10:16:05Z</time>
      </trkpt>
      <trkpt lat="49.30496" lon="1.1591">
        <ele>15.6</ele>
        <time>2019-11-11T10:16:06Z</time>
      </trkpt>
      <trkpt lat="49.30502" lon="1.15909">
        <ele>13.7</ele>
        <time>2019-11-11T10:16:07Z</time>
      </trkpt>
      <trkpt lat="49.30509" lon="1.15908">
        <ele>13</ele>
        <time>2019-11-11T10:16:08Z</time>
      </trkpt>
      <trkpt lat="49.30515" lon="1.15907">
        <ele>12.3</ele>
        <time>2019-11-11T10:16:09Z</time>
      </trkpt>
      <trkpt lat="49.30521" lon="1.15905">
        <ele>11.7</ele>
        <time>2019-11-11T10:16:10Z</time>
      </trkpt>
      <trkpt lat="49.30527" lon="1.15904">
        <ele>11.1</ele>
        <time>2019-11-11T10:16:11Z</time>
      </trkpt>
      <trkpt lat="49.30533" lon="1.15903">
        <ele>10.6</ele>
        <time>2019-11-11T10:16:12Z</time>
      </trkpt>
      <trkpt lat="49.30539" lon="1.15902">
        <ele>10.1</ele>
        <time>2019-11-11T10:16:13Z</time>
      </trkpt>
      <trkpt lat="49.30545" lon="1.15901">
        <ele>9.6</ele>
        <time>2019-11-11T10:16:14Z</time>
      </trkpt>
      <trkpt lat="49.30551" lon="1.159">
        <ele>9.1</ele>
        <time>2019-11-11T10:16:15Z</time>
      </trkpt>
      <trkpt lat="49.30558" lon="1.15898">
        <ele>8.5</ele>
        <time>2019-11-11T10:16:16Z</time>
      </trkpt>
      <trkpt lat="49.30564" lon="1.15897">
        <ele>8.1</ele>
        <time>2019-11-11T10:16:17Z</time>
      </trkpt>
      <trkpt lat="49.3057" lon="1.15896">
        <ele>7.7</ele>
        <time>2019-11-11T10:16:18Z</time>
      </trkpt>
      <trkpt lat="49.30577" lon="1.15895">
        <ele>7.4</ele>
        <time>2019-11-11T10:16:19Z</time>
      </trkpt>
      <trkpt lat="49.30583" lon="1.15894">
        <ele>7.3</ele>
        <time>2019-11-11T10:16:20Z</time>
      </trkpt>
      <trkpt lat="49.3059" lon="1.15892">
        <ele>5</ele>
        <time>2019-11-11T10:16:21Z</time>
      </trkpt>
      <trkpt lat="49.30596" lon="1.15891">
        <ele>5.1</ele>
        <time>2019-11-11T10:16:22Z</time>
      </trkpt>
      <trkpt lat="49.30602" lon="1.1589">
        <ele>5.2</ele>
        <time>2019-11-11T10:16:23Z</time>
      </trkpt>
      <trkpt lat="49.30609" lon="1.15889">
        <ele>5.3</ele>
        <time>2019-11-11T10:16:24Z</time>
      </trkpt>
      <trkpt lat="49.30615" lon="1.15888">
        <ele>5.4</ele>
        <time>2019-11-11T10:16:25Z</time>
      </trkpt>
      <trkpt lat="49.30621" lon="1.15886">
        <ele>5.5</ele>
        <time>2019-11-11T10:16:26Z</time>
      </trkpt>
      <trkpt lat="49.30627" lon="1.15885">
        <ele>5.5</ele>
        <time>2019-11-11T10:16:27Z</time>
      </trkpt>
      <trkpt lat="49.30632" lon="1.15884">
        <ele>5.6</ele>
        <time>2019-11-11T10:16:28Z</time>
      </trkpt>
      <trkpt lat="49.30638" lon="1.15883">
        <ele>5.6</ele>
        <time>2019-11-11T10:16:29Z</time>
      </trkpt>
      <trkpt lat="49.30644" lon="1.15882">
        <ele>5.7</ele>
        <time>2019-11-11T10:16:30Z</time>
      </trkpt>
      <trkpt lat="49.3065" lon="1.15881">
        <ele>5.7</ele>
        <time>2019-11-11T10:16:31Z</time>
      </trkpt>
      <trkpt lat="49.30655" lon="1.1588">
        <ele>5.7</ele>
        <time>2019-11-11T10:16:32Z</time>
      </trkpt>
      <trkpt lat="49.30661" lon="1.15879">
        <ele>5.7</ele>
        <time>2019-11-11T10:16:33Z</time>
      </trkpt>
      <trkpt lat="49.30667" lon="1.15877">
        <ele>5.1</ele>
        <time>2019-11-11T10:16:34Z</time>
      </trkpt>
      <trkpt lat="49.30672" lon="1.15876">
        <ele>5.1</ele>
        <time>2019-11-11T10:16:35Z</time>
      </trkpt>
      <trkpt lat="49.30678" lon="1.15875">
        <ele>5</ele>
        <time>2019-11-11T10:16:36Z</time>
      </trkpt>
      <trkpt lat="49.30684" lon="1.15874">
        <ele>4.9</ele>
        <time>2019-11-11T10:16:37Z</time>
      </trkpt>
      <trkpt lat="49.30689" lon="1.15873">
        <ele>4.8</ele>
        <time>2019-11-11T10:16:38Z</time>
      </trkpt>
      <trkpt lat="49.30695" lon="1.15872">
        <ele>4.7</ele>
        <time>2019-11-11T10:16:39Z</time>
      </trkpt>
      <trkpt lat="49.30701" lon="1.15871">
        <ele>4.6</ele>
        <time>2019-11-11T10:16:40Z</time>
      </trkpt>
      <trkpt lat="49.30707" lon="1.1587">
        <ele>4.5</ele>
        <time>2019-11-11T10:16:41Z</time>
      </trkpt>
      <trkpt lat="49.30712" lon="1.15869">
        <ele>4.4</ele>
        <time>2019-11-11T10:16:42Z</time>
      </trkpt>
      <trkpt lat="49.30718" lon="1.15868">
        <ele>4.3</ele>
        <time>2019-11-11T10:16:43Z</time>
      </trkpt>
      <trkpt lat="49.30723" lon="1.15867">
        <ele>4.2</ele>
        <time>2019-11-11T10:16:44Z</time>
      </trkpt>
      <trkpt lat="49.30729" lon="1.15866">
        <ele>4.1</ele>
        <time>2019-11-11T10:16:45Z</time>
      </trkpt>
      <trkpt lat="49.30734" lon="1.15865">
        <ele>4</ele>
        <time>2019-11-11T10:16:46Z</time>
      </trkpt>
      <trkpt lat="49.3074" lon="1.15864">
        <ele>3.9</ele>
        <time>2019-11-11T10:16:47Z</time>
      </trkpt>
      <trkpt lat="49.30745" lon="1.15862">
        <ele>3.9</ele>
        <time>2019-11-11T10:16:48Z</time>
      </trkpt>
      <trkpt lat="49.30751" lon="1.15861">
        <ele>3.9</ele>
        <time>2019-11-11T10:16:49Z</time>
      </trkpt>
      <trkpt lat="49.30757" lon="1.1586">
        <ele>3.9</ele>
        <time>2019-11-11T10:16:50Z</time>
      </trkpt>
      <trkpt lat="49.30763" lon="1.15859">
        <ele>4</ele>
        <time>2019-11-11T10:16:51Z</time>
      </trkpt>
      <trkpt lat="49.30769" lon="1.15858">
        <ele>4</ele>
        <time>2019-11-11T10:16:52Z</time>
      </trkpt>
      <trkpt lat="49.30775" lon="1.15857">
        <ele>4.2</ele>
        <time>2019-11-11T10:16:53Z</time>
      </trkpt>
      <trkpt lat="49.30781" lon="1.15856">
        <ele>4.3</ele>
        <time>2019-11-11T10:16:54Z</time>
      </trkpt>
      <trkpt lat="49.30787" lon="1.15854">
        <ele>4.4</ele>
        <time>2019-11-11T10:16:55Z</time>
      </trkpt>
      <trkpt lat="49.30793" lon="1.15853">
        <ele>4.5</ele>
        <time>2019-11-11T10:16:56Z</time>
      </trkpt>
      <trkpt lat="49.30798" lon="1.15852">
        <ele>4.6</ele>
        <time>2019-11-11T10:16:57Z</time>
      </trkpt>
      <trkpt lat="49.30804" lon="1.15851">
        <ele>4.8</ele>
        <time>2019-11-11T10:16:58Z</time>
      </trkpt>
      <trkpt lat="49.3081" lon="1.1585">
        <ele>4.9</ele>
        <time>2019-11-11T10:16:59Z</time>
      </trkpt>
      <trkpt lat="49.30815" lon="1.15849">
        <ele>5.1</ele>
        <time>2019-11-11T10:17:00Z</time>
      </trkpt>
      <trkpt lat="49.30821" lon="1.15848">
        <ele>5.2</ele>
        <time>2019-11-11T10:17:01Z</time>
      </trkpt>
      <trkpt lat="49.30828" lon="1.15847">
        <ele>5.4</ele>
        <time>2019-11-11T10:17:02Z</time>
      </trkpt>
      <trkpt lat="49.30834" lon="1.15845">
        <ele>6.5</ele>
        <time>2019-11-11T10:17:03Z</time>
      </trkpt>
      <trkpt lat="49.30839" lon="1.15844">
        <ele>6.6</ele>
        <time>2019-11-11T10:17:04Z</time>
      </trkpt>
      <trkpt lat="49.30845" lon="1.15843">
        <ele>6.7</ele>
        <time>2019-11-11T10:17:05Z</time>
      </trkpt>
      <trkpt lat="49.30851" lon="1.15842">
        <ele>6.9</ele>
        <time>2019-11-11T10:17:06Z</time>
      </trkpt>
      <trkpt lat="49.30857" lon="1.15841">
        <ele>7.1</ele>
        <time>2019-11-11T10:17:07Z</time>
      </trkpt>
      <trkpt lat="49.30863" lon="1.1584">
        <ele>7.3</ele>
        <time>2019-11-11T10:17:08Z</time>
      </trkpt>
      <trkpt lat="49.30869" lon="1.15839">
        <ele>7.5</ele>
        <time>2019-11-11T10:17:09Z</time>
      </trkpt>
      <trkpt lat="49.30875" lon="1.15838">
        <ele>7.7</ele>
        <time>2019-11-11T10:17:10Z</time>
      </trkpt>
      <trkpt lat="49.30881" lon="1.15837">
        <ele>7.9</ele>
        <time>2019-11-11T10:17:11Z</time>
      </trkpt>
      <trkpt lat="49.30887" lon="1.15836">
        <ele>8.1</ele>
        <time>2019-11-11T10:17:12Z</time>
      </trkpt>
      <trkpt lat="49.30894" lon="1.15835">
        <ele>8.4</ele>
        <time>2019-11-11T10:17:13Z</time>
      </trkpt>
      <trkpt lat="49.309" lon="1.15834">
        <ele>8.7</ele>
        <time>2019-11-11T10:17:14Z</time>
      </trkpt>
      <trkpt lat="49.30907" lon="1.15833">
        <ele>9.1</ele>
        <time>2019-11-11T10:17:15Z</time>
      </trkpt>
      <trkpt lat="49.30913" lon="1.15833">
        <ele>9.6</ele>
        <time>2019-11-11T10:17:16Z</time>
      </trkpt>
      <trkpt lat="49.30919" lon="1.15832">
        <ele>9.9</ele>
        <time>2019-11-11T10:17:17Z</time>
      </trkpt>
      <trkpt lat="49.30926" lon="1.15831">
        <ele>9.6</ele>
        <time>2019-11-11T10:17:18Z</time>
      </trkpt>
      <trkpt lat="49.30933" lon="1.1583">
        <ele>9.4</ele>
        <time>2019-11-11T10:17:19Z</time>
      </trkpt>
      <trkpt lat="49.30939" lon="1.15829">
        <ele>9.2</ele>
        <time>2019-11-11T10:17:20Z</time>
      </trkpt>
      <trkpt lat="49.30946" lon="1.15828">
        <ele>9.1</ele>
        <time>2019-11-11T10:17:21Z</time>
      </trkpt>
      <trkpt lat="49.30953" lon="1.15827">
        <ele>9.1</ele>
        <time>2019-11-11T10:17:22Z</time>
      </trkpt>
      <trkpt lat="49.3096" lon="1.15825">
        <ele>9</ele>
        <time>2019-11-11T10:17:23Z</time>
      </trkpt>
      <trkpt lat="49.30968" lon="1.15824">
        <ele>9</ele>
        <time>2019-11-11T10:17:24Z</time>
      </trkpt>
      <trkpt lat="49.30975" lon="1.15822">
        <ele>8.9</ele>
        <time>2019-11-11T10:17:25Z</time>
      </trkpt>
      <trkpt lat="49.30982" lon="1.1582">
        <ele>8.9</ele>
        <time>2019-11-11T10:17:26Z</time>
      </trkpt>
      <trkpt lat="49.3099" lon="1.15819">
        <ele>8.9</ele>
        <time>2019-11-11T10:17:27Z</time>
      </trkpt>
      <trkpt lat="49.30997" lon="1.15817">
        <ele>8.9</ele>
        <time>2019-11-11T10:17:28Z</time>
      </trkpt>
      <trkpt lat="49.31005" lon="1.15815">
        <ele>8.9</ele>
        <time>2019-11-11T10:17:29Z</time>
      </trkpt>
      <trkpt lat="49.31012" lon="1.15812">
        <ele>8.9</ele>
        <time>2019-11-11T10:17:30Z</time>
      </trkpt>
      <trkpt lat="49.31019" lon="1.1581">
        <ele>8.8</ele>
        <time>2019-11-11T10:17:31Z</time>
      </trkpt>
      <trkpt lat="49.31027" lon="1.15808">
        <ele>8.8</ele>
        <time>2019-11-11T10:17:32Z</time>
      </trkpt>
      <trkpt lat="49.31034" lon="1.15807">
        <ele>8.8</ele>
        <time>2019-11-11T10:17:33Z</time>
      </trkpt>
      <trkpt lat="49.31041" lon="1.15805">
        <ele>8.8</ele>
        <time>2019-11-11T10:17:34Z</time>
      </trkpt>
      <trkpt lat="49.31048" lon="1.15804">
        <ele>8.8</ele>
        <time>2019-11-11T10:17:35Z</time>
      </trkpt>
      <trkpt lat="49.31055" lon="1.15802">
        <ele>8.8</ele>
        <time>2019-11-11T10:17:36Z</time>
      </trkpt>
      <trkpt lat="49.31062" lon="1.15801">
        <ele>8.7</ele>
        <time>2019-11-11T10:17:37Z</time>
      </trkpt>
      <trkpt lat="49.31068" lon="1.158">
        <ele>8.7</ele>
        <time>2019-11-11T10:17:38Z</time>
      </trkpt>
      <trkpt lat="49.31075" lon="1.15799">
        <ele>8.7</ele>
        <time>2019-11-11T10:17:39Z</time>
      </trkpt>
      <trkpt lat="49.31081" lon="1.15798">
        <ele>8.7</ele>
        <time>2019-11-11T10:17:40Z</time>
      </trkpt>
      <trkpt lat="49.31088" lon="1.15797">
        <ele>8.4</ele>
        <time>2019-11-11T10:17:41Z</time>
      </trkpt>
      <trkpt lat="49.31094" lon="1.15796">
        <ele>8.4</ele>
        <time>2019-11-11T10:17:42Z</time>
      </trkpt>
      <trkpt lat="49.31101" lon="1.15796">
        <ele>8.3</ele>
        <time>2019-11-11T10:17:43Z</time>
      </trkpt>
      <trkpt lat="49.31107" lon="1.15795">
        <ele>8.3</ele>
        <time>2019-11-11T10:17:44Z</time>
      </trkpt>
      <trkpt lat="49.31114" lon="1.15795">
        <ele>8.3</ele>
        <time>2019-11-11T10:17:45Z</time>
      </trkpt>
      <trkpt lat="49.3112" lon="1.15795">
        <ele>8.3</ele>
        <time>2019-11-11T10:17:46Z</time>
      </trkpt>
      <trkpt lat="49.31126" lon="1.15795">
        <ele>8.3</ele>
        <time>2019-11-11T10:17:47Z</time>
      </trkpt>
      <trkpt lat="49.31133" lon="1.15796">
        <ele>8.2</ele>
        <time>2019-11-11T10:17:48Z</time>
      </trkpt>
      <trkpt lat="49.31139" lon="1.15797">
        <ele>8.2</ele>
        <time>2019-11-11T10:17:49Z</time>
      </trkpt>
      <trkpt lat="49.31145" lon="1.15798">
        <ele>8.2</ele>
        <time>2019-11-11T10:17:50Z</time>
      </trkpt>
      <trkpt lat="49.31152" lon="1.15799">
        <ele>8.2</ele>
        <time>2019-11-11T10:17:51Z</time>
      </trkpt>
      <trkpt lat="49.31158" lon="1.158">
        <ele>8.2</ele>
        <time>2019-11-11T10:17:52Z</time>
      </trkpt>
      <trkpt lat="49.31164" lon="1.15801">
        <ele>8.2</ele>
        <time>2019-11-11T10:17:53Z</time>
      </trkpt>
      <trkpt lat="49.31171" lon="1.15801">
        <ele>8.1</ele>
        <time>2019-11-11T10:17:54Z</time>
      </trkpt>
      <trkpt lat="49.31177" lon="1.15802">
        <ele>8.2</ele>
        <time>2019-11-11T10:17:55Z</time>
      </trkpt>
      <trkpt lat="49.31183" lon="1.15804">
        <ele>8.2</ele>
        <time>2019-11-11T10:17:56Z</time>
      </trkpt>
      <trkpt lat="49.31189" lon="1.15805">
        <ele>8.2</ele>
        <time>2019-11-11T10:17:57Z</time>
      </trkpt>
      <trkpt lat="49.31195" lon="1.15806">
        <ele>8.2</ele>
        <time>2019-11-11T10:17:58Z</time>
      </trkpt>
      <trkpt lat="49.31201" lon="1.15807">
        <ele>8.2</ele>
        <time>2019-11-11T10:17:59Z</time>
      </trkpt>
      <trkpt lat="49.31207" lon="1.15809">
        <ele>8.2</ele>
        <time>2019-11-11T10:18:00Z</time>
      </trkpt>
      <trkpt lat="49.31214" lon="1.1581">
        <ele>8.2</ele>
        <time>2019-11-11T10:18:01Z</time>
      </trkpt>
      <trkpt lat="49.3122" lon="1.15811">
        <ele>8.2</ele>
        <time>2019-11-11T10:18:02Z</time>
      </trkpt>
      <trkpt lat="49.31226" lon="1.15812">
        <ele>8.2</ele>
        <time>2019-11-11T10:18:03Z</time>
      </trkpt>
      <trkpt lat="49.31232" lon="1.15814">
        <ele>8.2</ele>
        <time>2019-11-11T10:18:04Z</time>
      </trkpt>
      <trkpt lat="49.31238" lon="1.15815">
        <ele>8.2</ele>
        <time>2019-11-11T10:18:05Z</time>
      </trkpt>
      <trkpt lat="49.31245" lon="1.15816">
        <ele>8.2</ele>
        <time>2019-11-11T10:18:06Z</time>
      </trkpt>
      <trkpt lat="49.31251" lon="1.15817">
        <ele>8.3</ele>
        <time>2019-11-11T10:18:07Z</time>
      </trkpt>
      <trkpt lat="49.31257" lon="1.15818">
        <ele>8.3</ele>
        <time>2019-11-11T10:18:08Z</time>
      </trkpt>
      <trkpt lat="49.31263" lon="1.1582">
        <ele>8.3</ele>
        <time>2019-11-11T10:18:09Z</time>
      </trkpt>
      <trkpt lat="49.31269" lon="1.15821">
        <ele>8.3</ele>
        <time>2019-11-11T10:18:10Z</time>
      </trkpt>
      <trkpt lat="49.31276" lon="1.15822">
        <ele>8.4</ele>
        <time>2019-11-11T10:18:11Z</time>
      </trkpt>
      <trkpt lat="49.31282" lon="1.15823">
        <ele>8.4</ele>
        <time>2019-11-11T10:18:12Z</time>
      </trkpt>
      <trkpt lat="49.31288" lon="1.15825">
        <ele>8.5</ele>
        <time>2019-11-11T10:18:13Z</time>
      </trkpt>
      <trkpt lat="49.31294" lon="1.15826">
        <ele>8.5</ele>
        <time>2019-11-11T10:18:14Z</time>
      </trkpt>
      <trkpt lat="49.313" lon="1.15827">
        <ele>8.6</ele>
        <time>2019-11-11T10:18:15Z</time>
      </trkpt>
      <trkpt lat="49.31306" lon="1.15828">
        <ele>8.6</ele>
        <time>2019-11-11T10:18:16Z</time>
      </trkpt>
      <trkpt lat="49.31312" lon="1.15829">
        <ele>8.7</ele>
        <time>2019-11-11T10:18:17Z</time>
      </trkpt>
      <trkpt lat="49.31318" lon="1.1583">
        <ele>8.7</ele>
        <time>2019-11-11T10:18:18Z</time>
      </trkpt>
      <trkpt lat="49.31324" lon="1.15832">
        <ele>8.8</ele>
        <time>2019-11-11T10:18:19Z</time>
      </trkpt>
      <trkpt lat="49.31329" lon="1.15833">
        <ele>8.9</ele>
        <time>2019-11-11T10:18:20Z</time>
      </trkpt>
      <trkpt lat="49.31335" lon="1.15834">
        <ele>8.9</ele>
        <time>2019-11-11T10:18:21Z</time>
      </trkpt>
      <trkpt lat="49.31341" lon="1.15834">
        <ele>8.5</ele>
        <time>2019-11-11T10:18:22Z</time>
      </trkpt>
      <trkpt lat="49.31347" lon="1.15835">
        <ele>8.3</ele>
        <time>2019-11-11T10:18:23Z</time>
      </trkpt>
      <trkpt lat="49.31353" lon="1.15837">
        <ele>8</ele>
        <time>2019-11-11T10:18:24Z</time>
      </trkpt>
      <trkpt lat="49.31359" lon="1.15838">
        <ele>7.9</ele>
        <time>2019-11-11T10:18:25Z</time>
      </trkpt>
      <trkpt lat="49.31364" lon="1.15839">
        <ele>7.7</ele>
        <time>2019-11-11T10:18:26Z</time>
      </trkpt>
      <trkpt lat="49.3137" lon="1.1584">
        <ele>7.6</ele>
        <time>2019-11-11T10:18:27Z</time>
      </trkpt>
      <trkpt lat="49.31376" lon="1.15842">
        <ele>7.5</ele>
        <time>2019-11-11T10:18:28Z</time>
      </trkpt>
      <trkpt lat="49.31382" lon="1.15843">
        <ele>7.4</ele>
        <time>2019-11-11T10:18:29Z</time>
      </trkpt>
      <trkpt lat="49.31388" lon="1.15844">
        <ele>7.3</ele>
        <time>2019-11-11T10:18:30Z</time>
      </trkpt>
      <trkpt lat="49.31393" lon="1.15845">
        <ele>7.3</ele>
        <time>2019-11-11T10:18:31Z</time>
      </trkpt>
      <trkpt lat="49.31399" lon="1.15847">
        <ele>7.2</ele>
        <time>2019-11-11T10:18:32Z</time>
      </trkpt>
      <trkpt lat="49.31405" lon="1.15848">
        <ele>7.1</ele>
        <time>2019-11-11T10:18:33Z</time>
      </trkpt>
      <trkpt lat="49.3141" lon="1.15849">
        <ele>7.1</ele>
        <time>2019-11-11T10:18:34Z</time>
      </trkpt>
      <trkpt lat="49.31416" lon="1.1585">
        <ele>7.1</ele>
        <time>2019-11-11T10:18:35Z</time>
      </trkpt>
      <trkpt lat="49.31421" lon="1.15851">
        <ele>7.1</ele>
        <time>2019-11-11T10:18:36Z</time>
      </trkpt>
      <trkpt lat="49.31427" lon="1.15852">
        <ele>7.1</ele>
        <time>2019-11-11T10:18:37Z</time>
      </trkpt>
      <trkpt lat="49.31433" lon="1.15853">
        <ele>7.2</ele>
        <time>2019-11-11T10:18:38Z</time>
      </trkpt>
      <trkpt lat="49.31438" lon="1.15854">
        <ele>7.2</ele>
        <time>2019-11-11T10:18:39Z</time>
      </trkpt>
      <trkpt lat="49.31444" lon="1.15855">
        <ele>7.3</ele>
        <time>2019-11-11T10:18:40Z</time>
      </trkpt>
      <trkpt lat="49.31449" lon="1.15856">
        <ele>7.3</ele>
        <time>2019-11-11T10:18:41Z</time>
      </trkpt>
      <trkpt lat="49.31455" lon="1.15857">
        <ele>7.4</ele>
        <time>2019-11-11T10:18:42Z</time>
      </trkpt>
      <trkpt lat="49.31461" lon="1.15858">
        <ele>7.4</ele>
        <time>2019-11-11T10:18:43Z</time>
      </trkpt>
      <trkpt lat="49.31466" lon="1.15859">
        <ele>7.5</ele>
        <time>2019-11-11T10:18:44Z</time>
      </trkpt>
      <trkpt lat="49.31472" lon="1.1586">
        <ele>7.6</ele>
        <time>2019-11-11T10:18:45Z</time>
      </trkpt>
      <trkpt lat="49.31477" lon="1.15862">
        <ele>7.6</ele>
        <time>2019-11-11T10:18:46Z</time>
      </trkpt>
      <trkpt lat="49.31482" lon="1.15863">
        <ele>7.6</ele>
        <time>2019-11-11T10:18:47Z</time>
      </trkpt>
      <trkpt lat="49.31488" lon="1.15864">
        <ele>7.7</ele>
        <time>2019-11-11T10:18:48Z</time>
      </trkpt>
      <trkpt lat="49.31492" lon="1.15865">
        <ele>7.7</ele>
        <time>2019-11-11T10:18:49Z</time>
      </trkpt>
      <trkpt lat="49.31497" lon="1.15867">
        <ele>7.7</ele>
        <time>2019-11-11T10:18:50Z</time>
      </trkpt>
      <trkpt lat="49.31502" lon="1.1587">
        <ele>8.9</ele>
        <time>2019-11-11T10:18:51Z</time>
      </trkpt>
      <trkpt lat="49.31507" lon="1.15873">
        <ele>8.8</ele>
        <time>2019-11-11T10:18:52Z</time>
      </trkpt>
      <trkpt lat="49.31511" lon="1.15876">
        <ele>8.8</ele>
        <time>2019-11-11T10:18:53Z</time>
      </trkpt>
      <trkpt lat="49.31516" lon="1.1588">
        <ele>8.8</ele>
        <time>2019-11-11T10:18:54Z</time>
      </trkpt>
      <trkpt lat="49.3152" lon="1.15885">
        <ele>8.8</ele>
        <time>2019-11-11T10:18:55Z</time>
      </trkpt>
      <trkpt lat="49.31523" lon="1.1589">
        <ele>8.8</ele>
        <time>2019-11-11T10:18:56Z</time>
      </trkpt>
      <trkpt lat="49.31526" lon="1.15896">
        <ele>8.8</ele>
        <time>2019-11-11T10:18:57Z</time>
      </trkpt>
      <trkpt lat="49.31528" lon="1.15903">
        <ele>8.8</ele>
        <time>2019-11-11T10:18:58Z</time>
      </trkpt>
      <trkpt lat="49.31531" lon="1.1591">
        <ele>8.8</ele>
        <time>2019-11-11T10:18:59Z</time>
      </trkpt>
      <trkpt lat="49.31535" lon="1.15915">
        <ele>8.9</ele>
        <time>2019-11-11T10:19:00Z</time>
      </trkpt>
      <trkpt lat="49.31539" lon="1.15918">
        <ele>8.4</ele>
        <time>2019-11-11T10:19:01Z</time>
      </trkpt>
      <trkpt lat="49.31544" lon="1.1592">
        <ele>8.6</ele>
        <time>2019-11-11T10:19:02Z</time>
      </trkpt>
      <trkpt lat="49.31548" lon="1.1592">
        <ele>8.8</ele>
        <time>2019-11-11T10:19:03Z</time>
      </trkpt>
      <trkpt lat="49.31553" lon="1.15918">
        <ele>9</ele>
        <time>2019-11-11T10:19:04Z</time>
      </trkpt>
      <trkpt lat="49.31557" lon="1.15914">
        <ele>9.7</ele>
        <time>2019-11-11T10:19:05Z</time>
      </trkpt>
      <trkpt lat="49.3156" lon="1.1591">
        <ele>9.8</ele>
        <time>2019-11-11T10:19:06Z</time>
      </trkpt>
      <trkpt lat="49.31563" lon="1.15904">
        <ele>9.8</ele>
        <time>2019-11-11T10:19:07Z</time>
      </trkpt>
      <trkpt lat="49.31566" lon="1.15899">
        <ele>9.8</ele>
        <time>2019-11-11T10:19:08Z</time>
      </trkpt>
      <trkpt lat="49.3157" lon="1.15894">
        <ele>9.8</ele>
        <time>2019-11-11T10:19:09Z</time>
      </trkpt>
      <trkpt lat="49.31575" lon="1.15891">
        <ele>9.9</ele>
        <time>2019-11-11T10:19:10Z</time>
      </trkpt>
      <trkpt lat="49.31579" lon="1.15889">
        <ele>9.9</ele>
        <time>2019-11-11T10:19:11Z</time>
      </trkpt>
      <trkpt lat="49.31584" lon="1.15887">
        <ele>10.5</ele>
        <time>2019-11-11T10:19:12Z</time>
      </trkpt>
      <trkpt lat="49.31589" lon="1.15885">
        <ele>10.4</ele>
        <time>2019-11-11T10:19:13Z</time>
      </trkpt>
      <trkpt lat="49.31594" lon="1.15883">
        <ele>10.4</ele>
        <time>2019-11-11T10:19:14Z</time>
      </trkpt>
      <trkpt lat="49.31598" lon="1.15882">
        <ele>10.4</ele>
        <time>2019-11-11T10:19:15Z</time>
      </trkpt>
      <trkpt lat="49.31603" lon="1.1588">
        <ele>10.3</ele>
        <time>2019-11-11T10:19:16Z</time>
      </trkpt>
      <trkpt lat="49.31608" lon="1.1588">
        <ele>10.3</ele>
        <time>2019-11-11T10:19:17Z</time>
      </trkpt>
      <trkpt lat="49.31612" lon="1.15879">
        <ele>10.3</ele>
        <time>2019-11-11T10:19:18Z</time>
      </trkpt>
      <trkpt lat="49.31617" lon="1.15879">
        <ele>10.3</ele>
        <time>2019-11-11T10:19:19Z</time>
      </trkpt>
      <trkpt lat="49.31622" lon="1.1588">
        <ele>10.3</ele>
        <time>2019-11-11T10:19:20Z</time>
      </trkpt>
      <trkpt lat="49.31626" lon="1.1588">
        <ele>10.3</ele>
        <time>2019-11-11T10:19:21Z</time>
      </trkpt>
      <trkpt lat="49.31631" lon="1.1588">
        <ele>10.2</ele>
        <time>2019-11-11T10:19:22Z</time>
      </trkpt>
      <trkpt lat="49.31636" lon="1.1588">
        <ele>10.2</ele>
        <time>2019-11-11T10:19:23Z</time>
      </trkpt>
      <trkpt lat="49.31641" lon="1.1588">
        <ele>10.2</ele>
        <time>2019-11-11T10:19:24Z</time>
      </trkpt>
      <trkpt lat="49.31646" lon="1.15881">
        <ele>10.2</ele>
        <time>2019-11-11T10:19:25Z</time>
      </trkpt>
      <trkpt lat="49.3165" lon="1.15881">
        <ele>10.2</ele>
        <time>2019-11-11T10:19:26Z</time>
      </trkpt>
      <trkpt lat="49.31655" lon="1.15881">
        <ele>10.2</ele>
        <time>2019-11-11T10:19:27Z</time>
      </trkpt>
      <trkpt lat="49.3166" lon="1.15881">
        <ele>10.2</ele>
        <time>2019-11-11T10:19:28Z</time>
      </trkpt>
      <trkpt lat="49.31665" lon="1.15881">
        <ele>10.2</ele>
        <time>2019-11-11T10:19:29Z</time>
      </trkpt>
      <trkpt lat="49.31669" lon="1.15881">
        <ele>9.8</ele>
        <time>2019-11-11T10:19:30Z</time>
      </trkpt>
      <trkpt lat="49.31674" lon="1.15882">
        <ele>9.8</ele>
        <time>2019-11-11T10:19:31Z</time>
      </trkpt>
      <trkpt lat="49.31679" lon="1.15882">
        <ele>9.8</ele>
        <time>2019-11-11T10:19:32Z</time>
      </trkpt>
      <trkpt lat="49.31684" lon="1.15882">
        <ele>9.8</ele>
        <time>2019-11-11T10:19:33Z</time>
      </trkpt>
      <trkpt lat="49.31689" lon="1.15882">
        <ele>9.8</ele>
        <time>2019-11-11T10:19:34Z</time>
      </trkpt>
      <trkpt lat="49.31694" lon="1.15882">
        <ele>9.8</ele>
        <time>2019-11-11T10:19:35Z</time>
      </trkpt>
      <trkpt lat="49.31699" lon="1.15882">
        <ele>9.8</ele>
        <time>2019-11-11T10:19:36Z</time>
      </trkpt>
      <trkpt lat="49.31704" lon="1.15882">
        <ele>9.8</ele>
        <time>2019-11-11T10:19:37Z</time>
      </trkpt>
      <trkpt lat="49.31709" lon="1.15882">
        <ele>9.8</ele>
        <time>2019-11-11T10:19:38Z</time>
      </trkpt>
      <trkpt lat="49.31714" lon="1.15882">
        <ele>9.8</ele>
        <time>2019-11-11T10:19:39Z</time>
      </trkpt>
      <trkpt lat="49.31718" lon="1.15882">
        <ele>9.7</ele>
        <time>2019-11-11T10:19:40Z</time>
      </trkpt>
      <trkpt lat="49.31723" lon="1.15881">
        <ele>9.7</ele>
        <time>2019-11-11T10:19:41Z</time>
      </trkpt>
      <trkpt lat="49.31729" lon="1.15881">
        <ele>9.7</ele>
        <time>2019-11-11T10:19:42Z</time>
      </trkpt>
      <trkpt lat="49.31734" lon="1.15881">
        <ele>9.7</ele>
        <time>2019-11-11T10:19:43Z</time>
      </trkpt>
      <trkpt lat="49.31739" lon="1.1588">
        <ele>9.7</ele>
        <time>2019-11-11T10:19:44Z</time>
      </trkpt>
      <trkpt lat="49.31745" lon="1.1588">
        <ele>9.7</ele>
        <time>2019-11-11T10:19:45Z</time>
      </trkpt>
      <trkpt lat="49.31751" lon="1.15879">
        <ele>9.2</ele>
        <time>2019-11-11T10:19:46Z</time>
      </trkpt>
      <trkpt lat="49.31756" lon="1.15879">
        <ele>9.2</ele>
        <time>2019-11-11T10:19:47Z</time>
      </trkpt>
      <trkpt lat="49.31762" lon="1.15878">
        <ele>9.2</ele>
        <time>2019-11-11T10:19:48Z</time>
      </trkpt>
      <trkpt lat="49.31768" lon="1.15877">
        <ele>9.1</ele>
        <time>2019-11-11T10:19:49Z</time>
      </trkpt>
      <trkpt lat="49.31774" lon="1.15876">
        <ele>9.1</ele>
        <time>2019-11-11T10:19:50Z</time>
      </trkpt>
      <trkpt lat="49.3178" lon="1.15876">
        <ele>9.1</ele>
        <time>2019-11-11T10:19:51Z</time>
      </trkpt>
      <trkpt lat="49.31786" lon="1.15875">
        <ele>9</ele>
        <time>2019-11-11T10:19:52Z</time>
      </trkpt>
      <trkpt lat="49.31792" lon="1.15873">
        <ele>9</ele>
        <time>2019-11-11T10:19:53Z</time>
      </trkpt>
      <trkpt lat="49.31798" lon="1.15872">
        <ele>8.9</ele>
        <time>2019-11-11T10:19:54Z</time>
      </trkpt>
      <trkpt lat="49.31804" lon="1.1587">
        <ele>8.9</ele>
        <time>2019-11-11T10:19:55Z</time>
      </trkpt>
      <trkpt lat="49.3181" lon="1.15869">
        <ele>8.9</ele>
        <time>2019-11-11T10:19:56Z</time>
      </trkpt>
      <trkpt lat="49.31816" lon="1.15867">
        <ele>8.8</ele>
        <time>2019-11-11T10:19:57Z</time>
      </trkpt>
      <trkpt lat="49.31822" lon="1.15865">
        <ele>8.7</ele>
        <time>2019-11-11T10:19:58Z</time>
      </trkpt>
      <trkpt lat="49.31828" lon="1.15864">
        <ele>8.7</ele>
        <time>2019-11-11T10:19:59Z</time>
      </trkpt>
      <trkpt lat="49.31834" lon="1.15861">
        <ele>9.1</ele>
        <time>2019-11-11T10:20:00Z</time>
      </trkpt>
      <trkpt lat="49.31839" lon="1.15859">
        <ele>9.1</ele>
        <time>2019-11-11T10:20:01Z</time>
      </trkpt>
      <trkpt lat="49.31845" lon="1.15856">
        <ele>9.1</ele>
        <time>2019-11-11T10:20:02Z</time>
      </trkpt>
      <trkpt lat="49.31851" lon="1.15854">
        <ele>9.2</ele>
        <time>2019-11-11T10:20:03Z</time>
      </trkpt>
      <trkpt lat="49.31856" lon="1.15851">
        <ele>9.3</ele>
        <time>2019-11-11T10:20:04Z</time>
      </trkpt>
      <trkpt lat="49.31862" lon="1.15848">
        <ele>9.4</ele>
        <time>2019-11-11T10:20:05Z</time>
      </trkpt>
      <trkpt lat="49.31868" lon="1.15845">
        <ele>9.5</ele>
        <time>2019-11-11T10:20:06Z</time>
      </trkpt>
      <trkpt lat="49.31874" lon="1.15843">
        <ele>9.6</ele>
        <time>2019-11-11T10:20:07Z</time>
      </trkpt>
      <trkpt lat="49.3188" lon="1.15839">
        <ele>9.8</ele>
        <time>2019-11-11T10:20:08Z</time>
      </trkpt>
      <trkpt lat="49.31885" lon="1.15836">
        <ele>9.9</ele>
        <time>2019-11-11T10:20:09Z</time>
      </trkpt>
      <trkpt lat="49.3189" lon="1.15832">
        <ele>9.9</ele>
        <time>2019-11-11T10:20:10Z</time>
      </trkpt>
      <trkpt lat="49.31895" lon="1.15827">
        <ele>10</ele>
        <time>2019-11-11T10:20:11Z</time>
      </trkpt>
      <trkpt lat="49.31899" lon="1.15821">
        <ele>10.1</ele>
        <time>2019-11-11T10:20:12Z</time>
      </trkpt>
      <trkpt lat="49.31903" lon="1.15815">
        <ele>10.1</ele>
        <time>2019-11-11T10:20:13Z</time>
      </trkpt>
      <trkpt lat="49.31907" lon="1.15809">
        <ele>10</ele>
        <time>2019-11-11T10:20:14Z</time>
      </trkpt>
      <trkpt lat="49.3191" lon="1.15802">
        <ele>9.9</ele>
        <time>2019-11-11T10:20:15Z</time>
      </trkpt>
      <trkpt lat="49.31912" lon="1.15796">
        <ele>9.9</ele>
        <time>2019-11-11T10:20:16Z</time>
      </trkpt>
      <trkpt lat="49.31914" lon="1.1579">
        <ele>9.9</ele>
        <time>2019-11-11T10:20:17Z</time>
      </trkpt>
      <trkpt lat="49.31917" lon="1.15783">
        <ele>12.4</ele>
        <time>2019-11-11T10:20:18Z</time>
      </trkpt>
      <trkpt lat="49.3192" lon="1.15776">
        <ele>12.2</ele>
        <time>2019-11-11T10:20:19Z</time>
      </trkpt>
      <trkpt lat="49.31924" lon="1.1577">
        <ele>12.1</ele>
        <time>2019-11-11T10:20:20Z</time>
      </trkpt>
      <trkpt lat="49.31927" lon="1.15764">
        <ele>11.9</ele>
        <time>2019-11-11T10:20:21Z</time>
      </trkpt>
      <trkpt lat="49.3193" lon="1.15757">
        <ele>11.7</ele>
        <time>2019-11-11T10:20:22Z</time>
      </trkpt>
      <trkpt lat="49.31931" lon="1.1575">
        <ele>11.3</ele>
        <time>2019-11-11T10:20:23Z</time>
      </trkpt>
      <trkpt lat="49.31931" lon="1.15742">
        <ele>11.4</ele>
        <time>2019-11-11T10:20:24Z</time>
      </trkpt>
      <trkpt lat="49.31929" lon="1.15735">
        <ele>11.5</ele>
        <time>2019-11-11T10:20:25Z</time>
      </trkpt>
      <trkpt lat="49.31926" lon="1.15728">
        <ele>11.6</ele>
        <time>2019-11-11T10:20:26Z</time>
      </trkpt>
      <trkpt lat="49.31922" lon="1.15723">
        <ele>11.7</ele>
        <time>2019-11-11T10:20:27Z</time>
      </trkpt>
      <trkpt lat="49.31917" lon="1.15719">
        <ele>11.6</ele>
        <time>2019-11-11T10:20:28Z</time>
      </trkpt>
      <trkpt lat="49.31911" lon="1.15714">
        <ele>9.8</ele>
        <time>2019-11-11T10:20:29Z</time>
      </trkpt>
      <trkpt lat="49.31907" lon="1.15709">
        <ele>9.8</ele>
        <time>2019-11-11T10:20:30Z</time>
      </trkpt>
      <trkpt lat="49.31903" lon="1.15702">
        <ele>9.8</ele>
        <time>2019-11-11T10:20:31Z</time>
      </trkpt>
      <trkpt lat="49.31901" lon="1.15694">
        <ele>9.8</ele>
        <time>2019-11-11T10:20:32Z</time>
      </trkpt>
      <trkpt lat="49.319" lon="1.15685">
        <ele>9.9</ele>
        <time>2019-11-11T10:20:33Z</time>
      </trkpt>
      <trkpt lat="49.31899" lon="1.15677">
        <ele>9.9</ele>
        <time>2019-11-11T10:20:34Z</time>
      </trkpt>
      <trkpt lat="49.31899" lon="1.15668">
        <ele>9.9</ele>
        <time>2019-11-11T10:20:35Z</time>
      </trkpt>
      <trkpt lat="49.31899" lon="1.15659">
        <ele>9.9</ele>
        <time>2019-11-11T10:20:36Z</time>
      </trkpt>
      <trkpt lat="49.31898" lon="1.15651">
        <ele>9.9</ele>
        <time>2019-11-11T10:20:37Z</time>
      </trkpt>
      <trkpt lat="49.31898" lon="1.15642">
        <ele>9.8</ele>
        <time>2019-11-11T10:20:38Z</time>
      </trkpt>
      <trkpt lat="49.31897" lon="1.15634">
        <ele>9.8</ele>
        <time>2019-11-11T10:20:39Z</time>
      </trkpt>
      <trkpt lat="49.31897" lon="1.15626">
        <ele>9.8</ele>
        <time>2019-11-11T10:20:40Z</time>
      </trkpt>
      <trkpt lat="49.31897" lon="1.15618">
        <ele>9.8</ele>
        <time>2019-11-11T10:20:41Z</time>
      </trkpt>
      <trkpt lat="49.31896" lon="1.1561">
        <ele>9.8</ele>
        <time>2019-11-11T10:20:42Z</time>
      </trkpt>
      <trkpt lat="49.31896" lon="1.15602">
        <ele>9.8</ele>
        <time>2019-11-11T10:20:43Z</time>
      </trkpt>
      <trkpt lat="49.31896" lon="1.15593">
        <ele>9.8</ele>
        <time>2019-11-11T10:20:44Z</time>
      </trkpt>
      <trkpt lat="49.31895" lon="1.15585">
        <ele>9.8</ele>
        <time>2019-11-11T10:20:45Z</time>
      </trkpt>
      <trkpt lat="49.31895" lon="1.15577">
        <ele>9.6</ele>
        <time>2019-11-11T10:20:46Z</time>
      </trkpt>
      <trkpt lat="49.31895" lon="1.15569">
        <ele>9.5</ele>
        <time>2019-11-11T10:20:47Z</time>
      </trkpt>
      <trkpt lat="49.31895" lon="1.15561">
        <ele>9.5</ele>
        <time>2019-11-11T10:20:48Z</time>
      </trkpt>
      <trkpt lat="49.31894" lon="1.15553">
        <ele>9.4</ele>
        <time>2019-11-11T10:20:49Z</time>
      </trkpt>
      <trkpt lat="49.31894" lon="1.15545">
        <ele>9.4</ele>
        <time>2019-11-11T10:20:50Z</time>
      </trkpt>
      <trkpt lat="49.31893" lon="1.15538">
        <ele>9.4</ele>
        <time>2019-11-11T10:20:51Z</time>
      </trkpt>
      <trkpt lat="49.31893" lon="1.1553">
        <ele>9.4</ele>
        <time>2019-11-11T10:20:52Z</time>
      </trkpt>
      <trkpt lat="49.31893" lon="1.15522">
        <ele>9.4</ele>
        <time>2019-11-11T10:20:53Z</time>
      </trkpt>
      <trkpt lat="49.31892" lon="1.15515">
        <ele>9.4</ele>
        <time>2019-11-11T10:20:54Z</time>
      </trkpt>
      <trkpt lat="49.31892" lon="1.15507">
        <ele>9.4</ele>
        <time>2019-11-11T10:20:55Z</time>
      </trkpt>
      <trkpt lat="49.31891" lon="1.155">
        <ele>9.4</ele>
        <time>2019-11-11T10:20:56Z</time>
      </trkpt>
      <trkpt lat="49.31891" lon="1.15492">
        <ele>9</ele>
        <time>2019-11-11T10:20:57Z</time>
      </trkpt>
      <trkpt lat="49.3189" lon="1.15485">
        <ele>8.9</ele>
        <time>2019-11-11T10:20:58Z</time>
      </trkpt>
      <trkpt lat="49.3189" lon="1.15477">
        <ele>8.8</ele>
        <time>2019-11-11T10:20:59Z</time>
      </trkpt>
      <trkpt lat="49.31889" lon="1.1547">
        <ele>8.8</ele>
        <time>2019-11-11T10:21:00Z</time>
      </trkpt>
      <trkpt lat="49.31889" lon="1.15462">
        <ele>8.7</ele>
        <time>2019-11-11T10:21:01Z</time>
      </trkpt>
      <trkpt lat="49.31888" lon="1.15454">
        <ele>8.6</ele>
        <time>2019-11-11T10:21:02Z</time>
      </trkpt>
      <trkpt lat="49.31888" lon="1.15446">
        <ele>8.6</ele>
        <time>2019-11-11T10:21:03Z</time>
      </trkpt>
      <trkpt lat="49.31887" lon="1.15438">
        <ele>8.5</ele>
        <time>2019-11-11T10:21:04Z</time>
      </trkpt>
      <trkpt lat="49.31886" lon="1.1543">
        <ele>8.5</ele>
        <time>2019-11-11T10:21:05Z</time>
      </trkpt>
      <trkpt lat="49.31886" lon="1.15422">
        <ele>8.5</ele>
        <time>2019-11-11T10:21:06Z</time>
      </trkpt>
      <trkpt lat="49.31885" lon="1.15413">
        <ele>8</ele>
        <time>2019-11-11T10:21:07Z</time>
      </trkpt>
      <trkpt lat="49.31885" lon="1.15405">
        <ele>8</ele>
        <time>2019-11-11T10:21:08Z</time>
      </trkpt>
      <trkpt lat="49.31885" lon="1.15398">
        <ele>8</ele>
        <time>2019-11-11T10:21:09Z</time>
      </trkpt>
      <trkpt lat="49.31884" lon="1.1539">
        <ele>7.9</ele>
        <time>2019-11-11T10:21:10Z</time>
      </trkpt>
      <trkpt lat="49.31884" lon="1.15382">
        <ele>7.9</ele>
        <time>2019-11-11T10:21:11Z</time>
      </trkpt>
      <trkpt lat="49.31884" lon="1.15374">
        <ele>7.8</ele>
        <time>2019-11-11T10:21:12Z</time>
      </trkpt>
      <trkpt lat="49.31884" lon="1.15366">
        <ele>7.8</ele>
        <time>2019-11-11T10:21:13Z</time>
      </trkpt>
      <trkpt lat="49.31884" lon="1.15358">
        <ele>7.8</ele>
        <time>2019-11-11T10:21:14Z</time>
      </trkpt>
      <trkpt lat="49.31884" lon="1.15351">
        <ele>7.8</ele>
        <time>2019-11-11T10:21:15Z</time>
      </trkpt>
      <trkpt lat="49.31884" lon="1.15343">
        <ele>7.7</ele>
        <time>2019-11-11T10:21:16Z</time>
      </trkpt>
      <trkpt lat="49.31884" lon="1.15336">
        <ele>7.7</ele>
        <time>2019-11-11T10:21:17Z</time>
      </trkpt>
      <trkpt lat="49.31884" lon="1.15328">
        <ele>7.6</ele>
        <time>2019-11-11T10:21:18Z</time>
      </trkpt>
      <trkpt lat="49.31884" lon="1.15321">
        <ele>7.6</ele>
        <time>2019-11-11T10:21:19Z</time>
      </trkpt>
      <trkpt lat="49.31885" lon="1.15314">
        <ele>7.6</ele>
        <time>2019-11-11T10:21:20Z</time>
      </trkpt>
      <trkpt lat="49.31885" lon="1.15306">
        <ele>7.6</ele>
        <time>2019-11-11T10:21:21Z</time>
      </trkpt>
      <trkpt lat="49.31886" lon="1.15299">
        <ele>7.6</ele>
        <time>2019-11-11T10:21:22Z</time>
      </trkpt>
      <trkpt lat="49.31886" lon="1.15291">
        <ele>7.6</ele>
        <time>2019-11-11T10:21:23Z</time>
      </trkpt>
      <trkpt lat="49.31887" lon="1.15284">
        <ele>7.6</ele>
        <time>2019-11-11T10:21:24Z</time>
      </trkpt>
      <trkpt lat="49.31888" lon="1.15277">
        <ele>7.6</ele>
        <time>2019-11-11T10:21:25Z</time>
      </trkpt>
      <trkpt lat="49.31889" lon="1.1527">
        <ele>7.6</ele>
        <time>2019-11-11T10:21:26Z</time>
      </trkpt>
      <trkpt lat="49.3189" lon="1.15263">
        <ele>7.6</ele>
        <time>2019-11-11T10:21:27Z</time>
      </trkpt>
      <trkpt lat="49.31891" lon="1.15256">
        <ele>7.6</ele>
        <time>2019-11-11T10:21:28Z</time>
      </trkpt>
      <trkpt lat="49.31891" lon="1.1525">
        <ele>7.6</ele>
        <time>2019-11-11T10:21:29Z</time>
      </trkpt>
      <trkpt lat="49.31892" lon="1.15243">
        <ele>7.9</ele>
        <time>2019-11-11T10:21:30Z</time>
      </trkpt>
      <trkpt lat="49.31893" lon="1.15237">
        <ele>7.9</ele>
        <time>2019-11-11T10:21:31Z</time>
      </trkpt>
      <trkpt lat="49.31893" lon="1.15231">
        <ele>7.9</ele>
        <time>2019-11-11T10:21:32Z</time>
      </trkpt>
      <trkpt lat="49.31894" lon="1.15226">
        <ele>8</ele>
        <time>2019-11-11T10:21:33Z</time>
      </trkpt>
      <trkpt lat="49.31895" lon="1.15221">
        <ele>8</ele>
        <time>2019-11-11T10:21:34Z</time>
      </trkpt>
      <trkpt lat="49.31897" lon="1.15216">
        <ele>8</ele>
        <time>2019-11-11T10:21:35Z</time>
      </trkpt>
      <trkpt lat="49.31898" lon="1.1521">
        <ele>8</ele>
        <time>2019-11-11T10:21:36Z</time>
      </trkpt>
      <trkpt lat="49.31899" lon="1.15205">
        <ele>8</ele>
        <time>2019-11-11T10:21:37Z</time>
      </trkpt>
      <trkpt lat="49.319" lon="1.15199">
        <ele>8</ele>
        <time>2019-11-11T10:21:38Z</time>
      </trkpt>
      <trkpt lat="49.31901" lon="1.15193">
        <ele>8</ele>
        <time>2019-11-11T10:21:39Z</time>
      </trkpt>
      <trkpt lat="49.31903" lon="1.15186">
        <ele>8</ele>
        <time>2019-11-11T10:21:40Z</time>
      </trkpt>
      <trkpt lat="49.31904" lon="1.1518">
        <ele>8</ele>
        <time>2019-11-11T10:21:41Z</time>
      </trkpt>
      <trkpt lat="49.31905" lon="1.15174">
        <ele>8</ele>
        <time>2019-11-11T10:21:42Z</time>
      </trkpt>
      <trkpt lat="49.31907" lon="1.15168">
        <ele>8</ele>
        <time>2019-11-11T10:21:43Z</time>
      </trkpt>
      <trkpt lat="49.31908" lon="1.15162">
        <ele>8.4</ele>
        <time>2019-11-11T10:21:44Z</time>
      </trkpt>
      <trkpt lat="49.3191" lon="1.15156">
        <ele>8.5</ele>
        <time>2019-11-11T10:21:45Z</time>
      </trkpt>
      <trkpt lat="49.31912" lon="1.15151">
        <ele>8.6</ele>
        <time>2019-11-11T10:21:46Z</time>
      </trkpt>
      <trkpt lat="49.31913" lon="1.15145">
        <ele>8.8</ele>
        <time>2019-11-11T10:21:47Z</time>
      </trkpt>
      <trkpt lat="49.31914" lon="1.15139">
        <ele>8.9</ele>
        <time>2019-11-11T10:21:48Z</time>
      </trkpt>
      <trkpt lat="49.31914" lon="1.15132">
        <ele>9</ele>
        <time>2019-11-11T10:21:49Z</time>
      </trkpt>
      <trkpt lat="49.31915" lon="1.15126">
        <ele>9.1</ele>
        <time>2019-11-11T10:21:50Z</time>
      </trkpt>
      <trkpt lat="49.31915" lon="1.1512">
        <ele>9.2</ele>
        <time>2019-11-11T10:21:51Z</time>
      </trkpt>
      <trkpt lat="49.31915" lon="1.15113">
        <ele>9.4</ele>
        <time>2019-11-11T10:21:52Z</time>
      </trkpt>
      <trkpt lat="49.31915" lon="1.15107">
        <ele>9.5</ele>
        <time>2019-11-11T10:21:53Z</time>
      </trkpt>
      <trkpt lat="49.31915" lon="1.15101">
        <ele>9.6</ele>
        <time>2019-11-11T10:21:54Z</time>
      </trkpt>
      <trkpt lat="49.31916" lon="1.15095">
        <ele>9.7</ele>
        <time>2019-11-11T10:21:55Z</time>
      </trkpt>
      <trkpt lat="49.31917" lon="1.1509">
        <ele>9.9</ele>
        <time>2019-11-11T10:21:56Z</time>
      </trkpt>
      <trkpt lat="49.31919" lon="1.15085">
        <ele>10</ele>
        <time>2019-11-11T10:21:57Z</time>
      </trkpt>
      <trkpt lat="49.31922" lon="1.15081">
        <ele>10.2</ele>
        <time>2019-11-11T10:21:58Z</time>
      </trkpt>
      <trkpt lat="49.31926" lon="1.15078">
        <ele>10.3</ele>
        <time>2019-11-11T10:21:59Z</time>
      </trkpt>
      <trkpt lat="49.3193" lon="1.15076">
        <ele>10.4</ele>
        <time>2019-11-11T10:22:00Z</time>
      </trkpt>
      <trkpt lat="49.31933" lon="1.15075">
        <ele>10.5</ele>
        <time>2019-11-11T10:22:01Z</time>
      </trkpt>
      <trkpt lat="49.31937" lon="1.15073">
        <ele>10.6</ele>
        <time>2019-11-11T10:22:02Z</time>
      </trkpt>
      <trkpt lat="49.31942" lon="1.15073">
        <ele>10.6</ele>
        <time>2019-11-11T10:22:03Z</time>
      </trkpt>
      <trkpt lat="49.31946" lon="1.15073">
        <ele>10.7</ele>
        <time>2019-11-11T10:22:04Z</time>
      </trkpt>
      <trkpt lat="49.3195" lon="1.15073">
        <ele>10.7</ele>
        <time>2019-11-11T10:22:05Z</time>
      </trkpt>
      <trkpt lat="49.31954" lon="1.15074">
        <ele>10.8</ele>
        <time>2019-11-11T10:22:06Z</time>
      </trkpt>
      <trkpt lat="49.31959" lon="1.15074">
        <ele>10.8</ele>
        <time>2019-11-11T10:22:07Z</time>
      </trkpt>
      <trkpt lat="49.31963" lon="1.15074">
        <ele>10.9</ele>
        <time>2019-11-11T10:22:08Z</time>
      </trkpt>
      <trkpt lat="49.31968" lon="1.15074">
        <ele>10.9</ele>
        <time>2019-11-11T10:22:09Z</time>
      </trkpt>
      <trkpt lat="49.31972" lon="1.15075">
        <ele>11</ele>
        <time>2019-11-11T10:22:10Z</time>
      </trkpt>
      <trkpt lat="49.31977" lon="1.15075">
        <ele>11</ele>
        <time>2019-11-11T10:22:11Z</time>
      </trkpt>
      <trkpt lat="49.31981" lon="1.15075">
        <ele>11</ele>
        <time>2019-11-11T10:22:12Z</time>
      </trkpt>
      <trkpt lat="49.31986" lon="1.15075">
        <ele>11</ele>
        <time>2019-11-11T10:22:13Z</time>
      </trkpt>
      <trkpt lat="49.3199" lon="1.15075">
        <ele>11</ele>
        <time>2019-11-11T10:22:14Z</time>
      </trkpt>
      <trkpt lat="49.31994" lon="1.15076">
        <ele>11</ele>
        <time>2019-11-11T10:22:15Z</time>
      </trkpt>
      <trkpt lat="49.31999" lon="1.15076">
        <ele>11</ele>
        <time>2019-11-11T10:22:16Z</time>
      </trkpt>
      <trkpt lat="49.32003" lon="1.15076">
        <ele>12.5</ele>
        <time>2019-11-11T10:22:17Z</time>
      </trkpt>
      <trkpt lat="49.32008" lon="1.15076">
        <ele>13</ele>
        <time>2019-11-11T10:22:18Z</time>
      </trkpt>
      <trkpt lat="49.32012" lon="1.15077">
        <ele>13.4</ele>
        <time>2019-11-11T10:22:19Z</time>
      </trkpt>
      <trkpt lat="49.32016" lon="1.15077">
        <ele>13.9</ele>
        <time>2019-11-11T10:22:20Z</time>
      </trkpt>
      <trkpt lat="49.3202" lon="1.15077">
        <ele>14.4</ele>
        <time>2019-11-11T10:22:21Z</time>
      </trkpt>
      <trkpt lat="49.32025" lon="1.15076">
        <ele>15</ele>
        <time>2019-11-11T10:22:22Z</time>
      </trkpt>
      <trkpt lat="49.32029" lon="1.15075">
        <ele>15.4</ele>
        <time>2019-11-11T10:22:23Z</time>
      </trkpt>
      <trkpt lat="49.32033" lon="1.15074">
        <ele>15.8</ele>
        <time>2019-11-11T10:22:24Z</time>
      </trkpt>
      <trkpt lat="49.32037" lon="1.15072">
        <ele>16.2</ele>
        <time>2019-11-11T10:22:25Z</time>
      </trkpt>
      <trkpt lat="49.32041" lon="1.1507">
        <ele>16.6</ele>
        <time>2019-11-11T10:22:26Z</time>
      </trkpt>
      <trkpt lat="49.32045" lon="1.15067">
        <ele>16.9</ele>
        <time>2019-11-11T10:22:27Z</time>
      </trkpt>
      <trkpt lat="49.32049" lon="1.15064">
        <ele>17.2</ele>
        <time>2019-11-11T10:22:28Z</time>
      </trkpt>
      <trkpt lat="49.32052" lon="1.15061">
        <ele>17.4</ele>
        <time>2019-11-11T10:22:29Z</time>
      </trkpt>
      <trkpt lat="49.32056" lon="1.15057">
        <ele>17.6</ele>
        <time>2019-11-11T10:22:30Z</time>
      </trkpt>
      <trkpt lat="49.32059" lon="1.15053">
        <ele>17.7</ele>
        <time>2019-11-11T10:22:31Z</time>
      </trkpt>
      <trkpt lat="49.32062" lon="1.15049">
        <ele>17.7</ele>
        <time>2019-11-11T10:22:32Z</time>
      </trkpt>
      <trkpt lat="49.32065" lon="1.15044">
        <ele>17.7</ele>
        <time>2019-11-11T10:22:33Z</time>
      </trkpt>
      <trkpt lat="49.32067" lon="1.15039">
        <ele>17.7</ele>
        <time>2019-11-11T10:22:34Z</time>
      </trkpt>
      <trkpt lat="49.3207" lon="1.15034">
        <ele>17.7</ele>
        <time>2019-11-11T10:22:35Z</time>
      </trkpt>
      <trkpt lat="49.32072" lon="1.15028">
        <ele>17.7</ele>
        <time>2019-11-11T10:22:36Z</time>
      </trkpt>
      <trkpt lat="49.32074" lon="1.15022">
        <ele>17.8</ele>
        <time>2019-11-11T10:22:37Z</time>
      </trkpt>
      <trkpt lat="49.32076" lon="1.15016">
        <ele>18</ele>
        <time>2019-11-11T10:22:38Z</time>
      </trkpt>
      <trkpt lat="49.32078" lon="1.15009">
        <ele>18.3</ele>
        <time>2019-11-11T10:22:39Z</time>
      </trkpt>
      <trkpt lat="49.32079" lon="1.15003">
        <ele>18.6</ele>
        <time>2019-11-11T10:22:40Z</time>
      </trkpt>
      <trkpt lat="49.3208" lon="1.14997">
        <ele>18.3</ele>
        <time>2019-11-11T10:22:41Z</time>
      </trkpt>
      <trkpt lat="49.32082" lon="1.1499">
        <ele>17.6</ele>
        <time>2019-11-11T10:22:42Z</time>
      </trkpt>
      <trkpt lat="49.32083" lon="1.14984">
        <ele>17.1</ele>
        <time>2019-11-11T10:22:43Z</time>
      </trkpt>
      <trkpt lat="49.32084" lon="1.14978">
        <ele>21.3</ele>
        <time>2019-11-11T10:22:44Z</time>
      </trkpt>
      <trkpt lat="49.32085" lon="1.14972">
        <ele>21.5</ele>
        <time>2019-11-11T10:22:45Z</time>
      </trkpt>
      <trkpt lat="49.32087" lon="1.14965">
        <ele>21.6</ele>
        <time>2019-11-11T10:22:46Z</time>
      </trkpt>
      <trkpt lat="49.32088" lon="1.14959">
        <ele>21.5</ele>
        <time>2019-11-11T10:22:47Z</time>
      </trkpt>
      <trkpt lat="49.3209" lon="1.14953">
        <ele>21.4</ele>
        <time>2019-11-11T10:22:48Z</time>
      </trkpt>
      <trkpt lat="49.32091" lon="1.14947">
        <ele>21.1</ele>
        <time>2019-11-11T10:22:49Z</time>
      </trkpt>
      <trkpt lat="49.32092" lon="1.14941">
        <ele>20.7</ele>
        <time>2019-11-11T10:22:50Z</time>
      </trkpt>
      <trkpt lat="49.32094" lon="1.14934">
        <ele>20.1</ele>
        <time>2019-11-11T10:22:51Z</time>
      </trkpt>
      <trkpt lat="49.32095" lon="1.14928">
        <ele>19.6</ele>
        <time>2019-11-11T10:22:52Z</time>
      </trkpt>
      <trkpt lat="49.32096" lon="1.14922">
        <ele>19.2</ele>
        <time>2019-11-11T10:22:53Z</time>
      </trkpt>
      <trkpt lat="49.32098" lon="1.14916">
        <ele>17.8</ele>
        <time>2019-11-11T10:22:54Z</time>
      </trkpt>
      <trkpt lat="49.32099" lon="1.14909">
        <ele>18</ele>
        <time>2019-11-11T10:22:55Z</time>
      </trkpt>
      <trkpt lat="49.321" lon="1.14903">
        <ele>18.3</ele>
        <time>2019-11-11T10:22:56Z</time>
      </trkpt>
      <trkpt lat="49.32101" lon="1.14897">
        <ele>18.5</ele>
        <time>2019-11-11T10:22:57Z</time>
      </trkpt>
      <trkpt lat="49.32103" lon="1.14891">
        <ele>18.7</ele>
        <time>2019-11-11T10:22:58Z</time>
      </trkpt>
      <trkpt lat="49.32104" lon="1.14884">
        <ele>18.8</ele>
        <time>2019-11-11T10:22:59Z</time>
      </trkpt>
      <trkpt lat="49.32105" lon="1.14878">
        <ele>18.8</ele>
        <time>2019-11-11T10:23:00Z</time>
      </trkpt>
      <trkpt lat="49.32107" lon="1.14872">
        <ele>18.8</ele>
        <time>2019-11-11T10:23:01Z</time>
      </trkpt>
      <trkpt lat="49.32108" lon="1.14865">
        <ele>18.8</ele>
        <time>2019-11-11T10:23:02Z</time>
      </trkpt>
      <trkpt lat="49.32109" lon="1.14859">
        <ele>18.7</ele>
        <time>2019-11-11T10:23:03Z</time>
      </trkpt>
      <trkpt lat="49.3211" lon="1.14853">
        <ele>18.6</ele>
        <time>2019-11-11T10:23:04Z</time>
      </trkpt>
      <trkpt lat="49.32112" lon="1.14846">
        <ele>18.5</ele>
        <time>2019-11-11T10:23:05Z</time>
      </trkpt>
      <trkpt lat="49.32113" lon="1.1484">
        <ele>18.5</ele>
        <time>2019-11-11T10:23:06Z</time>
      </trkpt>
      <trkpt lat="49.32115" lon="1.14834">
        <ele>18.6</ele>
        <time>2019-11-11T10:23:07Z</time>
      </trkpt>
      <trkpt lat="49.32116" lon="1.14827">
        <ele>17.3</ele>
        <time>2019-11-11T10:23:08Z</time>
      </trkpt>
      <trkpt lat="49.32118" lon="1.1482">
        <ele>17.4</ele>
        <time>2019-11-11T10:23:09Z</time>
      </trkpt>
      <trkpt lat="49.32119" lon="1.14814">
        <ele>17.5</ele>
        <time>2019-11-11T10:23:10Z</time>
      </trkpt>
      <trkpt lat="49.32121" lon="1.14807">
        <ele>17.5</ele>
        <time>2019-11-11T10:23:11Z</time>
      </trkpt>
      <trkpt lat="49.32123" lon="1.148">
        <ele>17.5</ele>
        <time>2019-11-11T10:23:12Z</time>
      </trkpt>
      <trkpt lat="49.32125" lon="1.14792">
        <ele>17.5</ele>
        <time>2019-11-11T10:23:13Z</time>
      </trkpt>
      <trkpt lat="49.32127" lon="1.14785">
        <ele>17.5</ele>
        <time>2019-11-11T10:23:14Z</time>
      </trkpt>
      <trkpt lat="49.32129" lon="1.14778">
        <ele>17.4</ele>
        <time>2019-11-11T10:23:15Z</time>
      </trkpt>
      <trkpt lat="49.32131" lon="1.1477">
        <ele>17.4</ele>
        <time>2019-11-11T10:23:16Z</time>
      </trkpt>
      <trkpt lat="49.32133" lon="1.14762">
        <ele>17.4</ele>
        <time>2019-11-11T10:23:17Z</time>
      </trkpt>
      <trkpt lat="49.32135" lon="1.14755">
        <ele>17.4</ele>
        <time>2019-11-11T10:23:18Z</time>
      </trkpt>
      <trkpt lat="49.32137" lon="1.14748">
        <ele>16.8</ele>
        <time>2019-11-11T10:23:19Z</time>
      </trkpt>
      <trkpt lat="49.32139" lon="1.14741">
        <ele>16.9</ele>
        <time>2019-11-11T10:23:20Z</time>
      </trkpt>
      <trkpt lat="49.32141" lon="1.14734">
        <ele>16.9</ele>
        <time>2019-11-11T10:23:21Z</time>
      </trkpt>
      <trkpt lat="49.32143" lon="1.14726">
        <ele>16.9</ele>
        <time>2019-11-11T10:23:22Z</time>
      </trkpt>
      <trkpt lat="49.32145" lon="1.14719">
        <ele>16.9</ele>
        <time>2019-11-11T10:23:23Z</time>
      </trkpt>
      <trkpt lat="49.32147" lon="1.14712">
        <ele>17</ele>
        <time>2019-11-11T10:23:24Z</time>
      </trkpt>
      <trkpt lat="49.32149" lon="1.14705">
        <ele>17</ele>
        <time>2019-11-11T10:23:25Z</time>
      </trkpt>
      <trkpt lat="49.32151" lon="1.14699">
        <ele>17.2</ele>
        <time>2019-11-11T10:23:26Z</time>
      </trkpt>
      <trkpt lat="49.32153" lon="1.14692">
        <ele>17.3</ele>
        <time>2019-11-11T10:23:27Z</time>
      </trkpt>
      <trkpt lat="49.32155" lon="1.14686">
        <ele>17.5</ele>
        <time>2019-11-11T10:23:28Z</time>
      </trkpt>
      <trkpt lat="49.32157" lon="1.14679">
        <ele>17.8</ele>
        <time>2019-11-11T10:23:29Z</time>
      </trkpt>
      <trkpt lat="49.32158" lon="1.14673">
        <ele>18.1</ele>
        <time>2019-11-11T10:23:30Z</time>
      </trkpt>
      <trkpt lat="49.3216" lon="1.14666">
        <ele>18.5</ele>
        <time>2019-11-11T10:23:31Z</time>
      </trkpt>
      <trkpt lat="49.32162" lon="1.14659">
        <ele>18.4</ele>
        <time>2019-11-11T10:23:32Z</time>
      </trkpt>
      <trkpt lat="49.32164" lon="1.14653">
        <ele>18.2</ele>
        <time>2019-11-11T10:23:33Z</time>
      </trkpt>
      <trkpt lat="49.32166" lon="1.14646">
        <ele>18.1</ele>
        <time>2019-11-11T10:23:34Z</time>
      </trkpt>
      <trkpt lat="49.32168" lon="1.14639">
        <ele>20.3</ele>
        <time>2019-11-11T10:23:35Z</time>
      </trkpt>
      <trkpt lat="49.3217" lon="1.14633">
        <ele>20.5</ele>
        <time>2019-11-11T10:23:36Z</time>
      </trkpt>
      <trkpt lat="49.32171" lon="1.14626">
        <ele>20.6</ele>
        <time>2019-11-11T10:23:37Z</time>
      </trkpt>
      <trkpt lat="49.32173" lon="1.14619">
        <ele>20.7</ele>
        <time>2019-11-11T10:23:38Z</time>
      </trkpt>
      <trkpt lat="49.32175" lon="1.14613">
        <ele>20.7</ele>
        <time>2019-11-11T10:23:39Z</time>
      </trkpt>
      <trkpt lat="49.32177" lon="1.14606">
        <ele>20.7</ele>
        <time>2019-11-11T10:23:40Z</time>
      </trkpt>
      <trkpt lat="49.32179" lon="1.14599">
        <ele>20.7</ele>
        <time>2019-11-11T10:23:41Z</time>
      </trkpt>
      <trkpt lat="49.3218" lon="1.14592">
        <ele>20.7</ele>
        <time>2019-11-11T10:23:42Z</time>
      </trkpt>
      <trkpt lat="49.32181" lon="1.14586">
        <ele>20.7</ele>
        <time>2019-11-11T10:23:43Z</time>
      </trkpt>
      <trkpt lat="49.32181" lon="1.14579">
        <ele>21.7</ele>
        <time>2019-11-11T10:23:44Z</time>
      </trkpt>
      <trkpt lat="49.32181" lon="1.14573">
        <ele>21.9</ele>
        <time>2019-11-11T10:23:45Z</time>
      </trkpt>
      <trkpt lat="49.32181" lon="1.14566">
        <ele>22.1</ele>
        <time>2019-11-11T10:23:46Z</time>
      </trkpt>
      <trkpt lat="49.3218" lon="1.1456">
        <ele>22.3</ele>
        <time>2019-11-11T10:23:47Z</time>
      </trkpt>
      <trkpt lat="49.32179" lon="1.14554">
        <ele>22.5</ele>
        <time>2019-11-11T10:23:48Z</time>
      </trkpt>
      <trkpt lat="49.32177" lon="1.14548">
        <ele>22.6</ele>
        <time>2019-11-11T10:23:49Z</time>
      </trkpt>
      <trkpt lat="49.32176" lon="1.14542">
        <ele>22.7</ele>
        <time>2019-11-11T10:23:50Z</time>
      </trkpt>
      <trkpt lat="49.32174" lon="1.14537">
        <ele>22.7</ele>
        <time>2019-11-11T10:23:51Z</time>
      </trkpt>
      <trkpt lat="49.32171" lon="1.14532">
        <ele>22.6</ele>
        <time>2019-11-11T10:23:52Z</time>
      </trkpt>
      <trkpt lat="49.32168" lon="1.14527">
        <ele>22.5</ele>
        <time>2019-11-11T10:23:53Z</time>
      </trkpt>
      <trkpt lat="49.32165" lon="1.14522">
        <ele>19.2</ele>
        <time>2019-11-11T10:23:54Z</time>
      </trkpt>
      <trkpt lat="49.32162" lon="1.14517">
        <ele>19.4</ele>
        <time>2019-11-11T10:23:55Z</time>
      </trkpt>
      <trkpt lat="49.32159" lon="1.14511">
        <ele>19.7</ele>
        <time>2019-11-11T10:23:56Z</time>
      </trkpt>
      <trkpt lat="49.32155" lon="1.14506">
        <ele>19.6</ele>
        <time>2019-11-11T10:23:57Z</time>
      </trkpt>
      <trkpt lat="49.32152" lon="1.14501">
        <ele>19.5</ele>
        <time>2019-11-11T10:23:58Z</time>
      </trkpt>
      <trkpt lat="49.32148" lon="1.14495">
        <ele>19.8</ele>
        <time>2019-11-11T10:23:59Z</time>
      </trkpt>
      <trkpt lat="49.32145" lon="1.1449">
        <ele>19.6</ele>
        <time>2019-11-11T10:24:00Z</time>
      </trkpt>
      <trkpt lat="49.32141" lon="1.14484">
        <ele>19.4</ele>
        <time>2019-11-11T10:24:01Z</time>
      </trkpt>
      <trkpt lat="49.32138" lon="1.14479">
        <ele>19.3</ele>
        <time>2019-11-11T10:24:02Z</time>
      </trkpt>
      <trkpt lat="49.32134" lon="1.14473">
        <ele>19.2</ele>
        <time>2019-11-11T10:24:03Z</time>
      </trkpt>
      <trkpt lat="49.32131" lon="1.14467">
        <ele>19.1</ele>
        <time>2019-11-11T10:24:04Z</time>
      </trkpt>
      <trkpt lat="49.32128" lon="1.14462">
        <ele>19.1</ele>
        <time>2019-11-11T10:24:05Z</time>
      </trkpt>
      <trkpt lat="49.32125" lon="1.14456">
        <ele>19</ele>
        <time>2019-11-11T10:24:06Z</time>
      </trkpt>
      <trkpt lat="49.32121" lon="1.14449">
        <ele>19</ele>
        <time>2019-11-11T10:24:07Z</time>
      </trkpt>
      <trkpt lat="49.32118" lon="1.14443">
        <ele>18.9</ele>
        <time>2019-11-11T10:24:08Z</time>
      </trkpt>
      <trkpt lat="49.32115" lon="1.14437">
        <ele>18.8</ele>
        <time>2019-11-11T10:24:09Z</time>
      </trkpt>
      <trkpt lat="49.32112" lon="1.1443">
        <ele>18.7</ele>
        <time>2019-11-11T10:24:10Z</time>
      </trkpt>
      <trkpt lat="49.3211" lon="1.14424">
        <ele>18.6</ele>
        <time>2019-11-11T10:24:11Z</time>
      </trkpt>
      <trkpt lat="49.32107" lon="1.14417">
        <ele>18.4</ele>
        <time>2019-11-11T10:24:12Z</time>
      </trkpt>
      <trkpt lat="49.32104" lon="1.1441">
        <ele>19.4</ele>
        <time>2019-11-11T10:24:13Z</time>
      </trkpt>
      <trkpt lat="49.32102" lon="1.14403">
        <ele>19.5</ele>
        <time>2019-11-11T10:24:14Z</time>
      </trkpt>
      <trkpt lat="49.32099" lon="1.14396">
        <ele>19.6</ele>
        <time>2019-11-11T10:24:15Z</time>
      </trkpt>
      <trkpt lat="49.32097" lon="1.14389">
        <ele>19.7</ele>
        <time>2019-11-11T10:24:16Z</time>
      </trkpt>
      <trkpt lat="49.32095" lon="1.14381">
        <ele>19.9</ele>
        <time>2019-11-11T10:24:17Z</time>
      </trkpt>
      <trkpt lat="49.32093" lon="1.14374">
        <ele>19.9</ele>
        <time>2019-11-11T10:24:18Z</time>
      </trkpt>
      <trkpt lat="49.32091" lon="1.14366">
        <ele>19.8</ele>
        <time>2019-11-11T10:24:19Z</time>
      </trkpt>
      <trkpt lat="49.32089" lon="1.14358">
        <ele>19.5</ele>
        <time>2019-11-11T10:24:20Z</time>
      </trkpt>
      <trkpt lat="49.32088" lon="1.1435">
        <ele>19.1</ele>
        <time>2019-11-11T10:24:21Z</time>
      </trkpt>
      <trkpt lat="49.32086" lon="1.14343">
        <ele>18.4</ele>
        <time>2019-11-11T10:24:22Z</time>
      </trkpt>
      <trkpt lat="49.32084" lon="1.14335">
        <ele>17.3</ele>
        <time>2019-11-11T10:24:23Z</time>
      </trkpt>
      <trkpt lat="49.32083" lon="1.14327">
        <ele>16.5</ele>
        <time>2019-11-11T10:24:24Z</time>
      </trkpt>
      <trkpt lat="49.32082" lon="1.1432">
        <ele>16.1</ele>
        <time>2019-11-11T10:24:25Z</time>
      </trkpt>
      <trkpt lat="49.3208" lon="1.14313">
        <ele>15.8</ele>
        <time>2019-11-11T10:24:26Z</time>
      </trkpt>
      <trkpt lat="49.32079" lon="1.14306">
        <ele>15.7</ele>
        <time>2019-11-11T10:24:27Z</time>
      </trkpt>
      <trkpt lat="49.32079" lon="1.14299">
        <ele>15.7</ele>
        <time>2019-11-11T10:24:28Z</time>
      </trkpt>
      <trkpt lat="49.32078" lon="1.14293">
        <ele>15.7</ele>
        <time>2019-11-11T10:24:29Z</time>
      </trkpt>
      <trkpt lat="49.32077" lon="1.14286">
        <ele>15.8</ele>
        <time>2019-11-11T10:24:30Z</time>
      </trkpt>
      <trkpt lat="49.32077" lon="1.1428">
        <ele>16</ele>
        <time>2019-11-11T10:24:31Z</time>
      </trkpt>
      <trkpt lat="49.32076" lon="1.14273">
        <ele>16.3</ele>
        <time>2019-11-11T10:24:32Z</time>
      </trkpt>
      <trkpt lat="49.32075" lon="1.14267">
        <ele>16.6</ele>
        <time>2019-11-11T10:24:33Z</time>
      </trkpt>
      <trkpt lat="49.32074" lon="1.1426">
        <ele>17.1</ele>
        <time>2019-11-11T10:24:34Z</time>
      </trkpt>
      <trkpt lat="49.32074" lon="1.14254">
        <ele>17.5</ele>
        <time>2019-11-11T10:24:35Z</time>
      </trkpt>
      <trkpt lat="49.32073" lon="1.14247">
        <ele>17.7</ele>
        <time>2019-11-11T10:24:36Z</time>
      </trkpt>
      <trkpt lat="49.32072" lon="1.1424">
        <ele>17.3</ele>
        <time>2019-11-11T10:24:37Z</time>
      </trkpt>
      <trkpt lat="49.32071" lon="1.14233">
        <ele>17</ele>
        <time>2019-11-11T10:24:38Z</time>
      </trkpt>
      <trkpt lat="49.3207" lon="1.14227">
        <ele>16.7</ele>
        <time>2019-11-11T10:24:39Z</time>
      </trkpt>
      <trkpt lat="49.32069" lon="1.1422">
        <ele>16.5</ele>
        <time>2019-11-11T10:24:40Z</time>
      </trkpt>
      <trkpt lat="49.32068" lon="1.14213">
        <ele>16.4</ele>
        <time>2019-11-11T10:24:41Z</time>
      </trkpt>
      <trkpt lat="49.32067" lon="1.14206">
        <ele>16.4</ele>
        <time>2019-11-11T10:24:42Z</time>
      </trkpt>
      <trkpt lat="49.32066" lon="1.14199">
        <ele>16.5</ele>
        <time>2019-11-11T10:24:43Z</time>
      </trkpt>
      <trkpt lat="49.32066" lon="1.14192">
        <ele>16.7</ele>
        <time>2019-11-11T10:24:44Z</time>
      </trkpt>
      <trkpt lat="49.32065" lon="1.14185">
        <ele>16.9</ele>
        <time>2019-11-11T10:24:45Z</time>
      </trkpt>
      <trkpt lat="49.32064" lon="1.14178">
        <ele>17.1</ele>
        <time>2019-11-11T10:24:46Z</time>
      </trkpt>
      <trkpt lat="49.32063" lon="1.1417">
        <ele>17.2</ele>
        <time>2019-11-11T10:24:47Z</time>
      </trkpt>
      <trkpt lat="49.32062" lon="1.14163">
        <ele>17.5</ele>
        <time>2019-11-11T10:24:48Z</time>
      </trkpt>
      <trkpt lat="49.32061" lon="1.14156">
        <ele>17.3</ele>
        <time>2019-11-11T10:24:49Z</time>
      </trkpt>
      <trkpt lat="49.3206" lon="1.1415">
        <ele>17.1</ele>
        <time>2019-11-11T10:24:50Z</time>
      </trkpt>
      <trkpt lat="49.32059" lon="1.14142">
        <ele>16.9</ele>
        <time>2019-11-11T10:24:51Z</time>
      </trkpt>
      <trkpt lat="49.32058" lon="1.14135">
        <ele>16.8</ele>
        <time>2019-11-11T10:24:52Z</time>
      </trkpt>
      <trkpt lat="49.32057" lon="1.14128">
        <ele>16.8</ele>
        <time>2019-11-11T10:24:53Z</time>
      </trkpt>
      <trkpt lat="49.32056" lon="1.14121">
        <ele>16.8</ele>
        <time>2019-11-11T10:24:54Z</time>
      </trkpt>
      <trkpt lat="49.32055" lon="1.14114">
        <ele>16.8</ele>
        <time>2019-11-11T10:24:55Z</time>
      </trkpt>
      <trkpt lat="49.32055" lon="1.14107">
        <ele>16.9</ele>
        <time>2019-11-11T10:24:56Z</time>
      </trkpt>
      <trkpt lat="49.32054" lon="1.14099">
        <ele>17</ele>
        <time>2019-11-11T10:24:57Z</time>
      </trkpt>
      <trkpt lat="49.32053" lon="1.14092">
        <ele>17.1</ele>
        <time>2019-11-11T10:24:58Z</time>
      </trkpt>
      <trkpt lat="49.32052" lon="1.14085">
        <ele>17.1</ele>
        <time>2019-11-11T10:24:59Z</time>
      </trkpt>
      <trkpt lat="49.32051" lon="1.14077">
        <ele>17.6</ele>
        <time>2019-11-11T10:25:00Z</time>
      </trkpt>
      <trkpt lat="49.3205" lon="1.1407">
        <ele>17.5</ele>
        <time>2019-11-11T10:25:01Z</time>
      </trkpt>
      <trkpt lat="49.32049" lon="1.14063">
        <ele>17.4</ele>
        <time>2019-11-11T10:25:02Z</time>
      </trkpt>
      <trkpt lat="49.32048" lon="1.14056">
        <ele>17.3</ele>
        <time>2019-11-11T10:25:03Z</time>
      </trkpt>
      <trkpt lat="49.32047" lon="1.14049">
        <ele>17.3</ele>
        <time>2019-11-11T10:25:04Z</time>
      </trkpt>
      <trkpt lat="49.32046" lon="1.14042">
        <ele>17.2</ele>
        <time>2019-11-11T10:25:05Z</time>
      </trkpt>
      <trkpt lat="49.32045" lon="1.14035">
        <ele>17.2</ele>
        <time>2019-11-11T10:25:06Z</time>
      </trkpt>
      <trkpt lat="49.32044" lon="1.14027">
        <ele>17.2</ele>
        <time>2019-11-11T10:25:07Z</time>
      </trkpt>
      <trkpt lat="49.32043" lon="1.1402">
        <ele>17.2</ele>
        <time>2019-11-11T10:25:08Z</time>
      </trkpt>
      <trkpt lat="49.32042" lon="1.14013">
        <ele>17.2</ele>
        <time>2019-11-11T10:25:09Z</time>
      </trkpt>
      <trkpt lat="49.32041" lon="1.14006">
        <ele>17.1</ele>
        <time>2019-11-11T10:25:10Z</time>
      </trkpt>
      <trkpt lat="49.3204" lon="1.14">
        <ele>17.8</ele>
        <time>2019-11-11T10:25:11Z</time>
      </trkpt>
      <trkpt lat="49.3204" lon="1.13993">
        <ele>17.9</ele>
        <time>2019-11-11T10:25:12Z</time>
      </trkpt>
      <trkpt lat="49.32039" lon="1.13986">
        <ele>17.8</ele>
        <time>2019-11-11T10:25:13Z</time>
      </trkpt>
      <trkpt lat="49.32038" lon="1.1398">
        <ele>17.8</ele>
        <time>2019-11-11T10:25:14Z</time>
      </trkpt>
      <trkpt lat="49.32037" lon="1.13973">
        <ele>17.8</ele>
        <time>2019-11-11T10:25:15Z</time>
      </trkpt>
      <trkpt lat="49.32036" lon="1.13966">
        <ele>17.9</ele>
        <time>2019-11-11T10:25:16Z</time>
      </trkpt>
      <trkpt lat="49.32036" lon="1.13959">
        <ele>18</ele>
        <time>2019-11-11T10:25:17Z</time>
      </trkpt>
      <trkpt lat="49.32035" lon="1.13952">
        <ele>18</ele>
        <time>2019-11-11T10:25:18Z</time>
      </trkpt>
      <trkpt lat="49.32034" lon="1.13945">
        <ele>18</ele>
        <time>2019-11-11T10:25:19Z</time>
      </trkpt>
      <trkpt lat="49.32034" lon="1.13938">
        <ele>18</ele>
        <time>2019-11-11T10:25:20Z</time>
      </trkpt>
      <trkpt lat="49.32033" lon="1.13931">
        <ele>17.9</ele>
        <time>2019-11-11T10:25:21Z</time>
      </trkpt>
      <trkpt lat="49.32032" lon="1.13924">
        <ele>17.8</ele>
        <time>2019-11-11T10:25:22Z</time>
      </trkpt>
      <trkpt lat="49.32032" lon="1.13917">
        <ele>17.8</ele>
        <time>2019-11-11T10:25:23Z</time>
      </trkpt>
      <trkpt lat="49.32031" lon="1.13911">
        <ele>18.7</ele>
        <time>2019-11-11T10:25:24Z</time>
      </trkpt>
      <trkpt lat="49.3203" lon="1.13904">
        <ele>18.7</ele>
        <time>2019-11-11T10:25:25Z</time>
      </trkpt>
      <trkpt lat="49.3203" lon="1.13897">
        <ele>18.8</ele>
        <time>2019-11-11T10:25:26Z</time>
      </trkpt>
      <trkpt lat="49.3203" lon="1.1389">
        <ele>19</ele>
        <time>2019-11-11T10:25:27Z</time>
      </trkpt>
      <trkpt lat="49.3203" lon="1.13883">
        <ele>19.1</ele>
        <time>2019-11-11T10:25:28Z</time>
      </trkpt>
      <trkpt lat="49.32029" lon="1.13876">
        <ele>19.1</ele>
        <time>2019-11-11T10:25:29Z</time>
      </trkpt>
      <trkpt lat="49.32029" lon="1.1387">
        <ele>19.2</ele>
        <time>2019-11-11T10:25:30Z</time>
      </trkpt>
      <trkpt lat="49.32029" lon="1.13863">
        <ele>19.2</ele>
        <time>2019-11-11T10:25:31Z</time>
      </trkpt>
      <trkpt lat="49.32029" lon="1.13856">
        <ele>19.1</ele>
        <time>2019-11-11T10:25:32Z</time>
      </trkpt>
      <trkpt lat="49.32029" lon="1.13849">
        <ele>19.1</ele>
        <time>2019-11-11T10:25:33Z</time>
      </trkpt>
      <trkpt lat="49.32029" lon="1.13842">
        <ele>19</ele>
        <time>2019-11-11T10:25:34Z</time>
      </trkpt>
      <trkpt lat="49.32029" lon="1.13835">
        <ele>19</ele>
        <time>2019-11-11T10:25:35Z</time>
      </trkpt>
      <trkpt lat="49.32029" lon="1.13828">
        <ele>19.3</ele>
        <time>2019-11-11T10:25:36Z</time>
      </trkpt>
      <trkpt lat="49.32029" lon="1.13821">
        <ele>19.4</ele>
        <time>2019-11-11T10:25:37Z</time>
      </trkpt>
      <trkpt lat="49.32029" lon="1.13814">
        <ele>19.5</ele>
        <time>2019-11-11T10:25:38Z</time>
      </trkpt>
      <trkpt lat="49.32029" lon="1.13807">
        <ele>19.5</ele>
        <time>2019-11-11T10:25:39Z</time>
      </trkpt>
      <trkpt lat="49.3203" lon="1.138">
        <ele>19.6</ele>
        <time>2019-11-11T10:25:40Z</time>
      </trkpt>
      <trkpt lat="49.3203" lon="1.13793">
        <ele>19.6</ele>
        <time>2019-11-11T10:25:41Z</time>
      </trkpt>
      <trkpt lat="49.3203" lon="1.13787">
        <ele>19.6</ele>
        <time>2019-11-11T10:25:42Z</time>
      </trkpt>
      <trkpt lat="49.3203" lon="1.1378">
        <ele>19.5</ele>
        <time>2019-11-11T10:25:43Z</time>
      </trkpt>
      <trkpt lat="49.32031" lon="1.13773">
        <ele>19.5</ele>
        <time>2019-11-11T10:25:44Z</time>
      </trkpt>
      <trkpt lat="49.32031" lon="1.13766">
        <ele>19.3</ele>
        <time>2019-11-11T10:25:45Z</time>
      </trkpt>
      <trkpt lat="49.32032" lon="1.13759">
        <ele>19.3</ele>
        <time>2019-11-11T10:25:46Z</time>
      </trkpt>
      <trkpt lat="49.32032" lon="1.13753">
        <ele>19.3</ele>
        <time>2019-11-11T10:25:47Z</time>
      </trkpt>
      <trkpt lat="49.32033" lon="1.13746">
        <ele>19.7</ele>
        <time>2019-11-11T10:25:48Z</time>
      </trkpt>
      <trkpt lat="49.32033" lon="1.13739">
        <ele>19.8</ele>
        <time>2019-11-11T10:25:49Z</time>
      </trkpt>
      <trkpt lat="49.32033" lon="1.13733">
        <ele>19.9</ele>
        <time>2019-11-11T10:25:50Z</time>
      </trkpt>
      <trkpt lat="49.32034" lon="1.13726">
        <ele>20</ele>
        <time>2019-11-11T10:25:51Z</time>
      </trkpt>
      <trkpt lat="49.32034" lon="1.13719">
        <ele>20.2</ele>
        <time>2019-11-11T10:25:52Z</time>
      </trkpt>
      <trkpt lat="49.32035" lon="1.13713">
        <ele>20.3</ele>
        <time>2019-11-11T10:25:53Z</time>
      </trkpt>
      <trkpt lat="49.32035" lon="1.13706">
        <ele>20.4</ele>
        <time>2019-11-11T10:25:54Z</time>
      </trkpt>
      <trkpt lat="49.32035" lon="1.137">
        <ele>20.4</ele>
        <time>2019-11-11T10:25:55Z</time>
      </trkpt>
      <trkpt lat="49.32035" lon="1.13693">
        <ele>20.4</ele>
        <time>2019-11-11T10:25:56Z</time>
      </trkpt>
      <trkpt lat="49.32036" lon="1.13687">
        <ele>20.5</ele>
        <time>2019-11-11T10:25:57Z</time>
      </trkpt>
      <trkpt lat="49.32036" lon="1.1368">
        <ele>20.5</ele>
        <time>2019-11-11T10:25:58Z</time>
      </trkpt>
      <trkpt lat="49.32037" lon="1.13674">
        <ele>20.6</ele>
        <time>2019-11-11T10:25:59Z</time>
      </trkpt>
      <trkpt lat="49.32037" lon="1.13667">
        <ele>20.6</ele>
        <time>2019-11-11T10:26:00Z</time>
      </trkpt>
      <trkpt lat="49.32037" lon="1.1366">
        <ele>21.9</ele>
        <time>2019-11-11T10:26:01Z</time>
      </trkpt>
      <trkpt lat="49.32038" lon="1.13654">
        <ele>22</ele>
        <time>2019-11-11T10:26:02Z</time>
      </trkpt>
      <trkpt lat="49.32038" lon="1.13647">
        <ele>22.1</ele>
        <time>2019-11-11T10:26:03Z</time>
      </trkpt>
      <trkpt lat="49.32038" lon="1.1364">
        <ele>22.3</ele>
        <time>2019-11-11T10:26:04Z</time>
      </trkpt>
      <trkpt lat="49.32039" lon="1.13634">
        <ele>22.4</ele>
        <time>2019-11-11T10:26:05Z</time>
      </trkpt>
      <trkpt lat="49.32039" lon="1.13627">
        <ele>22.5</ele>
        <time>2019-11-11T10:26:06Z</time>
      </trkpt>
      <trkpt lat="49.32039" lon="1.13621">
        <ele>22.6</ele>
        <time>2019-11-11T10:26:07Z</time>
      </trkpt>
      <trkpt lat="49.3204" lon="1.13614">
        <ele>22.8</ele>
        <time>2019-11-11T10:26:08Z</time>
      </trkpt>
      <trkpt lat="49.3204" lon="1.13607">
        <ele>22.9</ele>
        <time>2019-11-11T10:26:09Z</time>
      </trkpt>
      <trkpt lat="49.32041" lon="1.13601">
        <ele>23</ele>
        <time>2019-11-11T10:26:10Z</time>
      </trkpt>
      <trkpt lat="49.32041" lon="1.13594">
        <ele>23.1</ele>
        <time>2019-11-11T10:26:11Z</time>
      </trkpt>
      <trkpt lat="49.32041" lon="1.13588">
        <ele>23.1</ele>
        <time>2019-11-11T10:26:12Z</time>
      </trkpt>
      <trkpt lat="49.32042" lon="1.13581">
        <ele>23.6</ele>
        <time>2019-11-11T10:26:13Z</time>
      </trkpt>
      <trkpt lat="49.32042" lon="1.13574">
        <ele>23.5</ele>
        <time>2019-11-11T10:26:14Z</time>
      </trkpt>
      <trkpt lat="49.32043" lon="1.13568">
        <ele>23.6</ele>
        <time>2019-11-11T10:26:15Z</time>
      </trkpt>
      <trkpt lat="49.32043" lon="1.13561">
        <ele>23.5</ele>
        <time>2019-11-11T10:26:16Z</time>
      </trkpt>
      <trkpt lat="49.32043" lon="1.13554">
        <ele>23.5</ele>
        <time>2019-11-11T10:26:17Z</time>
      </trkpt>
      <trkpt lat="49.32044" lon="1.13547">
        <ele>23.5</ele>
        <time>2019-11-11T10:26:18Z</time>
      </trkpt>
      <trkpt lat="49.32044" lon="1.13541">
        <ele>23.4</ele>
        <time>2019-11-11T10:26:19Z</time>
      </trkpt>
      <trkpt lat="49.32045" lon="1.13534">
        <ele>23.4</ele>
        <time>2019-11-11T10:26:20Z</time>
      </trkpt>
      <trkpt lat="49.32045" lon="1.13527">
        <ele>23.4</ele>
        <time>2019-11-11T10:26:21Z</time>
      </trkpt>
      <trkpt lat="49.32045" lon="1.1352">
        <ele>23.4</ele>
        <time>2019-11-11T10:26:22Z</time>
      </trkpt>
      <trkpt lat="49.32046" lon="1.13514">
        <ele>23.5</ele>
        <time>2019-11-11T10:26:23Z</time>
      </trkpt>
      <trkpt lat="49.32046" lon="1.13507">
        <ele>23.5</ele>
        <time>2019-11-11T10:26:24Z</time>
      </trkpt>
      <trkpt lat="49.32046" lon="1.135">
        <ele>23.2</ele>
        <time>2019-11-11T10:26:25Z</time>
      </trkpt>
      <trkpt lat="49.32047" lon="1.13493">
        <ele>22.8</ele>
        <time>2019-11-11T10:26:26Z</time>
      </trkpt>
      <trkpt lat="49.32047" lon="1.13487">
        <ele>22.7</ele>
        <time>2019-11-11T10:26:27Z</time>
      </trkpt>
      <trkpt lat="49.32047" lon="1.1348">
        <ele>22.6</ele>
        <time>2019-11-11T10:26:28Z</time>
      </trkpt>
      <trkpt lat="49.32048" lon="1.13473">
        <ele>22.6</ele>
        <time>2019-11-11T10:26:29Z</time>
      </trkpt>
      <trkpt lat="49.32048" lon="1.13466">
        <ele>22.5</ele>
        <time>2019-11-11T10:26:30Z</time>
      </trkpt>
      <trkpt lat="49.32049" lon="1.13458">
        <ele>22.5</ele>
        <time>2019-11-11T10:26:31Z</time>
      </trkpt>
      <trkpt lat="49.32049" lon="1.13451">
        <ele>22.5</ele>
        <time>2019-11-11T10:26:32Z</time>
      </trkpt>
      <trkpt lat="49.32049" lon="1.13444">
        <ele>22.5</ele>
        <time>2019-11-11T10:26:33Z</time>
      </trkpt>
      <trkpt lat="49.3205" lon="1.13437">
        <ele>22.6</ele>
        <time>2019-11-11T10:26:34Z</time>
      </trkpt>
      <trkpt lat="49.3205" lon="1.1343">
        <ele>22.6</ele>
        <time>2019-11-11T10:26:35Z</time>
      </trkpt>
      <trkpt lat="49.3205" lon="1.13423">
        <ele>22.6</ele>
        <time>2019-11-11T10:26:36Z</time>
      </trkpt>
      <trkpt lat="49.3205" lon="1.13416">
        <ele>22.6</ele>
        <time>2019-11-11T10:26:37Z</time>
      </trkpt>
      <trkpt lat="49.32051" lon="1.13409">
        <ele>22.7</ele>
        <time>2019-11-11T10:26:38Z</time>
      </trkpt>
      <trkpt lat="49.32051" lon="1.13402">
        <ele>22.7</ele>
        <time>2019-11-11T10:26:39Z</time>
      </trkpt>
      <trkpt lat="49.32051" lon="1.13395">
        <ele>22.6</ele>
        <time>2019-11-11T10:26:40Z</time>
      </trkpt>
      <trkpt lat="49.32052" lon="1.13388">
        <ele>22.7</ele>
        <time>2019-11-11T10:26:41Z</time>
      </trkpt>
      <trkpt lat="49.32052" lon="1.13381">
        <ele>22.6</ele>
        <time>2019-11-11T10:26:42Z</time>
      </trkpt>
      <trkpt lat="49.32052" lon="1.13374">
        <ele>22.7</ele>
        <time>2019-11-11T10:26:43Z</time>
      </trkpt>
      <trkpt lat="49.32052" lon="1.13367">
        <ele>22.7</ele>
        <time>2019-11-11T10:26:44Z</time>
      </trkpt>
      <trkpt lat="49.32052" lon="1.13361">
        <ele>22.8</ele>
        <time>2019-11-11T10:26:45Z</time>
      </trkpt>
      <trkpt lat="49.32053" lon="1.13354">
        <ele>23</ele>
        <time>2019-11-11T10:26:46Z</time>
      </trkpt>
      <trkpt lat="49.32053" lon="1.13347">
        <ele>23.2</ele>
        <time>2019-11-11T10:26:47Z</time>
      </trkpt>
      <trkpt lat="49.32053" lon="1.1334">
        <ele>23.3</ele>
        <time>2019-11-11T10:26:48Z</time>
      </trkpt>
      <trkpt lat="49.32053" lon="1.13333">
        <ele>23.2</ele>
        <time>2019-11-11T10:26:49Z</time>
      </trkpt>
      <trkpt lat="49.32053" lon="1.13326">
        <ele>23.1</ele>
        <time>2019-11-11T10:26:50Z</time>
      </trkpt>
      <trkpt lat="49.32053" lon="1.13319">
        <ele>23</ele>
        <time>2019-11-11T10:26:51Z</time>
      </trkpt>
      <trkpt lat="49.32053" lon="1.13312">
        <ele>22.8</ele>
        <time>2019-11-11T10:26:52Z</time>
      </trkpt>
      <trkpt lat="49.32053" lon="1.13305">
        <ele>22.7</ele>
        <time>2019-11-11T10:26:53Z</time>
      </trkpt>
      <trkpt lat="49.32053" lon="1.13299">
        <ele>22.6</ele>
        <time>2019-11-11T10:26:54Z</time>
      </trkpt>
      <trkpt lat="49.32054" lon="1.13293">
        <ele>22.5</ele>
        <time>2019-11-11T10:26:55Z</time>
      </trkpt>
      <trkpt lat="49.32054" lon="1.13287">
        <ele>22.5</ele>
        <time>2019-11-11T10:26:56Z</time>
      </trkpt>
      <trkpt lat="49.32054" lon="1.13281">
        <ele>22.4</ele>
        <time>2019-11-11T10:26:57Z</time>
      </trkpt>
      <trkpt lat="49.32054" lon="1.13276">
        <ele>22.4</ele>
        <time>2019-11-11T10:26:58Z</time>
      </trkpt>
      <trkpt lat="49.32054" lon="1.1327">
        <ele>22.5</ele>
        <time>2019-11-11T10:26:59Z</time>
      </trkpt>
      <trkpt lat="49.32054" lon="1.13264">
        <ele>22.5</ele>
        <time>2019-11-11T10:27:00Z</time>
      </trkpt>
      <trkpt lat="49.32054" lon="1.13258">
        <ele>22.6</ele>
        <time>2019-11-11T10:27:01Z</time>
      </trkpt>
      <trkpt lat="49.32054" lon="1.13252">
        <ele>22.6</ele>
        <time>2019-11-11T10:27:02Z</time>
      </trkpt>
      <trkpt lat="49.32054" lon="1.13246">
        <ele>22.3</ele>
        <time>2019-11-11T10:27:03Z</time>
      </trkpt>
      <trkpt lat="49.32054" lon="1.13239">
        <ele>22.2</ele>
        <time>2019-11-11T10:27:04Z</time>
      </trkpt>
      <trkpt lat="49.32054" lon="1.13233">
        <ele>22.1</ele>
        <time>2019-11-11T10:27:05Z</time>
      </trkpt>
      <trkpt lat="49.32054" lon="1.13227">
        <ele>22</ele>
        <time>2019-11-11T10:27:06Z</time>
      </trkpt>
      <trkpt lat="49.32054" lon="1.13221">
        <ele>22</ele>
        <time>2019-11-11T10:27:07Z</time>
      </trkpt>
      <trkpt lat="49.32054" lon="1.13215">
        <ele>21.9</ele>
        <time>2019-11-11T10:27:08Z</time>
      </trkpt>
      <trkpt lat="49.32054" lon="1.13209">
        <ele>21.9</ele>
        <time>2019-11-11T10:27:09Z</time>
      </trkpt>
      <trkpt lat="49.32054" lon="1.13204">
        <ele>22</ele>
        <time>2019-11-11T10:27:10Z</time>
      </trkpt>
      <trkpt lat="49.32054" lon="1.13197">
        <ele>22</ele>
        <time>2019-11-11T10:27:11Z</time>
      </trkpt>
      <trkpt lat="49.32054" lon="1.13191">
        <ele>22.1</ele>
        <time>2019-11-11T10:27:12Z</time>
      </trkpt>
      <trkpt lat="49.32054" lon="1.13185">
        <ele>22.2</ele>
        <time>2019-11-11T10:27:13Z</time>
      </trkpt>
      <trkpt lat="49.32054" lon="1.13179">
        <ele>22.3</ele>
        <time>2019-11-11T10:27:14Z</time>
      </trkpt>
      <trkpt lat="49.32054" lon="1.13173">
        <ele>22.4</ele>
        <time>2019-11-11T10:27:15Z</time>
      </trkpt>
      <trkpt lat="49.32054" lon="1.13166">
        <ele>22.8</ele>
        <time>2019-11-11T10:27:16Z</time>
      </trkpt>
      <trkpt lat="49.32054" lon="1.1316">
        <ele>22.8</ele>
        <time>2019-11-11T10:27:17Z</time>
      </trkpt>
      <trkpt lat="49.32054" lon="1.13154">
        <ele>22.8</ele>
        <time>2019-11-11T10:27:18Z</time>
      </trkpt>
      <trkpt lat="49.32054" lon="1.13148">
        <ele>22.7</ele>
        <time>2019-11-11T10:27:19Z</time>
      </trkpt>
      <trkpt lat="49.32053" lon="1.13142">
        <ele>22.6</ele>
        <time>2019-11-11T10:27:20Z</time>
      </trkpt>
      <trkpt lat="49.32053" lon="1.13135">
        <ele>22.6</ele>
        <time>2019-11-11T10:27:21Z</time>
      </trkpt>
      <trkpt lat="49.32053" lon="1.13129">
        <ele>22.6</ele>
        <time>2019-11-11T10:27:22Z</time>
      </trkpt>
      <trkpt lat="49.32053" lon="1.13122">
        <ele>22.7</ele>
        <time>2019-11-11T10:27:23Z</time>
      </trkpt>
      <trkpt lat="49.32052" lon="1.13116">
        <ele>22.7</ele>
        <time>2019-11-11T10:27:24Z</time>
      </trkpt>
      <trkpt lat="49.32052" lon="1.13109">
        <ele>22.8</ele>
        <time>2019-11-11T10:27:25Z</time>
      </trkpt>
      <trkpt lat="49.32052" lon="1.13102">
        <ele>23</ele>
        <time>2019-11-11T10:27:26Z</time>
      </trkpt>
      <trkpt lat="49.32051" lon="1.13096">
        <ele>23</ele>
        <time>2019-11-11T10:27:27Z</time>
      </trkpt>
      <trkpt lat="49.32051" lon="1.13089">
        <ele>23.1</ele>
        <time>2019-11-11T10:27:28Z</time>
      </trkpt>
      <trkpt lat="49.3205" lon="1.13083">
        <ele>23.3</ele>
        <time>2019-11-11T10:27:29Z</time>
      </trkpt>
      <trkpt lat="49.32049" lon="1.13076">
        <ele>23.2</ele>
        <time>2019-11-11T10:27:30Z</time>
      </trkpt>
      <trkpt lat="49.32049" lon="1.1307">
        <ele>23.2</ele>
        <time>2019-11-11T10:27:31Z</time>
      </trkpt>
      <trkpt lat="49.32049" lon="1.13063">
        <ele>23.1</ele>
        <time>2019-11-11T10:27:32Z</time>
      </trkpt>
      <trkpt lat="49.32049" lon="1.13056">
        <ele>23.1</ele>
        <time>2019-11-11T10:27:33Z</time>
      </trkpt>
      <trkpt lat="49.32049" lon="1.13049">
        <ele>23</ele>
        <time>2019-11-11T10:27:34Z</time>
      </trkpt>
      <trkpt lat="49.32049" lon="1.13043">
        <ele>23</ele>
        <time>2019-11-11T10:27:35Z</time>
      </trkpt>
      <trkpt lat="49.32048" lon="1.13036">
        <ele>23</ele>
        <time>2019-11-11T10:27:36Z</time>
      </trkpt>
      <trkpt lat="49.32048" lon="1.13029">
        <ele>23</ele>
        <time>2019-11-11T10:27:37Z</time>
      </trkpt>
      <trkpt lat="49.32048" lon="1.13022">
        <ele>23.1</ele>
        <time>2019-11-11T10:27:38Z</time>
      </trkpt>
      <trkpt lat="49.32048" lon="1.13016">
        <ele>23.1</ele>
        <time>2019-11-11T10:27:39Z</time>
      </trkpt>
      <trkpt lat="49.32047" lon="1.13009">
        <ele>23.1</ele>
        <time>2019-11-11T10:27:40Z</time>
      </trkpt>
      <trkpt lat="49.32047" lon="1.13003">
        <ele>23.1</ele>
        <time>2019-11-11T10:27:41Z</time>
      </trkpt>
      <trkpt lat="49.32047" lon="1.12996">
        <ele>23.6</ele>
        <time>2019-11-11T10:27:42Z</time>
      </trkpt>
      <trkpt lat="49.32047" lon="1.12989">
        <ele>23.6</ele>
        <time>2019-11-11T10:27:43Z</time>
      </trkpt>
      <trkpt lat="49.32047" lon="1.12983">
        <ele>23.6</ele>
        <time>2019-11-11T10:27:44Z</time>
      </trkpt>
      <trkpt lat="49.32047" lon="1.12976">
        <ele>23.6</ele>
        <time>2019-11-11T10:27:45Z</time>
      </trkpt>
      <trkpt lat="49.32046" lon="1.1297">
        <ele>23.5</ele>
        <time>2019-11-11T10:27:46Z</time>
      </trkpt>
      <trkpt lat="49.32046" lon="1.12963">
        <ele>23.6</ele>
        <time>2019-11-11T10:27:47Z</time>
      </trkpt>
      <trkpt lat="49.32046" lon="1.12956">
        <ele>23.7</ele>
        <time>2019-11-11T10:27:48Z</time>
      </trkpt>
      <trkpt lat="49.32046" lon="1.1295">
        <ele>23.7</ele>
        <time>2019-11-11T10:27:49Z</time>
      </trkpt>
      <trkpt lat="49.32045" lon="1.12943">
        <ele>23.7</ele>
        <time>2019-11-11T10:27:50Z</time>
      </trkpt>
      <trkpt lat="49.32045" lon="1.12937">
        <ele>23.8</ele>
        <time>2019-11-11T10:27:51Z</time>
      </trkpt>
      <trkpt lat="49.32045" lon="1.1293">
        <ele>23.9</ele>
        <time>2019-11-11T10:27:52Z</time>
      </trkpt>
      <trkpt lat="49.32044" lon="1.12924">
        <ele>23.8</ele>
        <time>2019-11-11T10:27:53Z</time>
      </trkpt>
      <trkpt lat="49.32044" lon="1.12917">
        <ele>23.9</ele>
        <time>2019-11-11T10:27:54Z</time>
      </trkpt>
      <trkpt lat="49.32043" lon="1.1291">
        <ele>24.3</ele>
        <time>2019-11-11T10:27:55Z</time>
      </trkpt>
      <trkpt lat="49.32043" lon="1.12904">
        <ele>24.3</ele>
        <time>2019-11-11T10:27:56Z</time>
      </trkpt>
      <trkpt lat="49.32042" lon="1.12897">
        <ele>24.2</ele>
        <time>2019-11-11T10:27:57Z</time>
      </trkpt>
      <trkpt lat="49.32042" lon="1.1289">
        <ele>24.2</ele>
        <time>2019-11-11T10:27:58Z</time>
      </trkpt>
      <trkpt lat="49.32041" lon="1.12883">
        <ele>24.2</ele>
        <time>2019-11-11T10:27:59Z</time>
      </trkpt>
      <trkpt lat="49.32041" lon="1.12877">
        <ele>24.2</ele>
        <time>2019-11-11T10:28:00Z</time>
      </trkpt>
      <trkpt lat="49.3204" lon="1.1287">
        <ele>24.1</ele>
        <time>2019-11-11T10:28:01Z</time>
      </trkpt>
      <trkpt lat="49.32039" lon="1.12864">
        <ele>24</ele>
        <time>2019-11-11T10:28:02Z</time>
      </trkpt>
      <trkpt lat="49.32039" lon="1.12859">
        <ele>24</ele>
        <time>2019-11-11T10:28:03Z</time>
      </trkpt>
      <trkpt lat="49.32038" lon="1.12853">
        <ele>23.9</ele>
        <time>2019-11-11T10:28:04Z</time>
      </trkpt>
      <trkpt lat="49.32037" lon="1.12846">
        <ele>23.7</ele>
        <time>2019-11-11T10:28:05Z</time>
      </trkpt>
      <trkpt lat="49.32037" lon="1.12839">
        <ele>23.7</ele>
        <time>2019-11-11T10:28:06Z</time>
      </trkpt>
      <trkpt lat="49.32036" lon="1.12832">
        <ele>24.3</ele>
        <time>2019-11-11T10:28:07Z</time>
      </trkpt>
      <trkpt lat="49.32036" lon="1.12826">
        <ele>24.4</ele>
        <time>2019-11-11T10:28:08Z</time>
      </trkpt>
      <trkpt lat="49.32035" lon="1.12819">
        <ele>24.4</ele>
        <time>2019-11-11T10:28:09Z</time>
      </trkpt>
      <trkpt lat="49.32034" lon="1.12812">
        <ele>24.4</ele>
        <time>2019-11-11T10:28:10Z</time>
      </trkpt>
      <trkpt lat="49.32034" lon="1.12805">
        <ele>24.6</ele>
        <time>2019-11-11T10:28:11Z</time>
      </trkpt>
      <trkpt lat="49.32033" lon="1.12799">
        <ele>24.6</ele>
        <time>2019-11-11T10:28:12Z</time>
      </trkpt>
      <trkpt lat="49.32032" lon="1.12792">
        <ele>24.6</ele>
        <time>2019-11-11T10:28:13Z</time>
      </trkpt>
      <trkpt lat="49.32032" lon="1.12785">
        <ele>24.7</ele>
        <time>2019-11-11T10:28:14Z</time>
      </trkpt>
      <trkpt lat="49.32031" lon="1.12778">
        <ele>24.6</ele>
        <time>2019-11-11T10:28:15Z</time>
      </trkpt>
      <trkpt lat="49.3203" lon="1.12771">
        <ele>24.5</ele>
        <time>2019-11-11T10:28:16Z</time>
      </trkpt>
      <trkpt lat="49.32029" lon="1.12764">
        <ele>24.3</ele>
        <time>2019-11-11T10:28:17Z</time>
      </trkpt>
      <trkpt lat="49.32028" lon="1.12757">
        <ele>24.1</ele>
        <time>2019-11-11T10:28:18Z</time>
      </trkpt>
      <trkpt lat="49.32028" lon="1.1275">
        <ele>24.6</ele>
        <time>2019-11-11T10:28:19Z</time>
      </trkpt>
      <trkpt lat="49.32027" lon="1.12743">
        <ele>24.5</ele>
        <time>2019-11-11T10:28:20Z</time>
      </trkpt>
      <trkpt lat="49.32026" lon="1.12736">
        <ele>24.5</ele>
        <time>2019-11-11T10:28:21Z</time>
      </trkpt>
      <trkpt lat="49.32025" lon="1.12729">
        <ele>24.6</ele>
        <time>2019-11-11T10:28:22Z</time>
      </trkpt>
      <trkpt lat="49.32024" lon="1.12722">
        <ele>24.7</ele>
        <time>2019-11-11T10:28:23Z</time>
      </trkpt>
      <trkpt lat="49.32023" lon="1.12714">
        <ele>24.8</ele>
        <time>2019-11-11T10:28:24Z</time>
      </trkpt>
      <trkpt lat="49.32022" lon="1.12707">
        <ele>24.7</ele>
        <time>2019-11-11T10:28:25Z</time>
      </trkpt>
      <trkpt lat="49.32021" lon="1.12699">
        <ele>24.5</ele>
        <time>2019-11-11T10:28:26Z</time>
      </trkpt>
      <trkpt lat="49.3202" lon="1.12692">
        <ele>24.1</ele>
        <time>2019-11-11T10:28:27Z</time>
      </trkpt>
      <trkpt lat="49.32018" lon="1.12684">
        <ele>23.5</ele>
        <time>2019-11-11T10:28:28Z</time>
      </trkpt>
      <trkpt lat="49.32017" lon="1.12677">
        <ele>22.8</ele>
        <time>2019-11-11T10:28:29Z</time>
      </trkpt>
      <trkpt lat="49.32016" lon="1.12669">
        <ele>22.2</ele>
        <time>2019-11-11T10:28:30Z</time>
      </trkpt>
      <trkpt lat="49.32015" lon="1.12661">
        <ele>22.4</ele>
        <time>2019-11-11T10:28:31Z</time>
      </trkpt>
      <trkpt lat="49.32014" lon="1.12653">
        <ele>22.9</ele>
        <time>2019-11-11T10:28:32Z</time>
      </trkpt>
      <trkpt lat="49.32013" lon="1.12645">
        <ele>23.5</ele>
        <time>2019-11-11T10:28:33Z</time>
      </trkpt>
      <trkpt lat="49.32012" lon="1.12637">
        <ele>24</ele>
        <time>2019-11-11T10:28:34Z</time>
      </trkpt>
      <trkpt lat="49.3201" lon="1.12629">
        <ele>24.2</ele>
        <time>2019-11-11T10:28:35Z</time>
      </trkpt>
      <trkpt lat="49.32009" lon="1.12621">
        <ele>24.2</ele>
        <time>2019-11-11T10:28:36Z</time>
      </trkpt>
      <trkpt lat="49.32008" lon="1.12614">
        <ele>24</ele>
        <time>2019-11-11T10:28:37Z</time>
      </trkpt>
      <trkpt lat="49.32006" lon="1.12606">
        <ele>23.4</ele>
        <time>2019-11-11T10:28:38Z</time>
      </trkpt>
      <trkpt lat="49.32005" lon="1.12598">
        <ele>22.5</ele>
        <time>2019-11-11T10:28:39Z</time>
      </trkpt>
      <trkpt lat="49.32004" lon="1.1259">
        <ele>21.1</ele>
        <time>2019-11-11T10:28:40Z</time>
      </trkpt>
      <trkpt lat="49.32003" lon="1.12581">
        <ele>20.3</ele>
        <time>2019-11-11T10:28:41Z</time>
      </trkpt>
      <trkpt lat="49.32001" lon="1.12573">
        <ele>22.1</ele>
        <time>2019-11-11T10:28:42Z</time>
      </trkpt>
      <trkpt lat="49.32" lon="1.12565">
        <ele>23.4</ele>
        <time>2019-11-11T10:28:43Z</time>
      </trkpt>
      <trkpt lat="49.31999" lon="1.12556">
        <ele>17.2</ele>
        <time>2019-11-11T10:28:44Z</time>
      </trkpt>
      <trkpt lat="49.31998" lon="1.12548">
        <ele>17.1</ele>
        <time>2019-11-11T10:28:45Z</time>
      </trkpt>
      <trkpt lat="49.31998" lon="1.12539">
        <ele>17.2</ele>
        <time>2019-11-11T10:28:46Z</time>
      </trkpt>
      <trkpt lat="49.31998" lon="1.12531">
        <ele>17.4</ele>
        <time>2019-11-11T10:28:47Z</time>
      </trkpt>
      <trkpt lat="49.31997" lon="1.12523">
        <ele>17.6</ele>
        <time>2019-11-11T10:28:48Z</time>
      </trkpt>
      <trkpt lat="49.31998" lon="1.12515">
        <ele>18.2</ele>
        <time>2019-11-11T10:28:49Z</time>
      </trkpt>
      <trkpt lat="49.31998" lon="1.12507">
        <ele>18.9</ele>
        <time>2019-11-11T10:28:50Z</time>
      </trkpt>
      <trkpt lat="49.31998" lon="1.12499">
        <ele>19.7</ele>
        <time>2019-11-11T10:28:51Z</time>
      </trkpt>
      <trkpt lat="49.31999" lon="1.1249">
        <ele>18.8</ele>
        <time>2019-11-11T10:28:52Z</time>
      </trkpt>
      <trkpt lat="49.32" lon="1.12483">
        <ele>24.7</ele>
        <time>2019-11-11T10:28:53Z</time>
      </trkpt>
      <trkpt lat="49.32" lon="1.12475">
        <ele>25.8</ele>
        <time>2019-11-11T10:28:54Z</time>
      </trkpt>
      <trkpt lat="49.32001" lon="1.12467">
        <ele>26.4</ele>
        <time>2019-11-11T10:28:55Z</time>
      </trkpt>
      <trkpt lat="49.32002" lon="1.1246">
        <ele>26.7</ele>
        <time>2019-11-11T10:28:56Z</time>
      </trkpt>
      <trkpt lat="49.32003" lon="1.12452">
        <ele>26.8</ele>
        <time>2019-11-11T10:28:57Z</time>
      </trkpt>
      <trkpt lat="49.32003" lon="1.12444">
        <ele>26.4</ele>
        <time>2019-11-11T10:28:58Z</time>
      </trkpt>
      <trkpt lat="49.32004" lon="1.12437">
        <ele>25.9</ele>
        <time>2019-11-11T10:28:59Z</time>
      </trkpt>
      <trkpt lat="49.32005" lon="1.12429">
        <ele>24.8</ele>
        <time>2019-11-11T10:29:00Z</time>
      </trkpt>
      <trkpt lat="49.32005" lon="1.12421">
        <ele>23.2</ele>
        <time>2019-11-11T10:29:01Z</time>
      </trkpt>
      <trkpt lat="49.32006" lon="1.12414">
        <ele>23.5</ele>
        <time>2019-11-11T10:29:02Z</time>
      </trkpt>
      <trkpt lat="49.32006" lon="1.12406">
        <ele>25</ele>
        <time>2019-11-11T10:29:03Z</time>
      </trkpt>
      <trkpt lat="49.32007" lon="1.12398">
        <ele>26.5</ele>
        <time>2019-11-11T10:29:04Z</time>
      </trkpt>
      <trkpt lat="49.32008" lon="1.1239">
        <ele>27.5</ele>
        <time>2019-11-11T10:29:05Z</time>
      </trkpt>
      <trkpt lat="49.32008" lon="1.12382">
        <ele>28.1</ele>
        <time>2019-11-11T10:29:06Z</time>
      </trkpt>
      <trkpt lat="49.32009" lon="1.12374">
        <ele>28.3</ele>
        <time>2019-11-11T10:29:07Z</time>
      </trkpt>
      <trkpt lat="49.3201" lon="1.12366">
        <ele>28.3</ele>
        <time>2019-11-11T10:29:08Z</time>
      </trkpt>
      <trkpt lat="49.3201" lon="1.12357">
        <ele>27.9</ele>
        <time>2019-11-11T10:29:09Z</time>
      </trkpt>
      <trkpt lat="49.32011" lon="1.12349">
        <ele>27.3</ele>
        <time>2019-11-11T10:29:10Z</time>
      </trkpt>
      <trkpt lat="49.32012" lon="1.12341">
        <ele>26.7</ele>
        <time>2019-11-11T10:29:11Z</time>
      </trkpt>
      <trkpt lat="49.32013" lon="1.12333">
        <ele>26.3</ele>
        <time>2019-11-11T10:29:12Z</time>
      </trkpt>
      <trkpt lat="49.32013" lon="1.12325">
        <ele>26.7</ele>
        <time>2019-11-11T10:29:13Z</time>
      </trkpt>
      <trkpt lat="49.32014" lon="1.12317">
        <ele>27.5</ele>
        <time>2019-11-11T10:29:14Z</time>
      </trkpt>
      <trkpt lat="49.32015" lon="1.12308">
        <ele>28.2</ele>
        <time>2019-11-11T10:29:15Z</time>
      </trkpt>
      <trkpt lat="49.32016" lon="1.123">
        <ele>28.6</ele>
        <time>2019-11-11T10:29:16Z</time>
      </trkpt>
      <trkpt lat="49.32016" lon="1.12291">
        <ele>28.7</ele>
        <time>2019-11-11T10:29:17Z</time>
      </trkpt>
      <trkpt lat="49.32017" lon="1.12283">
        <ele>28.7</ele>
        <time>2019-11-11T10:29:18Z</time>
      </trkpt>
      <trkpt lat="49.32018" lon="1.12275">
        <ele>28.5</ele>
        <time>2019-11-11T10:29:19Z</time>
      </trkpt>
      <trkpt lat="49.32018" lon="1.12267">
        <ele>28.2</ele>
        <time>2019-11-11T10:29:20Z</time>
      </trkpt>
      <trkpt lat="49.32018" lon="1.12259">
        <ele>27.8</ele>
        <time>2019-11-11T10:29:21Z</time>
      </trkpt>
      <trkpt lat="49.32018" lon="1.12252">
        <ele>27.5</ele>
        <time>2019-11-11T10:29:22Z</time>
      </trkpt>
      <trkpt lat="49.32017" lon="1.12244">
        <ele>27.1</ele>
        <time>2019-11-11T10:29:23Z</time>
      </trkpt>
      <trkpt lat="49.32015" lon="1.12237">
        <ele>27.2</ele>
        <time>2019-11-11T10:29:24Z</time>
      </trkpt>
      <trkpt lat="49.32013" lon="1.1223">
        <ele>27.4</ele>
        <time>2019-11-11T10:29:25Z</time>
      </trkpt>
      <trkpt lat="49.32011" lon="1.12223">
        <ele>27.6</ele>
        <time>2019-11-11T10:29:26Z</time>
      </trkpt>
      <trkpt lat="49.32009" lon="1.12215">
        <ele>27.7</ele>
        <time>2019-11-11T10:29:27Z</time>
      </trkpt>
      <trkpt lat="49.32007" lon="1.12208">
        <ele>27.6</ele>
        <time>2019-11-11T10:29:28Z</time>
      </trkpt>
      <trkpt lat="49.32005" lon="1.122">
        <ele>27.3</ele>
        <time>2019-11-11T10:29:29Z</time>
      </trkpt>
      <trkpt lat="49.32002" lon="1.12192">
        <ele>26.8</ele>
        <time>2019-11-11T10:29:30Z</time>
      </trkpt>
      <trkpt lat="49.32" lon="1.12185">
        <ele>26.2</ele>
        <time>2019-11-11T10:29:31Z</time>
      </trkpt>
      <trkpt lat="49.31998" lon="1.12177">
        <ele>21.3</ele>
        <time>2019-11-11T10:29:32Z</time>
      </trkpt>
      <trkpt lat="49.31995" lon="1.12168">
        <ele>22</ele>
        <time>2019-11-11T10:29:33Z</time>
      </trkpt>
      <trkpt lat="49.31992" lon="1.1216">
        <ele>21.4</ele>
        <time>2019-11-11T10:29:34Z</time>
      </trkpt>
      <trkpt lat="49.3199" lon="1.12152">
        <ele>20.7</ele>
        <time>2019-11-11T10:29:35Z</time>
      </trkpt>
      <trkpt lat="49.31987" lon="1.12143">
        <ele>20.1</ele>
        <time>2019-11-11T10:29:36Z</time>
      </trkpt>
      <trkpt lat="49.31984" lon="1.12134">
        <ele>19.8</ele>
        <time>2019-11-11T10:29:37Z</time>
      </trkpt>
      <trkpt lat="49.31981" lon="1.12126">
        <ele>19.7</ele>
        <time>2019-11-11T10:29:38Z</time>
      </trkpt>
      <trkpt lat="49.31978" lon="1.12116">
        <ele>19.7</ele>
        <time>2019-11-11T10:29:39Z</time>
      </trkpt>
      <trkpt lat="49.31975" lon="1.12107">
        <ele>19.8</ele>
        <time>2019-11-11T10:29:40Z</time>
      </trkpt>
      <trkpt lat="49.31972" lon="1.12099">
        <ele>19.8</ele>
        <time>2019-11-11T10:29:41Z</time>
      </trkpt>
      <trkpt lat="49.31969" lon="1.1209">
        <ele>19.7</ele>
        <time>2019-11-11T10:29:42Z</time>
      </trkpt>
      <trkpt lat="49.31966" lon="1.12081">
        <ele>20.3</ele>
        <time>2019-11-11T10:29:43Z</time>
      </trkpt>
      <trkpt lat="49.31964" lon="1.12072">
        <ele>20.1</ele>
        <time>2019-11-11T10:29:44Z</time>
      </trkpt>
      <trkpt lat="49.31961" lon="1.12063">
        <ele>19.8</ele>
        <time>2019-11-11T10:29:45Z</time>
      </trkpt>
      <trkpt lat="49.31958" lon="1.12054">
        <ele>19.6</ele>
        <time>2019-11-11T10:29:46Z</time>
      </trkpt>
      <trkpt lat="49.31955" lon="1.12044">
        <ele>19.5</ele>
        <time>2019-11-11T10:29:47Z</time>
      </trkpt>
      <trkpt lat="49.31952" lon="1.12035">
        <ele>19.4</ele>
        <time>2019-11-11T10:29:48Z</time>
      </trkpt>
      <trkpt lat="49.3195" lon="1.12025">
        <ele>19.3</ele>
        <time>2019-11-11T10:29:49Z</time>
      </trkpt>
      <trkpt lat="49.31948" lon="1.12015">
        <ele>19.1</ele>
        <time>2019-11-11T10:29:50Z</time>
      </trkpt>
      <trkpt lat="49.31947" lon="1.12006">
        <ele>18.9</ele>
        <time>2019-11-11T10:29:51Z</time>
      </trkpt>
      <trkpt lat="49.31945" lon="1.11996">
        <ele>19.4</ele>
        <time>2019-11-11T10:29:52Z</time>
      </trkpt>
      <trkpt lat="49.31944" lon="1.11987">
        <ele>19.5</ele>
        <time>2019-11-11T10:29:53Z</time>
      </trkpt>
      <trkpt lat="49.31943" lon="1.11978">
        <ele>19.6</ele>
        <time>2019-11-11T10:29:54Z</time>
      </trkpt>
      <trkpt lat="49.31941" lon="1.11969">
        <ele>19.7</ele>
        <time>2019-11-11T10:29:55Z</time>
      </trkpt>
      <trkpt lat="49.3194" lon="1.1196">
        <ele>19.7</ele>
        <time>2019-11-11T10:29:56Z</time>
      </trkpt>
      <trkpt lat="49.31939" lon="1.11952">
        <ele>19.7</ele>
        <time>2019-11-11T10:29:57Z</time>
      </trkpt>
      <trkpt lat="49.31938" lon="1.11943">
        <ele>19.5</ele>
        <time>2019-11-11T10:29:58Z</time>
      </trkpt>
      <trkpt lat="49.31937" lon="1.11934">
        <ele>19.1</ele>
        <time>2019-11-11T10:29:59Z</time>
      </trkpt>
      <trkpt lat="49.31936" lon="1.11926">
        <ele>18.7</ele>
        <time>2019-11-11T10:30:00Z</time>
      </trkpt>
      <trkpt lat="49.31935" lon="1.11917">
        <ele>18.3</ele>
        <time>2019-11-11T10:30:01Z</time>
      </trkpt>
      <trkpt lat="49.31934" lon="1.11908">
        <ele>18.7</ele>
        <time>2019-11-11T10:30:02Z</time>
      </trkpt>
      <trkpt lat="49.31932" lon="1.11899">
        <ele>19</ele>
        <time>2019-11-11T10:30:03Z</time>
      </trkpt>
      <trkpt lat="49.31931" lon="1.1189">
        <ele>19.4</ele>
        <time>2019-11-11T10:30:04Z</time>
      </trkpt>
      <trkpt lat="49.3193" lon="1.11882">
        <ele>19.6</ele>
        <time>2019-11-11T10:30:05Z</time>
      </trkpt>
      <trkpt lat="49.3193" lon="1.11873">
        <ele>19.7</ele>
        <time>2019-11-11T10:30:06Z</time>
      </trkpt>
      <trkpt lat="49.31929" lon="1.11864">
        <ele>19.5</ele>
        <time>2019-11-11T10:30:07Z</time>
      </trkpt>
      <trkpt lat="49.31928" lon="1.11855">
        <ele>19</ele>
        <time>2019-11-11T10:30:08Z</time>
      </trkpt>
      <trkpt lat="49.31927" lon="1.11846">
        <ele>18.2</ele>
        <time>2019-11-11T10:30:09Z</time>
      </trkpt>
      <trkpt lat="49.31926" lon="1.11837">
        <ele>17.3</ele>
        <time>2019-11-11T10:30:10Z</time>
      </trkpt>
      <trkpt lat="49.31926" lon="1.11828">
        <ele>17.4</ele>
        <time>2019-11-11T10:30:11Z</time>
      </trkpt>
      <trkpt lat="49.31925" lon="1.1182">
        <ele>18</ele>
        <time>2019-11-11T10:30:12Z</time>
      </trkpt>
      <trkpt lat="49.31925" lon="1.11811">
        <ele>18.8</ele>
        <time>2019-11-11T10:30:13Z</time>
      </trkpt>
      <trkpt lat="49.31924" lon="1.11802">
        <ele>19.1</ele>
        <time>2019-11-11T10:30:14Z</time>
      </trkpt>
      <trkpt lat="49.31923" lon="1.11792">
        <ele>19.2</ele>
        <time>2019-11-11T10:30:15Z</time>
      </trkpt>
      <trkpt lat="49.31923" lon="1.11783">
        <ele>19</ele>
        <time>2019-11-11T10:30:16Z</time>
      </trkpt>
      <trkpt lat="49.31922" lon="1.11774">
        <ele>18.4</ele>
        <time>2019-11-11T10:30:17Z</time>
      </trkpt>
      <trkpt lat="49.31921" lon="1.11765">
        <ele>17.4</ele>
        <time>2019-11-11T10:30:18Z</time>
      </trkpt>
      <trkpt lat="49.31921" lon="1.11757">
        <ele>16.2</ele>
        <time>2019-11-11T10:30:19Z</time>
      </trkpt>
      <trkpt lat="49.3192" lon="1.11748">
        <ele>15.1</ele>
        <time>2019-11-11T10:30:20Z</time>
      </trkpt>
      <trkpt lat="49.31919" lon="1.11739">
        <ele>16.5</ele>
        <time>2019-11-11T10:30:21Z</time>
      </trkpt>
      <trkpt lat="49.31918" lon="1.1173">
        <ele>17.5</ele>
        <time>2019-11-11T10:30:22Z</time>
      </trkpt>
      <trkpt lat="49.31916" lon="1.11722">
        <ele>11.9</ele>
        <time>2019-11-11T10:30:23Z</time>
      </trkpt>
      <trkpt lat="49.31915" lon="1.11713">
        <ele>11.7</ele>
        <time>2019-11-11T10:30:24Z</time>
      </trkpt>
      <trkpt lat="49.31913" lon="1.11704">
        <ele>11.6</ele>
        <time>2019-11-11T10:30:25Z</time>
      </trkpt>
      <trkpt lat="49.31911" lon="1.11696">
        <ele>11.6</ele>
        <time>2019-11-11T10:30:26Z</time>
      </trkpt>
      <trkpt lat="49.3191" lon="1.11687">
        <ele>11.7</ele>
        <time>2019-11-11T10:30:27Z</time>
      </trkpt>
      <trkpt lat="49.31908" lon="1.11678">
        <ele>12</ele>
        <time>2019-11-11T10:30:28Z</time>
      </trkpt>
      <trkpt lat="49.31906" lon="1.1167">
        <ele>12.1</ele>
        <time>2019-11-11T10:30:29Z</time>
      </trkpt>
      <trkpt lat="49.31904" lon="1.11662">
        <ele>11.8</ele>
        <time>2019-11-11T10:30:30Z</time>
      </trkpt>
      <trkpt lat="49.31901" lon="1.11653">
        <ele>11.5</ele>
        <time>2019-11-11T10:30:31Z</time>
      </trkpt>
      <trkpt lat="49.31899" lon="1.11645">
        <ele>11.2</ele>
        <time>2019-11-11T10:30:32Z</time>
      </trkpt>
      <trkpt lat="49.31896" lon="1.11636">
        <ele>11</ele>
        <time>2019-11-11T10:30:33Z</time>
      </trkpt>
      <trkpt lat="49.31894" lon="1.11628">
        <ele>10.9</ele>
        <time>2019-11-11T10:30:34Z</time>
      </trkpt>
      <trkpt lat="49.31891" lon="1.11619">
        <ele>10.8</ele>
        <time>2019-11-11T10:30:35Z</time>
      </trkpt>
      <trkpt lat="49.31888" lon="1.11611">
        <ele>10.7</ele>
        <time>2019-11-11T10:30:36Z</time>
      </trkpt>
      <trkpt lat="49.31884" lon="1.11603">
        <ele>10.6</ele>
        <time>2019-11-11T10:30:37Z</time>
      </trkpt>
      <trkpt lat="49.31881" lon="1.11594">
        <ele>10.5</ele>
        <time>2019-11-11T10:30:38Z</time>
      </trkpt>
      <trkpt lat="49.31878" lon="1.11586">
        <ele>10.3</ele>
        <time>2019-11-11T10:30:39Z</time>
      </trkpt>
      <trkpt lat="49.31875" lon="1.11577">
        <ele>10</ele>
        <time>2019-11-11T10:30:40Z</time>
      </trkpt>
      <trkpt lat="49.31873" lon="1.11568">
        <ele>9.9</ele>
        <time>2019-11-11T10:30:41Z</time>
      </trkpt>
      <trkpt lat="49.3187" lon="1.1156">
        <ele>9.8</ele>
        <time>2019-11-11T10:30:42Z</time>
      </trkpt>
      <trkpt lat="49.31868" lon="1.11551">
        <ele>9.7</ele>
        <time>2019-11-11T10:30:43Z</time>
      </trkpt>
      <trkpt lat="49.31866" lon="1.11542">
        <ele>9.6</ele>
        <time>2019-11-11T10:30:44Z</time>
      </trkpt>
      <trkpt lat="49.31865" lon="1.11534">
        <ele>9.6</ele>
        <time>2019-11-11T10:30:45Z</time>
      </trkpt>
      <trkpt lat="49.31865" lon="1.11525">
        <ele>9.5</ele>
        <time>2019-11-11T10:30:46Z</time>
      </trkpt>
      <trkpt lat="49.31864" lon="1.11517">
        <ele>9.3</ele>
        <time>2019-11-11T10:30:47Z</time>
      </trkpt>
      <trkpt lat="49.31864" lon="1.11509">
        <ele>9.3</ele>
        <time>2019-11-11T10:30:48Z</time>
      </trkpt>
      <trkpt lat="49.31864" lon="1.11502">
        <ele>9.2</ele>
        <time>2019-11-11T10:30:49Z</time>
      </trkpt>
      <trkpt lat="49.31864" lon="1.11494">
        <ele>9.3</ele>
        <time>2019-11-11T10:30:50Z</time>
      </trkpt>
      <trkpt lat="49.31864" lon="1.11486">
        <ele>9.4</ele>
        <time>2019-11-11T10:30:51Z</time>
      </trkpt>
      <trkpt lat="49.31864" lon="1.11479">
        <ele>9.5</ele>
        <time>2019-11-11T10:30:52Z</time>
      </trkpt>
      <trkpt lat="49.31864" lon="1.11471">
        <ele>9.6</ele>
        <time>2019-11-11T10:30:53Z</time>
      </trkpt>
      <trkpt lat="49.31864" lon="1.11463">
        <ele>9.6</ele>
        <time>2019-11-11T10:30:54Z</time>
      </trkpt>
      <trkpt lat="49.31865" lon="1.11455">
        <ele>9.7</ele>
        <time>2019-11-11T10:30:55Z</time>
      </trkpt>
      <trkpt lat="49.31865" lon="1.11447">
        <ele>9.6</ele>
        <time>2019-11-11T10:30:56Z</time>
      </trkpt>
      <trkpt lat="49.31866" lon="1.11439">
        <ele>9.6</ele>
        <time>2019-11-11T10:30:57Z</time>
      </trkpt>
      <trkpt lat="49.31866" lon="1.11431">
        <ele>9.6</ele>
        <time>2019-11-11T10:30:58Z</time>
      </trkpt>
      <trkpt lat="49.31867" lon="1.11424">
        <ele>9.6</ele>
        <time>2019-11-11T10:30:59Z</time>
      </trkpt>
      <trkpt lat="49.3187" lon="1.11417">
        <ele>9.9</ele>
        <time>2019-11-11T10:31:00Z</time>
      </trkpt>
      <trkpt lat="49.31872" lon="1.1141">
        <ele>10.1</ele>
        <time>2019-11-11T10:31:01Z</time>
      </trkpt>
      <trkpt lat="49.31875" lon="1.11404">
        <ele>10.3</ele>
        <time>2019-11-11T10:31:02Z</time>
      </trkpt>
      <trkpt lat="49.31877" lon="1.11398">
        <ele>10.5</ele>
        <time>2019-11-11T10:31:03Z</time>
      </trkpt>
      <trkpt lat="49.31878" lon="1.11391">
        <ele>10.5</ele>
        <time>2019-11-11T10:31:04Z</time>
      </trkpt>
      <trkpt lat="49.31877" lon="1.11384">
        <ele>10.4</ele>
        <time>2019-11-11T10:31:05Z</time>
      </trkpt>
      <trkpt lat="49.31875" lon="1.11377">
        <ele>10.3</ele>
        <time>2019-11-11T10:31:06Z</time>
      </trkpt>
      <trkpt lat="49.31872" lon="1.1137">
        <ele>10.1</ele>
        <time>2019-11-11T10:31:07Z</time>
      </trkpt>
      <trkpt lat="49.31869" lon="1.11363">
        <ele>9.9</ele>
        <time>2019-11-11T10:31:08Z</time>
      </trkpt>
      <trkpt lat="49.31868" lon="1.11355">
        <ele>9.8</ele>
        <time>2019-11-11T10:31:09Z</time>
      </trkpt>
      <trkpt lat="49.31868" lon="1.11347">
        <ele>9.7</ele>
        <time>2019-11-11T10:31:10Z</time>
      </trkpt>
      <trkpt lat="49.31868" lon="1.11339">
        <ele>9.6</ele>
        <time>2019-11-11T10:31:11Z</time>
      </trkpt>
      <trkpt lat="49.31869" lon="1.11331">
        <ele>9.4</ele>
        <time>2019-11-11T10:31:12Z</time>
      </trkpt>
      <trkpt lat="49.31869" lon="1.11323">
        <ele>9.4</ele>
        <time>2019-11-11T10:31:13Z</time>
      </trkpt>
      <trkpt lat="49.31869" lon="1.11316">
        <ele>9.4</ele>
        <time>2019-11-11T10:31:14Z</time>
      </trkpt>
      <trkpt lat="49.3187" lon="1.11308">
        <ele>9.5</ele>
        <time>2019-11-11T10:31:15Z</time>
      </trkpt>
      <trkpt lat="49.3187" lon="1.11301">
        <ele>9.5</ele>
        <time>2019-11-11T10:31:16Z</time>
      </trkpt>
      <trkpt lat="49.31871" lon="1.11293">
        <ele>9.6</ele>
        <time>2019-11-11T10:31:17Z</time>
      </trkpt>
      <trkpt lat="49.31871" lon="1.11286">
        <ele>9.5</ele>
        <time>2019-11-11T10:31:18Z</time>
      </trkpt>
      <trkpt lat="49.31872" lon="1.11278">
        <ele>9.5</ele>
        <time>2019-11-11T10:31:19Z</time>
      </trkpt>
      <trkpt lat="49.31872" lon="1.1127">
        <ele>9.5</ele>
        <time>2019-11-11T10:31:20Z</time>
      </trkpt>
      <trkpt lat="49.31872" lon="1.11263">
        <ele>9.5</ele>
        <time>2019-11-11T10:31:21Z</time>
      </trkpt>
      <trkpt lat="49.31873" lon="1.11255">
        <ele>9.5</ele>
        <time>2019-11-11T10:31:22Z</time>
      </trkpt>
      <trkpt lat="49.31873" lon="1.11247">
        <ele>10.1</ele>
        <time>2019-11-11T10:31:23Z</time>
      </trkpt>
      <trkpt lat="49.31873" lon="1.11239">
        <ele>10.2</ele>
        <time>2019-11-11T10:31:24Z</time>
      </trkpt>
      <trkpt lat="49.31873" lon="1.11232">
        <ele>10.3</ele>
        <time>2019-11-11T10:31:25Z</time>
      </trkpt>
      <trkpt lat="49.31872" lon="1.11224">
        <ele>10.3</ele>
        <time>2019-11-11T10:31:26Z</time>
      </trkpt>
      <trkpt lat="49.31871" lon="1.11216">
        <ele>10.4</ele>
        <time>2019-11-11T10:31:27Z</time>
      </trkpt>
      <trkpt lat="49.31871" lon="1.11208">
        <ele>10.5</ele>
        <time>2019-11-11T10:31:28Z</time>
      </trkpt>
      <trkpt lat="49.3187" lon="1.112">
        <ele>10.6</ele>
        <time>2019-11-11T10:31:29Z</time>
      </trkpt>
      <trkpt lat="49.31869" lon="1.11192">
        <ele>10.6</ele>
        <time>2019-11-11T10:31:30Z</time>
      </trkpt>
      <trkpt lat="49.31869" lon="1.11184">
        <ele>10.6</ele>
        <time>2019-11-11T10:31:31Z</time>
      </trkpt>
      <trkpt lat="49.31868" lon="1.11176">
        <ele>10.6</ele>
        <time>2019-11-11T10:31:32Z</time>
      </trkpt>
      <trkpt lat="49.31867" lon="1.11168">
        <ele>10.5</ele>
        <time>2019-11-11T10:31:33Z</time>
      </trkpt>
      <trkpt lat="49.31866" lon="1.11161">
        <ele>11.2</ele>
        <time>2019-11-11T10:31:34Z</time>
      </trkpt>
      <trkpt lat="49.31865" lon="1.11153">
        <ele>11.2</ele>
        <time>2019-11-11T10:31:35Z</time>
      </trkpt>
      <trkpt lat="49.31865" lon="1.11145">
        <ele>11.3</ele>
        <time>2019-11-11T10:31:36Z</time>
      </trkpt>
      <trkpt lat="49.31864" lon="1.11138">
        <ele>11.3</ele>
        <time>2019-11-11T10:31:37Z</time>
      </trkpt>
      <trkpt lat="49.31864" lon="1.11131">
        <ele>11.3</ele>
        <time>2019-11-11T10:31:38Z</time>
      </trkpt>
      <trkpt lat="49.31863" lon="1.11124">
        <ele>11.3</ele>
        <time>2019-11-11T10:31:39Z</time>
      </trkpt>
      <trkpt lat="49.31862" lon="1.11116">
        <ele>11.2</ele>
        <time>2019-11-11T10:31:40Z</time>
      </trkpt>
      <trkpt lat="49.31862" lon="1.11109">
        <ele>11.1</ele>
        <time>2019-11-11T10:31:41Z</time>
      </trkpt>
      <trkpt lat="49.31862" lon="1.11102">
        <ele>11</ele>
        <time>2019-11-11T10:31:42Z</time>
      </trkpt>
      <trkpt lat="49.31861" lon="1.11094">
        <ele>10.8</ele>
        <time>2019-11-11T10:31:43Z</time>
      </trkpt>
      <trkpt lat="49.31861" lon="1.11087">
        <ele>10.7</ele>
        <time>2019-11-11T10:31:44Z</time>
      </trkpt>
      <trkpt lat="49.31861" lon="1.11079">
        <ele>10.8</ele>
        <time>2019-11-11T10:31:45Z</time>
      </trkpt>
      <trkpt lat="49.3186" lon="1.11072">
        <ele>10.8</ele>
        <time>2019-11-11T10:31:46Z</time>
      </trkpt>
      <trkpt lat="49.3186" lon="1.11065">
        <ele>11</ele>
        <time>2019-11-11T10:31:47Z</time>
      </trkpt>
      <trkpt lat="49.31859" lon="1.11057">
        <ele>11.1</ele>
        <time>2019-11-11T10:31:48Z</time>
      </trkpt>
      <trkpt lat="49.31859" lon="1.1105">
        <ele>11.2</ele>
        <time>2019-11-11T10:31:49Z</time>
      </trkpt>
      <trkpt lat="49.31858" lon="1.11043">
        <ele>11.1</ele>
        <time>2019-11-11T10:31:50Z</time>
      </trkpt>
      <trkpt lat="49.31858" lon="1.11035">
        <ele>11.1</ele>
        <time>2019-11-11T10:31:51Z</time>
      </trkpt>
      <trkpt lat="49.31857" lon="1.11028">
        <ele>10.9</ele>
        <time>2019-11-11T10:31:52Z</time>
      </trkpt>
      <trkpt lat="49.31857" lon="1.11021">
        <ele>10.7</ele>
        <time>2019-11-11T10:31:53Z</time>
      </trkpt>
      <trkpt lat="49.31856" lon="1.11014">
        <ele>10.4</ele>
        <time>2019-11-11T10:31:54Z</time>
      </trkpt>
      <trkpt lat="49.31855" lon="1.11006">
        <ele>10</ele>
        <time>2019-11-11T10:31:55Z</time>
      </trkpt>
      <trkpt lat="49.31855" lon="1.10999">
        <ele>10.3</ele>
        <time>2019-11-11T10:31:56Z</time>
      </trkpt>
      <trkpt lat="49.31855" lon="1.10992">
        <ele>10.4</ele>
        <time>2019-11-11T10:31:57Z</time>
      </trkpt>
      <trkpt lat="49.31854" lon="1.10984">
        <ele>10.6</ele>
        <time>2019-11-11T10:31:58Z</time>
      </trkpt>
      <trkpt lat="49.31854" lon="1.10977">
        <ele>10.9</ele>
        <time>2019-11-11T10:31:59Z</time>
      </trkpt>
      <trkpt lat="49.31854" lon="1.10969">
        <ele>11.2</ele>
        <time>2019-11-11T10:32:00Z</time>
      </trkpt>
      <trkpt lat="49.31853" lon="1.10962">
        <ele>11.3</ele>
        <time>2019-11-11T10:32:01Z</time>
      </trkpt>
      <trkpt lat="49.31853" lon="1.10954">
        <ele>11.3</ele>
        <time>2019-11-11T10:32:02Z</time>
      </trkpt>
      <trkpt lat="49.31852" lon="1.10947">
        <ele>11.1</ele>
        <time>2019-11-11T10:32:03Z</time>
      </trkpt>
      <trkpt lat="49.31852" lon="1.10939">
        <ele>10.8</ele>
        <time>2019-11-11T10:32:04Z</time>
      </trkpt>
      <trkpt lat="49.31851" lon="1.10931">
        <ele>10.3</ele>
        <time>2019-11-11T10:32:05Z</time>
      </trkpt>
      <trkpt lat="49.31851" lon="1.10923">
        <ele>9.9</ele>
        <time>2019-11-11T10:32:06Z</time>
      </trkpt>
      <trkpt lat="49.3185" lon="1.10916">
        <ele>10.1</ele>
        <time>2019-11-11T10:32:07Z</time>
      </trkpt>
      <trkpt lat="49.3185" lon="1.10908">
        <ele>10.5</ele>
        <time>2019-11-11T10:32:08Z</time>
      </trkpt>
      <trkpt lat="49.31849" lon="1.109">
        <ele>10.9</ele>
        <time>2019-11-11T10:32:09Z</time>
      </trkpt>
      <trkpt lat="49.31849" lon="1.10892">
        <ele>11.5</ele>
        <time>2019-11-11T10:32:10Z</time>
      </trkpt>
      <trkpt lat="49.31848" lon="1.10885">
        <ele>11.8</ele>
        <time>2019-11-11T10:32:11Z</time>
      </trkpt>
      <trkpt lat="49.31848" lon="1.10877">
        <ele>12</ele>
        <time>2019-11-11T10:32:12Z</time>
      </trkpt>
      <trkpt lat="49.31847" lon="1.10869">
        <ele>11.9</ele>
        <time>2019-11-11T10:32:13Z</time>
      </trkpt>
      <trkpt lat="49.31846" lon="1.10861">
        <ele>11.7</ele>
        <time>2019-11-11T10:32:14Z</time>
      </trkpt>
      <trkpt lat="49.31845" lon="1.10854">
        <ele>11.2</ele>
        <time>2019-11-11T10:32:15Z</time>
      </trkpt>
      <trkpt lat="49.31845" lon="1.10846">
        <ele>10.6</ele>
        <time>2019-11-11T10:32:16Z</time>
      </trkpt>
      <trkpt lat="49.31844" lon="1.10838">
        <ele>9.8</ele>
        <time>2019-11-11T10:32:17Z</time>
      </trkpt>
      <trkpt lat="49.31844" lon="1.10831">
        <ele>10.1</ele>
        <time>2019-11-11T10:32:18Z</time>
      </trkpt>
      <trkpt lat="49.31844" lon="1.10823">
        <ele>10.8</ele>
        <time>2019-11-11T10:32:19Z</time>
      </trkpt>
      <trkpt lat="49.31843" lon="1.10815">
        <ele>11.6</ele>
        <time>2019-11-11T10:32:20Z</time>
      </trkpt>
      <trkpt lat="49.31842" lon="1.10808">
        <ele>12.1</ele>
        <time>2019-11-11T10:32:21Z</time>
      </trkpt>
      <trkpt lat="49.31841" lon="1.108">
        <ele>12.6</ele>
        <time>2019-11-11T10:32:22Z</time>
      </trkpt>
      <trkpt lat="49.31841" lon="1.108">
        <ele>12.6</ele>
        <time>2019-11-11T10:32:23Z</time>
      </trkpt>
      <trkpt lat="49.31841" lon="1.108">
        <ele>12.6</ele>
        <time>2019-11-11T10:32:24Z</time>
      </trkpt>
      <trkpt lat="49.31841" lon="1.108">
        <ele>12.6</ele>
        <time>2019-11-11T10:32:25Z</time>
      </trkpt>
      <trkpt lat="49.31841" lon="1.108">
        <ele>12.6</ele>
        <time>2019-11-11T10:32:26Z</time>
      </trkpt>
      <trkpt lat="49.31841" lon="1.108">
        <ele>12.6</ele>
        <time>2019-11-11T10:32:27Z</time>
      </trkpt>
      <trkpt lat="49.31841" lon="1.108">
        <ele>12.6</ele>
        <time>2019-11-11T10:32:28Z</time>
      </trkpt>
      <trkpt lat="49.31841" lon="1.108">
        <ele>12.6</ele>
        <time>2019-11-11T10:32:29Z</time>
      </trkpt>
      <trkpt lat="49.31841" lon="1.108">
        <ele>12.6</ele>
        <time>2019-11-11T10:32:30Z</time>
      </trkpt>
      <trkpt lat="49.31841" lon="1.10793">
        <ele>12.7</ele>
        <time>2019-11-11T10:32:31Z</time>
      </trkpt>
      <trkpt lat="49.3184" lon="1.10785">
        <ele>12.7</ele>
        <time>2019-11-11T10:32:32Z</time>
      </trkpt>
      <trkpt lat="49.31839" lon="1.10777">
        <ele>12.4</ele>
        <time>2019-11-11T10:32:33Z</time>
      </trkpt>
      <trkpt lat="49.31838" lon="1.1077">
        <ele>11.8</ele>
        <time>2019-11-11T10:32:34Z</time>
      </trkpt>
      <trkpt lat="49.31837" lon="1.10762">
        <ele>10.8</ele>
        <time>2019-11-11T10:32:35Z</time>
      </trkpt>
      <trkpt lat="49.31836" lon="1.10754">
        <ele>9.3</ele>
        <time>2019-11-11T10:32:36Z</time>
      </trkpt>
      <trkpt lat="49.31835" lon="1.10747">
        <ele>8.9</ele>
        <time>2019-11-11T10:32:37Z</time>
      </trkpt>
      <trkpt lat="49.31833" lon="1.1074">
        <ele>7.8</ele>
        <time>2019-11-11T10:32:38Z</time>
      </trkpt>
      <trkpt lat="49.31831" lon="1.10733">
        <ele>7.7</ele>
        <time>2019-11-11T10:32:39Z</time>
      </trkpt>
      <trkpt lat="49.31829" lon="1.10725">
        <ele>7.6</ele>
        <time>2019-11-11T10:32:40Z</time>
      </trkpt>
      <trkpt lat="49.31827" lon="1.10718">
        <ele>7.6</ele>
        <time>2019-11-11T10:32:41Z</time>
      </trkpt>
      <trkpt lat="49.31825" lon="1.1071">
        <ele>7.5</ele>
        <time>2019-11-11T10:32:42Z</time>
      </trkpt>
      <trkpt lat="49.31823" lon="1.10703">
        <ele>7.5</ele>
        <time>2019-11-11T10:32:43Z</time>
      </trkpt>
      <trkpt lat="49.31821" lon="1.10695">
        <ele>7.4</ele>
        <time>2019-11-11T10:32:44Z</time>
      </trkpt>
      <trkpt lat="49.31819" lon="1.10687">
        <ele>7.4</ele>
        <time>2019-11-11T10:32:45Z</time>
      </trkpt>
      <trkpt lat="49.31817" lon="1.1068">
        <ele>7.4</ele>
        <time>2019-11-11T10:32:46Z</time>
      </trkpt>
      <trkpt lat="49.31817" lon="1.1068">
        <ele>7.4</ele>
        <time>2019-11-11T10:32:47Z</time>
      </trkpt>
      <trkpt lat="49.31817" lon="1.1068">
        <ele>7.4</ele>
        <time>2019-11-11T10:32:48Z</time>
      </trkpt>
      <trkpt lat="49.31817" lon="1.1068">
        <ele>7.4</ele>
        <time>2019-11-11T10:32:49Z</time>
      </trkpt>
      <trkpt lat="49.31817" lon="1.1068">
        <ele>7.4</ele>
        <time>2019-11-11T10:32:50Z</time>
      </trkpt>
      <trkpt lat="49.31817" lon="1.1068">
        <ele>7.4</ele>
        <time>2019-11-11T10:32:51Z</time>
      </trkpt>
      <trkpt lat="49.31817" lon="1.1068">
        <ele>7.4</ele>
        <time>2019-11-11T10:32:52Z</time>
      </trkpt>
      <trkpt lat="49.31817" lon="1.1068">
        <ele>7.4</ele>
        <time>2019-11-11T10:32:53Z</time>
      </trkpt>
      <trkpt lat="49.31817" lon="1.1068">
        <ele>7.4</ele>
        <time>2019-11-11T10:32:54Z</time>
      </trkpt>
      <trkpt lat="49.31817" lon="1.1068">
        <ele>7.4</ele>
        <time>2019-11-11T10:32:55Z</time>
      </trkpt>
      <trkpt lat="49.31817" lon="1.1068">
        <ele>7.4</ele>
        <time>2019-11-11T10:32:56Z</time>
      </trkpt>
      <trkpt lat="49.31817" lon="1.1068">
        <ele>7.4</ele>
        <time>2019-11-11T10:32:57Z</time>
      </trkpt>
      <trkpt lat="49.31817" lon="1.1068">
        <ele>7.4</ele>
        <time>2019-11-11T10:32:58Z</time>
      </trkpt>
      <trkpt lat="49.31817" lon="1.1068">
        <ele>7.4</ele>
        <time>2019-11-11T10:32:59Z</time>
      </trkpt>
      <trkpt lat="49.31817" lon="1.1068">
        <ele>7.4</ele>
        <time>2019-11-11T10:33:00Z</time>
      </trkpt>
      <trkpt lat="49.31817" lon="1.1068">
        <ele>7.4</ele>
        <time>2019-11-11T10:33:01Z</time>
      </trkpt>
      <trkpt lat="49.31815" lon="1.10677">
        <ele>7.4</ele>
        <time>2019-11-11T10:33:02Z</time>
      </trkpt>
      <trkpt lat="49.31814" lon="1.10673">
        <ele>7.4</ele>
        <time>2019-11-11T10:33:03Z</time>
      </trkpt>
      <trkpt lat="49.31812" lon="1.1067">
        <ele>7.4</ele>
        <time>2019-11-11T10:33:04Z</time>
      </trkpt>
      <trkpt lat="49.3181" lon="1.10666">
        <ele>8.2</ele>
        <time>2019-11-11T10:33:05Z</time>
      </trkpt>
      <trkpt lat="49.31809" lon="1.10662">
        <ele>8.3</ele>
        <time>2019-11-11T10:33:06Z</time>
      </trkpt>
      <trkpt lat="49.31807" lon="1.10659">
        <ele>8.4</ele>
        <time>2019-11-11T10:33:07Z</time>
      </trkpt>
      <trkpt lat="49.31806" lon="1.10655">
        <ele>8.4</ele>
        <time>2019-11-11T10:33:08Z</time>
      </trkpt>
      <trkpt lat="49.31804" lon="1.10652">
        <ele>8.5</ele>
        <time>2019-11-11T10:33:09Z</time>
      </trkpt>
      <trkpt lat="49.31803" lon="1.10648">
        <ele>8.6</ele>
        <time>2019-11-11T10:33:10Z</time>
      </trkpt>
      <trkpt lat="49.31801" lon="1.10644">
        <ele>8.7</ele>
        <time>2019-11-11T10:33:11Z</time>
      </trkpt>
      <trkpt lat="49.31799" lon="1.10641">
        <ele>8.7</ele>
        <time>2019-11-11T10:33:12Z</time>
      </trkpt>
      <trkpt lat="49.31798" lon="1.10637">
        <ele>8.8</ele>
        <time>2019-11-11T10:33:13Z</time>
      </trkpt>
      <trkpt lat="49.31796" lon="1.10634">
        <ele>8.9</ele>
        <time>2019-11-11T10:33:14Z</time>
      </trkpt>
      <trkpt lat="49.31795" lon="1.1063">
        <ele>8.9</ele>
        <time>2019-11-11T10:33:15Z</time>
      </trkpt>
      <trkpt lat="49.31793" lon="1.10626">
        <ele>9</ele>
        <time>2019-11-11T10:33:16Z</time>
      </trkpt>
      <trkpt lat="49.31791" lon="1.1062">
        <ele>9.1</ele>
        <time>2019-11-11T10:33:17Z</time>
      </trkpt>
      <trkpt lat="49.3179" lon="1.10614">
        <ele>9.1</ele>
        <time>2019-11-11T10:33:18Z</time>
      </trkpt>
      <trkpt lat="49.31788" lon="1.10609">
        <ele>9.2</ele>
        <time>2019-11-11T10:33:19Z</time>
      </trkpt>
      <trkpt lat="49.31787" lon="1.10603">
        <ele>9.3</ele>
        <time>2019-11-11T10:33:20Z</time>
      </trkpt>
      <trkpt lat="49.31785" lon="1.10597">
        <ele>9.3</ele>
        <time>2019-11-11T10:33:21Z</time>
      </trkpt>
      <trkpt lat="49.31783" lon="1.10591">
        <ele>9.4</ele>
        <time>2019-11-11T10:33:22Z</time>
      </trkpt>
      <trkpt lat="49.31781" lon="1.10581">
        <ele>10.4</ele>
        <time>2019-11-11T10:33:23Z</time>
      </trkpt>
      <trkpt lat="49.3178" lon="1.10578">
        <ele>10.4</ele>
        <time>2019-11-11T10:33:24Z</time>
      </trkpt>
      <trkpt lat="49.31779" lon="1.10575">
        <ele>10.4</ele>
        <time>2019-11-11T10:33:25Z</time>
      </trkpt>
      <trkpt lat="49.31778" lon="1.10571">
        <ele>10.4</ele>
        <time>2019-11-11T10:33:26Z</time>
      </trkpt>
      <trkpt lat="49.31777" lon="1.10568">
        <ele>10.4</ele>
        <time>2019-11-11T10:33:27Z</time>
      </trkpt>
      <trkpt lat="49.31777" lon="1.10564">
        <ele>10.4</ele>
        <time>2019-11-11T10:33:28Z</time>
      </trkpt>
      <trkpt lat="49.31777" lon="1.1056">
        <ele>10.5</ele>
        <time>2019-11-11T10:33:29Z</time>
      </trkpt>
      <trkpt lat="49.31778" lon="1.10559">
        <ele>10.5</ele>
        <time>2019-11-11T10:33:30Z</time>
      </trkpt>
      <trkpt lat="49.3178" lon="1.10558">
        <ele>10.5</ele>
        <time>2019-11-11T10:33:31Z</time>
      </trkpt>
      <trkpt lat="49.31783" lon="1.10557">
        <ele>10.5</ele>
        <time>2019-11-11T10:33:35Z</time>
      </trkpt>
      <trkpt lat="49.31786" lon="1.10555">
        <ele>10.6</ele>
        <time>2019-11-11T10:33:36Z</time>
      </trkpt>
      <trkpt lat="49.31786" lon="1.10555">
        <ele>10.6</ele>
        <time>2019-11-11T10:33:37Z</time>
      </trkpt>
      <trkpt lat="49.31786" lon="1.10555">
        <ele>10.6</ele>
        <time>2019-11-11T10:33:43Z</time>
      </trkpt>
      <trkpt lat="49.31814" lon="1.10541">
        <ele>11.1</ele>
        <time>2019-11-11T10:33:44Z</time>
      </trkpt>
      <trkpt lat="49.31817" lon="1.1054">
        <ele>11.1</ele>
        <time>2019-11-11T10:33:45Z</time>
      </trkpt>
      <trkpt lat="49.3182" lon="1.10539">
        <ele>11.2</ele>
        <time>2019-11-11T10:33:46Z</time>
      </trkpt>
      <trkpt lat="49.31821" lon="1.10538">
        <ele>11.2</ele>
        <time>2019-11-11T10:33:47Z</time>
      </trkpt>
      <trkpt lat="49.31818" lon="1.10539">
        <ele>11.2</ele>
        <time>2019-11-11T10:33:48Z</time>
      </trkpt>
      <trkpt lat="49.31815" lon="1.1054">
        <ele>11.1</ele>
        <time>2019-11-11T10:33:49Z</time>
      </trkpt>
      <trkpt lat="49.31813" lon="1.10541">
        <ele>11.1</ele>
        <time>2019-11-11T10:33:50Z</time>
      </trkpt>
      <trkpt lat="49.3181" lon="1.10542">
        <ele>11</ele>
        <time>2019-11-11T10:33:51Z</time>
      </trkpt>
      <trkpt lat="49.31807" lon="1.10543">
        <ele>10.9</ele>
        <time>2019-11-11T10:33:52Z</time>
      </trkpt>
      <trkpt lat="49.31805" lon="1.10544">
        <ele>10.9</ele>
        <time>2019-11-11T10:33:53Z</time>
      </trkpt>
      <trkpt lat="49.31802" lon="1.10545">
        <ele>10.9</ele>
        <time>2019-11-11T10:33:54Z</time>
      </trkpt>
      <trkpt lat="49.31799" lon="1.10546">
        <ele>10.8</ele>
        <time>2019-11-11T10:33:55Z</time>
      </trkpt>
      <trkpt lat="49.31797" lon="1.10547">
        <ele>10.8</ele>
        <time>2019-11-11T10:33:56Z</time>
      </trkpt>
      <trkpt lat="49.31794" lon="1.10548">
        <ele>10.7</ele>
        <time>2019-11-11T10:33:57Z</time>
      </trkpt>
      <trkpt lat="49.31791" lon="1.10549">
        <ele>10.7</ele>
        <time>2019-11-11T10:33:58Z</time>
      </trkpt>
      <trkpt lat="49.31789" lon="1.1055">
        <ele>10.6</ele>
        <time>2019-11-11T10:33:59Z</time>
      </trkpt>
      <trkpt lat="49.31786" lon="1.10551">
        <ele>10.6</ele>
        <time>2019-11-11T10:34:00Z</time>
      </trkpt>
      <trkpt lat="49.31783" lon="1.10552">
        <ele>10.6</ele>
        <time>2019-11-11T10:34:01Z</time>
      </trkpt>
      <trkpt lat="49.31781" lon="1.10553">
        <ele>10.5</ele>
        <time>2019-11-11T10:34:02Z</time>
      </trkpt>
      <trkpt lat="49.31778" lon="1.10554">
        <ele>10.5</ele>
        <time>2019-11-11T10:34:03Z</time>
      </trkpt>
      <trkpt lat="49.31775" lon="1.10555">
        <ele>10.5</ele>
        <time>2019-11-11T10:34:04Z</time>
      </trkpt>
      <trkpt lat="49.31773" lon="1.10556">
        <ele>10.4</ele>
        <time>2019-11-11T10:34:05Z</time>
      </trkpt>
      <trkpt lat="49.3177" lon="1.10557">
        <ele>10.4</ele>
        <time>2019-11-11T10:34:06Z</time>
      </trkpt>
      <trkpt lat="49.31767" lon="1.10558">
        <ele>10.4</ele>
        <time>2019-11-11T10:34:07Z</time>
      </trkpt>
      <trkpt lat="49.31765" lon="1.10559">
        <ele>10.4</ele>
        <time>2019-11-11T10:34:08Z</time>
      </trkpt>
      <trkpt lat="49.31762" lon="1.1056">
        <ele>10.3</ele>
        <time>2019-11-11T10:34:09Z</time>
      </trkpt>
      <trkpt lat="49.31759" lon="1.10556">
        <ele>10.3</ele>
        <time>2019-11-11T10:34:10Z</time>
      </trkpt>
      <trkpt lat="49.31757" lon="1.1055">
        <ele>10.3</ele>
        <time>2019-11-11T10:34:11Z</time>
      </trkpt>
      <trkpt lat="49.31755" lon="1.10544">
        <ele>10.3</ele>
        <time>2019-11-11T10:34:12Z</time>
      </trkpt>
      <trkpt lat="49.31754" lon="1.10538">
        <ele>10.3</ele>
        <time>2019-11-11T10:34:13Z</time>
      </trkpt>
      <trkpt lat="49.31754" lon="1.10532">
        <ele>10.2</ele>
        <time>2019-11-11T10:34:14Z</time>
      </trkpt>
      <trkpt lat="49.31754" lon="1.10526">
        <ele>10.1</ele>
        <time>2019-11-11T10:34:15Z</time>
      </trkpt>
      <trkpt lat="49.31754" lon="1.10519">
        <ele>10</ele>
        <time>2019-11-11T10:34:16Z</time>
      </trkpt>
      <trkpt lat="49.31755" lon="1.10512">
        <ele>9.8</ele>
        <time>2019-11-11T10:34:17Z</time>
      </trkpt>
      <trkpt lat="49.31755" lon="1.10506">
        <ele>9.5</ele>
        <time>2019-11-11T10:34:18Z</time>
      </trkpt>
      <trkpt lat="49.31754" lon="1.10498">
        <ele>9.2</ele>
        <time>2019-11-11T10:34:19Z</time>
      </trkpt>
      <trkpt lat="49.31754" lon="1.10491">
        <ele>9.4</ele>
        <time>2019-11-11T10:34:20Z</time>
      </trkpt>
      <trkpt lat="49.31754" lon="1.10484">
        <ele>9.5</ele>
        <time>2019-11-11T10:34:21Z</time>
      </trkpt>
      <trkpt lat="49.31754" lon="1.10476">
        <ele>9.6</ele>
        <time>2019-11-11T10:34:22Z</time>
      </trkpt>
      <trkpt lat="49.31753" lon="1.10469">
        <ele>9.6</ele>
        <time>2019-11-11T10:34:23Z</time>
      </trkpt>
      <trkpt lat="49.31753" lon="1.10461">
        <ele>9.5</ele>
        <time>2019-11-11T10:34:24Z</time>
      </trkpt>
      <trkpt lat="49.31753" lon="1.10454">
        <ele>9.3</ele>
        <time>2019-11-11T10:34:25Z</time>
      </trkpt>
      <trkpt lat="49.31753" lon="1.10447">
        <ele>9.1</ele>
        <time>2019-11-11T10:34:26Z</time>
      </trkpt>
      <trkpt lat="49.31753" lon="1.1044">
        <ele>8.9</ele>
        <time>2019-11-11T10:34:27Z</time>
      </trkpt>
      <trkpt lat="49.31753" lon="1.10432">
        <ele>8.4</ele>
        <time>2019-11-11T10:34:28Z</time>
      </trkpt>
      <trkpt lat="49.31754" lon="1.10425">
        <ele>8</ele>
        <time>2019-11-11T10:34:29Z</time>
      </trkpt>
      <trkpt lat="49.31754" lon="1.10417">
        <ele>7.5</ele>
        <time>2019-11-11T10:34:30Z</time>
      </trkpt>
      <trkpt lat="49.31754" lon="1.10409">
        <ele>7.6</ele>
        <time>2019-11-11T10:34:31Z</time>
      </trkpt>
      <trkpt lat="49.31755" lon="1.10402">
        <ele>7.9</ele>
        <time>2019-11-11T10:34:32Z</time>
      </trkpt>
      <trkpt lat="49.31756" lon="1.10394">
        <ele>8.1</ele>
        <time>2019-11-11T10:34:33Z</time>
      </trkpt>
      <trkpt lat="49.31757" lon="1.10387">
        <ele>8.2</ele>
        <time>2019-11-11T10:34:34Z</time>
      </trkpt>
      <trkpt lat="49.31758" lon="1.1038">
        <ele>8.3</ele>
        <time>2019-11-11T10:34:35Z</time>
      </trkpt>
      <trkpt lat="49.31759" lon="1.10372">
        <ele>8.3</ele>
        <time>2019-11-11T10:34:36Z</time>
      </trkpt>
      <trkpt lat="49.3176" lon="1.10365">
        <ele>8.3</ele>
        <time>2019-11-11T10:34:37Z</time>
      </trkpt>
      <trkpt lat="49.31761" lon="1.10357">
        <ele>8.2</ele>
        <time>2019-11-11T10:34:38Z</time>
      </trkpt>
      <trkpt lat="49.31763" lon="1.1035">
        <ele>8.1</ele>
        <time>2019-11-11T10:34:39Z</time>
      </trkpt>
      <trkpt lat="49.31764" lon="1.10343">
        <ele>8</ele>
        <time>2019-11-11T10:34:40Z</time>
      </trkpt>
      <trkpt lat="49.31766" lon="1.10335">
        <ele>8</ele>
        <time>2019-11-11T10:34:41Z</time>
      </trkpt>
      <trkpt lat="49.31767" lon="1.10328">
        <ele>8</ele>
        <time>2019-11-11T10:34:42Z</time>
      </trkpt>
      <trkpt lat="49.31769" lon="1.10321">
        <ele>8.2</ele>
        <time>2019-11-11T10:34:43Z</time>
      </trkpt>
      <trkpt lat="49.3177" lon="1.10314">
        <ele>8.3</ele>
        <time>2019-11-11T10:34:44Z</time>
      </trkpt>
      <trkpt lat="49.31772" lon="1.10307">
        <ele>8.4</ele>
        <time>2019-11-11T10:34:45Z</time>
      </trkpt>
      <trkpt lat="49.31774" lon="1.103">
        <ele>8.5</ele>
        <time>2019-11-11T10:34:46Z</time>
      </trkpt>
      <trkpt lat="49.31776" lon="1.10293">
        <ele>8.6</ele>
        <time>2019-11-11T10:34:47Z</time>
      </trkpt>
      <trkpt lat="49.31777" lon="1.10286">
        <ele>8.5</ele>
        <time>2019-11-11T10:34:48Z</time>
      </trkpt>
      <trkpt lat="49.31778" lon="1.10279">
        <ele>8.5</ele>
        <time>2019-11-11T10:34:49Z</time>
      </trkpt>
      <trkpt lat="49.3178" lon="1.10272">
        <ele>8.5</ele>
        <time>2019-11-11T10:34:50Z</time>
      </trkpt>
      <trkpt lat="49.31781" lon="1.10265">
        <ele>8.5</ele>
        <time>2019-11-11T10:34:51Z</time>
      </trkpt>
      <trkpt lat="49.31782" lon="1.10258">
        <ele>8.5</ele>
        <time>2019-11-11T10:34:52Z</time>
      </trkpt>
      <trkpt lat="49.31783" lon="1.1025">
        <ele>8.5</ele>
        <time>2019-11-11T10:34:53Z</time>
      </trkpt>
      <trkpt lat="49.31784" lon="1.10243">
        <ele>8.9</ele>
        <time>2019-11-11T10:34:54Z</time>
      </trkpt>
      <trkpt lat="49.31785" lon="1.10235">
        <ele>9</ele>
        <time>2019-11-11T10:34:55Z</time>
      </trkpt>
      <trkpt lat="49.31785" lon="1.10228">
        <ele>9.1</ele>
        <time>2019-11-11T10:34:56Z</time>
      </trkpt>
      <trkpt lat="49.31786" lon="1.10221">
        <ele>9.2</ele>
        <time>2019-11-11T10:34:57Z</time>
      </trkpt>
      <trkpt lat="49.31786" lon="1.10213">
        <ele>9.3</ele>
        <time>2019-11-11T10:34:58Z</time>
      </trkpt>
      <trkpt lat="49.31786" lon="1.10206">
        <ele>9.3</ele>
        <time>2019-11-11T10:34:59Z</time>
      </trkpt>
      <trkpt lat="49.31786" lon="1.10198">
        <ele>9.3</ele>
        <time>2019-11-11T10:35:00Z</time>
      </trkpt>
      <trkpt lat="49.31786" lon="1.1019">
        <ele>9.4</ele>
        <time>2019-11-11T10:35:01Z</time>
      </trkpt>
      <trkpt lat="49.31786" lon="1.10183">
        <ele>9.4</ele>
        <time>2019-11-11T10:35:02Z</time>
      </trkpt>
      <trkpt lat="49.31786" lon="1.10175">
        <ele>9.4</ele>
        <time>2019-11-11T10:35:03Z</time>
      </trkpt>
      <trkpt lat="49.31786" lon="1.10167">
        <ele>9.4</ele>
        <time>2019-11-11T10:35:04Z</time>
      </trkpt>
      <trkpt lat="49.31785" lon="1.10159">
        <ele>9.8</ele>
        <time>2019-11-11T10:35:05Z</time>
      </trkpt>
      <trkpt lat="49.31785" lon="1.10152">
        <ele>9.9</ele>
        <time>2019-11-11T10:35:06Z</time>
      </trkpt>
      <trkpt lat="49.31785" lon="1.10144">
        <ele>9.9</ele>
        <time>2019-11-11T10:35:07Z</time>
      </trkpt>
      <trkpt lat="49.31785" lon="1.10137">
        <ele>10</ele>
        <time>2019-11-11T10:35:08Z</time>
      </trkpt>
      <trkpt lat="49.31784" lon="1.10129">
        <ele>10</ele>
        <time>2019-11-11T10:35:09Z</time>
      </trkpt>
      <trkpt lat="49.31784" lon="1.10121">
        <ele>10</ele>
        <time>2019-11-11T10:35:10Z</time>
      </trkpt>
      <trkpt lat="49.31783" lon="1.10114">
        <ele>10</ele>
        <time>2019-11-11T10:35:11Z</time>
      </trkpt>
      <trkpt lat="49.31782" lon="1.10106">
        <ele>9.9</ele>
        <time>2019-11-11T10:35:12Z</time>
      </trkpt>
      <trkpt lat="49.31782" lon="1.10099">
        <ele>9.9</ele>
        <time>2019-11-11T10:35:13Z</time>
      </trkpt>
      <trkpt lat="49.31781" lon="1.10091">
        <ele>9.9</ele>
        <time>2019-11-11T10:35:14Z</time>
      </trkpt>
      <trkpt lat="49.3178" lon="1.10084">
        <ele>9.8</ele>
        <time>2019-11-11T10:35:15Z</time>
      </trkpt>
      <trkpt lat="49.3178" lon="1.10076">
        <ele>10.3</ele>
        <time>2019-11-11T10:35:16Z</time>
      </trkpt>
      <trkpt lat="49.31779" lon="1.10069">
        <ele>10.3</ele>
        <time>2019-11-11T10:35:17Z</time>
      </trkpt>
      <trkpt lat="49.31778" lon="1.10062">
        <ele>10.3</ele>
        <time>2019-11-11T10:35:18Z</time>
      </trkpt>
      <trkpt lat="49.31778" lon="1.10054">
        <ele>10.4</ele>
        <time>2019-11-11T10:35:19Z</time>
      </trkpt>
      <trkpt lat="49.31777" lon="1.10046">
        <ele>10.4</ele>
        <time>2019-11-11T10:35:20Z</time>
      </trkpt>
      <trkpt lat="49.31777" lon="1.10039">
        <ele>10.4</ele>
        <time>2019-11-11T10:35:21Z</time>
      </trkpt>
      <trkpt lat="49.31776" lon="1.10031">
        <ele>10.3</ele>
        <time>2019-11-11T10:35:22Z</time>
      </trkpt>
      <trkpt lat="49.31775" lon="1.10024">
        <ele>10.2</ele>
        <time>2019-11-11T10:35:23Z</time>
      </trkpt>
      <trkpt lat="49.31774" lon="1.10016">
        <ele>10</ele>
        <time>2019-11-11T10:35:24Z</time>
      </trkpt>
      <trkpt lat="49.31774" lon="1.10008">
        <ele>9.8</ele>
        <time>2019-11-11T10:35:25Z</time>
      </trkpt>
      <trkpt lat="49.31773" lon="1.10001">
        <ele>9.7</ele>
        <time>2019-11-11T10:35:26Z</time>
      </trkpt>
      <trkpt lat="49.31772" lon="1.09993">
        <ele>10</ele>
        <time>2019-11-11T10:35:27Z</time>
      </trkpt>
      <trkpt lat="49.31771" lon="1.09985">
        <ele>10.1</ele>
        <time>2019-11-11T10:35:28Z</time>
      </trkpt>
      <trkpt lat="49.3177" lon="1.09977">
        <ele>10.2</ele>
        <time>2019-11-11T10:35:29Z</time>
      </trkpt>
      <trkpt lat="49.31769" lon="1.09969">
        <ele>10.3</ele>
        <time>2019-11-11T10:35:30Z</time>
      </trkpt>
      <trkpt lat="49.31768" lon="1.09961">
        <ele>10.3</ele>
        <time>2019-11-11T10:35:31Z</time>
      </trkpt>
      <trkpt lat="49.31767" lon="1.09953">
        <ele>10.1</ele>
        <time>2019-11-11T10:35:32Z</time>
      </trkpt>
      <trkpt lat="49.31766" lon="1.09945">
        <ele>9.8</ele>
        <time>2019-11-11T10:35:33Z</time>
      </trkpt>
      <trkpt lat="49.31765" lon="1.09937">
        <ele>9.3</ele>
        <time>2019-11-11T10:35:34Z</time>
      </trkpt>
      <trkpt lat="49.31763" lon="1.09929">
        <ele>8.6</ele>
        <time>2019-11-11T10:35:35Z</time>
      </trkpt>
      <trkpt lat="49.31762" lon="1.09921">
        <ele>7.8</ele>
        <time>2019-11-11T10:35:36Z</time>
      </trkpt>
      <trkpt lat="49.31761" lon="1.09913">
        <ele>8.5</ele>
        <time>2019-11-11T10:35:37Z</time>
      </trkpt>
      <trkpt lat="49.3176" lon="1.09905">
        <ele>9.3</ele>
        <time>2019-11-11T10:35:38Z</time>
      </trkpt>
      <trkpt lat="49.31758" lon="1.09897">
        <ele>10.2</ele>
        <time>2019-11-11T10:35:39Z</time>
      </trkpt>
      <trkpt lat="49.31757" lon="1.09889">
        <ele>11</ele>
        <time>2019-11-11T10:35:40Z</time>
      </trkpt>
      <trkpt lat="49.31756" lon="1.09881">
        <ele>11.6</ele>
        <time>2019-11-11T10:35:41Z</time>
      </trkpt>
      <trkpt lat="49.31754" lon="1.09873">
        <ele>11.8</ele>
        <time>2019-11-11T10:35:42Z</time>
      </trkpt>
      <trkpt lat="49.31753" lon="1.09865">
        <ele>11.9</ele>
        <time>2019-11-11T10:35:43Z</time>
      </trkpt>
      <trkpt lat="49.31752" lon="1.09857">
        <ele>11.7</ele>
        <time>2019-11-11T10:35:44Z</time>
      </trkpt>
      <trkpt lat="49.3175" lon="1.09849">
        <ele>11.2</ele>
        <time>2019-11-11T10:35:45Z</time>
      </trkpt>
      <trkpt lat="49.31749" lon="1.09842">
        <ele>8.1</ele>
        <time>2019-11-11T10:35:46Z</time>
      </trkpt>
      <trkpt lat="49.31748" lon="1.09834">
        <ele>8.7</ele>
        <time>2019-11-11T10:35:47Z</time>
      </trkpt>
      <trkpt lat="49.31747" lon="1.09826">
        <ele>8.6</ele>
        <time>2019-11-11T10:35:48Z</time>
      </trkpt>
      <trkpt lat="49.31745" lon="1.09818">
        <ele>8.3</ele>
        <time>2019-11-11T10:35:49Z</time>
      </trkpt>
      <trkpt lat="49.31744" lon="1.09811">
        <ele>8.1</ele>
        <time>2019-11-11T10:35:50Z</time>
      </trkpt>
      <trkpt lat="49.31742" lon="1.09803">
        <ele>8.1</ele>
        <time>2019-11-11T10:35:51Z</time>
      </trkpt>
      <trkpt lat="49.31741" lon="1.09795">
        <ele>8.1</ele>
        <time>2019-11-11T10:35:52Z</time>
      </trkpt>
      <trkpt lat="49.31739" lon="1.09788">
        <ele>8.2</ele>
        <time>2019-11-11T10:35:53Z</time>
      </trkpt>
      <trkpt lat="49.31738" lon="1.0978">
        <ele>8.4</ele>
        <time>2019-11-11T10:35:54Z</time>
      </trkpt>
      <trkpt lat="49.31736" lon="1.09772">
        <ele>8.6</ele>
        <time>2019-11-11T10:35:55Z</time>
      </trkpt>
      <trkpt lat="49.31735" lon="1.09764">
        <ele>8.9</ele>
        <time>2019-11-11T10:35:56Z</time>
      </trkpt>
      <trkpt lat="49.31734" lon="1.09757">
        <ele>9.1</ele>
        <time>2019-11-11T10:35:57Z</time>
      </trkpt>
      <trkpt lat="49.31732" lon="1.09749">
        <ele>9.7</ele>
        <time>2019-11-11T10:35:58Z</time>
      </trkpt>
      <trkpt lat="49.31731" lon="1.09742">
        <ele>9.7</ele>
        <time>2019-11-11T10:35:59Z</time>
      </trkpt>
      <trkpt lat="49.3173" lon="1.09734">
        <ele>9.5</ele>
        <time>2019-11-11T10:36:00Z</time>
      </trkpt>
      <trkpt lat="49.31728" lon="1.09726">
        <ele>9.4</ele>
        <time>2019-11-11T10:36:01Z</time>
      </trkpt>
      <trkpt lat="49.31727" lon="1.09719">
        <ele>9.4</ele>
        <time>2019-11-11T10:36:02Z</time>
      </trkpt>
      <trkpt lat="49.31725" lon="1.09711">
        <ele>9.3</ele>
        <time>2019-11-11T10:36:03Z</time>
      </trkpt>
      <trkpt lat="49.31724" lon="1.09704">
        <ele>9.4</ele>
        <time>2019-11-11T10:36:04Z</time>
      </trkpt>
      <trkpt lat="49.31722" lon="1.09696">
        <ele>9.5</ele>
        <time>2019-11-11T10:36:05Z</time>
      </trkpt>
      <trkpt lat="49.31721" lon="1.09688">
        <ele>9.6</ele>
        <time>2019-11-11T10:36:06Z</time>
      </trkpt>
      <trkpt lat="49.3172" lon="1.09681">
        <ele>9.6</ele>
        <time>2019-11-11T10:36:07Z</time>
      </trkpt>
      <trkpt lat="49.31718" lon="1.09673">
        <ele>9.6</ele>
        <time>2019-11-11T10:36:08Z</time>
      </trkpt>
      <trkpt lat="49.31717" lon="1.09665">
        <ele>10.8</ele>
        <time>2019-11-11T10:36:09Z</time>
      </trkpt>
      <trkpt lat="49.31715" lon="1.09658">
        <ele>10.8</ele>
        <time>2019-11-11T10:36:10Z</time>
      </trkpt>
      <trkpt lat="49.31714" lon="1.0965">
        <ele>10.7</ele>
        <time>2019-11-11T10:36:11Z</time>
      </trkpt>
      <trkpt lat="49.31712" lon="1.09642">
        <ele>10.7</ele>
        <time>2019-11-11T10:36:12Z</time>
      </trkpt>
      <trkpt lat="49.31711" lon="1.09634">
        <ele>10.8</ele>
        <time>2019-11-11T10:36:13Z</time>
      </trkpt>
      <trkpt lat="49.31709" lon="1.09626">
        <ele>10.8</ele>
        <time>2019-11-11T10:36:14Z</time>
      </trkpt>
      <trkpt lat="49.31708" lon="1.09619">
        <ele>10.8</ele>
        <time>2019-11-11T10:36:15Z</time>
      </trkpt>
      <trkpt lat="49.31706" lon="1.09611">
        <ele>10.8</ele>
        <time>2019-11-11T10:36:16Z</time>
      </trkpt>
      <trkpt lat="49.31705" lon="1.09603">
        <ele>10.8</ele>
        <time>2019-11-11T10:36:17Z</time>
      </trkpt>
      <trkpt lat="49.31703" lon="1.09595">
        <ele>10.6</ele>
        <time>2019-11-11T10:36:18Z</time>
      </trkpt>
      <trkpt lat="49.31701" lon="1.09587">
        <ele>10.5</ele>
        <time>2019-11-11T10:36:19Z</time>
      </trkpt>
      <trkpt lat="49.317" lon="1.0958">
        <ele>12.6</ele>
        <time>2019-11-11T10:36:20Z</time>
      </trkpt>
      <trkpt lat="49.31698" lon="1.09572">
        <ele>12.6</ele>
        <time>2019-11-11T10:36:21Z</time>
      </trkpt>
      <trkpt lat="49.31697" lon="1.09564">
        <ele>12.8</ele>
        <time>2019-11-11T10:36:22Z</time>
      </trkpt>
      <trkpt lat="49.31695" lon="1.09556">
        <ele>13</ele>
        <time>2019-11-11T10:36:23Z</time>
      </trkpt>
      <trkpt lat="49.31694" lon="1.09548">
        <ele>13.3</ele>
        <time>2019-11-11T10:36:24Z</time>
      </trkpt>
      <trkpt lat="49.31692" lon="1.0954">
        <ele>13.4</ele>
        <time>2019-11-11T10:36:25Z</time>
      </trkpt>
      <trkpt lat="49.31691" lon="1.09532">
        <ele>13.6</ele>
        <time>2019-11-11T10:36:26Z</time>
      </trkpt>
      <trkpt lat="49.3169" lon="1.09525">
        <ele>13.6</ele>
        <time>2019-11-11T10:36:27Z</time>
      </trkpt>
      <trkpt lat="49.31688" lon="1.09517">
        <ele>13.5</ele>
        <time>2019-11-11T10:36:28Z</time>
      </trkpt>
      <trkpt lat="49.31687" lon="1.09509">
        <ele>13.3</ele>
        <time>2019-11-11T10:36:29Z</time>
      </trkpt>
      <trkpt lat="49.31685" lon="1.09501">
        <ele>13.1</ele>
        <time>2019-11-11T10:36:30Z</time>
      </trkpt>
      <trkpt lat="49.31683" lon="1.09493">
        <ele>14.4</ele>
        <time>2019-11-11T10:36:31Z</time>
      </trkpt>
      <trkpt lat="49.31682" lon="1.09485">
        <ele>14.7</ele>
        <time>2019-11-11T10:36:32Z</time>
      </trkpt>
      <trkpt lat="49.3168" lon="1.09478">
        <ele>15</ele>
        <time>2019-11-11T10:36:33Z</time>
      </trkpt>
      <trkpt lat="49.31679" lon="1.0947">
        <ele>15.3</ele>
        <time>2019-11-11T10:36:34Z</time>
      </trkpt>
      <trkpt lat="49.31677" lon="1.09462">
        <ele>15.4</ele>
        <time>2019-11-11T10:36:35Z</time>
      </trkpt>
      <trkpt lat="49.31675" lon="1.09454">
        <ele>15.3</ele>
        <time>2019-11-11T10:36:36Z</time>
      </trkpt>
      <trkpt lat="49.31674" lon="1.09446">
        <ele>15</ele>
        <time>2019-11-11T10:36:37Z</time>
      </trkpt>
      <trkpt lat="49.31672" lon="1.09438">
        <ele>14.5</ele>
        <time>2019-11-11T10:36:38Z</time>
      </trkpt>
      <trkpt lat="49.31671" lon="1.0943">
        <ele>13.7</ele>
        <time>2019-11-11T10:36:39Z</time>
      </trkpt>
      <trkpt lat="49.31669" lon="1.09422">
        <ele>12.4</ele>
        <time>2019-11-11T10:36:40Z</time>
      </trkpt>
      <trkpt lat="49.31667" lon="1.09414">
        <ele>11.8</ele>
        <time>2019-11-11T10:36:41Z</time>
      </trkpt>
      <trkpt lat="49.31666" lon="1.09406">
        <ele>9.8</ele>
        <time>2019-11-11T10:36:42Z</time>
      </trkpt>
      <trkpt lat="49.31664" lon="1.09399">
        <ele>9.3</ele>
        <time>2019-11-11T10:36:43Z</time>
      </trkpt>
      <trkpt lat="49.31662" lon="1.09391">
        <ele>8.9</ele>
        <time>2019-11-11T10:36:44Z</time>
      </trkpt>
      <trkpt lat="49.31661" lon="1.09383">
        <ele>8.7</ele>
        <time>2019-11-11T10:36:45Z</time>
      </trkpt>
      <trkpt lat="49.31659" lon="1.09376">
        <ele>8.5</ele>
        <time>2019-11-11T10:36:46Z</time>
      </trkpt>
      <trkpt lat="49.31658" lon="1.09368">
        <ele>8.5</ele>
        <time>2019-11-11T10:36:47Z</time>
      </trkpt>
      <trkpt lat="49.31656" lon="1.0936">
        <ele>8.5</ele>
        <time>2019-11-11T10:36:48Z</time>
      </trkpt>
      <trkpt lat="49.31655" lon="1.09353">
        <ele>8.6</ele>
        <time>2019-11-11T10:36:49Z</time>
      </trkpt>
      <trkpt lat="49.31653" lon="1.09345">
        <ele>8.7</ele>
        <time>2019-11-11T10:36:50Z</time>
      </trkpt>
      <trkpt lat="49.31652" lon="1.09337">
        <ele>8.9</ele>
        <time>2019-11-11T10:36:51Z</time>
      </trkpt>
      <trkpt lat="49.3165" lon="1.09329">
        <ele>9.4</ele>
        <time>2019-11-11T10:36:52Z</time>
      </trkpt>
      <trkpt lat="49.31649" lon="1.09321">
        <ele>9.4</ele>
        <time>2019-11-11T10:36:53Z</time>
      </trkpt>
      <trkpt lat="49.31647" lon="1.09313">
        <ele>9.4</ele>
        <time>2019-11-11T10:36:54Z</time>
      </trkpt>
      <trkpt lat="49.31646" lon="1.09305">
        <ele>9.4</ele>
        <time>2019-11-11T10:36:55Z</time>
      </trkpt>
      <trkpt lat="49.31644" lon="1.09296">
        <ele>9.5</ele>
        <time>2019-11-11T10:36:56Z</time>
      </trkpt>
      <trkpt lat="49.31643" lon="1.09288">
        <ele>9.7</ele>
        <time>2019-11-11T10:36:57Z</time>
      </trkpt>
      <trkpt lat="49.31641" lon="1.0928">
        <ele>9.9</ele>
        <time>2019-11-11T10:36:58Z</time>
      </trkpt>
      <trkpt lat="49.3164" lon="1.09272">
        <ele>10.1</ele>
        <time>2019-11-11T10:36:59Z</time>
      </trkpt>
      <trkpt lat="49.31639" lon="1.09264">
        <ele>10.3</ele>
        <time>2019-11-11T10:37:00Z</time>
      </trkpt>
      <trkpt lat="49.31637" lon="1.09256">
        <ele>10.3</ele>
        <time>2019-11-11T10:37:01Z</time>
      </trkpt>
      <trkpt lat="49.31636" lon="1.09248">
        <ele>12</ele>
        <time>2019-11-11T10:37:02Z</time>
      </trkpt>
      <trkpt lat="49.31634" lon="1.0924">
        <ele>11.9</ele>
        <time>2019-11-11T10:37:03Z</time>
      </trkpt>
      <trkpt lat="49.31633" lon="1.09232">
        <ele>11.9</ele>
        <time>2019-11-11T10:37:04Z</time>
      </trkpt>
      <trkpt lat="49.31631" lon="1.09224">
        <ele>11.9</ele>
        <time>2019-11-11T10:37:05Z</time>
      </trkpt>
      <trkpt lat="49.3163" lon="1.09216">
        <ele>11.9</ele>
        <time>2019-11-11T10:37:06Z</time>
      </trkpt>
      <trkpt lat="49.31629" lon="1.09208">
        <ele>12</ele>
        <time>2019-11-11T10:37:07Z</time>
      </trkpt>
      <trkpt lat="49.31627" lon="1.092">
        <ele>12</ele>
        <time>2019-11-11T10:37:08Z</time>
      </trkpt>
      <trkpt lat="49.31625" lon="1.09192">
        <ele>12</ele>
        <time>2019-11-11T10:37:09Z</time>
      </trkpt>
      <trkpt lat="49.31624" lon="1.09184">
        <ele>12</ele>
        <time>2019-11-11T10:37:10Z</time>
      </trkpt>
      <trkpt lat="49.31622" lon="1.09176">
        <ele>11.9</ele>
        <time>2019-11-11T10:37:11Z</time>
      </trkpt>
      <trkpt lat="49.3162" lon="1.09168">
        <ele>11.7</ele>
        <time>2019-11-11T10:37:12Z</time>
      </trkpt>
      <trkpt lat="49.31618" lon="1.0916">
        <ele>13.4</ele>
        <time>2019-11-11T10:37:13Z</time>
      </trkpt>
      <trkpt lat="49.31616" lon="1.09152">
        <ele>13.3</ele>
        <time>2019-11-11T10:37:14Z</time>
      </trkpt>
      <trkpt lat="49.31615" lon="1.09144">
        <ele>13.5</ele>
        <time>2019-11-11T10:37:15Z</time>
      </trkpt>
      <trkpt lat="49.31613" lon="1.09136">
        <ele>13.6</ele>
        <time>2019-11-11T10:37:16Z</time>
      </trkpt>
      <trkpt lat="49.31611" lon="1.09128">
        <ele>13.7</ele>
        <time>2019-11-11T10:37:17Z</time>
      </trkpt>
      <trkpt lat="49.31609" lon="1.0912">
        <ele>13.7</ele>
        <time>2019-11-11T10:37:18Z</time>
      </trkpt>
      <trkpt lat="49.31607" lon="1.09112">
        <ele>13.6</ele>
        <time>2019-11-11T10:37:19Z</time>
      </trkpt>
      <trkpt lat="49.31605" lon="1.09104">
        <ele>13.4</ele>
        <time>2019-11-11T10:37:20Z</time>
      </trkpt>
      <trkpt lat="49.31603" lon="1.09096">
        <ele>13.1</ele>
        <time>2019-11-11T10:37:21Z</time>
      </trkpt>
      <trkpt lat="49.31601" lon="1.09088">
        <ele>12.7</ele>
        <time>2019-11-11T10:37:22Z</time>
      </trkpt>
      <trkpt lat="49.31599" lon="1.0908">
        <ele>14.5</ele>
        <time>2019-11-11T10:37:23Z</time>
      </trkpt>
      <trkpt lat="49.31597" lon="1.09072">
        <ele>14.8</ele>
        <time>2019-11-11T10:37:24Z</time>
      </trkpt>
      <trkpt lat="49.31595" lon="1.09065">
        <ele>15.4</ele>
        <time>2019-11-11T10:37:25Z</time>
      </trkpt>
      <trkpt lat="49.31593" lon="1.09057">
        <ele>16.2</ele>
        <time>2019-11-11T10:37:26Z</time>
      </trkpt>
      <trkpt lat="49.31591" lon="1.09049">
        <ele>16.8</ele>
        <time>2019-11-11T10:37:27Z</time>
      </trkpt>
      <trkpt lat="49.31589" lon="1.09041">
        <ele>17.2</ele>
        <time>2019-11-11T10:37:28Z</time>
      </trkpt>
      <trkpt lat="49.31587" lon="1.09033">
        <ele>17.5</ele>
        <time>2019-11-11T10:37:29Z</time>
      </trkpt>
      <trkpt lat="49.31585" lon="1.09025">
        <ele>17.5</ele>
        <time>2019-11-11T10:37:30Z</time>
      </trkpt>
      <trkpt lat="49.31583" lon="1.09017">
        <ele>13.2</ele>
        <time>2019-11-11T10:37:31Z</time>
      </trkpt>
      <trkpt lat="49.3158" lon="1.09009">
        <ele>14.1</ele>
        <time>2019-11-11T10:37:32Z</time>
      </trkpt>
      <trkpt lat="49.31578" lon="1.09001">
        <ele>14.8</ele>
        <time>2019-11-11T10:37:33Z</time>
      </trkpt>
      <trkpt lat="49.31576" lon="1.08992">
        <ele>15</ele>
        <time>2019-11-11T10:37:34Z</time>
      </trkpt>
      <trkpt lat="49.31574" lon="1.08984">
        <ele>14.6</ele>
        <time>2019-11-11T10:37:35Z</time>
      </trkpt>
      <trkpt lat="49.31572" lon="1.08977">
        <ele>14.4</ele>
        <time>2019-11-11T10:37:36Z</time>
      </trkpt>
      <trkpt lat="49.3157" lon="1.08969">
        <ele>14.3</ele>
        <time>2019-11-11T10:37:37Z</time>
      </trkpt>
      <trkpt lat="49.31567" lon="1.08961">
        <ele>14.3</ele>
        <time>2019-11-11T10:37:38Z</time>
      </trkpt>
      <trkpt lat="49.31565" lon="1.08953">
        <ele>14.5</ele>
        <time>2019-11-11T10:37:39Z</time>
      </trkpt>
      <trkpt lat="49.31563" lon="1.08945">
        <ele>14.7</ele>
        <time>2019-11-11T10:37:40Z</time>
      </trkpt>
      <trkpt lat="49.31561" lon="1.08937">
        <ele>14.9</ele>
        <time>2019-11-11T10:37:41Z</time>
      </trkpt>
      <trkpt lat="49.31558" lon="1.08929">
        <ele>15</ele>
        <time>2019-11-11T10:37:42Z</time>
      </trkpt>
      <trkpt lat="49.31556" lon="1.08922">
        <ele>14.9</ele>
        <time>2019-11-11T10:37:43Z</time>
      </trkpt>
      <trkpt lat="49.31554" lon="1.08914">
        <ele>16</ele>
        <time>2019-11-11T10:37:44Z</time>
      </trkpt>
      <trkpt lat="49.31552" lon="1.08906">
        <ele>15.7</ele>
        <time>2019-11-11T10:37:45Z</time>
      </trkpt>
      <trkpt lat="49.31549" lon="1.08898">
        <ele>15.4</ele>
        <time>2019-11-11T10:37:46Z</time>
      </trkpt>
      <trkpt lat="49.31547" lon="1.0889">
        <ele>15.3</ele>
        <time>2019-11-11T10:37:47Z</time>
      </trkpt>
      <trkpt lat="49.31545" lon="1.08882">
        <ele>15.2</ele>
        <time>2019-11-11T10:37:48Z</time>
      </trkpt>
      <trkpt lat="49.31543" lon="1.08875">
        <ele>15.1</ele>
        <time>2019-11-11T10:37:49Z</time>
      </trkpt>
      <trkpt lat="49.3154" lon="1.08867">
        <ele>15</ele>
        <time>2019-11-11T10:37:50Z</time>
      </trkpt>
      <trkpt lat="49.31538" lon="1.0886">
        <ele>14.8</ele>
        <time>2019-11-11T10:37:51Z</time>
      </trkpt>
      <trkpt lat="49.31535" lon="1.08852">
        <ele>14.6</ele>
        <time>2019-11-11T10:37:52Z</time>
      </trkpt>
      <trkpt lat="49.31533" lon="1.08844">
        <ele>14.3</ele>
        <time>2019-11-11T10:37:53Z</time>
      </trkpt>
      <trkpt lat="49.3153" lon="1.08837">
        <ele>13.9</ele>
        <time>2019-11-11T10:37:54Z</time>
      </trkpt>
      <trkpt lat="49.31527" lon="1.08829">
        <ele>14</ele>
        <time>2019-11-11T10:37:55Z</time>
      </trkpt>
      <trkpt lat="49.31526" lon="1.08822">
        <ele>14</ele>
        <time>2019-11-11T10:37:56Z</time>
      </trkpt>
      <trkpt lat="49.31524" lon="1.08814">
        <ele>14</ele>
        <time>2019-11-11T10:37:57Z</time>
      </trkpt>
      <trkpt lat="49.31525" lon="1.08807">
        <ele>14.3</ele>
        <time>2019-11-11T10:37:58Z</time>
      </trkpt>
      <trkpt lat="49.31527" lon="1.08801">
        <ele>14.6</ele>
        <time>2019-11-11T10:37:59Z</time>
      </trkpt>
      <trkpt lat="49.3153" lon="1.08799">
        <ele>14.8</ele>
        <time>2019-11-11T10:38:00Z</time>
      </trkpt>
      <trkpt lat="49.31534" lon="1.08797">
        <ele>15.1</ele>
        <time>2019-11-11T10:38:01Z</time>
      </trkpt>
      <trkpt lat="49.31536" lon="1.08796">
        <ele>15.3</ele>
        <time>2019-11-11T10:38:02Z</time>
      </trkpt>
      <trkpt lat="49.31539" lon="1.08794">
        <ele>15.5</ele>
        <time>2019-11-11T10:38:03Z</time>
      </trkpt>
      <trkpt lat="49.31541" lon="1.08792">
        <ele>15.7</ele>
        <time>2019-11-11T10:38:04Z</time>
      </trkpt>
      <trkpt lat="49.31543" lon="1.08791">
        <ele>15.9</ele>
        <time>2019-11-11T10:38:05Z</time>
      </trkpt>
      <trkpt lat="49.31546" lon="1.0879">
        <ele>16.1</ele>
        <time>2019-11-11T10:38:06Z</time>
      </trkpt>
      <trkpt lat="49.31548" lon="1.08788">
        <ele>16.3</ele>
        <time>2019-11-11T10:38:07Z</time>
      </trkpt>
      <trkpt lat="49.3155" lon="1.08788">
        <ele>16.4</ele>
        <time>2019-11-11T10:38:08Z</time>
      </trkpt>
      <trkpt lat="49.31552" lon="1.08787">
        <ele>16.6</ele>
        <time>2019-11-11T10:38:09Z</time>
      </trkpt>
      <trkpt lat="49.31555" lon="1.08786">
        <ele>16.8</ele>
        <time>2019-11-11T10:38:10Z</time>
      </trkpt>
      <trkpt lat="49.31557" lon="1.08785">
        <ele>16.9</ele>
        <time>2019-11-11T10:38:11Z</time>
      </trkpt>
      <trkpt lat="49.31558" lon="1.08784">
        <ele>17</ele>
        <time>2019-11-11T10:38:12Z</time>
      </trkpt>
      <trkpt lat="49.3156" lon="1.08783">
        <ele>17.2</ele>
        <time>2019-11-11T10:38:13Z</time>
      </trkpt>
      <trkpt lat="49.31561" lon="1.08781">
        <ele>17.3</ele>
        <time>2019-11-11T10:38:14Z</time>
      </trkpt>
      <trkpt lat="49.31562" lon="1.08779">
        <ele>17.4</ele>
        <time>2019-11-11T10:38:15Z</time>
      </trkpt>
      <trkpt lat="49.31563" lon="1.08777">
        <ele>17.5</ele>
        <time>2019-11-11T10:38:16Z</time>
      </trkpt>
      <trkpt lat="49.31564" lon="1.08774">
        <ele>17.7</ele>
        <time>2019-11-11T10:38:17Z</time>
      </trkpt>
      <trkpt lat="49.31564" lon="1.08772">
        <ele>17.7</ele>
        <time>2019-11-11T10:38:18Z</time>
      </trkpt>
      <trkpt lat="49.31564" lon="1.0877">
        <ele>17.8</ele>
        <time>2019-11-11T10:38:19Z</time>
      </trkpt>
      <trkpt lat="49.31564" lon="1.08767">
        <ele>17.9</ele>
        <time>2019-11-11T10:38:20Z</time>
      </trkpt>
      <trkpt lat="49.31564" lon="1.08765">
        <ele>18</ele>
        <time>2019-11-11T10:38:21Z</time>
      </trkpt>
      <trkpt lat="49.31564" lon="1.08762">
        <ele>18.1</ele>
        <time>2019-11-11T10:38:22Z</time>
      </trkpt>
      <trkpt lat="49.31565" lon="1.0876">
        <ele>18.3</ele>
        <time>2019-11-11T10:38:23Z</time>
      </trkpt>
      <trkpt lat="49.31565" lon="1.08758">
        <ele>18.4</ele>
        <time>2019-11-11T10:38:24Z</time>
      </trkpt>
      <trkpt lat="49.31564" lon="1.08756">
        <ele>18.4</ele>
        <time>2019-11-11T10:38:25Z</time>
      </trkpt>
      <trkpt lat="49.31565" lon="1.08754">
        <ele>18.5</ele>
        <time>2019-11-11T10:38:26Z</time>
      </trkpt>
      <trkpt lat="49.31565" lon="1.08751">
        <ele>18.6</ele>
        <time>2019-11-11T10:38:27Z</time>
      </trkpt>
      <trkpt lat="49.31565" lon="1.08749">
        <ele>19.1</ele>
        <time>2019-11-11T10:38:28Z</time>
      </trkpt>
      <trkpt lat="49.31566" lon="1.08746">
        <ele>19.2</ele>
        <time>2019-11-11T10:38:29Z</time>
      </trkpt>
      <trkpt lat="49.31566" lon="1.08744">
        <ele>19.1</ele>
        <time>2019-11-11T10:38:30Z</time>
      </trkpt>
      <trkpt lat="49.31566" lon="1.08741">
        <ele>19.1</ele>
        <time>2019-11-11T10:38:31Z</time>
      </trkpt>
      <trkpt lat="49.31567" lon="1.08738">
        <ele>19.1</ele>
        <time>2019-11-11T10:38:32Z</time>
      </trkpt>
      <trkpt lat="49.31568" lon="1.08736">
        <ele>19.1</ele>
        <time>2019-11-11T10:38:33Z</time>
      </trkpt>
      <trkpt lat="49.3157" lon="1.08734">
        <ele>19.2</ele>
        <time>2019-11-11T10:38:34Z</time>
      </trkpt>
      <trkpt lat="49.31571" lon="1.08735">
        <ele>19.3</ele>
        <time>2019-11-11T10:38:35Z</time>
      </trkpt>
      <trkpt lat="49.31573" lon="1.08736">
        <ele>19.5</ele>
        <time>2019-11-11T10:38:36Z</time>
      </trkpt>
      <trkpt lat="49.31574" lon="1.08738">
        <ele>19.7</ele>
        <time>2019-11-11T10:38:37Z</time>
      </trkpt>
      <trkpt lat="49.31575" lon="1.0874">
        <ele>19.9</ele>
        <time>2019-11-11T10:38:38Z</time>
      </trkpt>
      <trkpt lat="49.31576" lon="1.08742">
        <ele>20.2</ele>
        <time>2019-11-11T10:38:39Z</time>
      </trkpt>
      <trkpt lat="49.31577" lon="1.08744">
        <ele>20.5</ele>
        <time>2019-11-11T10:38:40Z</time>
      </trkpt>
      <trkpt lat="49.31578" lon="1.08746">
        <ele>20.8</ele>
        <time>2019-11-11T10:38:41Z</time>
      </trkpt>
      <trkpt lat="49.31579" lon="1.08748">
        <ele>21.1</ele>
        <time>2019-11-11T10:38:42Z</time>
      </trkpt>
      <trkpt lat="49.31581" lon="1.0875">
        <ele>21.5</ele>
        <time>2019-11-11T10:38:43Z</time>
      </trkpt>
      <trkpt lat="49.31582" lon="1.08752">
        <ele>21.4</ele>
        <time>2019-11-11T10:38:44Z</time>
      </trkpt>
      <trkpt lat="49.31583" lon="1.08754">
        <ele>21.1</ele>
        <time>2019-11-11T10:38:45Z</time>
      </trkpt>
      <trkpt lat="49.31584" lon="1.08756">
        <ele>24</ele>
        <time>2019-11-11T10:38:46Z</time>
      </trkpt>
      <trkpt lat="49.31585" lon="1.08759">
        <ele>24.9</ele>
        <time>2019-11-11T10:38:47Z</time>
      </trkpt>
      <trkpt lat="49.31587" lon="1.08761">
        <ele>25.5</ele>
        <time>2019-11-11T10:38:48Z</time>
      </trkpt>
      <trkpt lat="49.31588" lon="1.08763">
        <ele>26</ele>
        <time>2019-11-11T10:38:49Z</time>
      </trkpt>
      <trkpt lat="49.3159" lon="1.08764">
        <ele>26.3</ele>
        <time>2019-11-11T10:38:50Z</time>
      </trkpt>
      <trkpt lat="49.3159" lon="1.08765">
        <ele>26.5</ele>
        <time>2019-11-11T10:38:51Z</time>
      </trkpt>
      <trkpt lat="49.31592" lon="1.08763">
        <ele>26.4</ele>
        <time>2019-11-11T10:38:52Z</time>
      </trkpt>
      <trkpt lat="49.31593" lon="1.08761">
        <ele>26.3</ele>
        <time>2019-11-11T10:38:53Z</time>
      </trkpt>
      <trkpt lat="49.31594" lon="1.08759">
        <ele>26.2</ele>
        <time>2019-11-11T10:38:54Z</time>
      </trkpt>
      <trkpt lat="49.31594" lon="1.08757">
        <ele>26</ele>
        <time>2019-11-11T10:38:55Z</time>
      </trkpt>
      <trkpt lat="49.31594" lon="1.08755">
        <ele>25.7</ele>
        <time>2019-11-11T10:38:56Z</time>
      </trkpt>
      <trkpt lat="49.31595" lon="1.08752">
        <ele>25.8</ele>
        <time>2019-11-11T10:38:57Z</time>
      </trkpt>
      <trkpt lat="49.31595" lon="1.08749">
        <ele>26.8</ele>
        <time>2019-11-11T10:38:58Z</time>
      </trkpt>
      <trkpt lat="49.31595" lon="1.08745">
        <ele>27.1</ele>
        <time>2019-11-11T10:38:59Z</time>
      </trkpt>
      <trkpt lat="49.31595" lon="1.08743">
        <ele>27.4</ele>
        <time>2019-11-11T10:39:00Z</time>
      </trkpt>
      <trkpt lat="49.31595" lon="1.0874">
        <ele>27.9</ele>
        <time>2019-11-11T10:39:01Z</time>
      </trkpt>
      <trkpt lat="49.31595" lon="1.08737">
        <ele>28.4</ele>
        <time>2019-11-11T10:39:02Z</time>
      </trkpt>
      <trkpt lat="49.31595" lon="1.08734">
        <ele>28.8</ele>
        <time>2019-11-11T10:39:03Z</time>
      </trkpt>
      <trkpt lat="49.31594" lon="1.08731">
        <ele>29.2</ele>
        <time>2019-11-11T10:39:04Z</time>
      </trkpt>
      <trkpt lat="49.31594" lon="1.08728">
        <ele>29.6</ele>
        <time>2019-11-11T10:39:05Z</time>
      </trkpt>
      <trkpt lat="49.31594" lon="1.08725">
        <ele>30</ele>
        <time>2019-11-11T10:39:06Z</time>
      </trkpt>
      <trkpt lat="49.31595" lon="1.08723">
        <ele>30.3</ele>
        <time>2019-11-11T10:39:07Z</time>
      </trkpt>
      <trkpt lat="49.31596" lon="1.08721">
        <ele>30.6</ele>
        <time>2019-11-11T10:39:08Z</time>
      </trkpt>
      <trkpt lat="49.31598" lon="1.08721">
        <ele>30.9</ele>
        <time>2019-11-11T10:39:09Z</time>
      </trkpt>
      <trkpt lat="49.316" lon="1.08722">
        <ele>31</ele>
        <time>2019-11-11T10:39:10Z</time>
      </trkpt>
      <trkpt lat="49.31601" lon="1.08724">
        <ele>30.9</ele>
        <time>2019-11-11T10:39:11Z</time>
      </trkpt>
      <trkpt lat="49.31602" lon="1.08726">
        <ele>30.9</ele>
        <time>2019-11-11T10:39:12Z</time>
      </trkpt>
      <trkpt lat="49.31603" lon="1.08729">
        <ele>30.7</ele>
        <time>2019-11-11T10:39:13Z</time>
      </trkpt>
      <trkpt lat="49.31604" lon="1.08731">
        <ele>30.7</ele>
        <time>2019-11-11T10:39:14Z</time>
      </trkpt>
      <trkpt lat="49.31605" lon="1.08734">
        <ele>30.6</ele>
        <time>2019-11-11T10:39:15Z</time>
      </trkpt>
      <trkpt lat="49.31605" lon="1.08737">
        <ele>30.3</ele>
        <time>2019-11-11T10:39:16Z</time>
      </trkpt>
      <trkpt lat="49.31606" lon="1.08739">
        <ele>30.4</ele>
        <time>2019-11-11T10:39:17Z</time>
      </trkpt>
      <trkpt lat="49.31606" lon="1.08741">
        <ele>30.2</ele>
        <time>2019-11-11T10:39:18Z</time>
      </trkpt>
      <trkpt lat="49.31607" lon="1.08744">
        <ele>30.3</ele>
        <time>2019-11-11T10:39:19Z</time>
      </trkpt>
      <trkpt lat="49.31608" lon="1.08747">
        <ele>30.4</ele>
        <time>2019-11-11T10:39:20Z</time>
      </trkpt>
      <trkpt lat="49.31608" lon="1.08749">
        <ele>30.4</ele>
        <time>2019-11-11T10:39:21Z</time>
      </trkpt>
      <trkpt lat="49.31609" lon="1.08751">
        <ele>28.9</ele>
        <time>2019-11-11T10:39:22Z</time>
      </trkpt>
      <trkpt lat="49.31611" lon="1.08753">
        <ele>29.3</ele>
        <time>2019-11-11T10:39:23Z</time>
      </trkpt>
      <trkpt lat="49.31612" lon="1.08753">
        <ele>29.5</ele>
        <time>2019-11-11T10:39:24Z</time>
      </trkpt>
      <trkpt lat="49.31613" lon="1.08752">
        <ele>29.7</ele>
        <time>2019-11-11T10:39:25Z</time>
      </trkpt>
      <trkpt lat="49.31614" lon="1.08749">
        <ele>31.7</ele>
        <time>2019-11-11T10:39:26Z</time>
      </trkpt>
      <trkpt lat="49.31614" lon="1.08746">
        <ele>31.8</ele>
        <time>2019-11-11T10:39:27Z</time>
      </trkpt>
      <trkpt lat="49.31614" lon="1.08744">
        <ele>31.8</ele>
        <time>2019-11-11T10:39:28Z</time>
      </trkpt>
      <trkpt lat="49.31614" lon="1.08741">
        <ele>31.9</ele>
        <time>2019-11-11T10:39:29Z</time>
      </trkpt>
      <trkpt lat="49.31614" lon="1.08738">
        <ele>32</ele>
        <time>2019-11-11T10:39:30Z</time>
      </trkpt>
      <trkpt lat="49.31614" lon="1.08735">
        <ele>32.2</ele>
        <time>2019-11-11T10:39:31Z</time>
      </trkpt>
      <trkpt lat="49.31614" lon="1.08731">
        <ele>32.4</ele>
        <time>2019-11-11T10:39:32Z</time>
      </trkpt>
      <trkpt lat="49.31613" lon="1.08728">
        <ele>32.4</ele>
        <time>2019-11-11T10:39:33Z</time>
      </trkpt>
      <trkpt lat="49.31613" lon="1.08725">
        <ele>32.5</ele>
        <time>2019-11-11T10:39:34Z</time>
      </trkpt>
      <trkpt lat="49.31613" lon="1.08722">
        <ele>32.7</ele>
        <time>2019-11-11T10:39:35Z</time>
      </trkpt>
      <trkpt lat="49.31612" lon="1.08719">
        <ele>32.7</ele>
        <time>2019-11-11T10:39:36Z</time>
      </trkpt>
      <trkpt lat="49.31612" lon="1.08716">
        <ele>32.8</ele>
        <time>2019-11-11T10:39:37Z</time>
      </trkpt>
      <trkpt lat="49.31611" lon="1.08713">
        <ele>32.8</ele>
        <time>2019-11-11T10:39:38Z</time>
      </trkpt>
      <trkpt lat="49.31611" lon="1.0871">
        <ele>32.9</ele>
        <time>2019-11-11T10:39:39Z</time>
      </trkpt>
      <trkpt lat="49.31611" lon="1.08706">
        <ele>33.1</ele>
        <time>2019-11-11T10:39:40Z</time>
      </trkpt>
      <trkpt lat="49.3161" lon="1.08703">
        <ele>33</ele>
        <time>2019-11-11T10:39:41Z</time>
      </trkpt>
      <trkpt lat="49.3161" lon="1.08699">
        <ele>33</ele>
        <time>2019-11-11T10:39:42Z</time>
      </trkpt>
      <trkpt lat="49.31609" lon="1.08696">
        <ele>32.9</ele>
        <time>2019-11-11T10:39:43Z</time>
      </trkpt>
      <trkpt lat="49.31609" lon="1.08693">
        <ele>32.9</ele>
        <time>2019-11-11T10:39:44Z</time>
      </trkpt>
      <trkpt lat="49.31609" lon="1.08689">
        <ele>32.9</ele>
        <time>2019-11-11T10:39:45Z</time>
      </trkpt>
      <trkpt lat="49.31608" lon="1.08686">
        <ele>32.7</ele>
        <time>2019-11-11T10:39:46Z</time>
      </trkpt>
      <trkpt lat="49.31608" lon="1.08682">
        <ele>32.5</ele>
        <time>2019-11-11T10:39:47Z</time>
      </trkpt>
      <trkpt lat="49.31608" lon="1.08679">
        <ele>32.5</ele>
        <time>2019-11-11T10:39:48Z</time>
      </trkpt>
      <trkpt lat="49.31608" lon="1.08675">
        <ele>32.4</ele>
        <time>2019-11-11T10:39:49Z</time>
      </trkpt>
      <trkpt lat="49.31607" lon="1.08672">
        <ele>32.1</ele>
        <time>2019-11-11T10:39:50Z</time>
      </trkpt>
      <trkpt lat="49.31608" lon="1.08669">
        <ele>32.3</ele>
        <time>2019-11-11T10:39:51Z</time>
      </trkpt>
      <trkpt lat="49.31608" lon="1.08665">
        <ele>34.8</ele>
        <time>2019-11-11T10:39:52Z</time>
      </trkpt>
      <trkpt lat="49.31608" lon="1.08662">
        <ele>34.9</ele>
        <time>2019-11-11T10:39:53Z</time>
      </trkpt>
      <trkpt lat="49.31607" lon="1.08659">
        <ele>34.8</ele>
        <time>2019-11-11T10:39:54Z</time>
      </trkpt>
      <trkpt lat="49.31608" lon="1.08656">
        <ele>35.2</ele>
        <time>2019-11-11T10:39:55Z</time>
      </trkpt>
      <trkpt lat="49.31608" lon="1.08653">
        <ele>35.4</ele>
        <time>2019-11-11T10:39:56Z</time>
      </trkpt>
      <trkpt lat="49.31608" lon="1.0865">
        <ele>35.7</ele>
        <time>2019-11-11T10:39:57Z</time>
      </trkpt>
      <trkpt lat="49.31609" lon="1.08646">
        <ele>36.2</ele>
        <time>2019-11-11T10:39:58Z</time>
      </trkpt>
      <trkpt lat="49.31609" lon="1.08643">
        <ele>36.4</ele>
        <time>2019-11-11T10:39:59Z</time>
      </trkpt>
      <trkpt lat="49.3161" lon="1.0864">
        <ele>36.8</ele>
        <time>2019-11-11T10:40:00Z</time>
      </trkpt>
      <trkpt lat="49.3161" lon="1.08637">
        <ele>36.9</ele>
        <time>2019-11-11T10:40:01Z</time>
      </trkpt>
      <trkpt lat="49.31611" lon="1.08634">
        <ele>37.2</ele>
        <time>2019-11-11T10:40:02Z</time>
      </trkpt>
      <trkpt lat="49.31611" lon="1.0863">
        <ele>37.4</ele>
        <time>2019-11-11T10:40:03Z</time>
      </trkpt>
      <trkpt lat="49.31611" lon="1.08627">
        <ele>37.6</ele>
        <time>2019-11-11T10:40:04Z</time>
      </trkpt>
      <trkpt lat="49.31611" lon="1.08624">
        <ele>37.7</ele>
        <time>2019-11-11T10:40:05Z</time>
      </trkpt>
      <trkpt lat="49.3161" lon="1.0862">
        <ele>37.7</ele>
        <time>2019-11-11T10:40:06Z</time>
      </trkpt>
      <trkpt lat="49.31609" lon="1.08617">
        <ele>37.7</ele>
        <time>2019-11-11T10:40:07Z</time>
      </trkpt>
      <trkpt lat="49.31608" lon="1.08613">
        <ele>37.7</ele>
        <time>2019-11-11T10:40:08Z</time>
      </trkpt>
      <trkpt lat="49.31607" lon="1.08609">
        <ele>37.6</ele>
        <time>2019-11-11T10:40:09Z</time>
      </trkpt>
      <trkpt lat="49.31606" lon="1.08605">
        <ele>37.5</ele>
        <time>2019-11-11T10:40:10Z</time>
      </trkpt>
      <trkpt lat="49.31605" lon="1.08601">
        <ele>37.3</ele>
        <time>2019-11-11T10:40:11Z</time>
      </trkpt>
      <trkpt lat="49.31604" lon="1.08597">
        <ele>37.1</ele>
        <time>2019-11-11T10:40:12Z</time>
      </trkpt>
      <trkpt lat="49.31603" lon="1.08593">
        <ele>36.9</ele>
        <time>2019-11-11T10:40:13Z</time>
      </trkpt>
      <trkpt lat="49.31602" lon="1.08589">
        <ele>36.6</ele>
        <time>2019-11-11T10:40:14Z</time>
      </trkpt>
      <trkpt lat="49.31601" lon="1.08585">
        <ele>36.4</ele>
        <time>2019-11-11T10:40:15Z</time>
      </trkpt>
      <trkpt lat="49.31601" lon="1.08581">
        <ele>38.9</ele>
        <time>2019-11-11T10:40:16Z</time>
      </trkpt>
      <trkpt lat="49.316" lon="1.08577">
        <ele>38.9</ele>
        <time>2019-11-11T10:40:17Z</time>
      </trkpt>
      <trkpt lat="49.31599" lon="1.08573">
        <ele>39.1</ele>
        <time>2019-11-11T10:40:18Z</time>
      </trkpt>
      <trkpt lat="49.31598" lon="1.08569">
        <ele>39.4</ele>
        <time>2019-11-11T10:40:19Z</time>
      </trkpt>
      <trkpt lat="49.31598" lon="1.08565">
        <ele>39.9</ele>
        <time>2019-11-11T10:40:20Z</time>
      </trkpt>
      <trkpt lat="49.31597" lon="1.08562">
        <ele>40.1</ele>
        <time>2019-11-11T10:40:21Z</time>
      </trkpt>
      <trkpt lat="49.31596" lon="1.08558">
        <ele>40.5</ele>
        <time>2019-11-11T10:40:22Z</time>
      </trkpt>
      <trkpt lat="49.31595" lon="1.08554">
        <ele>40.9</ele>
        <time>2019-11-11T10:40:23Z</time>
      </trkpt>
      <trkpt lat="49.31594" lon="1.0855">
        <ele>41.2</ele>
        <time>2019-11-11T10:40:24Z</time>
      </trkpt>
      <trkpt lat="49.31593" lon="1.08546">
        <ele>41.4</ele>
        <time>2019-11-11T10:40:25Z</time>
      </trkpt>
      <trkpt lat="49.31593" lon="1.08543">
        <ele>41.6</ele>
        <time>2019-11-11T10:40:26Z</time>
      </trkpt>
      <trkpt lat="49.31592" lon="1.08539">
        <ele>41.8</ele>
        <time>2019-11-11T10:40:27Z</time>
      </trkpt>
      <trkpt lat="49.31592" lon="1.08535">
        <ele>42</ele>
        <time>2019-11-11T10:40:28Z</time>
      </trkpt>
      <trkpt lat="49.31592" lon="1.08532">
        <ele>42</ele>
        <time>2019-11-11T10:40:29Z</time>
      </trkpt>
      <trkpt lat="49.31591" lon="1.08529">
        <ele>42</ele>
        <time>2019-11-11T10:40:30Z</time>
      </trkpt>
      <trkpt lat="49.3159" lon="1.08525">
        <ele>42</ele>
        <time>2019-11-11T10:40:31Z</time>
      </trkpt>
      <trkpt lat="49.31589" lon="1.08521">
        <ele>41.9</ele>
        <time>2019-11-11T10:40:32Z</time>
      </trkpt>
      <trkpt lat="49.31589" lon="1.08517">
        <ele>41.8</ele>
        <time>2019-11-11T10:40:33Z</time>
      </trkpt>
      <trkpt lat="49.31589" lon="1.08513">
        <ele>41.6</ele>
        <time>2019-11-11T10:40:34Z</time>
      </trkpt>
      <trkpt lat="49.31588" lon="1.08509">
        <ele>41.3</ele>
        <time>2019-11-11T10:40:35Z</time>
      </trkpt>
      <trkpt lat="49.31588" lon="1.08505">
        <ele>41</ele>
        <time>2019-11-11T10:40:36Z</time>
      </trkpt>
      <trkpt lat="49.31588" lon="1.08502">
        <ele>40.8</ele>
        <time>2019-11-11T10:40:37Z</time>
      </trkpt>
      <trkpt lat="49.31588" lon="1.08498">
        <ele>41.8</ele>
        <time>2019-11-11T10:40:38Z</time>
      </trkpt>
      <trkpt lat="49.31588" lon="1.08495">
        <ele>42.4</ele>
        <time>2019-11-11T10:40:39Z</time>
      </trkpt>
      <trkpt lat="49.31588" lon="1.08492">
        <ele>43</ele>
        <time>2019-11-11T10:40:40Z</time>
      </trkpt>
      <trkpt lat="49.31587" lon="1.08489">
        <ele>43.6</ele>
        <time>2019-11-11T10:40:41Z</time>
      </trkpt>
      <trkpt lat="49.31587" lon="1.08485">
        <ele>44.4</ele>
        <time>2019-11-11T10:40:42Z</time>
      </trkpt>
      <trkpt lat="49.31587" lon="1.08482">
        <ele>44.9</ele>
        <time>2019-11-11T10:40:43Z</time>
      </trkpt>
      <trkpt lat="49.31586" lon="1.08479">
        <ele>45.4</ele>
        <time>2019-11-11T10:40:44Z</time>
      </trkpt>
      <trkpt lat="49.31586" lon="1.08476">
        <ele>45.8</ele>
        <time>2019-11-11T10:40:45Z</time>
      </trkpt>
      <trkpt lat="49.31586" lon="1.08473">
        <ele>46.2</ele>
        <time>2019-11-11T10:40:46Z</time>
      </trkpt>
      <trkpt lat="49.31586" lon="1.0847">
        <ele>46.5</ele>
        <time>2019-11-11T10:40:47Z</time>
      </trkpt>
      <trkpt lat="49.31586" lon="1.08467">
        <ele>46.8</ele>
        <time>2019-11-11T10:40:48Z</time>
      </trkpt>
      <trkpt lat="49.31586" lon="1.08463">
        <ele>47.1</ele>
        <time>2019-11-11T10:40:49Z</time>
      </trkpt>
      <trkpt lat="49.31585" lon="1.0846">
        <ele>47.3</ele>
        <time>2019-11-11T10:40:50Z</time>
      </trkpt>
      <trkpt lat="49.31585" lon="1.08457">
        <ele>47.5</ele>
        <time>2019-11-11T10:40:51Z</time>
      </trkpt>
      <trkpt lat="49.31585" lon="1.08454">
        <ele>47.6</ele>
        <time>2019-11-11T10:40:52Z</time>
      </trkpt>
      <trkpt lat="49.31585" lon="1.08451">
        <ele>47.8</ele>
        <time>2019-11-11T10:40:53Z</time>
      </trkpt>
      <trkpt lat="49.31584" lon="1.08447">
        <ele>47.9</ele>
        <time>2019-11-11T10:40:54Z</time>
      </trkpt>
      <trkpt lat="49.31584" lon="1.08444">
        <ele>47.9</ele>
        <time>2019-11-11T10:40:55Z</time>
      </trkpt>
      <trkpt lat="49.31584" lon="1.08441">
        <ele>48</ele>
        <time>2019-11-11T10:40:56Z</time>
      </trkpt>
      <trkpt lat="49.31584" lon="1.08438">
        <ele>48</ele>
        <time>2019-11-11T10:40:57Z</time>
      </trkpt>
      <trkpt lat="49.31584" lon="1.08435">
        <ele>48</ele>
        <time>2019-11-11T10:40:58Z</time>
      </trkpt>
      <trkpt lat="49.31584" lon="1.08431">
        <ele>47.9</ele>
        <time>2019-11-11T10:40:59Z</time>
      </trkpt>
      <trkpt lat="49.31584" lon="1.08428">
        <ele>47.8</ele>
        <time>2019-11-11T10:41:00Z</time>
      </trkpt>
      <trkpt lat="49.31584" lon="1.08425">
        <ele>47.7</ele>
        <time>2019-11-11T10:41:01Z</time>
      </trkpt>
      <trkpt lat="49.31584" lon="1.08422">
        <ele>47.5</ele>
        <time>2019-11-11T10:41:02Z</time>
      </trkpt>
      <trkpt lat="49.31583" lon="1.08419">
        <ele>45.6</ele>
        <time>2019-11-11T10:41:03Z</time>
      </trkpt>
      <trkpt lat="49.31583" lon="1.08416">
        <ele>46.7</ele>
        <time>2019-11-11T10:41:04Z</time>
      </trkpt>
      <trkpt lat="49.31583" lon="1.08413">
        <ele>45.5</ele>
        <time>2019-11-11T10:41:05Z</time>
      </trkpt>
      <trkpt lat="49.31583" lon="1.0841">
        <ele>44.5</ele>
        <time>2019-11-11T10:41:06Z</time>
      </trkpt>
      <trkpt lat="49.31583" lon="1.08407">
        <ele>43.6</ele>
        <time>2019-11-11T10:41:07Z</time>
      </trkpt>
      <trkpt lat="49.31583" lon="1.08404">
        <ele>42.9</ele>
        <time>2019-11-11T10:41:08Z</time>
      </trkpt>
      <trkpt lat="49.31583" lon="1.084">
        <ele>42.1</ele>
        <time>2019-11-11T10:41:09Z</time>
      </trkpt>
      <trkpt lat="49.31584" lon="1.08398">
        <ele>49.1</ele>
        <time>2019-11-11T10:41:10Z</time>
      </trkpt>
      <trkpt lat="49.31586" lon="1.08397">
        <ele>49.2</ele>
        <time>2019-11-11T10:41:11Z</time>
      </trkpt>
      <trkpt lat="49.31587" lon="1.08398">
        <ele>49.2</ele>
        <time>2019-11-11T10:41:12Z</time>
      </trkpt>
      <trkpt lat="49.31589" lon="1.08399">
        <ele>49.2</ele>
        <time>2019-11-11T10:41:13Z</time>
      </trkpt>
      <trkpt lat="49.3159" lon="1.08401">
        <ele>49.1</ele>
        <time>2019-11-11T10:41:14Z</time>
      </trkpt>
      <trkpt lat="49.31591" lon="1.08402">
        <ele>49.1</ele>
        <time>2019-11-11T10:41:15Z</time>
      </trkpt>
      <trkpt lat="49.31592" lon="1.08404">
        <ele>49</ele>
        <time>2019-11-11T10:41:16Z</time>
      </trkpt>
      <trkpt lat="49.31592" lon="1.08405">
        <ele>49</ele>
        <time>2019-11-11T10:41:17Z</time>
      </trkpt>
      <trkpt lat="49.31593" lon="1.08407">
        <ele>48.9</ele>
        <time>2019-11-11T10:41:18Z</time>
      </trkpt>
      <trkpt lat="49.31594" lon="1.08409">
        <ele>48.9</ele>
        <time>2019-11-11T10:41:19Z</time>
      </trkpt>
      <trkpt lat="49.31595" lon="1.08411">
        <ele>48.9</ele>
        <time>2019-11-11T10:41:20Z</time>
      </trkpt>
      <trkpt lat="49.31596" lon="1.08413">
        <ele>48.9</ele>
        <time>2019-11-11T10:41:21Z</time>
      </trkpt>
      <trkpt lat="49.31597" lon="1.08415">
        <ele>49</ele>
        <time>2019-11-11T10:41:22Z</time>
      </trkpt>
      <trkpt lat="49.31598" lon="1.08417">
        <ele>48.4</ele>
        <time>2019-11-11T10:41:23Z</time>
      </trkpt>
      <trkpt lat="49.31599" lon="1.08419">
        <ele>48.4</ele>
        <time>2019-11-11T10:41:24Z</time>
      </trkpt>
      <trkpt lat="49.31601" lon="1.08421">
        <ele>48.6</ele>
        <time>2019-11-11T10:41:25Z</time>
      </trkpt>
      <trkpt lat="49.31602" lon="1.08423">
        <ele>48.7</ele>
        <time>2019-11-11T10:41:26Z</time>
      </trkpt>
      <trkpt lat="49.31603" lon="1.08425">
        <ele>48.8</ele>
        <time>2019-11-11T10:41:27Z</time>
      </trkpt>
      <trkpt lat="49.31605" lon="1.08427">
        <ele>48.9</ele>
        <time>2019-11-11T10:41:28Z</time>
      </trkpt>
      <trkpt lat="49.31606" lon="1.08428">
        <ele>49</ele>
        <time>2019-11-11T10:41:29Z</time>
      </trkpt>
      <trkpt lat="49.31607" lon="1.0843">
        <ele>49.1</ele>
        <time>2019-11-11T10:41:30Z</time>
      </trkpt>
      <trkpt lat="49.31608" lon="1.08431">
        <ele>49.1</ele>
        <time>2019-11-11T10:41:31Z</time>
      </trkpt>
      <trkpt lat="49.31609" lon="1.08431">
        <ele>49.2</ele>
        <time>2019-11-11T10:41:32Z</time>
      </trkpt>
      <trkpt lat="49.3161" lon="1.0843">
        <ele>49.3</ele>
        <time>2019-11-11T10:41:33Z</time>
      </trkpt>
      <trkpt lat="49.31611" lon="1.08428">
        <ele>49.4</ele>
        <time>2019-11-11T10:41:34Z</time>
      </trkpt>
      <trkpt lat="49.31611" lon="1.08425">
        <ele>49.4</ele>
        <time>2019-11-11T10:41:35Z</time>
      </trkpt>
      <trkpt lat="49.31611" lon="1.08422">
        <ele>49.4</ele>
        <time>2019-11-11T10:41:36Z</time>
      </trkpt>
      <trkpt lat="49.31611" lon="1.08419">
        <ele>49.5</ele>
        <time>2019-11-11T10:41:37Z</time>
      </trkpt>
      <trkpt lat="49.31611" lon="1.08415">
        <ele>50.4</ele>
        <time>2019-11-11T10:41:38Z</time>
      </trkpt>
      <trkpt lat="49.31611" lon="1.08412">
        <ele>50.4</ele>
        <time>2019-11-11T10:41:39Z</time>
      </trkpt>
      <trkpt lat="49.31611" lon="1.08409">
        <ele>50.5</ele>
        <time>2019-11-11T10:41:40Z</time>
      </trkpt>
      <trkpt lat="49.31612" lon="1.08407">
        <ele>50.6</ele>
        <time>2019-11-11T10:41:41Z</time>
      </trkpt>
      <trkpt lat="49.31612" lon="1.08404">
        <ele>50.6</ele>
        <time>2019-11-11T10:41:42Z</time>
      </trkpt>
      <trkpt lat="49.31612" lon="1.084">
        <ele>50.6</ele>
        <time>2019-11-11T10:41:43Z</time>
      </trkpt>
      <trkpt lat="49.31613" lon="1.08397">
        <ele>50.7</ele>
        <time>2019-11-11T10:41:44Z</time>
      </trkpt>
      <trkpt lat="49.31614" lon="1.08394">
        <ele>50.8</ele>
        <time>2019-11-11T10:41:45Z</time>
      </trkpt>
      <trkpt lat="49.31615" lon="1.08392">
        <ele>50.9</ele>
        <time>2019-11-11T10:41:46Z</time>
      </trkpt>
      <trkpt lat="49.31616" lon="1.0839">
        <ele>50.9</ele>
        <time>2019-11-11T10:41:47Z</time>
      </trkpt>
      <trkpt lat="49.31617" lon="1.08387">
        <ele>51</ele>
        <time>2019-11-11T10:41:48Z</time>
      </trkpt>
      <trkpt lat="49.31618" lon="1.08384">
        <ele>51</ele>
        <time>2019-11-11T10:41:49Z</time>
      </trkpt>
      <trkpt lat="49.31618" lon="1.08381">
        <ele>51</ele>
        <time>2019-11-11T10:41:50Z</time>
      </trkpt>
      <trkpt lat="49.31617" lon="1.0838">
        <ele>50.9</ele>
        <time>2019-11-11T10:41:51Z</time>
      </trkpt>
      <trkpt lat="49.31618" lon="1.0838">
        <ele>51</ele>
        <time>2019-11-11T10:41:52Z</time>
      </trkpt>
      <trkpt lat="49.31618" lon="1.0838">
        <ele>51</ele>
        <time>2019-11-11T10:41:53Z</time>
      </trkpt>
      <trkpt lat="49.31618" lon="1.0838">
        <ele>51</ele>
        <time>2019-11-11T10:41:54Z</time>
      </trkpt>
      <trkpt lat="49.31621" lon="1.08374">
        <ele>51.1</ele>
        <time>2019-11-11T10:42:22Z</time>
      </trkpt>
      <trkpt lat="49.31621" lon="1.08374">
        <ele>51.1</ele>
        <time>2019-11-11T10:42:23Z</time>
      </trkpt>
      <trkpt lat="49.31619" lon="1.08373">
        <ele>51</ele>
        <time>2019-11-11T10:46:27Z</time>
      </trkpt>
      <trkpt lat="49.31618" lon="1.08371">
        <ele>50.9</ele>
        <time>2019-11-11T10:46:28Z</time>
      </trkpt>
      <trkpt lat="49.31618" lon="1.08368">
        <ele>50.9</ele>
        <time>2019-11-11T10:46:29Z</time>
      </trkpt>
      <trkpt lat="49.31618" lon="1.08365">
        <ele>50.8</ele>
        <time>2019-11-11T10:46:30Z</time>
      </trkpt>
      <trkpt lat="49.31618" lon="1.08362">
        <ele>50.8</ele>
        <time>2019-11-11T10:46:31Z</time>
      </trkpt>
      <trkpt lat="49.31617" lon="1.08358">
        <ele>50.7</ele>
        <time>2019-11-11T10:46:32Z</time>
      </trkpt>
      <trkpt lat="49.31617" lon="1.08353">
        <ele>50.6</ele>
        <time>2019-11-11T10:46:33Z</time>
      </trkpt>
      <trkpt lat="49.31617" lon="1.08348">
        <ele>50.6</ele>
        <time>2019-11-11T10:46:34Z</time>
      </trkpt>
      <trkpt lat="49.31616" lon="1.08343">
        <ele>50.4</ele>
        <time>2019-11-11T10:46:35Z</time>
      </trkpt>
      <trkpt lat="49.31615" lon="1.08337">
        <ele>50.3</ele>
        <time>2019-11-11T10:46:36Z</time>
      </trkpt>
      <trkpt lat="49.31614" lon="1.08332">
        <ele>49.2</ele>
        <time>2019-11-11T10:46:37Z</time>
      </trkpt>
      <trkpt lat="49.31615" lon="1.08328">
        <ele>49.2</ele>
        <time>2019-11-11T10:46:38Z</time>
      </trkpt>
      <trkpt lat="49.31616" lon="1.08325">
        <ele>49.3</ele>
        <time>2019-11-11T10:46:39Z</time>
      </trkpt>
      <trkpt lat="49.31619" lon="1.08324">
        <ele>49.3</ele>
        <time>2019-11-11T10:46:40Z</time>
      </trkpt>
      <trkpt lat="49.31622" lon="1.08325">
        <ele>49.4</ele>
        <time>2019-11-11T10:46:41Z</time>
      </trkpt>
      <trkpt lat="49.31625" lon="1.08327">
        <ele>49.5</ele>
        <time>2019-11-11T10:46:42Z</time>
      </trkpt>
      <trkpt lat="49.31628" lon="1.08329">
        <ele>49.6</ele>
        <time>2019-11-11T10:46:43Z</time>
      </trkpt>
      <trkpt lat="49.31632" lon="1.08332">
        <ele>49.8</ele>
        <time>2019-11-11T10:46:44Z</time>
      </trkpt>
      <trkpt lat="49.31636" lon="1.08334">
        <ele>51.2</ele>
        <time>2019-11-11T10:46:45Z</time>
      </trkpt>
      <trkpt lat="49.31641" lon="1.08337">
        <ele>51.4</ele>
        <time>2019-11-11T10:46:46Z</time>
      </trkpt>
      <trkpt lat="49.31646" lon="1.0834">
        <ele>51.5</ele>
        <time>2019-11-11T10:46:47Z</time>
      </trkpt>
      <trkpt lat="49.31652" lon="1.08343">
        <ele>51.7</ele>
        <time>2019-11-11T10:46:48Z</time>
      </trkpt>
      <trkpt lat="49.31657" lon="1.08346">
        <ele>51.8</ele>
        <time>2019-11-11T10:46:49Z</time>
      </trkpt>
      <trkpt lat="49.31663" lon="1.0835">
        <ele>51.9</ele>
        <time>2019-11-11T10:46:50Z</time>
      </trkpt>
      <trkpt lat="49.3167" lon="1.08354">
        <ele>50.6</ele>
        <time>2019-11-11T10:46:51Z</time>
      </trkpt>
      <trkpt lat="49.31676" lon="1.08358">
        <ele>50.4</ele>
        <time>2019-11-11T10:46:52Z</time>
      </trkpt>
      <trkpt lat="49.31682" lon="1.08362">
        <ele>50.2</ele>
        <time>2019-11-11T10:46:53Z</time>
      </trkpt>
      <trkpt lat="49.31689" lon="1.08366">
        <ele>49.8</ele>
        <time>2019-11-11T10:46:54Z</time>
      </trkpt>
      <trkpt lat="49.31696" lon="1.08371">
        <ele>49.5</ele>
        <time>2019-11-11T10:46:55Z</time>
      </trkpt>
      <trkpt lat="49.31703" lon="1.08375">
        <ele>49.1</ele>
        <time>2019-11-11T10:46:56Z</time>
      </trkpt>
      <trkpt lat="49.3171" lon="1.0838">
        <ele>48.8</ele>
        <time>2019-11-11T10:46:57Z</time>
      </trkpt>
      <trkpt lat="49.31718" lon="1.08386">
        <ele>48.3</ele>
        <time>2019-11-11T10:46:58Z</time>
      </trkpt>
      <trkpt lat="49.31725" lon="1.08392">
        <ele>47.8</ele>
        <time>2019-11-11T10:46:59Z</time>
      </trkpt>
      <trkpt lat="49.31732" lon="1.08398">
        <ele>47.1</ele>
        <time>2019-11-11T10:47:00Z</time>
      </trkpt>
      <trkpt lat="49.31739" lon="1.08406">
        <ele>46.2</ele>
        <time>2019-11-11T10:47:01Z</time>
      </trkpt>
      <trkpt lat="49.31746" lon="1.08414">
        <ele>44.9</ele>
        <time>2019-11-11T10:47:02Z</time>
      </trkpt>
      <trkpt lat="49.31753" lon="1.08422">
        <ele>43.4</ele>
        <time>2019-11-11T10:47:03Z</time>
      </trkpt>
      <trkpt lat="49.3176" lon="1.0843">
        <ele>42.7</ele>
        <time>2019-11-11T10:47:04Z</time>
      </trkpt>
      <trkpt lat="49.31767" lon="1.08439">
        <ele>42.3</ele>
        <time>2019-11-11T10:47:05Z</time>
      </trkpt>
      <trkpt lat="49.31773" lon="1.08449">
        <ele>42.1</ele>
        <time>2019-11-11T10:47:06Z</time>
      </trkpt>
      <trkpt lat="49.3178" lon="1.08458">
        <ele>41.9</ele>
        <time>2019-11-11T10:47:07Z</time>
      </trkpt>
      <trkpt lat="49.31785" lon="1.08468">
        <ele>41.9</ele>
        <time>2019-11-11T10:47:08Z</time>
      </trkpt>
      <trkpt lat="49.31791" lon="1.08478">
        <ele>41.7</ele>
        <time>2019-11-11T10:47:09Z</time>
      </trkpt>
      <trkpt lat="49.31797" lon="1.08488">
        <ele>41.4</ele>
        <time>2019-11-11T10:47:10Z</time>
      </trkpt>
      <trkpt lat="49.31802" lon="1.08498">
        <ele>41</ele>
        <time>2019-11-11T10:47:11Z</time>
      </trkpt>
      <trkpt lat="49.31807" lon="1.08507">
        <ele>42.8</ele>
        <time>2019-11-11T10:47:12Z</time>
      </trkpt>
      <trkpt lat="49.31812" lon="1.08516">
        <ele>42.7</ele>
        <time>2019-11-11T10:47:13Z</time>
      </trkpt>
      <trkpt lat="49.31817" lon="1.08525">
        <ele>42.8</ele>
        <time>2019-11-11T10:47:14Z</time>
      </trkpt>
      <trkpt lat="49.31822" lon="1.08534">
        <ele>43.1</ele>
        <time>2019-11-11T10:47:15Z</time>
      </trkpt>
      <trkpt lat="49.31826" lon="1.08543">
        <ele>43.3</ele>
        <time>2019-11-11T10:47:16Z</time>
      </trkpt>
      <trkpt lat="49.31831" lon="1.08551">
        <ele>43.4</ele>
        <time>2019-11-11T10:47:17Z</time>
      </trkpt>
      <trkpt lat="49.31835" lon="1.0856">
        <ele>37.9</ele>
        <time>2019-11-11T10:47:18Z</time>
      </trkpt>
      <trkpt lat="49.3184" lon="1.08568">
        <ele>38.5</ele>
        <time>2019-11-11T10:47:19Z</time>
      </trkpt>
      <trkpt lat="49.31844" lon="1.08577">
        <ele>39.1</ele>
        <time>2019-11-11T10:47:20Z</time>
      </trkpt>
      <trkpt lat="49.31849" lon="1.08586">
        <ele>40.7</ele>
        <time>2019-11-11T10:47:21Z</time>
      </trkpt>
      <trkpt lat="49.31853" lon="1.08594">
        <ele>40.4</ele>
        <time>2019-11-11T10:47:22Z</time>
      </trkpt>
      <trkpt lat="49.31857" lon="1.08603">
        <ele>40.2</ele>
        <time>2019-11-11T10:47:23Z</time>
      </trkpt>
      <trkpt lat="49.31861" lon="1.08611">
        <ele>40.1</ele>
        <time>2019-11-11T10:47:24Z</time>
      </trkpt>
      <trkpt lat="49.31866" lon="1.08619">
        <ele>40</ele>
        <time>2019-11-11T10:47:25Z</time>
      </trkpt>
      <trkpt lat="49.3187" lon="1.08628">
        <ele>40</ele>
        <time>2019-11-11T10:47:26Z</time>
      </trkpt>
      <trkpt lat="49.31874" lon="1.08636">
        <ele>40</ele>
        <time>2019-11-11T10:47:27Z</time>
      </trkpt>
      <trkpt lat="49.31878" lon="1.08645">
        <ele>39.9</ele>
        <time>2019-11-11T10:47:28Z</time>
      </trkpt>
      <trkpt lat="49.31882" lon="1.08654">
        <ele>39.6</ele>
        <time>2019-11-11T10:47:29Z</time>
      </trkpt>
      <trkpt lat="49.31886" lon="1.08662">
        <ele>39.2</ele>
        <time>2019-11-11T10:47:30Z</time>
      </trkpt>
      <trkpt lat="49.3189" lon="1.0867">
        <ele>43</ele>
        <time>2019-11-11T10:47:31Z</time>
      </trkpt>
      <trkpt lat="49.31894" lon="1.08678">
        <ele>42.7</ele>
        <time>2019-11-11T10:47:32Z</time>
      </trkpt>
      <trkpt lat="49.31898" lon="1.08686">
        <ele>42.9</ele>
        <time>2019-11-11T10:47:33Z</time>
      </trkpt>
      <trkpt lat="49.31902" lon="1.08694">
        <ele>43.3</ele>
        <time>2019-11-11T10:47:34Z</time>
      </trkpt>
      <trkpt lat="49.31906" lon="1.08702">
        <ele>43.8</ele>
        <time>2019-11-11T10:47:35Z</time>
      </trkpt>
      <trkpt lat="49.3191" lon="1.08711">
        <ele>44.2</ele>
        <time>2019-11-11T10:47:36Z</time>
      </trkpt>
      <trkpt lat="49.31914" lon="1.08719">
        <ele>44.3</ele>
        <time>2019-11-11T10:47:37Z</time>
      </trkpt>
      <trkpt lat="49.31918" lon="1.08727">
        <ele>35.8</ele>
        <time>2019-11-11T10:47:38Z</time>
      </trkpt>
      <trkpt lat="49.31922" lon="1.08735">
        <ele>37</ele>
        <time>2019-11-11T10:47:39Z</time>
      </trkpt>
      <trkpt lat="49.31927" lon="1.08744">
        <ele>37.8</ele>
        <time>2019-11-11T10:47:40Z</time>
      </trkpt>
      <trkpt lat="49.31931" lon="1.08752">
        <ele>39.8</ele>
        <time>2019-11-11T10:47:41Z</time>
      </trkpt>
      <trkpt lat="49.31935" lon="1.0876">
        <ele>39.1</ele>
        <time>2019-11-11T10:47:42Z</time>
      </trkpt>
      <trkpt lat="49.3194" lon="1.08768">
        <ele>38.5</ele>
        <time>2019-11-11T10:47:43Z</time>
      </trkpt>
      <trkpt lat="49.31944" lon="1.08777">
        <ele>38.2</ele>
        <time>2019-11-11T10:47:44Z</time>
      </trkpt>
      <trkpt lat="49.31948" lon="1.08786">
        <ele>38.1</ele>
        <time>2019-11-11T10:47:45Z</time>
      </trkpt>
      <trkpt lat="49.31952" lon="1.08794">
        <ele>38</ele>
        <time>2019-11-11T10:47:46Z</time>
      </trkpt>
      <trkpt lat="49.31956" lon="1.08802">
        <ele>37.8</ele>
        <time>2019-11-11T10:47:47Z</time>
      </trkpt>
      <trkpt lat="49.31961" lon="1.0881">
        <ele>37.5</ele>
        <time>2019-11-11T10:47:48Z</time>
      </trkpt>
      <trkpt lat="49.31965" lon="1.08818">
        <ele>37.1</ele>
        <time>2019-11-11T10:47:49Z</time>
      </trkpt>
      <trkpt lat="49.31969" lon="1.08827">
        <ele>36.6</ele>
        <time>2019-11-11T10:47:50Z</time>
      </trkpt>
      <trkpt lat="49.31974" lon="1.08835">
        <ele>39.2</ele>
        <time>2019-11-11T10:47:51Z</time>
      </trkpt>
      <trkpt lat="49.31979" lon="1.08843">
        <ele>38.5</ele>
        <time>2019-11-11T10:47:52Z</time>
      </trkpt>
      <trkpt lat="49.31983" lon="1.08851">
        <ele>38.7</ele>
        <time>2019-11-11T10:47:53Z</time>
      </trkpt>
      <trkpt lat="49.31988" lon="1.08859">
        <ele>39</ele>
        <time>2019-11-11T10:47:54Z</time>
      </trkpt>
      <trkpt lat="49.31993" lon="1.08868">
        <ele>39.6</ele>
        <time>2019-11-11T10:47:55Z</time>
      </trkpt>
      <trkpt lat="49.31998" lon="1.08877">
        <ele>39.9</ele>
        <time>2019-11-11T10:47:56Z</time>
      </trkpt>
      <trkpt lat="49.32002" lon="1.08886">
        <ele>31.3</ele>
        <time>2019-11-11T10:47:57Z</time>
      </trkpt>
      <trkpt lat="49.32007" lon="1.08895">
        <ele>32.1</ele>
        <time>2019-11-11T10:47:58Z</time>
      </trkpt>
      <trkpt lat="49.32011" lon="1.08904">
        <ele>32.9</ele>
        <time>2019-11-11T10:47:59Z</time>
      </trkpt>
      <trkpt lat="49.32016" lon="1.08913">
        <ele>32.9</ele>
        <time>2019-11-11T10:48:00Z</time>
      </trkpt>
      <trkpt lat="49.3202" lon="1.08922">
        <ele>34.9</ele>
        <time>2019-11-11T10:48:01Z</time>
      </trkpt>
      <trkpt lat="49.32024" lon="1.08931">
        <ele>34.6</ele>
        <time>2019-11-11T10:48:02Z</time>
      </trkpt>
      <trkpt lat="49.32029" lon="1.08941">
        <ele>34.3</ele>
        <time>2019-11-11T10:48:03Z</time>
      </trkpt>
      <trkpt lat="49.32033" lon="1.0895">
        <ele>34.2</ele>
        <time>2019-11-11T10:48:04Z</time>
      </trkpt>
      <trkpt lat="49.32038" lon="1.08959">
        <ele>34</ele>
        <time>2019-11-11T10:48:05Z</time>
      </trkpt>
      <trkpt lat="49.32042" lon="1.08968">
        <ele>34</ele>
        <time>2019-11-11T10:48:06Z</time>
      </trkpt>
      <trkpt lat="49.32047" lon="1.08978">
        <ele>33.7</ele>
        <time>2019-11-11T10:48:07Z</time>
      </trkpt>
      <trkpt lat="49.32052" lon="1.08987">
        <ele>33.3</ele>
        <time>2019-11-11T10:48:08Z</time>
      </trkpt>
      <trkpt lat="49.32056" lon="1.08997">
        <ele>32.9</ele>
        <time>2019-11-11T10:48:09Z</time>
      </trkpt>
      <trkpt lat="49.32061" lon="1.09006">
        <ele>35.5</ele>
        <time>2019-11-11T10:48:10Z</time>
      </trkpt>
      <trkpt lat="49.32065" lon="1.09016">
        <ele>35.6</ele>
        <time>2019-11-11T10:48:11Z</time>
      </trkpt>
      <trkpt lat="49.3207" lon="1.09025">
        <ele>35.9</ele>
        <time>2019-11-11T10:48:12Z</time>
      </trkpt>
      <trkpt lat="49.32075" lon="1.09034">
        <ele>36.4</ele>
        <time>2019-11-11T10:48:13Z</time>
      </trkpt>
      <trkpt lat="49.32081" lon="1.09044">
        <ele>36.6</ele>
        <time>2019-11-11T10:48:14Z</time>
      </trkpt>
      <trkpt lat="49.32086" lon="1.09053">
        <ele>27.1</ele>
        <time>2019-11-11T10:48:15Z</time>
      </trkpt>
      <trkpt lat="49.32091" lon="1.09062">
        <ele>27.7</ele>
        <time>2019-11-11T10:48:16Z</time>
      </trkpt>
      <trkpt lat="49.32096" lon="1.09071">
        <ele>28.3</ele>
        <time>2019-11-11T10:48:17Z</time>
      </trkpt>
      <trkpt lat="49.32101" lon="1.09081">
        <ele>28.2</ele>
        <time>2019-11-11T10:48:18Z</time>
      </trkpt>
      <trkpt lat="49.32106" lon="1.09091">
        <ele>29.5</ele>
        <time>2019-11-11T10:48:19Z</time>
      </trkpt>
      <trkpt lat="49.32111" lon="1.091">
        <ele>28.9</ele>
        <time>2019-11-11T10:48:20Z</time>
      </trkpt>
      <trkpt lat="49.32116" lon="1.0911">
        <ele>28.5</ele>
        <time>2019-11-11T10:48:21Z</time>
      </trkpt>
      <trkpt lat="49.3212" lon="1.0912">
        <ele>28.3</ele>
        <time>2019-11-11T10:48:22Z</time>
      </trkpt>
      <trkpt lat="49.32125" lon="1.0913">
        <ele>28.1</ele>
        <time>2019-11-11T10:48:23Z</time>
      </trkpt>
      <trkpt lat="49.3213" lon="1.09139">
        <ele>27.9</ele>
        <time>2019-11-11T10:48:24Z</time>
      </trkpt>
      <trkpt lat="49.32134" lon="1.09149">
        <ele>27.5</ele>
        <time>2019-11-11T10:48:25Z</time>
      </trkpt>
      <trkpt lat="49.32139" lon="1.09159">
        <ele>26.9</ele>
        <time>2019-11-11T10:48:26Z</time>
      </trkpt>
      <trkpt lat="49.32143" lon="1.09169">
        <ele>29.6</ele>
        <time>2019-11-11T10:48:27Z</time>
      </trkpt>
      <trkpt lat="49.32147" lon="1.09179">
        <ele>29.5</ele>
        <time>2019-11-11T10:48:28Z</time>
      </trkpt>
      <trkpt lat="49.3215" lon="1.09189">
        <ele>30.2</ele>
        <time>2019-11-11T10:48:29Z</time>
      </trkpt>
      <trkpt lat="49.32153" lon="1.09199">
        <ele>30.9</ele>
        <time>2019-11-11T10:48:30Z</time>
      </trkpt>
      <trkpt lat="49.32156" lon="1.09209">
        <ele>31.5</ele>
        <time>2019-11-11T10:48:31Z</time>
      </trkpt>
      <trkpt lat="49.32159" lon="1.09218">
        <ele>31.7</ele>
        <time>2019-11-11T10:48:32Z</time>
      </trkpt>
      <trkpt lat="49.32162" lon="1.09228">
        <ele>31.5</ele>
        <time>2019-11-11T10:48:33Z</time>
      </trkpt>
      <trkpt lat="49.32165" lon="1.09238">
        <ele>30.8</ele>
        <time>2019-11-11T10:48:34Z</time>
      </trkpt>
      <trkpt lat="49.32168" lon="1.09247">
        <ele>27.6</ele>
        <time>2019-11-11T10:48:35Z</time>
      </trkpt>
      <trkpt lat="49.3217" lon="1.09256">
        <ele>27.6</ele>
        <time>2019-11-11T10:48:36Z</time>
      </trkpt>
      <trkpt lat="49.32173" lon="1.09266">
        <ele>26.2</ele>
        <time>2019-11-11T10:48:37Z</time>
      </trkpt>
      <trkpt lat="49.32176" lon="1.09275">
        <ele>25.6</ele>
        <time>2019-11-11T10:48:38Z</time>
      </trkpt>
      <trkpt lat="49.32179" lon="1.09284">
        <ele>25.4</ele>
        <time>2019-11-11T10:48:39Z</time>
      </trkpt>
      <trkpt lat="49.32182" lon="1.09293">
        <ele>25.4</ele>
        <time>2019-11-11T10:48:40Z</time>
      </trkpt>
      <trkpt lat="49.32184" lon="1.09303">
        <ele>25.9</ele>
        <time>2019-11-11T10:48:41Z</time>
      </trkpt>
      <trkpt lat="49.32187" lon="1.09312">
        <ele>26.4</ele>
        <time>2019-11-11T10:48:42Z</time>
      </trkpt>
      <trkpt lat="49.3219" lon="1.09321">
        <ele>26.7</ele>
        <time>2019-11-11T10:48:43Z</time>
      </trkpt>
      <trkpt lat="49.32193" lon="1.0933">
        <ele>26.5</ele>
        <time>2019-11-11T10:48:44Z</time>
      </trkpt>
      <trkpt lat="49.32195" lon="1.09339">
        <ele>30.3</ele>
        <time>2019-11-11T10:48:45Z</time>
      </trkpt>
      <trkpt lat="49.32198" lon="1.09348">
        <ele>30</ele>
        <time>2019-11-11T10:48:46Z</time>
      </trkpt>
      <trkpt lat="49.32201" lon="1.09358">
        <ele>29.8</ele>
        <time>2019-11-11T10:48:47Z</time>
      </trkpt>
      <trkpt lat="49.32204" lon="1.09367">
        <ele>29.9</ele>
        <time>2019-11-11T10:48:48Z</time>
      </trkpt>
      <trkpt lat="49.32207" lon="1.09376">
        <ele>30</ele>
        <time>2019-11-11T10:48:49Z</time>
      </trkpt>
      <trkpt lat="49.3221" lon="1.09386">
        <ele>30.1</ele>
        <time>2019-11-11T10:48:50Z</time>
      </trkpt>
      <trkpt lat="49.32214" lon="1.09395">
        <ele>29.9</ele>
        <time>2019-11-11T10:48:51Z</time>
      </trkpt>
      <trkpt lat="49.32218" lon="1.09404">
        <ele>29.5</ele>
        <time>2019-11-11T10:48:52Z</time>
      </trkpt>
      <trkpt lat="49.32222" lon="1.09413">
        <ele>28.9</ele>
        <time>2019-11-11T10:48:53Z</time>
      </trkpt>
      <trkpt lat="49.32227" lon="1.09422">
        <ele>32.6</ele>
        <time>2019-11-11T10:48:54Z</time>
      </trkpt>
      <trkpt lat="49.32231" lon="1.09432">
        <ele>32.6</ele>
        <time>2019-11-11T10:48:55Z</time>
      </trkpt>
      <trkpt lat="49.32235" lon="1.09442">
        <ele>33.2</ele>
        <time>2019-11-11T10:48:56Z</time>
      </trkpt>
      <trkpt lat="49.3224" lon="1.09451">
        <ele>33.7</ele>
        <time>2019-11-11T10:48:57Z</time>
      </trkpt>
      <trkpt lat="49.32246" lon="1.09459">
        <ele>33.8</ele>
        <time>2019-11-11T10:48:58Z</time>
      </trkpt>
      <trkpt lat="49.32251" lon="1.09468">
        <ele>21.9</ele>
        <time>2019-11-11T10:48:59Z</time>
      </trkpt>
      <trkpt lat="49.32258" lon="1.09476">
        <ele>22.4</ele>
        <time>2019-11-11T10:49:00Z</time>
      </trkpt>
      <trkpt lat="49.32264" lon="1.09485">
        <ele>23</ele>
        <time>2019-11-11T10:49:01Z</time>
      </trkpt>
      <trkpt lat="49.3227" lon="1.09495">
        <ele>22.8</ele>
        <time>2019-11-11T10:49:02Z</time>
      </trkpt>
      <trkpt lat="49.32275" lon="1.09505">
        <ele>25.2</ele>
        <time>2019-11-11T10:49:03Z</time>
      </trkpt>
      <trkpt lat="49.32281" lon="1.09515">
        <ele>24.5</ele>
        <time>2019-11-11T10:49:04Z</time>
      </trkpt>
      <trkpt lat="49.32287" lon="1.09526">
        <ele>24</ele>
        <time>2019-11-11T10:49:05Z</time>
      </trkpt>
      <trkpt lat="49.32293" lon="1.09536">
        <ele>23.7</ele>
        <time>2019-11-11T10:49:06Z</time>
      </trkpt>
      <trkpt lat="49.32299" lon="1.09547">
        <ele>23.4</ele>
        <time>2019-11-11T10:49:07Z</time>
      </trkpt>
      <trkpt lat="49.32305" lon="1.09558">
        <ele>23</ele>
        <time>2019-11-11T10:49:08Z</time>
      </trkpt>
      <trkpt lat="49.32312" lon="1.09568">
        <ele>22.2</ele>
        <time>2019-11-11T10:49:09Z</time>
      </trkpt>
      <trkpt lat="49.32318" lon="1.09579">
        <ele>21.1</ele>
        <time>2019-11-11T10:49:10Z</time>
      </trkpt>
      <trkpt lat="49.32324" lon="1.0959">
        <ele>22.9</ele>
        <time>2019-11-11T10:49:11Z</time>
      </trkpt>
      <trkpt lat="49.3233" lon="1.09601">
        <ele>24.5</ele>
        <time>2019-11-11T10:49:12Z</time>
      </trkpt>
      <trkpt lat="49.32336" lon="1.09612">
        <ele>18.2</ele>
        <time>2019-11-11T10:49:13Z</time>
      </trkpt>
      <trkpt lat="49.32342" lon="1.09624">
        <ele>18.6</ele>
        <time>2019-11-11T10:49:14Z</time>
      </trkpt>
      <trkpt lat="49.32346" lon="1.09636">
        <ele>19.2</ele>
        <time>2019-11-11T10:49:15Z</time>
      </trkpt>
      <trkpt lat="49.32351" lon="1.09649">
        <ele>19.9</ele>
        <time>2019-11-11T10:49:16Z</time>
      </trkpt>
      <trkpt lat="49.32355" lon="1.09661">
        <ele>20.2</ele>
        <time>2019-11-11T10:49:17Z</time>
      </trkpt>
      <trkpt lat="49.32359" lon="1.09674">
        <ele>21.2</ele>
        <time>2019-11-11T10:49:18Z</time>
      </trkpt>
      <trkpt lat="49.32362" lon="1.09686">
        <ele>20.8</ele>
        <time>2019-11-11T10:49:19Z</time>
      </trkpt>
      <trkpt lat="49.32366" lon="1.09698">
        <ele>20.4</ele>
        <time>2019-11-11T10:49:20Z</time>
      </trkpt>
      <trkpt lat="49.32369" lon="1.0971">
        <ele>20.3</ele>
        <time>2019-11-11T10:49:21Z</time>
      </trkpt>
      <trkpt lat="49.32371" lon="1.09721">
        <ele>20.2</ele>
        <time>2019-11-11T10:49:22Z</time>
      </trkpt>
      <trkpt lat="49.32373" lon="1.09732">
        <ele>20.2</ele>
        <time>2019-11-11T10:49:23Z</time>
      </trkpt>
      <trkpt lat="49.32375" lon="1.09742">
        <ele>20</ele>
        <time>2019-11-11T10:49:24Z</time>
      </trkpt>
      <trkpt lat="49.32377" lon="1.09753">
        <ele>20.2</ele>
        <time>2019-11-11T10:49:25Z</time>
      </trkpt>
      <trkpt lat="49.3238" lon="1.09763">
        <ele>19.9</ele>
        <time>2019-11-11T10:49:26Z</time>
      </trkpt>
      <trkpt lat="49.32383" lon="1.09774">
        <ele>19.7</ele>
        <time>2019-11-11T10:49:27Z</time>
      </trkpt>
      <trkpt lat="49.32385" lon="1.09785">
        <ele>19.7</ele>
        <time>2019-11-11T10:49:28Z</time>
      </trkpt>
      <trkpt lat="49.32388" lon="1.09796">
        <ele>19.5</ele>
        <time>2019-11-11T10:49:29Z</time>
      </trkpt>
      <trkpt lat="49.32391" lon="1.09807">
        <ele>19.2</ele>
        <time>2019-11-11T10:49:30Z</time>
      </trkpt>
      <trkpt lat="49.32394" lon="1.09818">
        <ele>18.8</ele>
        <time>2019-11-11T10:49:31Z</time>
      </trkpt>
      <trkpt lat="49.32397" lon="1.0983">
        <ele>18.1</ele>
        <time>2019-11-11T10:49:32Z</time>
      </trkpt>
      <trkpt lat="49.324" lon="1.09841">
        <ele>19.6</ele>
        <time>2019-11-11T10:49:33Z</time>
      </trkpt>
      <trkpt lat="49.32404" lon="1.09851">
        <ele>20.1</ele>
        <time>2019-11-11T10:49:34Z</time>
      </trkpt>
      <trkpt lat="49.32408" lon="1.09861">
        <ele>20.9</ele>
        <time>2019-11-11T10:49:35Z</time>
      </trkpt>
      <trkpt lat="49.32413" lon="1.09871">
        <ele>21.6</ele>
        <time>2019-11-11T10:49:36Z</time>
      </trkpt>
      <trkpt lat="49.32418" lon="1.0988">
        <ele>16</ele>
        <time>2019-11-11T10:49:37Z</time>
      </trkpt>
      <trkpt lat="49.32424" lon="1.09888">
        <ele>16.5</ele>
        <time>2019-11-11T10:49:38Z</time>
      </trkpt>
      <trkpt lat="49.3243" lon="1.09896">
        <ele>16.9</ele>
        <time>2019-11-11T10:49:39Z</time>
      </trkpt>
      <trkpt lat="49.32437" lon="1.09903">
        <ele>16.8</ele>
        <time>2019-11-11T10:49:40Z</time>
      </trkpt>
      <trkpt lat="49.32444" lon="1.0991">
        <ele>16.4</ele>
        <time>2019-11-11T10:49:41Z</time>
      </trkpt>
      <trkpt lat="49.32451" lon="1.09916">
        <ele>15.7</ele>
        <time>2019-11-11T10:49:42Z</time>
      </trkpt>
      <trkpt lat="49.32458" lon="1.09922">
        <ele>18.9</ele>
        <time>2019-11-11T10:49:43Z</time>
      </trkpt>
      <trkpt lat="49.32465" lon="1.09928">
        <ele>18.4</ele>
        <time>2019-11-11T10:49:44Z</time>
      </trkpt>
      <trkpt lat="49.32472" lon="1.09935">
        <ele>17.9</ele>
        <time>2019-11-11T10:49:45Z</time>
      </trkpt>
      <trkpt lat="49.32479" lon="1.09943">
        <ele>17.8</ele>
        <time>2019-11-11T10:49:46Z</time>
      </trkpt>
      <trkpt lat="49.32485" lon="1.0995">
        <ele>17.8</ele>
        <time>2019-11-11T10:49:47Z</time>
      </trkpt>
      <trkpt lat="49.32491" lon="1.09958">
        <ele>18</ele>
        <time>2019-11-11T10:49:48Z</time>
      </trkpt>
      <trkpt lat="49.32497" lon="1.09965">
        <ele>18</ele>
        <time>2019-11-11T10:49:49Z</time>
      </trkpt>
      <trkpt lat="49.32503" lon="1.09973">
        <ele>12.1</ele>
        <time>2019-11-11T10:49:50Z</time>
      </trkpt>
      <trkpt lat="49.32508" lon="1.0998">
        <ele>12.5</ele>
        <time>2019-11-11T10:49:51Z</time>
      </trkpt>
      <trkpt lat="49.32514" lon="1.09988">
        <ele>12.8</ele>
        <time>2019-11-11T10:49:52Z</time>
      </trkpt>
      <trkpt lat="49.32519" lon="1.09996">
        <ele>12.6</ele>
        <time>2019-11-11T10:49:53Z</time>
      </trkpt>
      <trkpt lat="49.32525" lon="1.10003">
        <ele>13.6</ele>
        <time>2019-11-11T10:49:54Z</time>
      </trkpt>
      <trkpt lat="49.3253" lon="1.10011">
        <ele>13.2</ele>
        <time>2019-11-11T10:49:55Z</time>
      </trkpt>
      <trkpt lat="49.32536" lon="1.10019">
        <ele>12.8</ele>
        <time>2019-11-11T10:49:56Z</time>
      </trkpt>
      <trkpt lat="49.32542" lon="1.10026">
        <ele>12.5</ele>
        <time>2019-11-11T10:49:57Z</time>
      </trkpt>
      <trkpt lat="49.32548" lon="1.10034">
        <ele>12.3</ele>
        <time>2019-11-11T10:49:58Z</time>
      </trkpt>
      <trkpt lat="49.32554" lon="1.10041">
        <ele>12.1</ele>
        <time>2019-11-11T10:49:59Z</time>
      </trkpt>
      <trkpt lat="49.32559" lon="1.10048">
        <ele>11.9</ele>
        <time>2019-11-11T10:50:00Z</time>
      </trkpt>
      <trkpt lat="49.32565" lon="1.10056">
        <ele>11.6</ele>
        <time>2019-11-11T10:50:01Z</time>
      </trkpt>
      <trkpt lat="49.32571" lon="1.10063">
        <ele>11.2</ele>
        <time>2019-11-11T10:50:02Z</time>
      </trkpt>
      <trkpt lat="49.32577" lon="1.10071">
        <ele>10.5</ele>
        <time>2019-11-11T10:50:03Z</time>
      </trkpt>
      <trkpt lat="49.32583" lon="1.10078">
        <ele>9.7</ele>
        <time>2019-11-11T10:50:04Z</time>
      </trkpt>
      <trkpt lat="49.32589" lon="1.10086">
        <ele>9.1</ele>
        <time>2019-11-11T10:50:05Z</time>
      </trkpt>
      <trkpt lat="49.32594" lon="1.10093">
        <ele>9.3</ele>
        <time>2019-11-11T10:50:06Z</time>
      </trkpt>
      <trkpt lat="49.326" lon="1.101">
        <ele>9.4</ele>
        <time>2019-11-11T10:50:07Z</time>
      </trkpt>
      <trkpt lat="49.32606" lon="1.10108">
        <ele>9.5</ele>
        <time>2019-11-11T10:50:08Z</time>
      </trkpt>
      <trkpt lat="49.32611" lon="1.10115">
        <ele>9.6</ele>
        <time>2019-11-11T10:50:09Z</time>
      </trkpt>
      <trkpt lat="49.32617" lon="1.10122">
        <ele>9.6</ele>
        <time>2019-11-11T10:50:10Z</time>
      </trkpt>
      <trkpt lat="49.32622" lon="1.1013">
        <ele>9.7</ele>
        <time>2019-11-11T10:50:11Z</time>
      </trkpt>
      <trkpt lat="49.32628" lon="1.10137">
        <ele>9.6</ele>
        <time>2019-11-11T10:50:12Z</time>
      </trkpt>
      <trkpt lat="49.32633" lon="1.10143">
        <ele>9.5</ele>
        <time>2019-11-11T10:50:13Z</time>
      </trkpt>
      <trkpt lat="49.32639" lon="1.1015">
        <ele>9.4</ele>
        <time>2019-11-11T10:50:14Z</time>
      </trkpt>
      <trkpt lat="49.32644" lon="1.10157">
        <ele>9.2</ele>
        <time>2019-11-11T10:50:15Z</time>
      </trkpt>
      <trkpt lat="49.32649" lon="1.10164">
        <ele>9</ele>
        <time>2019-11-11T10:50:16Z</time>
      </trkpt>
      <trkpt lat="49.32654" lon="1.10171">
        <ele>10.1</ele>
        <time>2019-11-11T10:50:17Z</time>
      </trkpt>
      <trkpt lat="49.32659" lon="1.10178">
        <ele>10.1</ele>
        <time>2019-11-11T10:50:18Z</time>
      </trkpt>
      <trkpt lat="49.32663" lon="1.10186">
        <ele>10.6</ele>
        <time>2019-11-11T10:50:19Z</time>
      </trkpt>
      <trkpt lat="49.32668" lon="1.10193">
        <ele>8.2</ele>
        <time>2019-11-11T10:50:20Z</time>
      </trkpt>
      <trkpt lat="49.32672" lon="1.10201">
        <ele>8.3</ele>
        <time>2019-11-11T10:50:21Z</time>
      </trkpt>
      <trkpt lat="49.32676" lon="1.10208">
        <ele>8.3</ele>
        <time>2019-11-11T10:50:22Z</time>
      </trkpt>
      <trkpt lat="49.32681" lon="1.10216">
        <ele>8.4</ele>
        <time>2019-11-11T10:50:23Z</time>
      </trkpt>
      <trkpt lat="49.32685" lon="1.10223">
        <ele>8.5</ele>
        <time>2019-11-11T10:50:24Z</time>
      </trkpt>
      <trkpt lat="49.32689" lon="1.1023">
        <ele>8.5</ele>
        <time>2019-11-11T10:50:25Z</time>
      </trkpt>
      <trkpt lat="49.32694" lon="1.10237">
        <ele>8.5</ele>
        <time>2019-11-11T10:50:26Z</time>
      </trkpt>
      <trkpt lat="49.32698" lon="1.10244">
        <ele>8.4</ele>
        <time>2019-11-11T10:50:27Z</time>
      </trkpt>
      <trkpt lat="49.32702" lon="1.10252">
        <ele>9.3</ele>
        <time>2019-11-11T10:50:28Z</time>
      </trkpt>
      <trkpt lat="49.32707" lon="1.10259">
        <ele>9.2</ele>
        <time>2019-11-11T10:50:29Z</time>
      </trkpt>
      <trkpt lat="49.32711" lon="1.10267">
        <ele>9.2</ele>
        <time>2019-11-11T10:50:30Z</time>
      </trkpt>
      <trkpt lat="49.32716" lon="1.10275">
        <ele>9.1</ele>
        <time>2019-11-11T10:50:31Z</time>
      </trkpt>
      <trkpt lat="49.3272" lon="1.10282">
        <ele>9.1</ele>
        <time>2019-11-11T10:50:32Z</time>
      </trkpt>
      <trkpt lat="49.32725" lon="1.1029">
        <ele>9.1</ele>
        <time>2019-11-11T10:50:33Z</time>
      </trkpt>
      <trkpt lat="49.32729" lon="1.10297">
        <ele>9.1</ele>
        <time>2019-11-11T10:50:34Z</time>
      </trkpt>
      <trkpt lat="49.32733" lon="1.10304">
        <ele>9</ele>
        <time>2019-11-11T10:50:35Z</time>
      </trkpt>
      <trkpt lat="49.32737" lon="1.10311">
        <ele>8.9</ele>
        <time>2019-11-11T10:50:36Z</time>
      </trkpt>
      <trkpt lat="49.32741" lon="1.10318">
        <ele>8.8</ele>
        <time>2019-11-11T10:50:37Z</time>
      </trkpt>
      <trkpt lat="49.32745" lon="1.10325">
        <ele>8.5</ele>
        <time>2019-11-11T10:50:38Z</time>
      </trkpt>
      <trkpt lat="49.32748" lon="1.10332">
        <ele>8.1</ele>
        <time>2019-11-11T10:50:39Z</time>
      </trkpt>
      <trkpt lat="49.32751" lon="1.10339">
        <ele>8.1</ele>
        <time>2019-11-11T10:50:40Z</time>
      </trkpt>
      <trkpt lat="49.32754" lon="1.10346">
        <ele>8.3</ele>
        <time>2019-11-11T10:50:41Z</time>
      </trkpt>
      <trkpt lat="49.32758" lon="1.10352">
        <ele>8.4</ele>
        <time>2019-11-11T10:50:42Z</time>
      </trkpt>
      <trkpt lat="49.32761" lon="1.10359">
        <ele>8.5</ele>
        <time>2019-11-11T10:50:43Z</time>
      </trkpt>
      <trkpt lat="49.32765" lon="1.10364">
        <ele>8.6</ele>
        <time>2019-11-11T10:50:44Z</time>
      </trkpt>
      <trkpt lat="49.32769" lon="1.1037">
        <ele>8.7</ele>
        <time>2019-11-11T10:50:45Z</time>
      </trkpt>
      <trkpt lat="49.32772" lon="1.10376">
        <ele>8.7</ele>
        <time>2019-11-11T10:50:46Z</time>
      </trkpt>
      <trkpt lat="49.32776" lon="1.10382">
        <ele>8.8</ele>
        <time>2019-11-11T10:50:47Z</time>
      </trkpt>
      <trkpt lat="49.3278" lon="1.10387">
        <ele>8.8</ele>
        <time>2019-11-11T10:50:48Z</time>
      </trkpt>
      <trkpt lat="49.32784" lon="1.10393">
        <ele>8.9</ele>
        <time>2019-11-11T10:50:49Z</time>
      </trkpt>
      <trkpt lat="49.32788" lon="1.10398">
        <ele>8.8</ele>
        <time>2019-11-11T10:50:50Z</time>
      </trkpt>
      <trkpt lat="49.32792" lon="1.10403">
        <ele>8.8</ele>
        <time>2019-11-11T10:50:51Z</time>
      </trkpt>
      <trkpt lat="49.32796" lon="1.10408">
        <ele>8.7</ele>
        <time>2019-11-11T10:50:52Z</time>
      </trkpt>
      <trkpt lat="49.328" lon="1.10413">
        <ele>8.7</ele>
        <time>2019-11-11T10:50:53Z</time>
      </trkpt>
      <trkpt lat="49.32804" lon="1.10418">
        <ele>9.4</ele>
        <time>2019-11-11T10:50:54Z</time>
      </trkpt>
      <trkpt lat="49.32809" lon="1.10422">
        <ele>9.3</ele>
        <time>2019-11-11T10:50:55Z</time>
      </trkpt>
      <trkpt lat="49.32813" lon="1.10426">
        <ele>9.2</ele>
        <time>2019-11-11T10:50:56Z</time>
      </trkpt>
      <trkpt lat="49.32817" lon="1.10428">
        <ele>9.1</ele>
        <time>2019-11-11T10:50:57Z</time>
      </trkpt>
      <trkpt lat="49.32821" lon="1.10428">
        <ele>8.9</ele>
        <time>2019-11-11T10:50:58Z</time>
      </trkpt>
      <trkpt lat="49.32826" lon="1.10425">
        <ele>8.7</ele>
        <time>2019-11-11T10:50:59Z</time>
      </trkpt>
      <trkpt lat="49.3283" lon="1.10421">
        <ele>8.4</ele>
        <time>2019-11-11T10:51:00Z</time>
      </trkpt>
      <trkpt lat="49.32834" lon="1.10417">
        <ele>8</ele>
        <time>2019-11-11T10:51:01Z</time>
      </trkpt>
      <trkpt lat="49.32837" lon="1.10411">
        <ele>8</ele>
        <time>2019-11-11T10:51:02Z</time>
      </trkpt>
      <trkpt lat="49.3284" lon="1.10405">
        <ele>8</ele>
        <time>2019-11-11T10:51:03Z</time>
      </trkpt>
      <trkpt lat="49.32843" lon="1.10398">
        <ele>7.9</ele>
        <time>2019-11-11T10:51:04Z</time>
      </trkpt>
      <trkpt lat="49.32846" lon="1.10391">
        <ele>7.9</ele>
        <time>2019-11-11T10:51:05Z</time>
      </trkpt>
      <trkpt lat="49.32849" lon="1.10384">
        <ele>7.9</ele>
        <time>2019-11-11T10:51:06Z</time>
      </trkpt>
      <trkpt lat="49.32852" lon="1.10377">
        <ele>7.9</ele>
        <time>2019-11-11T10:51:07Z</time>
      </trkpt>
      <trkpt lat="49.32854" lon="1.10371">
        <ele>7.9</ele>
        <time>2019-11-11T10:51:08Z</time>
      </trkpt>
      <trkpt lat="49.32857" lon="1.10364">
        <ele>7.8</ele>
        <time>2019-11-11T10:51:09Z</time>
      </trkpt>
      <trkpt lat="49.32859" lon="1.10357">
        <ele>7.8</ele>
        <time>2019-11-11T10:51:10Z</time>
      </trkpt>
      <trkpt lat="49.32861" lon="1.1035">
        <ele>7.8</ele>
        <time>2019-11-11T10:51:11Z</time>
      </trkpt>
      <trkpt lat="49.32862" lon="1.10343">
        <ele>7.8</ele>
        <time>2019-11-11T10:51:12Z</time>
      </trkpt>
      <trkpt lat="49.32865" lon="1.10337">
        <ele>7.8</ele>
        <time>2019-11-11T10:51:13Z</time>
      </trkpt>
      <trkpt lat="49.32867" lon="1.10332">
        <ele>8.2</ele>
        <time>2019-11-11T10:51:14Z</time>
      </trkpt>
      <trkpt lat="49.32869" lon="1.10327">
        <ele>8.2</ele>
        <time>2019-11-11T10:51:15Z</time>
      </trkpt>
      <trkpt lat="49.32869" lon="1.10322">
        <ele>8.2</ele>
        <time>2019-11-11T10:51:16Z</time>
      </trkpt>
      <trkpt lat="49.32869" lon="1.10316">
        <ele>8.3</ele>
        <time>2019-11-11T10:51:17Z</time>
      </trkpt>
      <trkpt lat="49.32869" lon="1.1031">
        <ele>8.3</ele>
        <time>2019-11-11T10:51:18Z</time>
      </trkpt>
      <trkpt lat="49.32869" lon="1.10303">
        <ele>8.4</ele>
        <time>2019-11-11T10:51:19Z</time>
      </trkpt>
      <trkpt lat="49.32871" lon="1.10296">
        <ele>8.4</ele>
        <time>2019-11-11T10:51:20Z</time>
      </trkpt>
      <trkpt lat="49.32873" lon="1.1029">
        <ele>8.5</ele>
        <time>2019-11-11T10:51:21Z</time>
      </trkpt>
      <trkpt lat="49.32874" lon="1.10283">
        <ele>8.5</ele>
        <time>2019-11-11T10:51:22Z</time>
      </trkpt>
      <trkpt lat="49.32874" lon="1.10276">
        <ele>8.6</ele>
        <time>2019-11-11T10:51:23Z</time>
      </trkpt>
      <trkpt lat="49.32874" lon="1.10268">
        <ele>8.6</ele>
        <time>2019-11-11T10:51:24Z</time>
      </trkpt>
      <trkpt lat="49.32875" lon="1.10262">
        <ele>8.7</ele>
        <time>2019-11-11T10:51:25Z</time>
      </trkpt>
      <trkpt lat="49.32876" lon="1.10255">
        <ele>8.7</ele>
        <time>2019-11-11T10:51:26Z</time>
      </trkpt>
      <trkpt lat="49.32877" lon="1.10248">
        <ele>8.4</ele>
        <time>2019-11-11T10:51:27Z</time>
      </trkpt>
      <trkpt lat="49.32879" lon="1.10241">
        <ele>8.3</ele>
        <time>2019-11-11T10:51:28Z</time>
      </trkpt>
      <trkpt lat="49.3288" lon="1.10234">
        <ele>8.3</ele>
        <time>2019-11-11T10:51:29Z</time>
      </trkpt>
      <trkpt lat="49.32882" lon="1.10228">
        <ele>8.2</ele>
        <time>2019-11-11T10:51:30Z</time>
      </trkpt>
      <trkpt lat="49.32885" lon="1.10223">
        <ele>8.2</ele>
        <time>2019-11-11T10:51:31Z</time>
      </trkpt>
      <trkpt lat="49.32888" lon="1.10218">
        <ele>8.1</ele>
        <time>2019-11-11T10:51:32Z</time>
      </trkpt>
      <trkpt lat="49.32891" lon="1.10215">
        <ele>8.1</ele>
        <time>2019-11-11T10:51:33Z</time>
      </trkpt>
      <trkpt lat="49.32895" lon="1.10211">
        <ele>8</ele>
        <time>2019-11-11T10:51:34Z</time>
      </trkpt>
      <trkpt lat="49.32899" lon="1.10208">
        <ele>8</ele>
        <time>2019-11-11T10:51:35Z</time>
      </trkpt>
      <trkpt lat="49.32902" lon="1.10205">
        <ele>7.9</ele>
        <time>2019-11-11T10:51:36Z</time>
      </trkpt>
      <trkpt lat="49.32905" lon="1.10203">
        <ele>7.9</ele>
        <time>2019-11-11T10:51:37Z</time>
      </trkpt>
      <trkpt lat="49.32908" lon="1.102">
        <ele>7.9</ele>
        <time>2019-11-11T10:51:38Z</time>
      </trkpt>
      <trkpt lat="49.32911" lon="1.10197">
        <ele>7.8</ele>
        <time>2019-11-11T10:51:39Z</time>
      </trkpt>
      <trkpt lat="49.32912" lon="1.10194">
        <ele>7.7</ele>
        <time>2019-11-11T10:51:40Z</time>
      </trkpt>
      <trkpt lat="49.32913" lon="1.1019">
        <ele>7.7</ele>
        <time>2019-11-11T10:51:41Z</time>
      </trkpt>
      <trkpt lat="49.32916" lon="1.10188">
        <ele>7.6</ele>
        <time>2019-11-11T10:51:42Z</time>
      </trkpt>
      <trkpt lat="49.32919" lon="1.10188">
        <ele>7.4</ele>
        <time>2019-11-11T10:51:43Z</time>
      </trkpt>
      <trkpt lat="49.32923" lon="1.10187">
        <ele>7.3</ele>
        <time>2019-11-11T10:51:44Z</time>
      </trkpt>
      <trkpt lat="49.32927" lon="1.10187">
        <ele>7.3</ele>
        <time>2019-11-11T10:51:45Z</time>
      </trkpt>
      <trkpt lat="49.32931" lon="1.10186">
        <ele>7.3</ele>
        <time>2019-11-11T10:51:46Z</time>
      </trkpt>
      <trkpt lat="49.32935" lon="1.10185">
        <ele>7.3</ele>
        <time>2019-11-11T10:51:47Z</time>
      </trkpt>
      <trkpt lat="49.3294" lon="1.10185">
        <ele>7.3</ele>
        <time>2019-11-11T10:51:48Z</time>
      </trkpt>
      <trkpt lat="49.32944" lon="1.10184">
        <ele>7.3</ele>
        <time>2019-11-11T10:51:49Z</time>
      </trkpt>
      <trkpt lat="49.32948" lon="1.10183">
        <ele>7.3</ele>
        <time>2019-11-11T10:51:50Z</time>
      </trkpt>
      <trkpt lat="49.32953" lon="1.10183">
        <ele>7.3</ele>
        <time>2019-11-11T10:51:51Z</time>
      </trkpt>
      <trkpt lat="49.32957" lon="1.10182">
        <ele>7.2</ele>
        <time>2019-11-11T10:51:52Z</time>
      </trkpt>
      <trkpt lat="49.32962" lon="1.10181">
        <ele>7.2</ele>
        <time>2019-11-11T10:51:53Z</time>
      </trkpt>
      <trkpt lat="49.32966" lon="1.10179">
        <ele>7.1</ele>
        <time>2019-11-11T10:51:54Z</time>
      </trkpt>
      <trkpt lat="49.32971" lon="1.10178">
        <ele>7</ele>
        <time>2019-11-11T10:51:55Z</time>
      </trkpt>
      <trkpt lat="49.32976" lon="1.10177">
        <ele>6.9</ele>
        <time>2019-11-11T10:51:56Z</time>
      </trkpt>
      <trkpt lat="49.32981" lon="1.10176">
        <ele>6.8</ele>
        <time>2019-11-11T10:51:57Z</time>
      </trkpt>
      <trkpt lat="49.32986" lon="1.10174">
        <ele>6.7</ele>
        <time>2019-11-11T10:51:58Z</time>
      </trkpt>
      <trkpt lat="49.32991" lon="1.10172">
        <ele>6.5</ele>
        <time>2019-11-11T10:51:59Z</time>
      </trkpt>
      <trkpt lat="49.32996" lon="1.1017">
        <ele>6.3</ele>
        <time>2019-11-11T10:52:00Z</time>
      </trkpt>
      <trkpt lat="49.33001" lon="1.10168">
        <ele>6.1</ele>
        <time>2019-11-11T10:52:01Z</time>
      </trkpt>
      <trkpt lat="49.33005" lon="1.10166">
        <ele>6.2</ele>
        <time>2019-11-11T10:52:02Z</time>
      </trkpt>
      <trkpt lat="49.3301" lon="1.10164">
        <ele>6.4</ele>
        <time>2019-11-11T10:52:03Z</time>
      </trkpt>
      <trkpt lat="49.33015" lon="1.10162">
        <ele>6.5</ele>
        <time>2019-11-11T10:52:04Z</time>
      </trkpt>
      <trkpt lat="49.3302" lon="1.1016">
        <ele>6.6</ele>
        <time>2019-11-11T10:52:05Z</time>
      </trkpt>
      <trkpt lat="49.33025" lon="1.10158">
        <ele>6.7</ele>
        <time>2019-11-11T10:52:06Z</time>
      </trkpt>
      <trkpt lat="49.3303" lon="1.10156">
        <ele>6.8</ele>
        <time>2019-11-11T10:52:07Z</time>
      </trkpt>
      <trkpt lat="49.33035" lon="1.10154">
        <ele>6.9</ele>
        <time>2019-11-11T10:52:08Z</time>
      </trkpt>
      <trkpt lat="49.3304" lon="1.10152">
        <ele>7</ele>
        <time>2019-11-11T10:52:09Z</time>
      </trkpt>
      <trkpt lat="49.33045" lon="1.1015">
        <ele>7</ele>
        <time>2019-11-11T10:52:10Z</time>
      </trkpt>
      <trkpt lat="49.33049" lon="1.10148">
        <ele>7.1</ele>
        <time>2019-11-11T10:52:11Z</time>
      </trkpt>
      <trkpt lat="49.33054" lon="1.10146">
        <ele>7.1</ele>
        <time>2019-11-11T10:52:12Z</time>
      </trkpt>
      <trkpt lat="49.33059" lon="1.10143">
        <ele>7.2</ele>
        <time>2019-11-11T10:52:13Z</time>
      </trkpt>
      <trkpt lat="49.33063" lon="1.10141">
        <ele>7.2</ele>
        <time>2019-11-11T10:52:14Z</time>
      </trkpt>
      <trkpt lat="49.33068" lon="1.10139">
        <ele>7.2</ele>
        <time>2019-11-11T10:52:15Z</time>
      </trkpt>
      <trkpt lat="49.33073" lon="1.10137">
        <ele>7.3</ele>
        <time>2019-11-11T10:52:16Z</time>
      </trkpt>
      <trkpt lat="49.33077" lon="1.10135">
        <ele>7.3</ele>
        <time>2019-11-11T10:52:17Z</time>
      </trkpt>
      <trkpt lat="49.33082" lon="1.10132">
        <ele>7.2</ele>
        <time>2019-11-11T10:52:18Z</time>
      </trkpt>
      <trkpt lat="49.33087" lon="1.10129">
        <ele>7.5</ele>
        <time>2019-11-11T10:52:19Z</time>
      </trkpt>
      <trkpt lat="49.33091" lon="1.10127">
        <ele>7.5</ele>
        <time>2019-11-11T10:52:20Z</time>
      </trkpt>
      <trkpt lat="49.33096" lon="1.10124">
        <ele>7.5</ele>
        <time>2019-11-11T10:52:21Z</time>
      </trkpt>
      <trkpt lat="49.331" lon="1.10121">
        <ele>7.5</ele>
        <time>2019-11-11T10:52:22Z</time>
      </trkpt>
      <trkpt lat="49.33105" lon="1.10119">
        <ele>7.5</ele>
        <time>2019-11-11T10:52:23Z</time>
      </trkpt>
      <trkpt lat="49.3311" lon="1.10116">
        <ele>7.4</ele>
        <time>2019-11-11T10:52:24Z</time>
      </trkpt>
      <trkpt lat="49.33114" lon="1.10113">
        <ele>7.4</ele>
        <time>2019-11-11T10:52:25Z</time>
      </trkpt>
      <trkpt lat="49.33118" lon="1.1011">
        <ele>7.4</ele>
        <time>2019-11-11T10:52:26Z</time>
      </trkpt>
      <trkpt lat="49.33123" lon="1.10107">
        <ele>7.4</ele>
        <time>2019-11-11T10:52:27Z</time>
      </trkpt>
      <trkpt lat="49.33127" lon="1.10103">
        <ele>7.4</ele>
        <time>2019-11-11T10:52:28Z</time>
      </trkpt>
      <trkpt lat="49.33131" lon="1.101">
        <ele>7.4</ele>
        <time>2019-11-11T10:52:29Z</time>
      </trkpt>
      <trkpt lat="49.33135" lon="1.10097">
        <ele>7.3</ele>
        <time>2019-11-11T10:52:30Z</time>
      </trkpt>
      <trkpt lat="49.3314" lon="1.10094">
        <ele>7.3</ele>
        <time>2019-11-11T10:52:31Z</time>
      </trkpt>
      <trkpt lat="49.33144" lon="1.1009">
        <ele>7.3</ele>
        <time>2019-11-11T10:52:32Z</time>
      </trkpt>
      <trkpt lat="49.33148" lon="1.10087">
        <ele>7.2</ele>
        <time>2019-11-11T10:52:33Z</time>
      </trkpt>
      <trkpt lat="49.33153" lon="1.10084">
        <ele>7.2</ele>
        <time>2019-11-11T10:52:34Z</time>
      </trkpt>
      <trkpt lat="49.33157" lon="1.1008">
        <ele>6.9</ele>
        <time>2019-11-11T10:52:35Z</time>
      </trkpt>
      <trkpt lat="49.33162" lon="1.10077">
        <ele>6.9</ele>
        <time>2019-11-11T10:52:36Z</time>
      </trkpt>
      <trkpt lat="49.33166" lon="1.10074">
        <ele>6.9</ele>
        <time>2019-11-11T10:52:37Z</time>
      </trkpt>
      <trkpt lat="49.3317" lon="1.10072">
        <ele>6.9</ele>
        <time>2019-11-11T10:52:38Z</time>
      </trkpt>
      <trkpt lat="49.33175" lon="1.1007">
        <ele>6.9</ele>
        <time>2019-11-11T10:52:39Z</time>
      </trkpt>
      <trkpt lat="49.3318" lon="1.10069">
        <ele>6.9</ele>
        <time>2019-11-11T10:52:40Z</time>
      </trkpt>
      <trkpt lat="49.33184" lon="1.10069">
        <ele>6.9</ele>
        <time>2019-11-11T10:52:41Z</time>
      </trkpt>
      <trkpt lat="49.33189" lon="1.10069">
        <ele>6.9</ele>
        <time>2019-11-11T10:52:42Z</time>
      </trkpt>
      <trkpt lat="49.33194" lon="1.10068">
        <ele>6.9</ele>
        <time>2019-11-11T10:52:43Z</time>
      </trkpt>
      <trkpt lat="49.33199" lon="1.10066">
        <ele>6.9</ele>
        <time>2019-11-11T10:52:44Z</time>
      </trkpt>
      <trkpt lat="49.33204" lon="1.10063">
        <ele>6.9</ele>
        <time>2019-11-11T10:52:45Z</time>
      </trkpt>
      <trkpt lat="49.33208" lon="1.1006">
        <ele>6.9</ele>
        <time>2019-11-11T10:52:46Z</time>
      </trkpt>
      <trkpt lat="49.33213" lon="1.10056">
        <ele>6.9</ele>
        <time>2019-11-11T10:52:47Z</time>
      </trkpt>
      <trkpt lat="49.33218" lon="1.10054">
        <ele>6.9</ele>
        <time>2019-11-11T10:52:48Z</time>
      </trkpt>
      <trkpt lat="49.33223" lon="1.10053">
        <ele>6.9</ele>
        <time>2019-11-11T10:52:49Z</time>
      </trkpt>
      <trkpt lat="49.33229" lon="1.10053">
        <ele>7</ele>
        <time>2019-11-11T10:52:50Z</time>
      </trkpt>
      <trkpt lat="49.33234" lon="1.10053">
        <ele>7</ele>
        <time>2019-11-11T10:52:51Z</time>
      </trkpt>
      <trkpt lat="49.33238" lon="1.10053">
        <ele>7</ele>
        <time>2019-11-11T10:52:52Z</time>
      </trkpt>
      <trkpt lat="49.33243" lon="1.10053">
        <ele>7</ele>
        <time>2019-11-11T10:52:53Z</time>
      </trkpt>
      <trkpt lat="49.33248" lon="1.10053">
        <ele>7.1</ele>
        <time>2019-11-11T10:52:54Z</time>
      </trkpt>
      <trkpt lat="49.33253" lon="1.10052">
        <ele>7.2</ele>
        <time>2019-11-11T10:52:55Z</time>
      </trkpt>
      <trkpt lat="49.33258" lon="1.10051">
        <ele>7.1</ele>
        <time>2019-11-11T10:52:56Z</time>
      </trkpt>
      <trkpt lat="49.33262" lon="1.1005">
        <ele>7.1</ele>
        <time>2019-11-11T10:52:57Z</time>
      </trkpt>
      <trkpt lat="49.33267" lon="1.10048">
        <ele>7.1</ele>
        <time>2019-11-11T10:52:58Z</time>
      </trkpt>
      <trkpt lat="49.33272" lon="1.10046">
        <ele>7</ele>
        <time>2019-11-11T10:52:59Z</time>
      </trkpt>
      <trkpt lat="49.33276" lon="1.10044">
        <ele>7</ele>
        <time>2019-11-11T10:53:00Z</time>
      </trkpt>
      <trkpt lat="49.33281" lon="1.10043">
        <ele>7</ele>
        <time>2019-11-11T10:53:01Z</time>
      </trkpt>
      <trkpt lat="49.33286" lon="1.10041">
        <ele>7</ele>
        <time>2019-11-11T10:53:02Z</time>
      </trkpt>
      <trkpt lat="49.3329" lon="1.1004">
        <ele>7</ele>
        <time>2019-11-11T10:53:03Z</time>
      </trkpt>
      <trkpt lat="49.33295" lon="1.10039">
        <ele>7</ele>
        <time>2019-11-11T10:53:04Z</time>
      </trkpt>
      <trkpt lat="49.333" lon="1.10037">
        <ele>7</ele>
        <time>2019-11-11T10:53:05Z</time>
      </trkpt>
      <trkpt lat="49.33304" lon="1.10037">
        <ele>7</ele>
        <time>2019-11-11T10:53:06Z</time>
      </trkpt>
      <trkpt lat="49.33309" lon="1.10036">
        <ele>7</ele>
        <time>2019-11-11T10:53:07Z</time>
      </trkpt>
      <trkpt lat="49.33314" lon="1.10035">
        <ele>7</ele>
        <time>2019-11-11T10:53:08Z</time>
      </trkpt>
      <trkpt lat="49.33319" lon="1.10035">
        <ele>7</ele>
        <time>2019-11-11T10:53:09Z</time>
      </trkpt>
      <trkpt lat="49.33324" lon="1.10035">
        <ele>7</ele>
        <time>2019-11-11T10:53:10Z</time>
      </trkpt>
      <trkpt lat="49.33328" lon="1.10035">
        <ele>7</ele>
        <time>2019-11-11T10:53:11Z</time>
      </trkpt>
      <trkpt lat="49.33333" lon="1.10036">
        <ele>7</ele>
        <time>2019-11-11T10:53:12Z</time>
      </trkpt>
      <trkpt lat="49.33338" lon="1.10037">
        <ele>6.8</ele>
        <time>2019-11-11T10:53:13Z</time>
      </trkpt>
      <trkpt lat="49.33343" lon="1.10038">
        <ele>6.8</ele>
        <time>2019-11-11T10:53:14Z</time>
      </trkpt>
      <trkpt lat="49.33348" lon="1.10039">
        <ele>6.8</ele>
        <time>2019-11-11T10:53:15Z</time>
      </trkpt>
      <trkpt lat="49.33353" lon="1.1004">
        <ele>6.8</ele>
        <time>2019-11-11T10:53:16Z</time>
      </trkpt>
      <trkpt lat="49.33357" lon="1.10041">
        <ele>6.8</ele>
        <time>2019-11-11T10:53:17Z</time>
      </trkpt>
      <trkpt lat="49.33362" lon="1.10043">
        <ele>6.8</ele>
        <time>2019-11-11T10:53:18Z</time>
      </trkpt>
      <trkpt lat="49.33366" lon="1.10044">
        <ele>6.8</ele>
        <time>2019-11-11T10:53:19Z</time>
      </trkpt>
      <trkpt lat="49.33371" lon="1.10046">
        <ele>6.8</ele>
        <time>2019-11-11T10:53:20Z</time>
      </trkpt>
      <trkpt lat="49.33375" lon="1.10048">
        <ele>6.8</ele>
        <time>2019-11-11T10:53:21Z</time>
      </trkpt>
      <trkpt lat="49.3338" lon="1.1005">
        <ele>6.8</ele>
        <time>2019-11-11T10:53:22Z</time>
      </trkpt>
      <trkpt lat="49.33384" lon="1.10052">
        <ele>6.8</ele>
        <time>2019-11-11T10:53:23Z</time>
      </trkpt>
      <trkpt lat="49.33388" lon="1.10054">
        <ele>6.9</ele>
        <time>2019-11-11T10:53:24Z</time>
      </trkpt>
      <trkpt lat="49.33392" lon="1.10056">
        <ele>6.9</ele>
        <time>2019-11-11T10:53:25Z</time>
      </trkpt>
      <trkpt lat="49.33396" lon="1.10059">
        <ele>7</ele>
        <time>2019-11-11T10:53:26Z</time>
      </trkpt>
      <trkpt lat="49.33401" lon="1.10061">
        <ele>7.1</ele>
        <time>2019-11-11T10:53:27Z</time>
      </trkpt>
      <trkpt lat="49.33405" lon="1.10064">
        <ele>7.2</ele>
        <time>2019-11-11T10:53:28Z</time>
      </trkpt>
      <trkpt lat="49.33409" lon="1.10067">
        <ele>7.3</ele>
        <time>2019-11-11T10:53:29Z</time>
      </trkpt>
      <trkpt lat="49.33412" lon="1.10069">
        <ele>7.4</ele>
        <time>2019-11-11T10:53:30Z</time>
      </trkpt>
      <trkpt lat="49.33416" lon="1.10072">
        <ele>7.5</ele>
        <time>2019-11-11T10:53:31Z</time>
      </trkpt>
      <trkpt lat="49.3342" lon="1.10075">
        <ele>7.1</ele>
        <time>2019-11-11T10:53:32Z</time>
      </trkpt>
      <trkpt lat="49.33424" lon="1.10077">
        <ele>7.1</ele>
        <time>2019-11-11T10:53:33Z</time>
      </trkpt>
      <trkpt lat="49.33428" lon="1.1008">
        <ele>6.9</ele>
        <time>2019-11-11T10:53:34Z</time>
      </trkpt>
      <trkpt lat="49.33432" lon="1.10083">
        <ele>6.7</ele>
        <time>2019-11-11T10:53:35Z</time>
      </trkpt>
      <trkpt lat="49.33435" lon="1.10085">
        <ele>7</ele>
        <time>2019-11-11T10:53:36Z</time>
      </trkpt>
      <trkpt lat="49.33439" lon="1.10088">
        <ele>6.8</ele>
        <time>2019-11-11T10:53:37Z</time>
      </trkpt>
      <trkpt lat="49.33443" lon="1.10091">
        <ele>6.7</ele>
        <time>2019-11-11T10:53:38Z</time>
      </trkpt>
      <trkpt lat="49.33447" lon="1.10094">
        <ele>6.5</ele>
        <time>2019-11-11T10:53:39Z</time>
      </trkpt>
      <trkpt lat="49.33451" lon="1.10096">
        <ele>6.4</ele>
        <time>2019-11-11T10:53:40Z</time>
      </trkpt>
      <trkpt lat="49.33455" lon="1.10099">
        <ele>6.3</ele>
        <time>2019-11-11T10:53:41Z</time>
      </trkpt>
      <trkpt lat="49.33459" lon="1.10102">
        <ele>6.2</ele>
        <time>2019-11-11T10:53:42Z</time>
      </trkpt>
      <trkpt lat="49.33463" lon="1.10104">
        <ele>6.1</ele>
        <time>2019-11-11T10:53:43Z</time>
      </trkpt>
      <trkpt lat="49.33467" lon="1.10107">
        <ele>6</ele>
        <time>2019-11-11T10:53:44Z</time>
      </trkpt>
      <trkpt lat="49.33471" lon="1.1011">
        <ele>5.9</ele>
        <time>2019-11-11T10:53:45Z</time>
      </trkpt>
      <trkpt lat="49.33475" lon="1.10113">
        <ele>5.8</ele>
        <time>2019-11-11T10:53:46Z</time>
      </trkpt>
      <trkpt lat="49.33479" lon="1.10116">
        <ele>5.8</ele>
        <time>2019-11-11T10:53:47Z</time>
      </trkpt>
      <trkpt lat="49.33483" lon="1.10119">
        <ele>5.7</ele>
        <time>2019-11-11T10:53:48Z</time>
      </trkpt>
      <trkpt lat="49.33487" lon="1.10122">
        <ele>5.7</ele>
        <time>2019-11-11T10:53:49Z</time>
      </trkpt>
      <trkpt lat="49.33492" lon="1.10125">
        <ele>5.7</ele>
        <time>2019-11-11T10:53:50Z</time>
      </trkpt>
      <trkpt lat="49.33496" lon="1.10128">
        <ele>5.6</ele>
        <time>2019-11-11T10:53:51Z</time>
      </trkpt>
      <trkpt lat="49.335" lon="1.10131">
        <ele>4.7</ele>
        <time>2019-11-11T10:53:52Z</time>
      </trkpt>
      <trkpt lat="49.33504" lon="1.10134">
        <ele>4.7</ele>
        <time>2019-11-11T10:53:53Z</time>
      </trkpt>
      <trkpt lat="49.33509" lon="1.10137">
        <ele>4.8</ele>
        <time>2019-11-11T10:53:54Z</time>
      </trkpt>
      <trkpt lat="49.33513" lon="1.1014">
        <ele>4.8</ele>
        <time>2019-11-11T10:53:55Z</time>
      </trkpt>
      <trkpt lat="49.33517" lon="1.10143">
        <ele>4.8</ele>
        <time>2019-11-11T10:53:56Z</time>
      </trkpt>
      <trkpt lat="49.33522" lon="1.10146">
        <ele>4.8</ele>
        <time>2019-11-11T10:53:57Z</time>
      </trkpt>
      <trkpt lat="49.33526" lon="1.10149">
        <ele>4.8</ele>
        <time>2019-11-11T10:53:58Z</time>
      </trkpt>
      <trkpt lat="49.33531" lon="1.10152">
        <ele>4.8</ele>
        <time>2019-11-11T10:53:59Z</time>
      </trkpt>
      <trkpt lat="49.33535" lon="1.10155">
        <ele>4.8</ele>
        <time>2019-11-11T10:54:00Z</time>
      </trkpt>
      <trkpt lat="49.3354" lon="1.10158">
        <ele>4.8</ele>
        <time>2019-11-11T10:54:01Z</time>
      </trkpt>
      <trkpt lat="49.33544" lon="1.10161">
        <ele>4.8</ele>
        <time>2019-11-11T10:54:02Z</time>
      </trkpt>
      <trkpt lat="49.33549" lon="1.10164">
        <ele>4.9</ele>
        <time>2019-11-11T10:54:03Z</time>
      </trkpt>
      <trkpt lat="49.33553" lon="1.10167">
        <ele>4.7</ele>
        <time>2019-11-11T10:54:04Z</time>
      </trkpt>
      <trkpt lat="49.33557" lon="1.1017">
        <ele>4.7</ele>
        <time>2019-11-11T10:54:05Z</time>
      </trkpt>
      <trkpt lat="49.33562" lon="1.10173">
        <ele>4.8</ele>
        <time>2019-11-11T10:54:06Z</time>
      </trkpt>
      <trkpt lat="49.33566" lon="1.10176">
        <ele>4.8</ele>
        <time>2019-11-11T10:54:07Z</time>
      </trkpt>
      <trkpt lat="49.33571" lon="1.10179">
        <ele>4.8</ele>
        <time>2019-11-11T10:54:08Z</time>
      </trkpt>
      <trkpt lat="49.33575" lon="1.10183">
        <ele>4.8</ele>
        <time>2019-11-11T10:54:09Z</time>
      </trkpt>
      <trkpt lat="49.3358" lon="1.10186">
        <ele>4.8</ele>
        <time>2019-11-11T10:54:10Z</time>
      </trkpt>
      <trkpt lat="49.33585" lon="1.10189">
        <ele>6</ele>
        <time>2019-11-11T10:54:11Z</time>
      </trkpt>
      <trkpt lat="49.3359" lon="1.10193">
        <ele>6.2</ele>
        <time>2019-11-11T10:54:12Z</time>
      </trkpt>
      <trkpt lat="49.33595" lon="1.10196">
        <ele>6.3</ele>
        <time>2019-11-11T10:54:13Z</time>
      </trkpt>
      <trkpt lat="49.33601" lon="1.102">
        <ele>6.4</ele>
        <time>2019-11-11T10:54:14Z</time>
      </trkpt>
      <trkpt lat="49.33606" lon="1.10203">
        <ele>6.5</ele>
        <time>2019-11-11T10:54:15Z</time>
      </trkpt>
      <trkpt lat="49.33612" lon="1.10206">
        <ele>6.7</ele>
        <time>2019-11-11T10:54:16Z</time>
      </trkpt>
      <trkpt lat="49.33618" lon="1.10209">
        <ele>6.8</ele>
        <time>2019-11-11T10:54:17Z</time>
      </trkpt>
      <trkpt lat="49.33624" lon="1.10212">
        <ele>7</ele>
        <time>2019-11-11T10:54:18Z</time>
      </trkpt>
      <trkpt lat="49.3363" lon="1.10214">
        <ele>7.2</ele>
        <time>2019-11-11T10:54:19Z</time>
      </trkpt>
      <trkpt lat="49.33636" lon="1.10216">
        <ele>7.3</ele>
        <time>2019-11-11T10:54:20Z</time>
      </trkpt>
      <trkpt lat="49.33642" lon="1.10218">
        <ele>7.5</ele>
        <time>2019-11-11T10:54:21Z</time>
      </trkpt>
      <trkpt lat="49.33648" lon="1.1022">
        <ele>7.7</ele>
        <time>2019-11-11T10:54:22Z</time>
      </trkpt>
      <trkpt lat="49.33654" lon="1.10221">
        <ele>7.9</ele>
        <time>2019-11-11T10:54:23Z</time>
      </trkpt>
      <trkpt lat="49.3366" lon="1.10222">
        <ele>8</ele>
        <time>2019-11-11T10:54:24Z</time>
      </trkpt>
      <trkpt lat="49.33666" lon="1.10223">
        <ele>8.1</ele>
        <time>2019-11-11T10:54:25Z</time>
      </trkpt>
      <trkpt lat="49.33672" lon="1.10224">
        <ele>8.9</ele>
        <time>2019-11-11T10:54:26Z</time>
      </trkpt>
      <trkpt lat="49.33678" lon="1.10224">
        <ele>8.8</ele>
        <time>2019-11-11T10:54:27Z</time>
      </trkpt>
      <trkpt lat="49.33684" lon="1.10224">
        <ele>8.7</ele>
        <time>2019-11-11T10:54:28Z</time>
      </trkpt>
      <trkpt lat="49.3369" lon="1.10224">
        <ele>8.7</ele>
        <time>2019-11-11T10:54:29Z</time>
      </trkpt>
      <trkpt lat="49.33696" lon="1.10224">
        <ele>8.6</ele>
        <time>2019-11-11T10:54:30Z</time>
      </trkpt>
      <trkpt lat="49.33701" lon="1.10224">
        <ele>8.5</ele>
        <time>2019-11-11T10:54:31Z</time>
      </trkpt>
      <trkpt lat="49.33707" lon="1.10224">
        <ele>8.5</ele>
        <time>2019-11-11T10:54:32Z</time>
      </trkpt>
      <trkpt lat="49.33713" lon="1.10223">
        <ele>8.4</ele>
        <time>2019-11-11T10:54:33Z</time>
      </trkpt>
      <trkpt lat="49.33719" lon="1.10222">
        <ele>8.4</ele>
        <time>2019-11-11T10:54:34Z</time>
      </trkpt>
      <trkpt lat="49.33724" lon="1.10221">
        <ele>8.3</ele>
        <time>2019-11-11T10:54:35Z</time>
      </trkpt>
      <trkpt lat="49.3373" lon="1.1022">
        <ele>8.3</ele>
        <time>2019-11-11T10:54:36Z</time>
      </trkpt>
      <trkpt lat="49.33735" lon="1.1022">
        <ele>8.3</ele>
        <time>2019-11-11T10:54:37Z</time>
      </trkpt>
      <trkpt lat="49.33741" lon="1.10219">
        <ele>8.2</ele>
        <time>2019-11-11T10:54:38Z</time>
      </trkpt>
      <trkpt lat="49.33746" lon="1.10218">
        <ele>8.2</ele>
        <time>2019-11-11T10:54:39Z</time>
      </trkpt>
      <trkpt lat="49.33752" lon="1.10218">
        <ele>6.1</ele>
        <time>2019-11-11T10:54:40Z</time>
      </trkpt>
      <trkpt lat="49.33758" lon="1.10217">
        <ele>5.9</ele>
        <time>2019-11-11T10:54:41Z</time>
      </trkpt>
      <trkpt lat="49.33763" lon="1.10217">
        <ele>5.8</ele>
        <time>2019-11-11T10:54:42Z</time>
      </trkpt>
      <trkpt lat="49.33769" lon="1.10216">
        <ele>5.6</ele>
        <time>2019-11-11T10:54:43Z</time>
      </trkpt>
      <trkpt lat="49.33774" lon="1.10215">
        <ele>5.4</ele>
        <time>2019-11-11T10:54:44Z</time>
      </trkpt>
      <trkpt lat="49.33779" lon="1.10215">
        <ele>5.3</ele>
        <time>2019-11-11T10:54:45Z</time>
      </trkpt>
      <trkpt lat="49.33785" lon="1.10214">
        <ele>5</ele>
        <time>2019-11-11T10:54:46Z</time>
      </trkpt>
      <trkpt lat="49.3379" lon="1.10213">
        <ele>4.9</ele>
        <time>2019-11-11T10:54:47Z</time>
      </trkpt>
      <trkpt lat="49.33795" lon="1.10213">
        <ele>4.7</ele>
        <time>2019-11-11T10:54:48Z</time>
      </trkpt>
      <trkpt lat="49.338" lon="1.10212">
        <ele>4.5</ele>
        <time>2019-11-11T10:54:49Z</time>
      </trkpt>
      <trkpt lat="49.33806" lon="1.10211">
        <ele>4.3</ele>
        <time>2019-11-11T10:54:50Z</time>
      </trkpt>
      <trkpt lat="49.33811" lon="1.10211">
        <ele>4.2</ele>
        <time>2019-11-11T10:54:51Z</time>
      </trkpt>
      <trkpt lat="49.33816" lon="1.1021">
        <ele>4</ele>
        <time>2019-11-11T10:54:52Z</time>
      </trkpt>
      <trkpt lat="49.33822" lon="1.10209">
        <ele>3.9</ele>
        <time>2019-11-11T10:54:53Z</time>
      </trkpt>
      <trkpt lat="49.33827" lon="1.10209">
        <ele>3.8</ele>
        <time>2019-11-11T10:54:54Z</time>
      </trkpt>
      <trkpt lat="49.33832" lon="1.10208">
        <ele>3.7</ele>
        <time>2019-11-11T10:54:55Z</time>
      </trkpt>
      <trkpt lat="49.33837" lon="1.10208">
        <ele>2</ele>
        <time>2019-11-11T10:54:56Z</time>
      </trkpt>
      <trkpt lat="49.33843" lon="1.10207">
        <ele>2</ele>
        <time>2019-11-11T10:54:57Z</time>
      </trkpt>
      <trkpt lat="49.33848" lon="1.10206">
        <ele>2</ele>
        <time>2019-11-11T10:54:58Z</time>
      </trkpt>
      <trkpt lat="49.33853" lon="1.10205">
        <ele>2</ele>
        <time>2019-11-11T10:54:59Z</time>
      </trkpt>
      <trkpt lat="49.33859" lon="1.10205">
        <ele>2</ele>
        <time>2019-11-11T10:55:00Z</time>
      </trkpt>
      <trkpt lat="49.33864" lon="1.10204">
        <ele>2</ele>
        <time>2019-11-11T10:55:01Z</time>
      </trkpt>
      <trkpt lat="49.33869" lon="1.10204">
        <ele>2</ele>
        <time>2019-11-11T10:55:02Z</time>
      </trkpt>
      <trkpt lat="49.33874" lon="1.10203">
        <ele>2</ele>
        <time>2019-11-11T10:55:03Z</time>
      </trkpt>
      <trkpt lat="49.33879" lon="1.10202">
        <ele>2</ele>
        <time>2019-11-11T10:55:04Z</time>
      </trkpt>
      <trkpt lat="49.33884" lon="1.10201">
        <ele>2</ele>
        <time>2019-11-11T10:55:05Z</time>
      </trkpt>
      <trkpt lat="49.3389" lon="1.10201">
        <ele>2</ele>
        <time>2019-11-11T10:55:06Z</time>
      </trkpt>
      <trkpt lat="49.33895" lon="1.102">
        <ele>2</ele>
        <time>2019-11-11T10:55:07Z</time>
      </trkpt>
      <trkpt lat="49.33901" lon="1.102">
        <ele>2</ele>
        <time>2019-11-11T10:55:08Z</time>
      </trkpt>
      <trkpt lat="49.33906" lon="1.10199">
        <ele>2</ele>
        <time>2019-11-11T10:55:09Z</time>
      </trkpt>
      <trkpt lat="49.33912" lon="1.10198">
        <ele>2</ele>
        <time>2019-11-11T10:55:10Z</time>
      </trkpt>
      <trkpt lat="49.33917" lon="1.10198">
        <ele>3.6</ele>
        <time>2019-11-11T10:55:11Z</time>
      </trkpt>
      <trkpt lat="49.33923" lon="1.10197">
        <ele>3.7</ele>
        <time>2019-11-11T10:55:12Z</time>
      </trkpt>
      <trkpt lat="49.33928" lon="1.10196">
        <ele>3.8</ele>
        <time>2019-11-11T10:55:13Z</time>
      </trkpt>
      <trkpt lat="49.33934" lon="1.10196">
        <ele>3.9</ele>
        <time>2019-11-11T10:55:14Z</time>
      </trkpt>
      <trkpt lat="49.33939" lon="1.10195">
        <ele>4.1</ele>
        <time>2019-11-11T10:55:15Z</time>
      </trkpt>
      <trkpt lat="49.33945" lon="1.10194">
        <ele>4.2</ele>
        <time>2019-11-11T10:55:16Z</time>
      </trkpt>
      <trkpt lat="49.3395" lon="1.10193">
        <ele>4.4</ele>
        <time>2019-11-11T10:55:17Z</time>
      </trkpt>
      <trkpt lat="49.33956" lon="1.10193">
        <ele>4.6</ele>
        <time>2019-11-11T10:55:18Z</time>
      </trkpt>
      <trkpt lat="49.33962" lon="1.10192">
        <ele>4.8</ele>
        <time>2019-11-11T10:55:19Z</time>
      </trkpt>
      <trkpt lat="49.33967" lon="1.10191">
        <ele>5</ele>
        <time>2019-11-11T10:55:20Z</time>
      </trkpt>
      <trkpt lat="49.33973" lon="1.1019">
        <ele>5.2</ele>
        <time>2019-11-11T10:55:21Z</time>
      </trkpt>
      <trkpt lat="49.33978" lon="1.1019">
        <ele>5.4</ele>
        <time>2019-11-11T10:55:22Z</time>
      </trkpt>
      <trkpt lat="49.33984" lon="1.10189">
        <ele>5.6</ele>
        <time>2019-11-11T10:55:23Z</time>
      </trkpt>
      <trkpt lat="49.3399" lon="1.10188">
        <ele>5.8</ele>
        <time>2019-11-11T10:55:24Z</time>
      </trkpt>
      <trkpt lat="49.33995" lon="1.10187">
        <ele>5.9</ele>
        <time>2019-11-11T10:55:25Z</time>
      </trkpt>
      <trkpt lat="49.34001" lon="1.10185">
        <ele>7.9</ele>
        <time>2019-11-11T10:55:26Z</time>
      </trkpt>
      <trkpt lat="49.34007" lon="1.10183">
        <ele>7.9</ele>
        <time>2019-11-11T10:55:27Z</time>
      </trkpt>
      <trkpt lat="49.34013" lon="1.10181">
        <ele>8</ele>
        <time>2019-11-11T10:55:28Z</time>
      </trkpt>
      <trkpt lat="49.3402" lon="1.10179">
        <ele>8.1</ele>
        <time>2019-11-11T10:55:29Z</time>
      </trkpt>
      <trkpt lat="49.34026" lon="1.10177">
        <ele>8.3</ele>
        <time>2019-11-11T10:55:30Z</time>
      </trkpt>
      <trkpt lat="49.34032" lon="1.10174">
        <ele>8.4</ele>
        <time>2019-11-11T10:55:31Z</time>
      </trkpt>
      <trkpt lat="49.34039" lon="1.10171">
        <ele>8.6</ele>
        <time>2019-11-11T10:55:32Z</time>
      </trkpt>
      <trkpt lat="49.34045" lon="1.10168">
        <ele>8.7</ele>
        <time>2019-11-11T10:55:33Z</time>
      </trkpt>
      <trkpt lat="49.34052" lon="1.10165">
        <ele>9.2</ele>
        <time>2019-11-11T10:55:34Z</time>
      </trkpt>
      <trkpt lat="49.34058" lon="1.10163">
        <ele>9.4</ele>
        <time>2019-11-11T10:55:35Z</time>
      </trkpt>
      <trkpt lat="49.34065" lon="1.1016">
        <ele>9.5</ele>
        <time>2019-11-11T10:55:36Z</time>
      </trkpt>
      <trkpt lat="49.34071" lon="1.10157">
        <ele>9.6</ele>
        <time>2019-11-11T10:55:37Z</time>
      </trkpt>
      <trkpt lat="49.34078" lon="1.10154">
        <ele>9.7</ele>
        <time>2019-11-11T10:55:38Z</time>
      </trkpt>
      <trkpt lat="49.34085" lon="1.10151">
        <ele>10.1</ele>
        <time>2019-11-11T10:55:39Z</time>
      </trkpt>
      <trkpt lat="49.34092" lon="1.10149">
        <ele>10.1</ele>
        <time>2019-11-11T10:55:40Z</time>
      </trkpt>
      <trkpt lat="49.34098" lon="1.10147">
        <ele>10.1</ele>
        <time>2019-11-11T10:55:41Z</time>
      </trkpt>
      <trkpt lat="49.34104" lon="1.10143">
        <ele>10.1</ele>
        <time>2019-11-11T10:55:42Z</time>
      </trkpt>
      <trkpt lat="49.3411" lon="1.10139">
        <ele>10.1</ele>
        <time>2019-11-11T10:55:43Z</time>
      </trkpt>
      <trkpt lat="49.34115" lon="1.10134">
        <ele>10</ele>
        <time>2019-11-11T10:55:44Z</time>
      </trkpt>
      <trkpt lat="49.34119" lon="1.10128">
        <ele>10</ele>
        <time>2019-11-11T10:55:45Z</time>
      </trkpt>
      <trkpt lat="49.34124" lon="1.10123">
        <ele>10</ele>
        <time>2019-11-11T10:55:46Z</time>
      </trkpt>
      <trkpt lat="49.34128" lon="1.10118">
        <ele>10</ele>
        <time>2019-11-11T10:55:47Z</time>
      </trkpt>
      <trkpt lat="49.34133" lon="1.10114">
        <ele>9.9</ele>
        <time>2019-11-11T10:55:48Z</time>
      </trkpt>
      <trkpt lat="49.34137" lon="1.10112">
        <ele>9.9</ele>
        <time>2019-11-11T10:55:49Z</time>
      </trkpt>
      <trkpt lat="49.3414" lon="1.10111">
        <ele>9.9</ele>
        <time>2019-11-11T10:55:50Z</time>
      </trkpt>
      <trkpt lat="49.34143" lon="1.1011">
        <ele>9.8</ele>
        <time>2019-11-11T10:55:51Z</time>
      </trkpt>
      <trkpt lat="49.34145" lon="1.10108">
        <ele>9.8</ele>
        <time>2019-11-11T10:55:52Z</time>
      </trkpt>
      <trkpt lat="49.34145" lon="1.10108">
        <ele>9.8</ele>
        <time>2019-11-11T10:55:53Z</time>
      </trkpt>
      <trkpt lat="49.34145" lon="1.10108">
        <ele>9.8</ele>
        <time>2019-11-11T10:55:54Z</time>
      </trkpt>
      <trkpt lat="49.34145" lon="1.10108">
        <ele>9.8</ele>
        <time>2019-11-11T10:55:55Z</time>
      </trkpt>
      <trkpt lat="49.34145" lon="1.10108">
        <ele>9.8</ele>
        <time>2019-11-11T10:55:56Z</time>
      </trkpt>
      <trkpt lat="49.34148" lon="1.101">
        <ele>9.7</ele>
        <time>2019-11-11T10:56:13Z</time>
      </trkpt>
      <trkpt lat="49.34149" lon="1.10099">
        <ele>9.7</ele>
        <time>2019-11-11T10:56:14Z</time>
      </trkpt>
      <trkpt lat="49.34152" lon="1.10098">
        <ele>9.6</ele>
        <time>2019-11-11T10:56:15Z</time>
      </trkpt>
      <trkpt lat="49.34154" lon="1.10096">
        <ele>9.6</ele>
        <time>2019-11-11T10:56:16Z</time>
      </trkpt>
      <trkpt lat="49.34157" lon="1.10094">
        <ele>9.5</ele>
        <time>2019-11-11T10:56:17Z</time>
      </trkpt>
      <trkpt lat="49.3416" lon="1.10091">
        <ele>9.4</ele>
        <time>2019-11-11T10:56:18Z</time>
      </trkpt>
      <trkpt lat="49.34163" lon="1.10089">
        <ele>9.3</ele>
        <time>2019-11-11T10:56:19Z</time>
      </trkpt>
      <trkpt lat="49.34167" lon="1.10086">
        <ele>9.1</ele>
        <time>2019-11-11T10:56:20Z</time>
      </trkpt>
      <trkpt lat="49.34171" lon="1.10083">
        <ele>9</ele>
        <time>2019-11-11T10:56:21Z</time>
      </trkpt>
      <trkpt lat="49.34171" lon="1.10083">
        <ele>9</ele>
        <time>2019-11-11T10:56:22Z</time>
      </trkpt>
      <trkpt lat="49.34179" lon="1.10077">
        <ele>9.1</ele>
        <time>2019-11-11T10:56:23Z</time>
      </trkpt>
      <trkpt lat="49.34183" lon="1.10074">
        <ele>9.2</ele>
        <time>2019-11-11T10:56:24Z</time>
      </trkpt>
      <trkpt lat="49.34187" lon="1.10071">
        <ele>9.2</ele>
        <time>2019-11-11T10:56:25Z</time>
      </trkpt>
      <trkpt lat="49.34187" lon="1.10071">
        <ele>9.2</ele>
        <time>2019-11-11T10:56:26Z</time>
      </trkpt>
      <trkpt lat="49.34194" lon="1.10064">
        <ele>9.2</ele>
        <time>2019-11-11T10:56:27Z</time>
      </trkpt>
      <trkpt lat="49.34198" lon="1.10061">
        <ele>9.2</ele>
        <time>2019-11-11T10:56:28Z</time>
      </trkpt>
      <trkpt lat="49.34201" lon="1.10058">
        <ele>9.3</ele>
        <time>2019-11-11T10:56:29Z</time>
      </trkpt>
      <trkpt lat="49.34201" lon="1.10058">
        <ele>9.3</ele>
        <time>2019-11-11T10:56:30Z</time>
      </trkpt>
      <trkpt lat="49.34208" lon="1.10052">
        <ele>9.3</ele>
        <time>2019-11-11T10:56:31Z</time>
      </trkpt>
      <trkpt lat="49.34211" lon="1.10049">
        <ele>9.3</ele>
        <time>2019-11-11T10:56:32Z</time>
      </trkpt>
      <trkpt lat="49.34213" lon="1.10046">
        <ele>9.3</ele>
        <time>2019-11-11T10:56:33Z</time>
      </trkpt>
      <trkpt lat="49.34216" lon="1.10043">
        <ele>9.3</ele>
        <time>2019-11-11T10:56:34Z</time>
      </trkpt>
      <trkpt lat="49.34216" lon="1.10043">
        <ele>9.3</ele>
        <time>2019-11-11T10:56:35Z</time>
      </trkpt>
      <trkpt lat="49.34221" lon="1.10038">
        <ele>9.3</ele>
        <time>2019-11-11T10:56:36Z</time>
      </trkpt>
      <trkpt lat="49.34223" lon="1.10036">
        <ele>9.3</ele>
        <time>2019-11-11T10:56:37Z</time>
      </trkpt>
      <trkpt lat="49.34225" lon="1.10034">
        <ele>9.3</ele>
        <time>2019-11-11T10:56:38Z</time>
      </trkpt>
      <trkpt lat="49.34226" lon="1.10033">
        <ele>9.3</ele>
        <time>2019-11-11T10:56:39Z</time>
      </trkpt>
      <trkpt lat="49.34228" lon="1.10031">
        <ele>9.2</ele>
        <time>2019-11-11T10:56:40Z</time>
      </trkpt>
      <trkpt lat="49.34228" lon="1.10031">
        <ele>9.2</ele>
        <time>2019-11-11T10:56:41Z</time>
      </trkpt>
      <trkpt lat="49.34228" lon="1.10031">
        <ele>9.2</ele>
        <time>2019-11-11T10:56:42Z</time>
      </trkpt>
      <trkpt lat="49.34231" lon="1.10027">
        <ele>9.2</ele>
        <time>2019-11-11T10:56:53Z</time>
      </trkpt>
      <trkpt lat="49.34232" lon="1.10025">
        <ele>9.2</ele>
        <time>2019-11-11T10:56:54Z</time>
      </trkpt>
      <trkpt lat="49.34234" lon="1.10023">
        <ele>9.2</ele>
        <time>2019-11-11T10:56:55Z</time>
      </trkpt>
      <trkpt lat="49.34237" lon="1.10019">
        <ele>9.2</ele>
        <time>2019-11-11T10:56:56Z</time>
      </trkpt>
      <trkpt lat="49.3424" lon="1.10016">
        <ele>9.2</ele>
        <time>2019-11-11T10:56:57Z</time>
      </trkpt>
      <trkpt lat="49.34243" lon="1.10012">
        <ele>9.1</ele>
        <time>2019-11-11T10:56:58Z</time>
      </trkpt>
      <trkpt lat="49.34247" lon="1.10008">
        <ele>9.1</ele>
        <time>2019-11-11T10:56:59Z</time>
      </trkpt>
      <trkpt lat="49.34251" lon="1.10004">
        <ele>9.1</ele>
        <time>2019-11-11T10:57:00Z</time>
      </trkpt>
      <trkpt lat="49.34254" lon="1.09999">
        <ele>9.1</ele>
        <time>2019-11-11T10:57:01Z</time>
      </trkpt>
      <trkpt lat="49.34258" lon="1.09994">
        <ele>9.3</ele>
        <time>2019-11-11T10:57:02Z</time>
      </trkpt>
      <trkpt lat="49.34262" lon="1.0999">
        <ele>9.4</ele>
        <time>2019-11-11T10:57:03Z</time>
      </trkpt>
      <trkpt lat="49.34266" lon="1.09985">
        <ele>9.5</ele>
        <time>2019-11-11T10:57:04Z</time>
      </trkpt>
      <trkpt lat="49.3427" lon="1.0998">
        <ele>9.5</ele>
        <time>2019-11-11T10:57:05Z</time>
      </trkpt>
      <trkpt lat="49.34274" lon="1.09976">
        <ele>9.6</ele>
        <time>2019-11-11T10:57:06Z</time>
      </trkpt>
      <trkpt lat="49.34278" lon="1.09971">
        <ele>9.6</ele>
        <time>2019-11-11T10:57:07Z</time>
      </trkpt>
      <trkpt lat="49.34282" lon="1.09967">
        <ele>9.7</ele>
        <time>2019-11-11T10:57:08Z</time>
      </trkpt>
      <trkpt lat="49.34287" lon="1.09962">
        <ele>9.7</ele>
        <time>2019-11-11T10:57:09Z</time>
      </trkpt>
      <trkpt lat="49.34291" lon="1.09957">
        <ele>9.8</ele>
        <time>2019-11-11T10:57:10Z</time>
      </trkpt>
      <trkpt lat="49.34295" lon="1.09952">
        <ele>9.8</ele>
        <time>2019-11-11T10:57:11Z</time>
      </trkpt>
      <trkpt lat="49.34299" lon="1.09947">
        <ele>9.8</ele>
        <time>2019-11-11T10:57:12Z</time>
      </trkpt>
      <trkpt lat="49.34303" lon="1.09942">
        <ele>9.8</ele>
        <time>2019-11-11T10:57:13Z</time>
      </trkpt>
      <trkpt lat="49.34307" lon="1.09937">
        <ele>9.8</ele>
        <time>2019-11-11T10:57:14Z</time>
      </trkpt>
      <trkpt lat="49.34311" lon="1.09933">
        <ele>9.9</ele>
        <time>2019-11-11T10:57:15Z</time>
      </trkpt>
      <trkpt lat="49.34315" lon="1.09928">
        <ele>9.9</ele>
        <time>2019-11-11T10:57:16Z</time>
      </trkpt>
      <trkpt lat="49.34319" lon="1.09923">
        <ele>9.9</ele>
        <time>2019-11-11T10:57:17Z</time>
      </trkpt>
      <trkpt lat="49.34323" lon="1.09918">
        <ele>9.9</ele>
        <time>2019-11-11T10:57:18Z</time>
      </trkpt>
      <trkpt lat="49.34327" lon="1.09913">
        <ele>9.9</ele>
        <time>2019-11-11T10:57:19Z</time>
      </trkpt>
      <trkpt lat="49.34331" lon="1.09908">
        <ele>9.9</ele>
        <time>2019-11-11T10:57:20Z</time>
      </trkpt>
      <trkpt lat="49.34335" lon="1.09903">
        <ele>10.1</ele>
        <time>2019-11-11T10:57:21Z</time>
      </trkpt>
      <trkpt lat="49.34339" lon="1.09898">
        <ele>10.1</ele>
        <time>2019-11-11T10:57:22Z</time>
      </trkpt>
      <trkpt lat="49.34343" lon="1.09894">
        <ele>10.1</ele>
        <time>2019-11-11T10:57:23Z</time>
      </trkpt>
      <trkpt lat="49.34347" lon="1.09889">
        <ele>10.2</ele>
        <time>2019-11-11T10:57:24Z</time>
      </trkpt>
      <trkpt lat="49.34351" lon="1.09884">
        <ele>10.2</ele>
        <time>2019-11-11T10:57:25Z</time>
      </trkpt>
      <trkpt lat="49.34355" lon="1.09879">
        <ele>10.2</ele>
        <time>2019-11-11T10:57:26Z</time>
      </trkpt>
      <trkpt lat="49.34359" lon="1.09874">
        <ele>10.2</ele>
        <time>2019-11-11T10:57:27Z</time>
      </trkpt>
      <trkpt lat="49.34363" lon="1.0987">
        <ele>10.2</ele>
        <time>2019-11-11T10:57:28Z</time>
      </trkpt>
      <trkpt lat="49.34367" lon="1.09865">
        <ele>10.2</ele>
        <time>2019-11-11T10:57:29Z</time>
      </trkpt>
      <trkpt lat="49.34371" lon="1.0986">
        <ele>10.3</ele>
        <time>2019-11-11T10:57:30Z</time>
      </trkpt>
      <trkpt lat="49.34374" lon="1.09856">
        <ele>10.3</ele>
        <time>2019-11-11T10:57:31Z</time>
      </trkpt>
      <trkpt lat="49.34378" lon="1.09852">
        <ele>10.3</ele>
        <time>2019-11-11T10:57:32Z</time>
      </trkpt>
      <trkpt lat="49.34381" lon="1.09848">
        <ele>10.4</ele>
        <time>2019-11-11T10:57:33Z</time>
      </trkpt>
      <trkpt lat="49.34384" lon="1.09844">
        <ele>10.4</ele>
        <time>2019-11-11T10:57:34Z</time>
      </trkpt>
      <trkpt lat="49.34386" lon="1.09841">
        <ele>10.4</ele>
        <time>2019-11-11T10:57:35Z</time>
      </trkpt>
      <trkpt lat="49.34388" lon="1.09837">
        <ele>10.5</ele>
        <time>2019-11-11T10:57:36Z</time>
      </trkpt>
      <trkpt lat="49.34391" lon="1.09834">
        <ele>10.5</ele>
        <time>2019-11-11T10:57:37Z</time>
      </trkpt>
      <trkpt lat="49.34393" lon="1.09831">
        <ele>10.8</ele>
        <time>2019-11-11T10:57:38Z</time>
      </trkpt>
      <trkpt lat="49.34396" lon="1.09828">
        <ele>10.8</ele>
        <time>2019-11-11T10:57:39Z</time>
      </trkpt>
      <trkpt lat="49.34398" lon="1.09826">
        <ele>10.9</ele>
        <time>2019-11-11T10:57:40Z</time>
      </trkpt>
      <trkpt lat="49.34401" lon="1.09824">
        <ele>10.9</ele>
        <time>2019-11-11T10:57:41Z</time>
      </trkpt>
      <trkpt lat="49.34403" lon="1.09823">
        <ele>10.9</ele>
        <time>2019-11-11T10:57:42Z</time>
      </trkpt>
      <trkpt lat="49.34404" lon="1.09822">
        <ele>10.9</ele>
        <time>2019-11-11T10:57:43Z</time>
      </trkpt>
      <trkpt lat="49.34404" lon="1.09821">
        <ele>10.9</ele>
        <time>2019-11-11T10:57:44Z</time>
      </trkpt>
      <trkpt lat="49.34404" lon="1.09821">
        <ele>10.9</ele>
        <time>2019-11-11T10:57:45Z</time>
      </trkpt>
      <trkpt lat="49.34407" lon="1.09816">
        <ele>10.9</ele>
        <time>2019-11-11T10:57:54Z</time>
      </trkpt>
      <trkpt lat="49.34409" lon="1.09814">
        <ele>10.9</ele>
        <time>2019-11-11T10:57:55Z</time>
      </trkpt>
      <trkpt lat="49.34411" lon="1.09812">
        <ele>10.9</ele>
        <time>2019-11-11T10:57:56Z</time>
      </trkpt>
      <trkpt lat="49.34414" lon="1.09809">
        <ele>10.9</ele>
        <time>2019-11-11T10:57:57Z</time>
      </trkpt>
      <trkpt lat="49.34417" lon="1.09806">
        <ele>11.5</ele>
        <time>2019-11-11T10:57:58Z</time>
      </trkpt>
      <trkpt lat="49.3442" lon="1.09803">
        <ele>11.6</ele>
        <time>2019-11-11T10:57:59Z</time>
      </trkpt>
      <trkpt lat="49.34423" lon="1.09799">
        <ele>11.6</ele>
        <time>2019-11-11T10:58:00Z</time>
      </trkpt>
      <trkpt lat="49.34427" lon="1.09795">
        <ele>11.6</ele>
        <time>2019-11-11T10:58:01Z</time>
      </trkpt>
      <trkpt lat="49.3443" lon="1.09791">
        <ele>11.7</ele>
        <time>2019-11-11T10:58:02Z</time>
      </trkpt>
      <trkpt lat="49.34433" lon="1.09787">
        <ele>11.7</ele>
        <time>2019-11-11T10:58:03Z</time>
      </trkpt>
      <trkpt lat="49.34437" lon="1.09783">
        <ele>11.7</ele>
        <time>2019-11-11T10:58:04Z</time>
      </trkpt>
      <trkpt lat="49.3444" lon="1.09778">
        <ele>11.8</ele>
        <time>2019-11-11T10:58:05Z</time>
      </trkpt>
      <trkpt lat="49.34444" lon="1.09774">
        <ele>11.8</ele>
        <time>2019-11-11T10:58:06Z</time>
      </trkpt>
      <trkpt lat="49.34448" lon="1.09769">
        <ele>11.8</ele>
        <time>2019-11-11T10:58:07Z</time>
      </trkpt>
      <trkpt lat="49.34452" lon="1.09764">
        <ele>11.8</ele>
        <time>2019-11-11T10:58:08Z</time>
      </trkpt>
      <trkpt lat="49.34456" lon="1.0976">
        <ele>11.8</ele>
        <time>2019-11-11T10:58:09Z</time>
      </trkpt>
      <trkpt lat="49.3446" lon="1.09755">
        <ele>11.8</ele>
        <time>2019-11-11T10:58:10Z</time>
      </trkpt>
      <trkpt lat="49.34464" lon="1.0975">
        <ele>11.9</ele>
        <time>2019-11-11T10:58:11Z</time>
      </trkpt>
      <trkpt lat="49.34468" lon="1.09746">
        <ele>11.9</ele>
        <time>2019-11-11T10:58:12Z</time>
      </trkpt>
      <trkpt lat="49.34472" lon="1.09741">
        <ele>11.9</ele>
        <time>2019-11-11T10:58:13Z</time>
      </trkpt>
      <trkpt lat="49.34476" lon="1.09736">
        <ele>11.9</ele>
        <time>2019-11-11T10:58:14Z</time>
      </trkpt>
      <trkpt lat="49.3448" lon="1.09732">
        <ele>11.9</ele>
        <time>2019-11-11T10:58:15Z</time>
      </trkpt>
      <trkpt lat="49.34484" lon="1.09727">
        <ele>11.9</ele>
        <time>2019-11-11T10:58:16Z</time>
      </trkpt>
      <trkpt lat="49.34488" lon="1.09722">
        <ele>11.9</ele>
        <time>2019-11-11T10:58:17Z</time>
      </trkpt>
      <trkpt lat="49.34493" lon="1.09717">
        <ele>11.8</ele>
        <time>2019-11-11T10:58:18Z</time>
      </trkpt>
      <trkpt lat="49.34497" lon="1.09712">
        <ele>11.8</ele>
        <time>2019-11-11T10:58:19Z</time>
      </trkpt>
      <trkpt lat="49.34501" lon="1.09707">
        <ele>11.8</ele>
        <time>2019-11-11T10:58:20Z</time>
      </trkpt>
      <trkpt lat="49.34505" lon="1.09702">
        <ele>11.8</ele>
        <time>2019-11-11T10:58:21Z</time>
      </trkpt>
      <trkpt lat="49.34509" lon="1.09696">
        <ele>11.9</ele>
        <time>2019-11-11T10:58:22Z</time>
      </trkpt>
      <trkpt lat="49.34514" lon="1.09691">
        <ele>11.9</ele>
        <time>2019-11-11T10:58:23Z</time>
      </trkpt>
      <trkpt lat="49.34518" lon="1.09686">
        <ele>11.9</ele>
        <time>2019-11-11T10:58:24Z</time>
      </trkpt>
      <trkpt lat="49.34522" lon="1.09682">
        <ele>11.9</ele>
        <time>2019-11-11T10:58:25Z</time>
      </trkpt>
      <trkpt lat="49.34527" lon="1.09677">
        <ele>11.9</ele>
        <time>2019-11-11T10:58:26Z</time>
      </trkpt>
      <trkpt lat="49.34531" lon="1.09672">
        <ele>11.9</ele>
        <time>2019-11-11T10:58:27Z</time>
      </trkpt>
      <trkpt lat="49.34535" lon="1.09667">
        <ele>11.9</ele>
        <time>2019-11-11T10:58:28Z</time>
      </trkpt>
      <trkpt lat="49.34539" lon="1.09662">
        <ele>12</ele>
        <time>2019-11-11T10:58:29Z</time>
      </trkpt>
      <trkpt lat="49.34544" lon="1.09658">
        <ele>12</ele>
        <time>2019-11-11T10:58:30Z</time>
      </trkpt>
      <trkpt lat="49.34548" lon="1.09654">
        <ele>12</ele>
        <time>2019-11-11T10:58:31Z</time>
      </trkpt>
      <trkpt lat="49.34553" lon="1.09649">
        <ele>12</ele>
        <time>2019-11-11T10:58:32Z</time>
      </trkpt>
      <trkpt lat="49.34557" lon="1.09645">
        <ele>12</ele>
        <time>2019-11-11T10:58:33Z</time>
      </trkpt>
      <trkpt lat="49.34561" lon="1.0964">
        <ele>12</ele>
        <time>2019-11-11T10:58:34Z</time>
      </trkpt>
      <trkpt lat="49.34565" lon="1.09635">
        <ele>12</ele>
        <time>2019-11-11T10:58:35Z</time>
      </trkpt>
      <trkpt lat="49.34569" lon="1.0963">
        <ele>12</ele>
        <time>2019-11-11T10:58:36Z</time>
      </trkpt>
      <trkpt lat="49.34573" lon="1.09626">
        <ele>12</ele>
        <time>2019-11-11T10:58:37Z</time>
      </trkpt>
      <trkpt lat="49.34577" lon="1.09621">
        <ele>12</ele>
        <time>2019-11-11T10:58:38Z</time>
      </trkpt>
      <trkpt lat="49.34581" lon="1.09617">
        <ele>12</ele>
        <time>2019-11-11T10:58:39Z</time>
      </trkpt>
      <trkpt lat="49.34585" lon="1.09612">
        <ele>12.3</ele>
        <time>2019-11-11T10:58:40Z</time>
      </trkpt>
      <trkpt lat="49.34589" lon="1.09607">
        <ele>12.3</ele>
        <time>2019-11-11T10:58:41Z</time>
      </trkpt>
      <trkpt lat="49.34593" lon="1.09603">
        <ele>12.3</ele>
        <time>2019-11-11T10:58:42Z</time>
      </trkpt>
      <trkpt lat="49.34597" lon="1.09599">
        <ele>12.3</ele>
        <time>2019-11-11T10:58:43Z</time>
      </trkpt>
      <trkpt lat="49.346" lon="1.09595">
        <ele>12.3</ele>
        <time>2019-11-11T10:58:44Z</time>
      </trkpt>
      <trkpt lat="49.34604" lon="1.09591">
        <ele>12.4</ele>
        <time>2019-11-11T10:58:45Z</time>
      </trkpt>
      <trkpt lat="49.34608" lon="1.09587">
        <ele>12.4</ele>
        <time>2019-11-11T10:58:46Z</time>
      </trkpt>
      <trkpt lat="49.34611" lon="1.09582">
        <ele>13.2</ele>
        <time>2019-11-11T10:58:47Z</time>
      </trkpt>
      <trkpt lat="49.34615" lon="1.09578">
        <ele>13.3</ele>
        <time>2019-11-11T10:58:48Z</time>
      </trkpt>
      <trkpt lat="49.34617" lon="1.09574">
        <ele>13.3</ele>
        <time>2019-11-11T10:58:49Z</time>
      </trkpt>
      <trkpt lat="49.34619" lon="1.09568">
        <ele>13.4</ele>
        <time>2019-11-11T10:58:50Z</time>
      </trkpt>
      <trkpt lat="49.34621" lon="1.09562">
        <ele>13.5</ele>
        <time>2019-11-11T10:58:51Z</time>
      </trkpt>
      <trkpt lat="49.34621" lon="1.09556">
        <ele>13.6</ele>
        <time>2019-11-11T10:58:52Z</time>
      </trkpt>
      <trkpt lat="49.34621" lon="1.09551">
        <ele>13.6</ele>
        <time>2019-11-11T10:58:53Z</time>
      </trkpt>
      <trkpt lat="49.34621" lon="1.09546">
        <ele>13.7</ele>
        <time>2019-11-11T10:58:54Z</time>
      </trkpt>
      <trkpt lat="49.3462" lon="1.09541">
        <ele>13.7</ele>
        <time>2019-11-11T10:58:55Z</time>
      </trkpt>
      <trkpt lat="49.34617" lon="1.09537">
        <ele>13.7</ele>
        <time>2019-11-11T10:58:56Z</time>
      </trkpt>
      <trkpt lat="49.34615" lon="1.09533">
        <ele>13.7</ele>
        <time>2019-11-11T10:58:57Z</time>
      </trkpt>
      <trkpt lat="49.34613" lon="1.09528">
        <ele>13.7</ele>
        <time>2019-11-11T10:58:58Z</time>
      </trkpt>
      <trkpt lat="49.3461" lon="1.09524">
        <ele>13.6</ele>
        <time>2019-11-11T10:58:59Z</time>
      </trkpt>
      <trkpt lat="49.34608" lon="1.09519">
        <ele>13.6</ele>
        <time>2019-11-11T10:59:00Z</time>
      </trkpt>
      <trkpt lat="49.34605" lon="1.09513">
        <ele>13.6</ele>
        <time>2019-11-11T10:59:01Z</time>
      </trkpt>
      <trkpt lat="49.34603" lon="1.09507">
        <ele>13.5</ele>
        <time>2019-11-11T10:59:02Z</time>
      </trkpt>
      <trkpt lat="49.346" lon="1.09501">
        <ele>13.4</ele>
        <time>2019-11-11T10:59:03Z</time>
      </trkpt>
      <trkpt lat="49.34597" lon="1.09495">
        <ele>13.9</ele>
        <time>2019-11-11T10:59:04Z</time>
      </trkpt>
      <trkpt lat="49.34595" lon="1.09489">
        <ele>13.9</ele>
        <time>2019-11-11T10:59:05Z</time>
      </trkpt>
      <trkpt lat="49.34592" lon="1.09483">
        <ele>14</ele>
        <time>2019-11-11T10:59:06Z</time>
      </trkpt>
      <trkpt lat="49.34589" lon="1.09477">
        <ele>14.2</ele>
        <time>2019-11-11T10:59:07Z</time>
      </trkpt>
      <trkpt lat="49.34586" lon="1.09471">
        <ele>14.3</ele>
        <time>2019-11-11T10:59:08Z</time>
      </trkpt>
      <trkpt lat="49.34584" lon="1.09465">
        <ele>14.4</ele>
        <time>2019-11-11T10:59:09Z</time>
      </trkpt>
      <trkpt lat="49.34581" lon="1.09459">
        <ele>13.7</ele>
        <time>2019-11-11T10:59:10Z</time>
      </trkpt>
      <trkpt lat="49.34578" lon="1.09453">
        <ele>13.7</ele>
        <time>2019-11-11T10:59:11Z</time>
      </trkpt>
      <trkpt lat="49.34575" lon="1.09446">
        <ele>13.8</ele>
        <time>2019-11-11T10:59:12Z</time>
      </trkpt>
      <trkpt lat="49.34572" lon="1.0944">
        <ele>13.8</ele>
        <time>2019-11-11T10:59:13Z</time>
      </trkpt>
      <trkpt lat="49.34569" lon="1.09434">
        <ele>13.8</ele>
        <time>2019-11-11T10:59:14Z</time>
      </trkpt>
      <trkpt lat="49.34567" lon="1.09428">
        <ele>13.8</ele>
        <time>2019-11-11T10:59:15Z</time>
      </trkpt>
      <trkpt lat="49.34564" lon="1.09422">
        <ele>13.9</ele>
        <time>2019-11-11T10:59:16Z</time>
      </trkpt>
      <trkpt lat="49.34562" lon="1.09417">
        <ele>13.9</ele>
        <time>2019-11-11T10:59:17Z</time>
      </trkpt>
      <trkpt lat="49.34559" lon="1.09411">
        <ele>14.4</ele>
        <time>2019-11-11T10:59:18Z</time>
      </trkpt>
      <trkpt lat="49.34556" lon="1.09405">
        <ele>14.5</ele>
        <time>2019-11-11T10:59:19Z</time>
      </trkpt>
      <trkpt lat="49.34554" lon="1.094">
        <ele>14.5</ele>
        <time>2019-11-11T10:59:20Z</time>
      </trkpt>
      <trkpt lat="49.34551" lon="1.09394">
        <ele>14.6</ele>
        <time>2019-11-11T10:59:21Z</time>
      </trkpt>
      <trkpt lat="49.34549" lon="1.09389">
        <ele>14.6</ele>
        <time>2019-11-11T10:59:22Z</time>
      </trkpt>
      <trkpt lat="49.34546" lon="1.09383">
        <ele>14.7</ele>
        <time>2019-11-11T10:59:23Z</time>
      </trkpt>
      <trkpt lat="49.34544" lon="1.09378">
        <ele>14.7</ele>
        <time>2019-11-11T10:59:24Z</time>
      </trkpt>
      <trkpt lat="49.34542" lon="1.09374">
        <ele>14.8</ele>
        <time>2019-11-11T10:59:25Z</time>
      </trkpt>
      <trkpt lat="49.34539" lon="1.0937">
        <ele>14.8</ele>
        <time>2019-11-11T10:59:26Z</time>
      </trkpt>
      <trkpt lat="49.34538" lon="1.09366">
        <ele>14.8</ele>
        <time>2019-11-11T10:59:27Z</time>
      </trkpt>
      <trkpt lat="49.34536" lon="1.09362">
        <ele>14.8</ele>
        <time>2019-11-11T10:59:28Z</time>
      </trkpt>
      <trkpt lat="49.34535" lon="1.09358">
        <ele>14.9</ele>
        <time>2019-11-11T10:59:29Z</time>
      </trkpt>
      <trkpt lat="49.34535" lon="1.09353">
        <ele>14.9</ele>
        <time>2019-11-11T10:59:30Z</time>
      </trkpt>
      <trkpt lat="49.34536" lon="1.09349">
        <ele>14.9</ele>
        <time>2019-11-11T10:59:31Z</time>
      </trkpt>
      <trkpt lat="49.34537" lon="1.09345">
        <ele>15</ele>
        <time>2019-11-11T10:59:32Z</time>
      </trkpt>
      <trkpt lat="49.34539" lon="1.09341">
        <ele>15</ele>
        <time>2019-11-11T10:59:33Z</time>
      </trkpt>
      <trkpt lat="49.3454" lon="1.09337">
        <ele>15</ele>
        <time>2019-11-11T10:59:34Z</time>
      </trkpt>
      <trkpt lat="49.34542" lon="1.09333">
        <ele>15.8</ele>
        <time>2019-11-11T10:59:35Z</time>
      </trkpt>
      <trkpt lat="49.34543" lon="1.09329">
        <ele>15.8</ele>
        <time>2019-11-11T10:59:36Z</time>
      </trkpt>
      <trkpt lat="49.34545" lon="1.09325">
        <ele>15.9</ele>
        <time>2019-11-11T10:59:37Z</time>
      </trkpt>
      <trkpt lat="49.34547" lon="1.0932">
        <ele>15.9</ele>
        <time>2019-11-11T10:59:38Z</time>
      </trkpt>
      <trkpt lat="49.34549" lon="1.09315">
        <ele>15.9</ele>
        <time>2019-11-11T10:59:39Z</time>
      </trkpt>
      <trkpt lat="49.34551" lon="1.0931">
        <ele>16</ele>
        <time>2019-11-11T10:59:40Z</time>
      </trkpt>
      <trkpt lat="49.34554" lon="1.09305">
        <ele>16</ele>
        <time>2019-11-11T10:59:41Z</time>
      </trkpt>
      <trkpt lat="49.34556" lon="1.093">
        <ele>16</ele>
        <time>2019-11-11T10:59:42Z</time>
      </trkpt>
      <trkpt lat="49.34559" lon="1.09296">
        <ele>16.1</ele>
        <time>2019-11-11T10:59:43Z</time>
      </trkpt>
      <trkpt lat="49.34562" lon="1.09291">
        <ele>16.1</ele>
        <time>2019-11-11T10:59:44Z</time>
      </trkpt>
      <trkpt lat="49.34565" lon="1.09287">
        <ele>16.2</ele>
        <time>2019-11-11T10:59:45Z</time>
      </trkpt>
      <trkpt lat="49.34568" lon="1.09283">
        <ele>16.2</ele>
        <time>2019-11-11T10:59:46Z</time>
      </trkpt>
      <trkpt lat="49.34571" lon="1.09279">
        <ele>16.3</ele>
        <time>2019-11-11T10:59:47Z</time>
      </trkpt>
      <trkpt lat="49.34574" lon="1.09275">
        <ele>16.3</ele>
        <time>2019-11-11T10:59:48Z</time>
      </trkpt>
      <trkpt lat="49.34577" lon="1.09271">
        <ele>16.4</ele>
        <time>2019-11-11T10:59:49Z</time>
      </trkpt>
      <trkpt lat="49.34581" lon="1.09268">
        <ele>16.5</ele>
        <time>2019-11-11T10:59:50Z</time>
      </trkpt>
      <trkpt lat="49.34584" lon="1.09264">
        <ele>17.3</ele>
        <time>2019-11-11T10:59:51Z</time>
      </trkpt>
      <trkpt lat="49.34588" lon="1.09261">
        <ele>17.3</ele>
        <time>2019-11-11T10:59:52Z</time>
      </trkpt>
      <trkpt lat="49.34591" lon="1.09258">
        <ele>17.3</ele>
        <time>2019-11-11T10:59:53Z</time>
      </trkpt>
      <trkpt lat="49.34595" lon="1.09255">
        <ele>17.3</ele>
        <time>2019-11-11T10:59:54Z</time>
      </trkpt>
      <trkpt lat="49.34599" lon="1.09252">
        <ele>17.4</ele>
        <time>2019-11-11T10:59:55Z</time>
      </trkpt>
      <trkpt lat="49.34603" lon="1.09249">
        <ele>17.5</ele>
        <time>2019-11-11T10:59:56Z</time>
      </trkpt>
      <trkpt lat="49.34607" lon="1.09246">
        <ele>17.5</ele>
        <time>2019-11-11T10:59:57Z</time>
      </trkpt>
      <trkpt lat="49.34611" lon="1.09243">
        <ele>17.6</ele>
        <time>2019-11-11T10:59:58Z</time>
      </trkpt>
      <trkpt lat="49.34614" lon="1.0924">
        <ele>17.7</ele>
        <time>2019-11-11T10:59:59Z</time>
      </trkpt>
      <trkpt lat="49.34618" lon="1.09237">
        <ele>17.7</ele>
        <time>2019-11-11T11:00:00Z</time>
      </trkpt>
      <trkpt lat="49.34622" lon="1.09235">
        <ele>17.8</ele>
        <time>2019-11-11T11:00:01Z</time>
      </trkpt>
      <trkpt lat="49.34626" lon="1.09234">
        <ele>17.8</ele>
        <time>2019-11-11T11:00:02Z</time>
      </trkpt>
      <trkpt lat="49.3463" lon="1.09233">
        <ele>17.9</ele>
        <time>2019-11-11T11:00:03Z</time>
      </trkpt>
      <trkpt lat="49.34634" lon="1.09232">
        <ele>17.9</ele>
        <time>2019-11-11T11:00:04Z</time>
      </trkpt>
      <trkpt lat="49.34638" lon="1.0923">
        <ele>18</ele>
        <time>2019-11-11T11:00:05Z</time>
      </trkpt>
      <trkpt lat="49.34642" lon="1.09227">
        <ele>18</ele>
        <time>2019-11-11T11:00:06Z</time>
      </trkpt>
      <trkpt lat="49.34646" lon="1.09224">
        <ele>18</ele>
        <time>2019-11-11T11:00:07Z</time>
      </trkpt>
      <trkpt lat="49.3465" lon="1.09221">
        <ele>18.1</ele>
        <time>2019-11-11T11:00:08Z</time>
      </trkpt>
      <trkpt lat="49.34653" lon="1.09218">
        <ele>18.1</ele>
        <time>2019-11-11T11:00:09Z</time>
      </trkpt>
      <trkpt lat="49.34657" lon="1.09215">
        <ele>18.1</ele>
        <time>2019-11-11T11:00:10Z</time>
      </trkpt>
      <trkpt lat="49.34661" lon="1.09212">
        <ele>18</ele>
        <time>2019-11-11T11:00:11Z</time>
      </trkpt>
      <trkpt lat="49.34664" lon="1.09209">
        <ele>18</ele>
        <time>2019-11-11T11:00:12Z</time>
      </trkpt>
      <trkpt lat="49.34668" lon="1.09206">
        <ele>18.3</ele>
        <time>2019-11-11T11:00:13Z</time>
      </trkpt>
      <trkpt lat="49.34672" lon="1.09203">
        <ele>18.3</ele>
        <time>2019-11-11T11:00:14Z</time>
      </trkpt>
      <trkpt lat="49.34675" lon="1.092">
        <ele>18.3</ele>
        <time>2019-11-11T11:00:15Z</time>
      </trkpt>
      <trkpt lat="49.34679" lon="1.09197">
        <ele>18.2</ele>
        <time>2019-11-11T11:00:16Z</time>
      </trkpt>
      <trkpt lat="49.34683" lon="1.09194">
        <ele>18.2</ele>
        <time>2019-11-11T11:00:17Z</time>
      </trkpt>
      <trkpt lat="49.34686" lon="1.09191">
        <ele>18.2</ele>
        <time>2019-11-11T11:00:18Z</time>
      </trkpt>
      <trkpt lat="49.3469" lon="1.09188">
        <ele>18.1</ele>
        <time>2019-11-11T11:00:19Z</time>
      </trkpt>
      <trkpt lat="49.34694" lon="1.09184">
        <ele>18.1</ele>
        <time>2019-11-11T11:00:20Z</time>
      </trkpt>
      <trkpt lat="49.34698" lon="1.09181">
        <ele>18.1</ele>
        <time>2019-11-11T11:00:21Z</time>
      </trkpt>
      <trkpt lat="49.34701" lon="1.09177">
        <ele>18.1</ele>
        <time>2019-11-11T11:00:22Z</time>
      </trkpt>
      <trkpt lat="49.34705" lon="1.09173">
        <ele>18</ele>
        <time>2019-11-11T11:00:23Z</time>
      </trkpt>
      <trkpt lat="49.34708" lon="1.09169">
        <ele>18</ele>
        <time>2019-11-11T11:00:24Z</time>
      </trkpt>
      <trkpt lat="49.34712" lon="1.09165">
        <ele>17.6</ele>
        <time>2019-11-11T11:00:25Z</time>
      </trkpt>
      <trkpt lat="49.34715" lon="1.09161">
        <ele>17.6</ele>
        <time>2019-11-11T11:00:26Z</time>
      </trkpt>
      <trkpt lat="49.34718" lon="1.09157">
        <ele>17.6</ele>
        <time>2019-11-11T11:00:27Z</time>
      </trkpt>
      <trkpt lat="49.34722" lon="1.09152">
        <ele>17.6</ele>
        <time>2019-11-11T11:00:28Z</time>
      </trkpt>
      <trkpt lat="49.34725" lon="1.09148">
        <ele>17.6</ele>
        <time>2019-11-11T11:00:29Z</time>
      </trkpt>
      <trkpt lat="49.34728" lon="1.09143">
        <ele>17.6</ele>
        <time>2019-11-11T11:00:30Z</time>
      </trkpt>
      <trkpt lat="49.34731" lon="1.09138">
        <ele>17.6</ele>
        <time>2019-11-11T11:00:31Z</time>
      </trkpt>
      <trkpt lat="49.34734" lon="1.09133">
        <ele>17.6</ele>
        <time>2019-11-11T11:00:32Z</time>
      </trkpt>
      <trkpt lat="49.34736" lon="1.09128">
        <ele>17.7</ele>
        <time>2019-11-11T11:00:33Z</time>
      </trkpt>
      <trkpt lat="49.34739" lon="1.09122">
        <ele>17.7</ele>
        <time>2019-11-11T11:00:34Z</time>
      </trkpt>
      <trkpt lat="49.34742" lon="1.09117">
        <ele>17.7</ele>
        <time>2019-11-11T11:00:35Z</time>
      </trkpt>
      <trkpt lat="49.34745" lon="1.09112">
        <ele>17.8</ele>
        <time>2019-11-11T11:00:36Z</time>
      </trkpt>
      <trkpt lat="49.34748" lon="1.09106">
        <ele>17.8</ele>
        <time>2019-11-11T11:00:37Z</time>
      </trkpt>
      <trkpt lat="49.34751" lon="1.09101">
        <ele>18</ele>
        <time>2019-11-11T11:00:38Z</time>
      </trkpt>
      <trkpt lat="49.34753" lon="1.09096">
        <ele>18</ele>
        <time>2019-11-11T11:00:39Z</time>
      </trkpt>
      <trkpt lat="49.34756" lon="1.09091">
        <ele>18</ele>
        <time>2019-11-11T11:00:40Z</time>
      </trkpt>
      <trkpt lat="49.34759" lon="1.09086">
        <ele>18</ele>
        <time>2019-11-11T11:00:41Z</time>
      </trkpt>
      <trkpt lat="49.34762" lon="1.09081">
        <ele>18.3</ele>
        <time>2019-11-11T11:00:42Z</time>
      </trkpt>
      <trkpt lat="49.34765" lon="1.09075">
        <ele>18.4</ele>
        <time>2019-11-11T11:00:43Z</time>
      </trkpt>
      <trkpt lat="49.34767" lon="1.0907">
        <ele>18.5</ele>
        <time>2019-11-11T11:00:44Z</time>
      </trkpt>
      <trkpt lat="49.3477" lon="1.09065">
        <ele>18.5</ele>
        <time>2019-11-11T11:00:45Z</time>
      </trkpt>
      <trkpt lat="49.34773" lon="1.09061">
        <ele>18.6</ele>
        <time>2019-11-11T11:00:46Z</time>
      </trkpt>
      <trkpt lat="49.34775" lon="1.09056">
        <ele>18.6</ele>
        <time>2019-11-11T11:00:47Z</time>
      </trkpt>
      <trkpt lat="49.34778" lon="1.09051">
        <ele>18.7</ele>
        <time>2019-11-11T11:00:48Z</time>
      </trkpt>
      <trkpt lat="49.34781" lon="1.09046">
        <ele>18.7</ele>
        <time>2019-11-11T11:00:49Z</time>
      </trkpt>
      <trkpt lat="49.34783" lon="1.09041">
        <ele>18.7</ele>
        <time>2019-11-11T11:00:50Z</time>
      </trkpt>
      <trkpt lat="49.34785" lon="1.09036">
        <ele>18.8</ele>
        <time>2019-11-11T11:00:51Z</time>
      </trkpt>
      <trkpt lat="49.34788" lon="1.09031">
        <ele>18.8</ele>
        <time>2019-11-11T11:00:52Z</time>
      </trkpt>
      <trkpt lat="49.34791" lon="1.09026">
        <ele>18.8</ele>
        <time>2019-11-11T11:00:53Z</time>
      </trkpt>
      <trkpt lat="49.34793" lon="1.09021">
        <ele>18.8</ele>
        <time>2019-11-11T11:00:54Z</time>
      </trkpt>
      <trkpt lat="49.34796" lon="1.09017">
        <ele>18.8</ele>
        <time>2019-11-11T11:00:55Z</time>
      </trkpt>
      <trkpt lat="49.34798" lon="1.09012">
        <ele>18.8</ele>
        <time>2019-11-11T11:00:56Z</time>
      </trkpt>
      <trkpt lat="49.34801" lon="1.09007">
        <ele>18.8</ele>
        <time>2019-11-11T11:00:57Z</time>
      </trkpt>
      <trkpt lat="49.34804" lon="1.09002">
        <ele>18.9</ele>
        <time>2019-11-11T11:00:58Z</time>
      </trkpt>
      <trkpt lat="49.34806" lon="1.08997">
        <ele>19.4</ele>
        <time>2019-11-11T11:00:59Z</time>
      </trkpt>
      <trkpt lat="49.34809" lon="1.08992">
        <ele>19.5</ele>
        <time>2019-11-11T11:01:00Z</time>
      </trkpt>
      <trkpt lat="49.34811" lon="1.08987">
        <ele>19.5</ele>
        <time>2019-11-11T11:01:01Z</time>
      </trkpt>
      <trkpt lat="49.34814" lon="1.08982">
        <ele>19.5</ele>
        <time>2019-11-11T11:01:02Z</time>
      </trkpt>
      <trkpt lat="49.34817" lon="1.08977">
        <ele>19.6</ele>
        <time>2019-11-11T11:01:03Z</time>
      </trkpt>
      <trkpt lat="49.34819" lon="1.08973">
        <ele>19.6</ele>
        <time>2019-11-11T11:01:04Z</time>
      </trkpt>
      <trkpt lat="49.34822" lon="1.08968">
        <ele>19.7</ele>
        <time>2019-11-11T11:01:05Z</time>
      </trkpt>
      <trkpt lat="49.34824" lon="1.08963">
        <ele>19.8</ele>
        <time>2019-11-11T11:01:06Z</time>
      </trkpt>
      <trkpt lat="49.34827" lon="1.08959">
        <ele>19.8</ele>
        <time>2019-11-11T11:01:07Z</time>
      </trkpt>
      <trkpt lat="49.34829" lon="1.08954">
        <ele>19.9</ele>
        <time>2019-11-11T11:01:08Z</time>
      </trkpt>
      <trkpt lat="49.34832" lon="1.08949">
        <ele>20</ele>
        <time>2019-11-11T11:01:09Z</time>
      </trkpt>
      <trkpt lat="49.34834" lon="1.08944">
        <ele>20.1</ele>
        <time>2019-11-11T11:01:10Z</time>
      </trkpt>
      <trkpt lat="49.34837" lon="1.0894">
        <ele>20.2</ele>
        <time>2019-11-11T11:01:11Z</time>
      </trkpt>
      <trkpt lat="49.34839" lon="1.08935">
        <ele>20.3</ele>
        <time>2019-11-11T11:01:12Z</time>
      </trkpt>
      <trkpt lat="49.34842" lon="1.0893">
        <ele>20.4</ele>
        <time>2019-11-11T11:01:13Z</time>
      </trkpt>
      <trkpt lat="49.34844" lon="1.08925">
        <ele>20.4</ele>
        <time>2019-11-11T11:01:14Z</time>
      </trkpt>
      <trkpt lat="49.34847" lon="1.08921">
        <ele>20.4</ele>
        <time>2019-11-11T11:01:15Z</time>
      </trkpt>
      <trkpt lat="49.3485" lon="1.08916">
        <ele>20.7</ele>
        <time>2019-11-11T11:01:16Z</time>
      </trkpt>
      <trkpt lat="49.34852" lon="1.08911">
        <ele>20.7</ele>
        <time>2019-11-11T11:01:17Z</time>
      </trkpt>
      <trkpt lat="49.34855" lon="1.08906">
        <ele>20.6</ele>
        <time>2019-11-11T11:01:18Z</time>
      </trkpt>
      <trkpt lat="49.34857" lon="1.08902">
        <ele>20.6</ele>
        <time>2019-11-11T11:01:19Z</time>
      </trkpt>
      <trkpt lat="49.3486" lon="1.08897">
        <ele>20.5</ele>
        <time>2019-11-11T11:01:20Z</time>
      </trkpt>
      <trkpt lat="49.34863" lon="1.08892">
        <ele>20.5</ele>
        <time>2019-11-11T11:01:21Z</time>
      </trkpt>
      <trkpt lat="49.34865" lon="1.08887">
        <ele>20.5</ele>
        <time>2019-11-11T11:01:22Z</time>
      </trkpt>
      <trkpt lat="49.34868" lon="1.08882">
        <ele>20.5</ele>
        <time>2019-11-11T11:01:23Z</time>
      </trkpt>
      <trkpt lat="49.3487" lon="1.08877">
        <ele>20.5</ele>
        <time>2019-11-11T11:01:24Z</time>
      </trkpt>
      <trkpt lat="49.34873" lon="1.08873">
        <ele>20.5</ele>
        <time>2019-11-11T11:01:25Z</time>
      </trkpt>
      <trkpt lat="49.34876" lon="1.08868">
        <ele>20.5</ele>
        <time>2019-11-11T11:01:26Z</time>
      </trkpt>
      <trkpt lat="49.34878" lon="1.08863">
        <ele>20.6</ele>
        <time>2019-11-11T11:01:27Z</time>
      </trkpt>
      <trkpt lat="49.34881" lon="1.08858">
        <ele>20.6</ele>
        <time>2019-11-11T11:01:28Z</time>
      </trkpt>
      <trkpt lat="49.34884" lon="1.08853">
        <ele>20.6</ele>
        <time>2019-11-11T11:01:29Z</time>
      </trkpt>
      <trkpt lat="49.34886" lon="1.08848">
        <ele>20.6</ele>
        <time>2019-11-11T11:01:30Z</time>
      </trkpt>
      <trkpt lat="49.34889" lon="1.08843">
        <ele>20.7</ele>
        <time>2019-11-11T11:01:31Z</time>
      </trkpt>
      <trkpt lat="49.34891" lon="1.08839">
        <ele>20.7</ele>
        <time>2019-11-11T11:01:32Z</time>
      </trkpt>
      <trkpt lat="49.34894" lon="1.08834">
        <ele>20.7</ele>
        <time>2019-11-11T11:01:33Z</time>
      </trkpt>
      <trkpt lat="49.34896" lon="1.08829">
        <ele>21.4</ele>
        <time>2019-11-11T11:01:34Z</time>
      </trkpt>
      <trkpt lat="49.34899" lon="1.08824">
        <ele>21.4</ele>
        <time>2019-11-11T11:01:35Z</time>
      </trkpt>
      <trkpt lat="49.34902" lon="1.08819">
        <ele>21.4</ele>
        <time>2019-11-11T11:01:36Z</time>
      </trkpt>
      <trkpt lat="49.34904" lon="1.08814">
        <ele>21.5</ele>
        <time>2019-11-11T11:01:37Z</time>
      </trkpt>
      <trkpt lat="49.34907" lon="1.0881">
        <ele>21.5</ele>
        <time>2019-11-11T11:01:38Z</time>
      </trkpt>
      <trkpt lat="49.34909" lon="1.08805">
        <ele>21.6</ele>
        <time>2019-11-11T11:01:39Z</time>
      </trkpt>
      <trkpt lat="49.34912" lon="1.088">
        <ele>21.7</ele>
        <time>2019-11-11T11:01:40Z</time>
      </trkpt>
      <trkpt lat="49.34915" lon="1.08795">
        <ele>21.8</ele>
        <time>2019-11-11T11:01:41Z</time>
      </trkpt>
      <trkpt lat="49.34917" lon="1.0879">
        <ele>22.3</ele>
        <time>2019-11-11T11:01:42Z</time>
      </trkpt>
      <trkpt lat="49.3492" lon="1.08785">
        <ele>22.4</ele>
        <time>2019-11-11T11:01:43Z</time>
      </trkpt>
      <trkpt lat="49.34922" lon="1.0878">
        <ele>22.5</ele>
        <time>2019-11-11T11:01:44Z</time>
      </trkpt>
      <trkpt lat="49.34925" lon="1.08776">
        <ele>22.6</ele>
        <time>2019-11-11T11:01:45Z</time>
      </trkpt>
      <trkpt lat="49.34928" lon="1.08771">
        <ele>22.6</ele>
        <time>2019-11-11T11:01:46Z</time>
      </trkpt>
      <trkpt lat="49.3493" lon="1.08767">
        <ele>22.7</ele>
        <time>2019-11-11T11:01:47Z</time>
      </trkpt>
      <trkpt lat="49.34932" lon="1.08763">
        <ele>22.7</ele>
        <time>2019-11-11T11:01:48Z</time>
      </trkpt>
      <trkpt lat="49.34934" lon="1.08759">
        <ele>22.7</ele>
        <time>2019-11-11T11:01:49Z</time>
      </trkpt>
      <trkpt lat="49.34937" lon="1.08755">
        <ele>22.7</ele>
        <time>2019-11-11T11:01:50Z</time>
      </trkpt>
      <trkpt lat="49.34939" lon="1.0875">
        <ele>23.9</ele>
        <time>2019-11-11T11:01:51Z</time>
      </trkpt>
      <trkpt lat="49.34942" lon="1.08746">
        <ele>24</ele>
        <time>2019-11-11T11:01:52Z</time>
      </trkpt>
      <trkpt lat="49.34944" lon="1.08741">
        <ele>24.1</ele>
        <time>2019-11-11T11:01:53Z</time>
      </trkpt>
      <trkpt lat="49.34946" lon="1.08736">
        <ele>24.2</ele>
        <time>2019-11-11T11:01:54Z</time>
      </trkpt>
      <trkpt lat="49.34949" lon="1.08732">
        <ele>24.3</ele>
        <time>2019-11-11T11:01:55Z</time>
      </trkpt>
      <trkpt lat="49.34951" lon="1.08727">
        <ele>24.4</ele>
        <time>2019-11-11T11:01:56Z</time>
      </trkpt>
      <trkpt lat="49.34953" lon="1.08723">
        <ele>24.4</ele>
        <time>2019-11-11T11:01:57Z</time>
      </trkpt>
      <trkpt lat="49.34956" lon="1.08719">
        <ele>24.5</ele>
        <time>2019-11-11T11:01:58Z</time>
      </trkpt>
      <trkpt lat="49.34958" lon="1.08715">
        <ele>24.6</ele>
        <time>2019-11-11T11:01:59Z</time>
      </trkpt>
      <trkpt lat="49.3496" lon="1.08711">
        <ele>24.7</ele>
        <time>2019-11-11T11:02:00Z</time>
      </trkpt>
      <trkpt lat="49.34962" lon="1.08708">
        <ele>24.8</ele>
        <time>2019-11-11T11:02:01Z</time>
      </trkpt>
      <trkpt lat="49.34962" lon="1.08706">
        <ele>24.8</ele>
        <time>2019-11-11T11:02:02Z</time>
      </trkpt>
      <trkpt lat="49.34962" lon="1.08706">
        <ele>24.8</ele>
        <time>2019-11-11T11:02:03Z</time>
      </trkpt>
      <trkpt lat="49.34963" lon="1.08706">
        <ele>24.8</ele>
        <time>2019-11-11T11:02:04Z</time>
      </trkpt>
      <trkpt lat="49.34963" lon="1.08706">
        <ele>24.8</ele>
        <time>2019-11-11T11:02:05Z</time>
      </trkpt>
      <trkpt lat="49.34966" lon="1.08703">
        <ele>24.9</ele>
        <time>2019-11-11T11:03:11Z</time>
      </trkpt>
      <trkpt lat="49.34967" lon="1.087">
        <ele>25</ele>
        <time>2019-11-11T11:03:12Z</time>
      </trkpt>
      <trkpt lat="49.34969" lon="1.08697">
        <ele>25</ele>
        <time>2019-11-11T11:03:13Z</time>
      </trkpt>
      <trkpt lat="49.3497" lon="1.08694">
        <ele>25.1</ele>
        <time>2019-11-11T11:03:14Z</time>
      </trkpt>
      <trkpt lat="49.34972" lon="1.0869">
        <ele>25.2</ele>
        <time>2019-11-11T11:03:15Z</time>
      </trkpt>
      <trkpt lat="49.34974" lon="1.08686">
        <ele>25.4</ele>
        <time>2019-11-11T11:03:16Z</time>
      </trkpt>
      <trkpt lat="49.34976" lon="1.08683">
        <ele>25.5</ele>
        <time>2019-11-11T11:03:17Z</time>
      </trkpt>
      <trkpt lat="49.34978" lon="1.08679">
        <ele>25.6</ele>
        <time>2019-11-11T11:03:18Z</time>
      </trkpt>
      <trkpt lat="49.3498" lon="1.08675">
        <ele>25.7</ele>
        <time>2019-11-11T11:03:19Z</time>
      </trkpt>
      <trkpt lat="49.3498" lon="1.0867">
        <ele>25.8</ele>
        <time>2019-11-11T11:03:20Z</time>
      </trkpt>
      <trkpt lat="49.34981" lon="1.08666">
        <ele>27.1</ele>
        <time>2019-11-11T11:03:21Z</time>
      </trkpt>
      <trkpt lat="49.34982" lon="1.08661">
        <ele>27.1</ele>
        <time>2019-11-11T11:03:22Z</time>
      </trkpt>
      <trkpt lat="49.34984" lon="1.08657">
        <ele>27.2</ele>
        <time>2019-11-11T11:03:23Z</time>
      </trkpt>
      <trkpt lat="49.34986" lon="1.08653">
        <ele>27.2</ele>
        <time>2019-11-11T11:03:24Z</time>
      </trkpt>
      <trkpt lat="49.34988" lon="1.08649">
        <ele>27.2</ele>
        <time>2019-11-11T11:03:25Z</time>
      </trkpt>
      <trkpt lat="49.3499" lon="1.08645">
        <ele>27.3</ele>
        <time>2019-11-11T11:03:26Z</time>
      </trkpt>
      <trkpt lat="49.34992" lon="1.08642">
        <ele>27.4</ele>
        <time>2019-11-11T11:03:27Z</time>
      </trkpt>
      <trkpt lat="49.34994" lon="1.08638">
        <ele>27.4</ele>
        <time>2019-11-11T11:03:28Z</time>
      </trkpt>
      <trkpt lat="49.34996" lon="1.08634">
        <ele>27.5</ele>
        <time>2019-11-11T11:03:29Z</time>
      </trkpt>
      <trkpt lat="49.34998" lon="1.0863">
        <ele>27.6</ele>
        <time>2019-11-11T11:03:30Z</time>
      </trkpt>
      <trkpt lat="49.35" lon="1.08627">
        <ele>30.3</ele>
        <time>2019-11-11T11:03:31Z</time>
      </trkpt>
      <trkpt lat="49.35002" lon="1.08623">
        <ele>30.4</ele>
        <time>2019-11-11T11:03:32Z</time>
      </trkpt>
      <trkpt lat="49.35004" lon="1.08619">
        <ele>30.6</ele>
        <time>2019-11-11T11:03:33Z</time>
      </trkpt>
      <trkpt lat="49.35005" lon="1.08615">
        <ele>30.7</ele>
        <time>2019-11-11T11:03:34Z</time>
      </trkpt>
      <trkpt lat="49.35007" lon="1.08611">
        <ele>30.7</ele>
        <time>2019-11-11T11:03:35Z</time>
      </trkpt>
      <trkpt lat="49.35009" lon="1.08608">
        <ele>30.8</ele>
        <time>2019-11-11T11:03:36Z</time>
      </trkpt>
      <trkpt lat="49.35011" lon="1.08604">
        <ele>30.8</ele>
        <time>2019-11-11T11:03:37Z</time>
      </trkpt>
      <trkpt lat="49.35013" lon="1.086">
        <ele>30.9</ele>
        <time>2019-11-11T11:03:38Z</time>
      </trkpt>
      <trkpt lat="49.35014" lon="1.08596">
        <ele>30.9</ele>
        <time>2019-11-11T11:03:39Z</time>
      </trkpt>
      <trkpt lat="49.35016" lon="1.08592">
        <ele>31</ele>
        <time>2019-11-11T11:03:40Z</time>
      </trkpt>
      <trkpt lat="49.35018" lon="1.08588">
        <ele>31</ele>
        <time>2019-11-11T11:03:41Z</time>
      </trkpt>
      <trkpt lat="49.35019" lon="1.08584">
        <ele>31.1</ele>
        <time>2019-11-11T11:03:42Z</time>
      </trkpt>
      <trkpt lat="49.35021" lon="1.0858">
        <ele>33.3</ele>
        <time>2019-11-11T11:03:43Z</time>
      </trkpt>
      <trkpt lat="49.35023" lon="1.08576">
        <ele>33.6</ele>
        <time>2019-11-11T11:03:44Z</time>
      </trkpt>
      <trkpt lat="49.35025" lon="1.08573">
        <ele>33.9</ele>
        <time>2019-11-11T11:03:45Z</time>
      </trkpt>
      <trkpt lat="49.35027" lon="1.08568">
        <ele>34.2</ele>
        <time>2019-11-11T11:03:46Z</time>
      </trkpt>
      <trkpt lat="49.35029" lon="1.08564">
        <ele>34.5</ele>
        <time>2019-11-11T11:03:47Z</time>
      </trkpt>
      <trkpt lat="49.3503" lon="1.0856">
        <ele>34.7</ele>
        <time>2019-11-11T11:03:48Z</time>
      </trkpt>
      <trkpt lat="49.35032" lon="1.08556">
        <ele>34.9</ele>
        <time>2019-11-11T11:03:49Z</time>
      </trkpt>
      <trkpt lat="49.35033" lon="1.08552">
        <ele>35.1</ele>
        <time>2019-11-11T11:03:50Z</time>
      </trkpt>
      <trkpt lat="49.35035" lon="1.08549">
        <ele>35.3</ele>
        <time>2019-11-11T11:03:51Z</time>
      </trkpt>
      <trkpt lat="49.35037" lon="1.08544">
        <ele>35.5</ele>
        <time>2019-11-11T11:03:52Z</time>
      </trkpt>
      <trkpt lat="49.35038" lon="1.08541">
        <ele>35.6</ele>
        <time>2019-11-11T11:03:53Z</time>
      </trkpt>
      <trkpt lat="49.35039" lon="1.08537">
        <ele>35.7</ele>
        <time>2019-11-11T11:03:54Z</time>
      </trkpt>
      <trkpt lat="49.35041" lon="1.08533">
        <ele>35.9</ele>
        <time>2019-11-11T11:03:55Z</time>
      </trkpt>
      <trkpt lat="49.35042" lon="1.08529">
        <ele>36</ele>
        <time>2019-11-11T11:03:56Z</time>
      </trkpt>
      <trkpt lat="49.35044" lon="1.08525">
        <ele>36.2</ele>
        <time>2019-11-11T11:03:57Z</time>
      </trkpt>
      <trkpt lat="49.35045" lon="1.08521">
        <ele>36.4</ele>
        <time>2019-11-11T11:03:58Z</time>
      </trkpt>
      <trkpt lat="49.35046" lon="1.08518">
        <ele>36.5</ele>
        <time>2019-11-11T11:03:59Z</time>
      </trkpt>
      <trkpt lat="49.35047" lon="1.08514">
        <ele>36.7</ele>
        <time>2019-11-11T11:04:00Z</time>
      </trkpt>
      <trkpt lat="49.35049" lon="1.0851">
        <ele>36.9</ele>
        <time>2019-11-11T11:04:01Z</time>
      </trkpt>
      <trkpt lat="49.35051" lon="1.08506">
        <ele>37.1</ele>
        <time>2019-11-11T11:04:02Z</time>
      </trkpt>
      <trkpt lat="49.35052" lon="1.08503">
        <ele>37.3</ele>
        <time>2019-11-11T11:04:03Z</time>
      </trkpt>
      <trkpt lat="49.35054" lon="1.085">
        <ele>38.7</ele>
        <time>2019-11-11T11:04:04Z</time>
      </trkpt>
      <trkpt lat="49.35055" lon="1.08496">
        <ele>38.7</ele>
        <time>2019-11-11T11:04:05Z</time>
      </trkpt>
      <trkpt lat="49.35056" lon="1.08492">
        <ele>38.8</ele>
        <time>2019-11-11T11:04:06Z</time>
      </trkpt>
      <trkpt lat="49.35058" lon="1.08488">
        <ele>38.9</ele>
        <time>2019-11-11T11:04:07Z</time>
      </trkpt>
      <trkpt lat="49.35059" lon="1.08484">
        <ele>38.9</ele>
        <time>2019-11-11T11:04:08Z</time>
      </trkpt>
      <trkpt lat="49.3506" lon="1.08481">
        <ele>38.9</ele>
        <time>2019-11-11T11:04:09Z</time>
      </trkpt>
      <trkpt lat="49.35061" lon="1.08477">
        <ele>38.9</ele>
        <time>2019-11-11T11:04:10Z</time>
      </trkpt>
      <trkpt lat="49.35063" lon="1.08473">
        <ele>38.9</ele>
        <time>2019-11-11T11:04:11Z</time>
      </trkpt>
      <trkpt lat="49.35064" lon="1.0847">
        <ele>38.9</ele>
        <time>2019-11-11T11:04:12Z</time>
      </trkpt>
      <trkpt lat="49.35065" lon="1.08466">
        <ele>38.9</ele>
        <time>2019-11-11T11:04:13Z</time>
      </trkpt>
      <trkpt lat="49.35067" lon="1.08462">
        <ele>38.9</ele>
        <time>2019-11-11T11:04:14Z</time>
      </trkpt>
      <trkpt lat="49.35069" lon="1.08459">
        <ele>39</ele>
        <time>2019-11-11T11:04:15Z</time>
      </trkpt>
      <trkpt lat="49.3507" lon="1.08455">
        <ele>39</ele>
        <time>2019-11-11T11:04:16Z</time>
      </trkpt>
      <trkpt lat="49.35071" lon="1.08452">
        <ele>39.1</ele>
        <time>2019-11-11T11:04:17Z</time>
      </trkpt>
      <trkpt lat="49.35073" lon="1.08448">
        <ele>39.2</ele>
        <time>2019-11-11T11:04:18Z</time>
      </trkpt>
      <trkpt lat="49.35074" lon="1.08445">
        <ele>39.3</ele>
        <time>2019-11-11T11:04:19Z</time>
      </trkpt>
      <trkpt lat="49.35076" lon="1.08442">
        <ele>39.5</ele>
        <time>2019-11-11T11:04:20Z</time>
      </trkpt>
      <trkpt lat="49.35077" lon="1.08439">
        <ele>39.7</ele>
        <time>2019-11-11T11:04:21Z</time>
      </trkpt>
      <trkpt lat="49.35078" lon="1.08435">
        <ele>39.9</ele>
        <time>2019-11-11T11:04:22Z</time>
      </trkpt>
      <trkpt lat="49.3508" lon="1.08432">
        <ele>40.2</ele>
        <time>2019-11-11T11:04:23Z</time>
      </trkpt>
      <trkpt lat="49.35081" lon="1.08429">
        <ele>40.4</ele>
        <time>2019-11-11T11:04:24Z</time>
      </trkpt>
      <trkpt lat="49.35082" lon="1.08425">
        <ele>40.8</ele>
        <time>2019-11-11T11:04:25Z</time>
      </trkpt>
      <trkpt lat="49.35084" lon="1.08422">
        <ele>42.4</ele>
        <time>2019-11-11T11:04:26Z</time>
      </trkpt>
      <trkpt lat="49.35085" lon="1.08419">
        <ele>42.3</ele>
        <time>2019-11-11T11:04:27Z</time>
      </trkpt>
      <trkpt lat="49.35087" lon="1.08416">
        <ele>42.6</ele>
        <time>2019-11-11T11:04:28Z</time>
      </trkpt>
      <trkpt lat="49.35089" lon="1.08414">
        <ele>43</ele>
        <time>2019-11-11T11:04:29Z</time>
      </trkpt>
      <trkpt lat="49.35091" lon="1.08411">
        <ele>43.4</ele>
        <time>2019-11-11T11:04:30Z</time>
      </trkpt>
      <trkpt lat="49.35092" lon="1.08408">
        <ele>43.7</ele>
        <time>2019-11-11T11:04:31Z</time>
      </trkpt>
      <trkpt lat="49.35094" lon="1.08406">
        <ele>43.9</ele>
        <time>2019-11-11T11:04:32Z</time>
      </trkpt>
      <trkpt lat="49.35096" lon="1.08403">
        <ele>44.2</ele>
        <time>2019-11-11T11:04:33Z</time>
      </trkpt>
      <trkpt lat="49.35097" lon="1.084">
        <ele>44.5</ele>
        <time>2019-11-11T11:04:34Z</time>
      </trkpt>
      <trkpt lat="49.35099" lon="1.08397">
        <ele>44.7</ele>
        <time>2019-11-11T11:04:35Z</time>
      </trkpt>
      <trkpt lat="49.35101" lon="1.08394">
        <ele>44.9</ele>
        <time>2019-11-11T11:04:36Z</time>
      </trkpt>
      <trkpt lat="49.35102" lon="1.08391">
        <ele>45.1</ele>
        <time>2019-11-11T11:04:37Z</time>
      </trkpt>
      <trkpt lat="49.35104" lon="1.08388">
        <ele>45.3</ele>
        <time>2019-11-11T11:04:38Z</time>
      </trkpt>
      <trkpt lat="49.35106" lon="1.08386">
        <ele>45.4</ele>
        <time>2019-11-11T11:04:39Z</time>
      </trkpt>
      <trkpt lat="49.35108" lon="1.08383">
        <ele>45.5</ele>
        <time>2019-11-11T11:04:40Z</time>
      </trkpt>
      <trkpt lat="49.35109" lon="1.0838">
        <ele>45.6</ele>
        <time>2019-11-11T11:04:41Z</time>
      </trkpt>
      <trkpt lat="49.35111" lon="1.08378">
        <ele>45.7</ele>
        <time>2019-11-11T11:04:42Z</time>
      </trkpt>
      <trkpt lat="49.35113" lon="1.08375">
        <ele>45.9</ele>
        <time>2019-11-11T11:04:43Z</time>
      </trkpt>
      <trkpt lat="49.35115" lon="1.08372">
        <ele>46</ele>
        <time>2019-11-11T11:04:44Z</time>
      </trkpt>
      <trkpt lat="49.35116" lon="1.08369">
        <ele>46</ele>
        <time>2019-11-11T11:04:45Z</time>
      </trkpt>
      <trkpt lat="49.35118" lon="1.08366">
        <ele>46.2</ele>
        <time>2019-11-11T11:04:46Z</time>
      </trkpt>
      <trkpt lat="49.3512" lon="1.08363">
        <ele>46.3</ele>
        <time>2019-11-11T11:04:47Z</time>
      </trkpt>
      <trkpt lat="49.35121" lon="1.0836">
        <ele>46.3</ele>
        <time>2019-11-11T11:04:48Z</time>
      </trkpt>
      <trkpt lat="49.35123" lon="1.08358">
        <ele>46.4</ele>
        <time>2019-11-11T11:04:49Z</time>
      </trkpt>
      <trkpt lat="49.35125" lon="1.08355">
        <ele>46.5</ele>
        <time>2019-11-11T11:04:50Z</time>
      </trkpt>
      <trkpt lat="49.35127" lon="1.08353">
        <ele>46.6</ele>
        <time>2019-11-11T11:04:51Z</time>
      </trkpt>
      <trkpt lat="49.35129" lon="1.08351">
        <ele>46.7</ele>
        <time>2019-11-11T11:04:52Z</time>
      </trkpt>
      <trkpt lat="49.35131" lon="1.08348">
        <ele>46.9</ele>
        <time>2019-11-11T11:04:53Z</time>
      </trkpt>
      <trkpt lat="49.35133" lon="1.08346">
        <ele>47</ele>
        <time>2019-11-11T11:04:54Z</time>
      </trkpt>
      <trkpt lat="49.35134" lon="1.08343">
        <ele>47.1</ele>
        <time>2019-11-11T11:04:55Z</time>
      </trkpt>
      <trkpt lat="49.35136" lon="1.08341">
        <ele>47.2</ele>
        <time>2019-11-11T11:04:56Z</time>
      </trkpt>
      <trkpt lat="49.35139" lon="1.08338">
        <ele>47.4</ele>
        <time>2019-11-11T11:04:57Z</time>
      </trkpt>
      <trkpt lat="49.35141" lon="1.08336">
        <ele>47.6</ele>
        <time>2019-11-11T11:04:58Z</time>
      </trkpt>
      <trkpt lat="49.35143" lon="1.08333">
        <ele>48.6</ele>
        <time>2019-11-11T11:04:59Z</time>
      </trkpt>
      <trkpt lat="49.35145" lon="1.0833">
        <ele>48.7</ele>
        <time>2019-11-11T11:05:00Z</time>
      </trkpt>
      <trkpt lat="49.35147" lon="1.08327">
        <ele>48.8</ele>
        <time>2019-11-11T11:05:01Z</time>
      </trkpt>
      <trkpt lat="49.3515" lon="1.08324">
        <ele>48.9</ele>
        <time>2019-11-11T11:05:02Z</time>
      </trkpt>
      <trkpt lat="49.35152" lon="1.08321">
        <ele>49</ele>
        <time>2019-11-11T11:05:03Z</time>
      </trkpt>
      <trkpt lat="49.35155" lon="1.08318">
        <ele>49</ele>
        <time>2019-11-11T11:05:04Z</time>
      </trkpt>
      <trkpt lat="49.35157" lon="1.08316">
        <ele>49</ele>
        <time>2019-11-11T11:05:05Z</time>
      </trkpt>
      <trkpt lat="49.35159" lon="1.08313">
        <ele>49</ele>
        <time>2019-11-11T11:05:06Z</time>
      </trkpt>
      <trkpt lat="49.35161" lon="1.08311">
        <ele>49</ele>
        <time>2019-11-11T11:05:07Z</time>
      </trkpt>
      <trkpt lat="49.35163" lon="1.08308">
        <ele>49</ele>
        <time>2019-11-11T11:05:08Z</time>
      </trkpt>
      <trkpt lat="49.35165" lon="1.08306">
        <ele>49</ele>
        <time>2019-11-11T11:05:09Z</time>
      </trkpt>
      <trkpt lat="49.35168" lon="1.08303">
        <ele>51.1</ele>
        <time>2019-11-11T11:05:10Z</time>
      </trkpt>
      <trkpt lat="49.35171" lon="1.08299">
        <ele>51.2</ele>
        <time>2019-11-11T11:05:11Z</time>
      </trkpt>
      <trkpt lat="49.35173" lon="1.08296">
        <ele>51.3</ele>
        <time>2019-11-11T11:05:12Z</time>
      </trkpt>
      <trkpt lat="49.35176" lon="1.08293">
        <ele>51.3</ele>
        <time>2019-11-11T11:05:13Z</time>
      </trkpt>
      <trkpt lat="49.35178" lon="1.0829">
        <ele>51.4</ele>
        <time>2019-11-11T11:05:14Z</time>
      </trkpt>
      <trkpt lat="49.35181" lon="1.08287">
        <ele>51.4</ele>
        <time>2019-11-11T11:05:15Z</time>
      </trkpt>
      <trkpt lat="49.35183" lon="1.08284">
        <ele>51.5</ele>
        <time>2019-11-11T11:05:16Z</time>
      </trkpt>
      <trkpt lat="49.35186" lon="1.0828">
        <ele>51.5</ele>
        <time>2019-11-11T11:05:17Z</time>
      </trkpt>
      <trkpt lat="49.35188" lon="1.08276">
        <ele>51.6</ele>
        <time>2019-11-11T11:05:18Z</time>
      </trkpt>
      <trkpt lat="49.35191" lon="1.08272">
        <ele>51.6</ele>
        <time>2019-11-11T11:05:19Z</time>
      </trkpt>
      <trkpt lat="49.35194" lon="1.08269">
        <ele>51.6</ele>
        <time>2019-11-11T11:05:20Z</time>
      </trkpt>
      <trkpt lat="49.35197" lon="1.08266">
        <ele>51.6</ele>
        <time>2019-11-11T11:05:21Z</time>
      </trkpt>
      <trkpt lat="49.352" lon="1.08263">
        <ele>51.6</ele>
        <time>2019-11-11T11:05:22Z</time>
      </trkpt>
      <trkpt lat="49.35203" lon="1.08259">
        <ele>51.7</ele>
        <time>2019-11-11T11:05:23Z</time>
      </trkpt>
      <trkpt lat="49.35205" lon="1.08255">
        <ele>51.7</ele>
        <time>2019-11-11T11:05:24Z</time>
      </trkpt>
      <trkpt lat="49.35208" lon="1.08252">
        <ele>51.7</ele>
        <time>2019-11-11T11:05:25Z</time>
      </trkpt>
      <trkpt lat="49.35211" lon="1.08248">
        <ele>51.8</ele>
        <time>2019-11-11T11:05:26Z</time>
      </trkpt>
      <trkpt lat="49.35213" lon="1.08245">
        <ele>51.8</ele>
        <time>2019-11-11T11:05:27Z</time>
      </trkpt>
      <trkpt lat="49.35215" lon="1.08242">
        <ele>51.8</ele>
        <time>2019-11-11T11:05:28Z</time>
      </trkpt>
      <trkpt lat="49.35217" lon="1.08238">
        <ele>51.8</ele>
        <time>2019-11-11T11:05:29Z</time>
      </trkpt>
      <trkpt lat="49.3522" lon="1.08233">
        <ele>51.8</ele>
        <time>2019-11-11T11:05:30Z</time>
      </trkpt>
      <trkpt lat="49.35222" lon="1.0823">
        <ele>51.8</ele>
        <time>2019-11-11T11:05:31Z</time>
      </trkpt>
      <trkpt lat="49.35226" lon="1.08226">
        <ele>51.8</ele>
        <time>2019-11-11T11:05:32Z</time>
      </trkpt>
      <trkpt lat="49.35229" lon="1.08224">
        <ele>51.8</ele>
        <time>2019-11-11T11:05:33Z</time>
      </trkpt>
      <trkpt lat="49.35232" lon="1.08221">
        <ele>51.8</ele>
        <time>2019-11-11T11:05:34Z</time>
      </trkpt>
      <trkpt lat="49.35234" lon="1.08219">
        <ele>51.7</ele>
        <time>2019-11-11T11:05:35Z</time>
      </trkpt>
      <trkpt lat="49.35237" lon="1.08216">
        <ele>51.7</ele>
        <time>2019-11-11T11:05:36Z</time>
      </trkpt>
      <trkpt lat="49.35241" lon="1.08214">
        <ele>51.7</ele>
        <time>2019-11-11T11:05:37Z</time>
      </trkpt>
      <trkpt lat="49.35244" lon="1.0821">
        <ele>51.7</ele>
        <time>2019-11-11T11:05:38Z</time>
      </trkpt>
      <trkpt lat="49.35247" lon="1.08207">
        <ele>51.6</ele>
        <time>2019-11-11T11:05:39Z</time>
      </trkpt>
      <trkpt lat="49.3525" lon="1.08205">
        <ele>51.6</ele>
        <time>2019-11-11T11:05:40Z</time>
      </trkpt>
      <trkpt lat="49.35253" lon="1.08202">
        <ele>51.8</ele>
        <time>2019-11-11T11:05:41Z</time>
      </trkpt>
      <trkpt lat="49.35257" lon="1.08199">
        <ele>51.7</ele>
        <time>2019-11-11T11:05:42Z</time>
      </trkpt>
      <trkpt lat="49.3526" lon="1.08197">
        <ele>51.7</ele>
        <time>2019-11-11T11:05:43Z</time>
      </trkpt>
      <trkpt lat="49.35263" lon="1.08195">
        <ele>51.7</ele>
        <time>2019-11-11T11:05:44Z</time>
      </trkpt>
      <trkpt lat="49.35266" lon="1.08193">
        <ele>51.8</ele>
        <time>2019-11-11T11:05:45Z</time>
      </trkpt>
      <trkpt lat="49.35269" lon="1.08191">
        <ele>51.8</ele>
        <time>2019-11-11T11:05:46Z</time>
      </trkpt>
      <trkpt lat="49.35272" lon="1.08189">
        <ele>51.8</ele>
        <time>2019-11-11T11:05:47Z</time>
      </trkpt>
      <trkpt lat="49.35274" lon="1.08186">
        <ele>51.8</ele>
        <time>2019-11-11T11:05:48Z</time>
      </trkpt>
      <trkpt lat="49.35277" lon="1.08184">
        <ele>51.8</ele>
        <time>2019-11-11T11:05:49Z</time>
      </trkpt>
      <trkpt lat="49.35279" lon="1.08181">
        <ele>51.8</ele>
        <time>2019-11-11T11:05:50Z</time>
      </trkpt>
      <trkpt lat="49.35281" lon="1.08179">
        <ele>51.8</ele>
        <time>2019-11-11T11:05:51Z</time>
      </trkpt>
      <trkpt lat="49.35283" lon="1.08177">
        <ele>51.9</ele>
        <time>2019-11-11T11:05:52Z</time>
      </trkpt>
      <trkpt lat="49.35285" lon="1.08175">
        <ele>51.9</ele>
        <time>2019-11-11T11:05:53Z</time>
      </trkpt>
      <trkpt lat="49.35287" lon="1.08172">
        <ele>51.9</ele>
        <time>2019-11-11T11:05:54Z</time>
      </trkpt>
      <trkpt lat="49.35289" lon="1.0817">
        <ele>52</ele>
        <time>2019-11-11T11:05:55Z</time>
      </trkpt>
      <trkpt lat="49.3529" lon="1.08167">
        <ele>52</ele>
        <time>2019-11-11T11:05:56Z</time>
      </trkpt>
      <trkpt lat="49.35291" lon="1.08165">
        <ele>53.9</ele>
        <time>2019-11-11T11:05:57Z</time>
      </trkpt>
      <trkpt lat="49.35292" lon="1.08163">
        <ele>53.9</ele>
        <time>2019-11-11T11:05:58Z</time>
      </trkpt>
      <trkpt lat="49.35293" lon="1.08163">
        <ele>53.9</ele>
        <time>2019-11-11T11:05:59Z</time>
      </trkpt>
      <trkpt lat="49.35293" lon="1.08162">
        <ele>53.9</ele>
        <time>2019-11-11T11:06:00Z</time>
      </trkpt>
      <trkpt lat="49.35293" lon="1.08162">
        <ele>53.9</ele>
        <time>2019-11-11T11:06:01Z</time>
      </trkpt>
      <trkpt lat="49.35299" lon="1.08147">
        <ele>54.4</ele>
        <time>2019-11-11T11:06:29Z</time>
      </trkpt>
      <trkpt lat="49.35299" lon="1.08146">
        <ele>54.4</ele>
        <time>2019-11-11T11:06:30Z</time>
      </trkpt>
      <trkpt lat="49.353" lon="1.08145">
        <ele>54.4</ele>
        <time>2019-11-11T11:06:31Z</time>
      </trkpt>
      <trkpt lat="49.353" lon="1.08143">
        <ele>54.5</ele>
        <time>2019-11-11T11:06:32Z</time>
      </trkpt>
      <trkpt lat="49.35301" lon="1.08142">
        <ele>54.5</ele>
        <time>2019-11-11T11:06:33Z</time>
      </trkpt>
      <trkpt lat="49.35301" lon="1.08141">
        <ele>54.6</ele>
        <time>2019-11-11T11:06:34Z</time>
      </trkpt>
      <trkpt lat="49.35301" lon="1.08139">
        <ele>54.6</ele>
        <time>2019-11-11T11:06:35Z</time>
      </trkpt>
      <trkpt lat="49.35302" lon="1.08138">
        <ele>54.7</ele>
        <time>2019-11-11T11:06:36Z</time>
      </trkpt>
      <trkpt lat="49.35303" lon="1.08136">
        <ele>54.8</ele>
        <time>2019-11-11T11:06:37Z</time>
      </trkpt>
      <trkpt lat="49.35303" lon="1.08135">
        <ele>54.8</ele>
        <time>2019-11-11T11:06:38Z</time>
      </trkpt>
      <trkpt lat="49.35303" lon="1.08134">
        <ele>54.8</ele>
        <time>2019-11-11T11:06:39Z</time>
      </trkpt>
      <trkpt lat="49.35304" lon="1.08132">
        <ele>54.9</ele>
        <time>2019-11-11T11:06:40Z</time>
      </trkpt>
      <trkpt lat="49.35304" lon="1.08131">
        <ele>55</ele>
        <time>2019-11-11T11:06:41Z</time>
      </trkpt>
      <trkpt lat="49.35305" lon="1.08129">
        <ele>55.1</ele>
        <time>2019-11-11T11:06:42Z</time>
      </trkpt>
      <trkpt lat="49.35305" lon="1.08128">
        <ele>55.1</ele>
        <time>2019-11-11T11:06:43Z</time>
      </trkpt>
      <trkpt lat="49.35306" lon="1.08127">
        <ele>55.2</ele>
        <time>2019-11-11T11:06:44Z</time>
      </trkpt>
      <trkpt lat="49.35306" lon="1.08125">
        <ele>55.3</ele>
        <time>2019-11-11T11:06:45Z</time>
      </trkpt>
      <trkpt lat="49.35307" lon="1.08124">
        <ele>55.3</ele>
        <time>2019-11-11T11:06:46Z</time>
      </trkpt>
      <trkpt lat="49.35307" lon="1.08122">
        <ele>55.4</ele>
        <time>2019-11-11T11:06:47Z</time>
      </trkpt>
      <trkpt lat="49.35308" lon="1.08121">
        <ele>55.5</ele>
        <time>2019-11-11T11:06:48Z</time>
      </trkpt>
      <trkpt lat="49.35308" lon="1.0812">
        <ele>55.5</ele>
        <time>2019-11-11T11:06:49Z</time>
      </trkpt>
      <trkpt lat="49.35309" lon="1.08118">
        <ele>55.6</ele>
        <time>2019-11-11T11:06:50Z</time>
      </trkpt>
      <trkpt lat="49.35309" lon="1.08117">
        <ele>55.7</ele>
        <time>2019-11-11T11:06:51Z</time>
      </trkpt>
      <trkpt lat="49.3531" lon="1.08116">
        <ele>55.7</ele>
        <time>2019-11-11T11:06:52Z</time>
      </trkpt>
      <trkpt lat="49.3531" lon="1.08114">
        <ele>55.8</ele>
        <time>2019-11-11T11:06:53Z</time>
      </trkpt>
      <trkpt lat="49.35311" lon="1.08113">
        <ele>55.9</ele>
        <time>2019-11-11T11:06:54Z</time>
      </trkpt>
      <trkpt lat="49.35311" lon="1.08112">
        <ele>56</ele>
        <time>2019-11-11T11:06:55Z</time>
      </trkpt>
      <trkpt lat="49.35312" lon="1.0811">
        <ele>56.1</ele>
        <time>2019-11-11T11:06:56Z</time>
      </trkpt>
      <trkpt lat="49.35312" lon="1.08109">
        <ele>56.2</ele>
        <time>2019-11-11T11:06:57Z</time>
      </trkpt>
      <trkpt lat="49.35313" lon="1.08108">
        <ele>56.3</ele>
        <time>2019-11-11T11:06:58Z</time>
      </trkpt>
      <trkpt lat="49.35313" lon="1.08107">
        <ele>56.3</ele>
        <time>2019-11-11T11:06:59Z</time>
      </trkpt>
      <trkpt lat="49.35314" lon="1.08106">
        <ele>56.4</ele>
        <time>2019-11-11T11:07:00Z</time>
      </trkpt>
      <trkpt lat="49.35314" lon="1.08104">
        <ele>56.5</ele>
        <time>2019-11-11T11:07:01Z</time>
      </trkpt>
      <trkpt lat="49.35314" lon="1.08103">
        <ele>56.6</ele>
        <time>2019-11-11T11:07:02Z</time>
      </trkpt>
      <trkpt lat="49.35315" lon="1.08102">
        <ele>56.7</ele>
        <time>2019-11-11T11:07:03Z</time>
      </trkpt>
      <trkpt lat="49.35315" lon="1.08101">
        <ele>56.7</ele>
        <time>2019-11-11T11:07:04Z</time>
      </trkpt>
      <trkpt lat="49.35315" lon="1.08101">
        <ele>56.7</ele>
        <time>2019-11-11T11:07:05Z</time>
      </trkpt>
      <trkpt lat="49.35315" lon="1.081">
        <ele>56.8</ele>
        <time>2019-11-11T11:07:06Z</time>
      </trkpt>
      <trkpt lat="49.35315" lon="1.081">
        <ele>56.8</ele>
        <time>2019-11-11T11:07:07Z</time>
      </trkpt>
      <trkpt lat="49.35317" lon="1.08092">
        <ele>57.4</ele>
        <time>2019-11-11T11:07:17Z</time>
      </trkpt>
      <trkpt lat="49.35319" lon="1.08088">
        <ele>57.8</ele>
        <time>2019-11-11T11:07:18Z</time>
      </trkpt>
      <trkpt lat="49.35321" lon="1.08083">
        <ele>59.9</ele>
        <time>2019-11-11T11:07:19Z</time>
      </trkpt>
      <trkpt lat="49.35324" lon="1.08077">
        <ele>60</ele>
        <time>2019-11-11T11:07:20Z</time>
      </trkpt>
      <trkpt lat="49.35328" lon="1.08069">
        <ele>60</ele>
        <time>2019-11-11T11:07:21Z</time>
      </trkpt>
      <trkpt lat="49.35332" lon="1.08062">
        <ele>60.1</ele>
        <time>2019-11-11T11:07:22Z</time>
      </trkpt>
      <trkpt lat="49.35337" lon="1.08054">
        <ele>61.5</ele>
        <time>2019-11-11T11:07:23Z</time>
      </trkpt>
      <trkpt lat="49.35341" lon="1.08045">
        <ele>61.7</ele>
        <time>2019-11-11T11:07:24Z</time>
      </trkpt>
      <trkpt lat="49.35345" lon="1.08037">
        <ele>62</ele>
        <time>2019-11-11T11:07:25Z</time>
      </trkpt>
      <trkpt lat="49.35349" lon="1.08031">
        <ele>62.1</ele>
        <time>2019-11-11T11:07:26Z</time>
      </trkpt>
      <trkpt lat="49.35352" lon="1.08025">
        <ele>62.2</ele>
        <time>2019-11-11T11:07:27Z</time>
      </trkpt>
      <trkpt lat="49.35355" lon="1.0802">
        <ele>62.3</ele>
        <time>2019-11-11T11:07:28Z</time>
      </trkpt>
      <trkpt lat="49.35357" lon="1.08017">
        <ele>62.4</ele>
        <time>2019-11-11T11:07:29Z</time>
      </trkpt>
      <trkpt lat="49.35359" lon="1.08014">
        <ele>62.4</ele>
        <time>2019-11-11T11:07:30Z</time>
      </trkpt>
      <trkpt lat="49.3536" lon="1.08011">
        <ele>62.4</ele>
        <time>2019-11-11T11:07:31Z</time>
      </trkpt>
      <trkpt lat="49.35362" lon="1.08008">
        <ele>62.5</ele>
        <time>2019-11-11T11:07:32Z</time>
      </trkpt>
      <trkpt lat="49.35364" lon="1.08005">
        <ele>62.5</ele>
        <time>2019-11-11T11:07:33Z</time>
      </trkpt>
      <trkpt lat="49.35366" lon="1.08001">
        <ele>62.5</ele>
        <time>2019-11-11T11:07:34Z</time>
      </trkpt>
      <trkpt lat="49.35367" lon="1.07998">
        <ele>64</ele>
        <time>2019-11-11T11:07:35Z</time>
      </trkpt>
      <trkpt lat="49.35369" lon="1.07995">
        <ele>64.1</ele>
        <time>2019-11-11T11:07:36Z</time>
      </trkpt>
      <trkpt lat="49.35371" lon="1.07992">
        <ele>64.1</ele>
        <time>2019-11-11T11:07:37Z</time>
      </trkpt>
      <trkpt lat="49.35372" lon="1.07988">
        <ele>64.2</ele>
        <time>2019-11-11T11:07:38Z</time>
      </trkpt>
      <trkpt lat="49.35374" lon="1.07986">
        <ele>64.2</ele>
        <time>2019-11-11T11:07:39Z</time>
      </trkpt>
      <trkpt lat="49.35376" lon="1.07983">
        <ele>64.2</ele>
        <time>2019-11-11T11:07:40Z</time>
      </trkpt>
      <trkpt lat="49.35378" lon="1.0798">
        <ele>64.3</ele>
        <time>2019-11-11T11:07:41Z</time>
      </trkpt>
      <trkpt lat="49.3538" lon="1.07977">
        <ele>64.3</ele>
        <time>2019-11-11T11:07:42Z</time>
      </trkpt>
      <trkpt lat="49.35381" lon="1.07974">
        <ele>64.4</ele>
        <time>2019-11-11T11:07:43Z</time>
      </trkpt>
      <trkpt lat="49.35382" lon="1.07971">
        <ele>64.4</ele>
        <time>2019-11-11T11:07:44Z</time>
      </trkpt>
      <trkpt lat="49.35384" lon="1.07968">
        <ele>64.4</ele>
        <time>2019-11-11T11:07:45Z</time>
      </trkpt>
      <trkpt lat="49.35385" lon="1.07965">
        <ele>64.5</ele>
        <time>2019-11-11T11:07:46Z</time>
      </trkpt>
      <trkpt lat="49.35386" lon="1.07962">
        <ele>64.5</ele>
        <time>2019-11-11T11:07:47Z</time>
      </trkpt>
      <trkpt lat="49.35388" lon="1.0796">
        <ele>64.6</ele>
        <time>2019-11-11T11:07:48Z</time>
      </trkpt>
      <trkpt lat="49.35389" lon="1.07957">
        <ele>64.6</ele>
        <time>2019-11-11T11:07:49Z</time>
      </trkpt>
      <trkpt lat="49.3539" lon="1.07954">
        <ele>64.6</ele>
        <time>2019-11-11T11:07:50Z</time>
      </trkpt>
      <trkpt lat="49.35392" lon="1.07952">
        <ele>64.7</ele>
        <time>2019-11-11T11:07:51Z</time>
      </trkpt>
      <trkpt lat="49.35393" lon="1.07949">
        <ele>64.7</ele>
        <time>2019-11-11T11:07:52Z</time>
      </trkpt>
      <trkpt lat="49.35395" lon="1.07946">
        <ele>64.8</ele>
        <time>2019-11-11T11:07:53Z</time>
      </trkpt>
      <trkpt lat="49.35396" lon="1.07943">
        <ele>64.9</ele>
        <time>2019-11-11T11:07:54Z</time>
      </trkpt>
      <trkpt lat="49.35398" lon="1.0794">
        <ele>64.9</ele>
        <time>2019-11-11T11:07:55Z</time>
      </trkpt>
      <trkpt lat="49.354" lon="1.07937">
        <ele>65</ele>
        <time>2019-11-11T11:07:56Z</time>
      </trkpt>
      <trkpt lat="49.35402" lon="1.07935">
        <ele>65.1</ele>
        <time>2019-11-11T11:07:57Z</time>
      </trkpt>
      <trkpt lat="49.35403" lon="1.07932">
        <ele>65.2</ele>
        <time>2019-11-11T11:07:58Z</time>
      </trkpt>
      <trkpt lat="49.35405" lon="1.0793">
        <ele>65.2</ele>
        <time>2019-11-11T11:07:59Z</time>
      </trkpt>
      <trkpt lat="49.35407" lon="1.07927">
        <ele>65.4</ele>
        <time>2019-11-11T11:08:00Z</time>
      </trkpt>
      <trkpt lat="49.35409" lon="1.07924">
        <ele>65.5</ele>
        <time>2019-11-11T11:08:01Z</time>
      </trkpt>
      <trkpt lat="49.3541" lon="1.07921">
        <ele>65.6</ele>
        <time>2019-11-11T11:08:02Z</time>
      </trkpt>
      <trkpt lat="49.35412" lon="1.07919">
        <ele>65.7</ele>
        <time>2019-11-11T11:08:03Z</time>
      </trkpt>
      <trkpt lat="49.35414" lon="1.07916">
        <ele>66</ele>
        <time>2019-11-11T11:08:04Z</time>
      </trkpt>
      <trkpt lat="49.35415" lon="1.07913">
        <ele>66</ele>
        <time>2019-11-11T11:08:05Z</time>
      </trkpt>
      <trkpt lat="49.35417" lon="1.07911">
        <ele>66.2</ele>
        <time>2019-11-11T11:08:06Z</time>
      </trkpt>
      <trkpt lat="49.35419" lon="1.07908">
        <ele>66.3</ele>
        <time>2019-11-11T11:08:07Z</time>
      </trkpt>
      <trkpt lat="49.3542" lon="1.07905">
        <ele>66.4</ele>
        <time>2019-11-11T11:08:08Z</time>
      </trkpt>
      <trkpt lat="49.35422" lon="1.07902">
        <ele>66.5</ele>
        <time>2019-11-11T11:08:09Z</time>
      </trkpt>
      <trkpt lat="49.35423" lon="1.07899">
        <ele>66.6</ele>
        <time>2019-11-11T11:08:10Z</time>
      </trkpt>
      <trkpt lat="49.35425" lon="1.07896">
        <ele>66.6</ele>
        <time>2019-11-11T11:08:11Z</time>
      </trkpt>
      <trkpt lat="49.35427" lon="1.07892">
        <ele>66.7</ele>
        <time>2019-11-11T11:08:12Z</time>
      </trkpt>
      <trkpt lat="49.35428" lon="1.07889">
        <ele>66.7</ele>
        <time>2019-11-11T11:08:13Z</time>
      </trkpt>
      <trkpt lat="49.3543" lon="1.07886">
        <ele>66.8</ele>
        <time>2019-11-11T11:08:14Z</time>
      </trkpt>
      <trkpt lat="49.35432" lon="1.07882">
        <ele>66.8</ele>
        <time>2019-11-11T11:08:15Z</time>
      </trkpt>
      <trkpt lat="49.35433" lon="1.07879">
        <ele>66.8</ele>
        <time>2019-11-11T11:08:16Z</time>
      </trkpt>
      <trkpt lat="49.35435" lon="1.07876">
        <ele>66.9</ele>
        <time>2019-11-11T11:08:17Z</time>
      </trkpt>
      <trkpt lat="49.35436" lon="1.07873">
        <ele>66.9</ele>
        <time>2019-11-11T11:08:18Z</time>
      </trkpt>
      <trkpt lat="49.35438" lon="1.0787">
        <ele>66.9</ele>
        <time>2019-11-11T11:08:19Z</time>
      </trkpt>
      <trkpt lat="49.35439" lon="1.07867">
        <ele>66.9</ele>
        <time>2019-11-11T11:08:20Z</time>
      </trkpt>
      <trkpt lat="49.35441" lon="1.07864">
        <ele>66.9</ele>
        <time>2019-11-11T11:08:21Z</time>
      </trkpt>
      <trkpt lat="49.35442" lon="1.07861">
        <ele>66.9</ele>
        <time>2019-11-11T11:08:22Z</time>
      </trkpt>
      <trkpt lat="49.35444" lon="1.07858">
        <ele>67</ele>
        <time>2019-11-11T11:08:23Z</time>
      </trkpt>
      <trkpt lat="49.35445" lon="1.07855">
        <ele>67</ele>
        <time>2019-11-11T11:08:24Z</time>
      </trkpt>
      <trkpt lat="49.35447" lon="1.07852">
        <ele>67</ele>
        <time>2019-11-11T11:08:25Z</time>
      </trkpt>
      <trkpt lat="49.35449" lon="1.07849">
        <ele>67</ele>
        <time>2019-11-11T11:08:26Z</time>
      </trkpt>
      <trkpt lat="49.3545" lon="1.07846">
        <ele>67</ele>
        <time>2019-11-11T11:08:27Z</time>
      </trkpt>
      <trkpt lat="49.35452" lon="1.07843">
        <ele>67</ele>
        <time>2019-11-11T11:08:28Z</time>
      </trkpt>
      <trkpt lat="49.35453" lon="1.0784">
        <ele>67</ele>
        <time>2019-11-11T11:08:29Z</time>
      </trkpt>
      <trkpt lat="49.35455" lon="1.07836">
        <ele>67</ele>
        <time>2019-11-11T11:08:30Z</time>
      </trkpt>
      <trkpt lat="49.35457" lon="1.07833">
        <ele>66.7</ele>
        <time>2019-11-11T11:08:31Z</time>
      </trkpt>
      <trkpt lat="49.35459" lon="1.0783">
        <ele>66.7</ele>
        <time>2019-11-11T11:08:32Z</time>
      </trkpt>
      <trkpt lat="49.3546" lon="1.07827">
        <ele>66.7</ele>
        <time>2019-11-11T11:08:33Z</time>
      </trkpt>
      <trkpt lat="49.35462" lon="1.07824">
        <ele>66.7</ele>
        <time>2019-11-11T11:08:34Z</time>
      </trkpt>
      <trkpt lat="49.35464" lon="1.0782">
        <ele>66.7</ele>
        <time>2019-11-11T11:08:35Z</time>
      </trkpt>
      <trkpt lat="49.35466" lon="1.07817">
        <ele>66.7</ele>
        <time>2019-11-11T11:08:36Z</time>
      </trkpt>
      <trkpt lat="49.35467" lon="1.07814">
        <ele>66.7</ele>
        <time>2019-11-11T11:08:37Z</time>
      </trkpt>
      <trkpt lat="49.35469" lon="1.07811">
        <ele>66.6</ele>
        <time>2019-11-11T11:08:38Z</time>
      </trkpt>
      <trkpt lat="49.35471" lon="1.07807">
        <ele>66.6</ele>
        <time>2019-11-11T11:08:39Z</time>
      </trkpt>
      <trkpt lat="49.35473" lon="1.07804">
        <ele>66.6</ele>
        <time>2019-11-11T11:08:40Z</time>
      </trkpt>
      <trkpt lat="49.35474" lon="1.07801">
        <ele>66.6</ele>
        <time>2019-11-11T11:08:41Z</time>
      </trkpt>
      <trkpt lat="49.35476" lon="1.07797">
        <ele>66.6</ele>
        <time>2019-11-11T11:08:42Z</time>
      </trkpt>
      <trkpt lat="49.35478" lon="1.07794">
        <ele>66.6</ele>
        <time>2019-11-11T11:08:43Z</time>
      </trkpt>
      <trkpt lat="49.3548" lon="1.07791">
        <ele>66.6</ele>
        <time>2019-11-11T11:08:44Z</time>
      </trkpt>
      <trkpt lat="49.35482" lon="1.07787">
        <ele>66.6</ele>
        <time>2019-11-11T11:08:45Z</time>
      </trkpt>
      <trkpt lat="49.35483" lon="1.07784">
        <ele>66.6</ele>
        <time>2019-11-11T11:08:46Z</time>
      </trkpt>
      <trkpt lat="49.35485" lon="1.0778">
        <ele>66.6</ele>
        <time>2019-11-11T11:08:47Z</time>
      </trkpt>
      <trkpt lat="49.35487" lon="1.07777">
        <ele>66.6</ele>
        <time>2019-11-11T11:08:48Z</time>
      </trkpt>
      <trkpt lat="49.35489" lon="1.07773">
        <ele>66.7</ele>
        <time>2019-11-11T11:08:49Z</time>
      </trkpt>
      <trkpt lat="49.35491" lon="1.0777">
        <ele>66.7</ele>
        <time>2019-11-11T11:08:50Z</time>
      </trkpt>
      <trkpt lat="49.35493" lon="1.07766">
        <ele>66.7</ele>
        <time>2019-11-11T11:08:51Z</time>
      </trkpt>
      <trkpt lat="49.35495" lon="1.07762">
        <ele>66.8</ele>
        <time>2019-11-11T11:08:52Z</time>
      </trkpt>
      <trkpt lat="49.35497" lon="1.07759">
        <ele>66.8</ele>
        <time>2019-11-11T11:08:53Z</time>
      </trkpt>
      <trkpt lat="49.35499" lon="1.07755">
        <ele>66.9</ele>
        <time>2019-11-11T11:08:54Z</time>
      </trkpt>
      <trkpt lat="49.35501" lon="1.07751">
        <ele>67</ele>
        <time>2019-11-11T11:08:55Z</time>
      </trkpt>
      <trkpt lat="49.35503" lon="1.07747">
        <ele>67.1</ele>
        <time>2019-11-11T11:08:56Z</time>
      </trkpt>
      <trkpt lat="49.35505" lon="1.07743">
        <ele>67.1</ele>
        <time>2019-11-11T11:08:57Z</time>
      </trkpt>
      <trkpt lat="49.35507" lon="1.07739">
        <ele>67.2</ele>
        <time>2019-11-11T11:08:58Z</time>
      </trkpt>
      <trkpt lat="49.35509" lon="1.07736">
        <ele>67.2</ele>
        <time>2019-11-11T11:08:59Z</time>
      </trkpt>
      <trkpt lat="49.35511" lon="1.07732">
        <ele>67.3</ele>
        <time>2019-11-11T11:09:00Z</time>
      </trkpt>
      <trkpt lat="49.35513" lon="1.07728">
        <ele>67.3</ele>
        <time>2019-11-11T11:09:01Z</time>
      </trkpt>
      <trkpt lat="49.35515" lon="1.07725">
        <ele>67.3</ele>
        <time>2019-11-11T11:09:02Z</time>
      </trkpt>
      <trkpt lat="49.35517" lon="1.07721">
        <ele>67.3</ele>
        <time>2019-11-11T11:09:03Z</time>
      </trkpt>
      <trkpt lat="49.3552" lon="1.07718">
        <ele>67.4</ele>
        <time>2019-11-11T11:09:04Z</time>
      </trkpt>
      <trkpt lat="49.35522" lon="1.07714">
        <ele>67.4</ele>
        <time>2019-11-11T11:09:05Z</time>
      </trkpt>
      <trkpt lat="49.35525" lon="1.0771">
        <ele>67.4</ele>
        <time>2019-11-11T11:09:06Z</time>
      </trkpt>
      <trkpt lat="49.35527" lon="1.07706">
        <ele>67.4</ele>
        <time>2019-11-11T11:09:07Z</time>
      </trkpt>
      <trkpt lat="49.35529" lon="1.07702">
        <ele>67.4</ele>
        <time>2019-11-11T11:09:08Z</time>
      </trkpt>
      <trkpt lat="49.35532" lon="1.07698">
        <ele>67.4</ele>
        <time>2019-11-11T11:09:09Z</time>
      </trkpt>
      <trkpt lat="49.35534" lon="1.07694">
        <ele>67.4</ele>
        <time>2019-11-11T11:09:10Z</time>
      </trkpt>
      <trkpt lat="49.35536" lon="1.0769">
        <ele>67.5</ele>
        <time>2019-11-11T11:09:11Z</time>
      </trkpt>
      <trkpt lat="49.35539" lon="1.07685">
        <ele>67.5</ele>
        <time>2019-11-11T11:09:12Z</time>
      </trkpt>
      <trkpt lat="49.35541" lon="1.07681">
        <ele>67.5</ele>
        <time>2019-11-11T11:09:13Z</time>
      </trkpt>
      <trkpt lat="49.35543" lon="1.07677">
        <ele>67.5</ele>
        <time>2019-11-11T11:09:14Z</time>
      </trkpt>
      <trkpt lat="49.35546" lon="1.07673">
        <ele>67.5</ele>
        <time>2019-11-11T11:09:15Z</time>
      </trkpt>
      <trkpt lat="49.35548" lon="1.07669">
        <ele>67.6</ele>
        <time>2019-11-11T11:09:16Z</time>
      </trkpt>
      <trkpt lat="49.35551" lon="1.07665">
        <ele>67.9</ele>
        <time>2019-11-11T11:09:17Z</time>
      </trkpt>
      <trkpt lat="49.35553" lon="1.07661">
        <ele>67.9</ele>
        <time>2019-11-11T11:09:18Z</time>
      </trkpt>
      <trkpt lat="49.35555" lon="1.07657">
        <ele>67.9</ele>
        <time>2019-11-11T11:09:19Z</time>
      </trkpt>
      <trkpt lat="49.35558" lon="1.07653">
        <ele>68</ele>
        <time>2019-11-11T11:09:20Z</time>
      </trkpt>
      <trkpt lat="49.3556" lon="1.07649">
        <ele>68</ele>
        <time>2019-11-11T11:09:21Z</time>
      </trkpt>
      <trkpt lat="49.35562" lon="1.07645">
        <ele>68</ele>
        <time>2019-11-11T11:09:22Z</time>
      </trkpt>
      <trkpt lat="49.35564" lon="1.0764">
        <ele>68</ele>
        <time>2019-11-11T11:09:23Z</time>
      </trkpt>
      <trkpt lat="49.35567" lon="1.07636">
        <ele>68.1</ele>
        <time>2019-11-11T11:09:24Z</time>
      </trkpt>
      <trkpt lat="49.35569" lon="1.07632">
        <ele>68.1</ele>
        <time>2019-11-11T11:09:25Z</time>
      </trkpt>
      <trkpt lat="49.35571" lon="1.07627">
        <ele>68.1</ele>
        <time>2019-11-11T11:09:26Z</time>
      </trkpt>
      <trkpt lat="49.35574" lon="1.07623">
        <ele>68.2</ele>
        <time>2019-11-11T11:09:27Z</time>
      </trkpt>
      <trkpt lat="49.35576" lon="1.07619">
        <ele>68.2</ele>
        <time>2019-11-11T11:09:28Z</time>
      </trkpt>
      <trkpt lat="49.35578" lon="1.07615">
        <ele>68.3</ele>
        <time>2019-11-11T11:09:29Z</time>
      </trkpt>
      <trkpt lat="49.35581" lon="1.07611">
        <ele>68.3</ele>
        <time>2019-11-11T11:09:30Z</time>
      </trkpt>
      <trkpt lat="49.35583" lon="1.07606">
        <ele>68.4</ele>
        <time>2019-11-11T11:09:31Z</time>
      </trkpt>
      <trkpt lat="49.35585" lon="1.07603">
        <ele>69.1</ele>
        <time>2019-11-11T11:09:32Z</time>
      </trkpt>
      <trkpt lat="49.35587" lon="1.07599">
        <ele>69.1</ele>
        <time>2019-11-11T11:09:33Z</time>
      </trkpt>
      <trkpt lat="49.35589" lon="1.07595">
        <ele>69.1</ele>
        <time>2019-11-11T11:09:34Z</time>
      </trkpt>
      <trkpt lat="49.35591" lon="1.07591">
        <ele>69.1</ele>
        <time>2019-11-11T11:09:35Z</time>
      </trkpt>
      <trkpt lat="49.35594" lon="1.07586">
        <ele>69.1</ele>
        <time>2019-11-11T11:09:36Z</time>
      </trkpt>
      <trkpt lat="49.35596" lon="1.07582">
        <ele>69.5</ele>
        <time>2019-11-11T11:09:37Z</time>
      </trkpt>
      <trkpt lat="49.35598" lon="1.07578">
        <ele>69.6</ele>
        <time>2019-11-11T11:09:38Z</time>
      </trkpt>
      <trkpt lat="49.35601" lon="1.07574">
        <ele>69.7</ele>
        <time>2019-11-11T11:09:39Z</time>
      </trkpt>
      <trkpt lat="49.35603" lon="1.0757">
        <ele>69.8</ele>
        <time>2019-11-11T11:09:40Z</time>
      </trkpt>
      <trkpt lat="49.35606" lon="1.07565">
        <ele>69.9</ele>
        <time>2019-11-11T11:09:41Z</time>
      </trkpt>
      <trkpt lat="49.35608" lon="1.07561">
        <ele>69.9</ele>
        <time>2019-11-11T11:09:42Z</time>
      </trkpt>
      <trkpt lat="49.3561" lon="1.07557">
        <ele>70</ele>
        <time>2019-11-11T11:09:43Z</time>
      </trkpt>
      <trkpt lat="49.35613" lon="1.07552">
        <ele>70</ele>
        <time>2019-11-11T11:09:44Z</time>
      </trkpt>
      <trkpt lat="49.35615" lon="1.07548">
        <ele>70.1</ele>
        <time>2019-11-11T11:09:45Z</time>
      </trkpt>
      <trkpt lat="49.35617" lon="1.07544">
        <ele>70.1</ele>
        <time>2019-11-11T11:09:46Z</time>
      </trkpt>
      <trkpt lat="49.3562" lon="1.0754">
        <ele>70.2</ele>
        <time>2019-11-11T11:09:47Z</time>
      </trkpt>
      <trkpt lat="49.35622" lon="1.07536">
        <ele>70.2</ele>
        <time>2019-11-11T11:09:48Z</time>
      </trkpt>
      <trkpt lat="49.35625" lon="1.07532">
        <ele>70.3</ele>
        <time>2019-11-11T11:09:49Z</time>
      </trkpt>
      <trkpt lat="49.35627" lon="1.07528">
        <ele>70.3</ele>
        <time>2019-11-11T11:09:50Z</time>
      </trkpt>
      <trkpt lat="49.3563" lon="1.07523">
        <ele>70.4</ele>
        <time>2019-11-11T11:09:51Z</time>
      </trkpt>
      <trkpt lat="49.35632" lon="1.07519">
        <ele>70.5</ele>
        <time>2019-11-11T11:09:52Z</time>
      </trkpt>
      <trkpt lat="49.35634" lon="1.07515">
        <ele>70.5</ele>
        <time>2019-11-11T11:09:53Z</time>
      </trkpt>
      <trkpt lat="49.35637" lon="1.07511">
        <ele>70.6</ele>
        <time>2019-11-11T11:09:54Z</time>
      </trkpt>
      <trkpt lat="49.35639" lon="1.07507">
        <ele>70.7</ele>
        <time>2019-11-11T11:09:55Z</time>
      </trkpt>
      <trkpt lat="49.35641" lon="1.07503">
        <ele>70.8</ele>
        <time>2019-11-11T11:09:56Z</time>
      </trkpt>
      <trkpt lat="49.35643" lon="1.07498">
        <ele>71.5</ele>
        <time>2019-11-11T11:09:57Z</time>
      </trkpt>
      <trkpt lat="49.35645" lon="1.07494">
        <ele>71.6</ele>
        <time>2019-11-11T11:09:58Z</time>
      </trkpt>
      <trkpt lat="49.35648" lon="1.0749">
        <ele>71.6</ele>
        <time>2019-11-11T11:09:59Z</time>
      </trkpt>
      <trkpt lat="49.3565" lon="1.07486">
        <ele>71.6</ele>
        <time>2019-11-11T11:10:00Z</time>
      </trkpt>
      <trkpt lat="49.35653" lon="1.07483">
        <ele>71.7</ele>
        <time>2019-11-11T11:10:01Z</time>
      </trkpt>
      <trkpt lat="49.35655" lon="1.07479">
        <ele>71.7</ele>
        <time>2019-11-11T11:10:02Z</time>
      </trkpt>
      <trkpt lat="49.35657" lon="1.07474">
        <ele>71.7</ele>
        <time>2019-11-11T11:10:03Z</time>
      </trkpt>
      <trkpt lat="49.3566" lon="1.0747">
        <ele>71.8</ele>
        <time>2019-11-11T11:10:04Z</time>
      </trkpt>
      <trkpt lat="49.35662" lon="1.07466">
        <ele>71.8</ele>
        <time>2019-11-11T11:10:05Z</time>
      </trkpt>
      <trkpt lat="49.35664" lon="1.07461">
        <ele>71.8</ele>
        <time>2019-11-11T11:10:06Z</time>
      </trkpt>
      <trkpt lat="49.35666" lon="1.07457">
        <ele>71.9</ele>
        <time>2019-11-11T11:10:07Z</time>
      </trkpt>
      <trkpt lat="49.35668" lon="1.07453">
        <ele>72.4</ele>
        <time>2019-11-11T11:10:08Z</time>
      </trkpt>
      <trkpt lat="49.35671" lon="1.07448">
        <ele>72.4</ele>
        <time>2019-11-11T11:10:09Z</time>
      </trkpt>
      <trkpt lat="49.35673" lon="1.07444">
        <ele>72.5</ele>
        <time>2019-11-11T11:10:10Z</time>
      </trkpt>
      <trkpt lat="49.35675" lon="1.07439">
        <ele>72.5</ele>
        <time>2019-11-11T11:10:11Z</time>
      </trkpt>
      <trkpt lat="49.35677" lon="1.07435">
        <ele>72.6</ele>
        <time>2019-11-11T11:10:12Z</time>
      </trkpt>
      <trkpt lat="49.3568" lon="1.07431">
        <ele>72.6</ele>
        <time>2019-11-11T11:10:13Z</time>
      </trkpt>
      <trkpt lat="49.35682" lon="1.07427">
        <ele>72.6</ele>
        <time>2019-11-11T11:10:14Z</time>
      </trkpt>
      <trkpt lat="49.35684" lon="1.07423">
        <ele>72.6</ele>
        <time>2019-11-11T11:10:15Z</time>
      </trkpt>
      <trkpt lat="49.35686" lon="1.07419">
        <ele>72.6</ele>
        <time>2019-11-11T11:10:16Z</time>
      </trkpt>
      <trkpt lat="49.35688" lon="1.07414">
        <ele>73.6</ele>
        <time>2019-11-11T11:10:17Z</time>
      </trkpt>
      <trkpt lat="49.3569" lon="1.0741">
        <ele>73.7</ele>
        <time>2019-11-11T11:10:18Z</time>
      </trkpt>
      <trkpt lat="49.35692" lon="1.07405">
        <ele>73.8</ele>
        <time>2019-11-11T11:10:19Z</time>
      </trkpt>
      <trkpt lat="49.35695" lon="1.07401">
        <ele>73.8</ele>
        <time>2019-11-11T11:10:20Z</time>
      </trkpt>
      <trkpt lat="49.35697" lon="1.07397">
        <ele>73.9</ele>
        <time>2019-11-11T11:10:21Z</time>
      </trkpt>
      <trkpt lat="49.35699" lon="1.07392">
        <ele>74</ele>
        <time>2019-11-11T11:10:22Z</time>
      </trkpt>
      <trkpt lat="49.35701" lon="1.07388">
        <ele>74</ele>
        <time>2019-11-11T11:10:23Z</time>
      </trkpt>
      <trkpt lat="49.35703" lon="1.07384">
        <ele>74.1</ele>
        <time>2019-11-11T11:10:24Z</time>
      </trkpt>
      <trkpt lat="49.35705" lon="1.0738">
        <ele>74.2</ele>
        <time>2019-11-11T11:10:25Z</time>
      </trkpt>
      <trkpt lat="49.35707" lon="1.07376">
        <ele>74.2</ele>
        <time>2019-11-11T11:10:26Z</time>
      </trkpt>
      <trkpt lat="49.3571" lon="1.07372">
        <ele>74.3</ele>
        <time>2019-11-11T11:10:27Z</time>
      </trkpt>
      <trkpt lat="49.35712" lon="1.07368">
        <ele>74.4</ele>
        <time>2019-11-11T11:10:28Z</time>
      </trkpt>
      <trkpt lat="49.35714" lon="1.07365">
        <ele>74.4</ele>
        <time>2019-11-11T11:10:29Z</time>
      </trkpt>
      <trkpt lat="49.35716" lon="1.07361">
        <ele>74.5</ele>
        <time>2019-11-11T11:10:30Z</time>
      </trkpt>
      <trkpt lat="49.35719" lon="1.07357">
        <ele>74.6</ele>
        <time>2019-11-11T11:10:31Z</time>
      </trkpt>
      <trkpt lat="49.3572" lon="1.07352">
        <ele>74.7</ele>
        <time>2019-11-11T11:10:32Z</time>
      </trkpt>
      <trkpt lat="49.35723" lon="1.07348">
        <ele>74.8</ele>
        <time>2019-11-11T11:10:33Z</time>
      </trkpt>
      <trkpt lat="49.35725" lon="1.07344">
        <ele>74.9</ele>
        <time>2019-11-11T11:10:34Z</time>
      </trkpt>
      <trkpt lat="49.35727" lon="1.07341">
        <ele>74.9</ele>
        <time>2019-11-11T11:10:35Z</time>
      </trkpt>
      <trkpt lat="49.35729" lon="1.07336">
        <ele>75</ele>
        <time>2019-11-11T11:10:36Z</time>
      </trkpt>
      <trkpt lat="49.35731" lon="1.07332">
        <ele>76.3</ele>
        <time>2019-11-11T11:10:37Z</time>
      </trkpt>
      <trkpt lat="49.35733" lon="1.07328">
        <ele>76.3</ele>
        <time>2019-11-11T11:10:38Z</time>
      </trkpt>
      <trkpt lat="49.35735" lon="1.07324">
        <ele>76.4</ele>
        <time>2019-11-11T11:10:39Z</time>
      </trkpt>
      <trkpt lat="49.35737" lon="1.0732">
        <ele>76.4</ele>
        <time>2019-11-11T11:10:40Z</time>
      </trkpt>
      <trkpt lat="49.3574" lon="1.07316">
        <ele>76.5</ele>
        <time>2019-11-11T11:10:41Z</time>
      </trkpt>
      <trkpt lat="49.35742" lon="1.07312">
        <ele>76.5</ele>
        <time>2019-11-11T11:10:42Z</time>
      </trkpt>
      <trkpt lat="49.35744" lon="1.07308">
        <ele>76.6</ele>
        <time>2019-11-11T11:10:43Z</time>
      </trkpt>
      <trkpt lat="49.35746" lon="1.07304">
        <ele>76.7</ele>
        <time>2019-11-11T11:10:44Z</time>
      </trkpt>
      <trkpt lat="49.35749" lon="1.073">
        <ele>76.8</ele>
        <time>2019-11-11T11:10:45Z</time>
      </trkpt>
      <trkpt lat="49.35751" lon="1.07296">
        <ele>77.4</ele>
        <time>2019-11-11T11:10:46Z</time>
      </trkpt>
      <trkpt lat="49.35753" lon="1.07292">
        <ele>77.5</ele>
        <time>2019-11-11T11:10:47Z</time>
      </trkpt>
      <trkpt lat="49.35755" lon="1.07289">
        <ele>77.6</ele>
        <time>2019-11-11T11:10:48Z</time>
      </trkpt>
      <trkpt lat="49.35758" lon="1.07284">
        <ele>77.7</ele>
        <time>2019-11-11T11:10:49Z</time>
      </trkpt>
      <trkpt lat="49.3576" lon="1.07281">
        <ele>77.8</ele>
        <time>2019-11-11T11:10:50Z</time>
      </trkpt>
      <trkpt lat="49.35762" lon="1.07277">
        <ele>77.8</ele>
        <time>2019-11-11T11:10:51Z</time>
      </trkpt>
      <trkpt lat="49.35764" lon="1.07273">
        <ele>77.9</ele>
        <time>2019-11-11T11:10:52Z</time>
      </trkpt>
      <trkpt lat="49.35767" lon="1.07269">
        <ele>78</ele>
        <time>2019-11-11T11:10:53Z</time>
      </trkpt>
      <trkpt lat="49.35769" lon="1.07266">
        <ele>78</ele>
        <time>2019-11-11T11:10:54Z</time>
      </trkpt>
      <trkpt lat="49.35771" lon="1.07262">
        <ele>78</ele>
        <time>2019-11-11T11:10:55Z</time>
      </trkpt>
      <trkpt lat="49.35773" lon="1.07258">
        <ele>78.1</ele>
        <time>2019-11-11T11:10:56Z</time>
      </trkpt>
      <trkpt lat="49.35775" lon="1.07254">
        <ele>78.1</ele>
        <time>2019-11-11T11:10:57Z</time>
      </trkpt>
      <trkpt lat="49.35777" lon="1.07251">
        <ele>78.1</ele>
        <time>2019-11-11T11:10:58Z</time>
      </trkpt>
      <trkpt lat="49.35779" lon="1.07247">
        <ele>79.3</ele>
        <time>2019-11-11T11:10:59Z</time>
      </trkpt>
      <trkpt lat="49.35781" lon="1.07243">
        <ele>79.4</ele>
        <time>2019-11-11T11:11:00Z</time>
      </trkpt>
      <trkpt lat="49.35783" lon="1.07239">
        <ele>79.4</ele>
        <time>2019-11-11T11:11:01Z</time>
      </trkpt>
      <trkpt lat="49.35785" lon="1.07235">
        <ele>79.4</ele>
        <time>2019-11-11T11:11:02Z</time>
      </trkpt>
      <trkpt lat="49.35787" lon="1.07231">
        <ele>79.5</ele>
        <time>2019-11-11T11:11:03Z</time>
      </trkpt>
      <trkpt lat="49.3579" lon="1.07227">
        <ele>79.5</ele>
        <time>2019-11-11T11:11:04Z</time>
      </trkpt>
      <trkpt lat="49.35792" lon="1.07223">
        <ele>79.5</ele>
        <time>2019-11-11T11:11:05Z</time>
      </trkpt>
      <trkpt lat="49.35794" lon="1.07219">
        <ele>79.6</ele>
        <time>2019-11-11T11:11:06Z</time>
      </trkpt>
      <trkpt lat="49.35796" lon="1.07215">
        <ele>79.6</ele>
        <time>2019-11-11T11:11:07Z</time>
      </trkpt>
      <trkpt lat="49.35799" lon="1.07211">
        <ele>79.7</ele>
        <time>2019-11-11T11:11:08Z</time>
      </trkpt>
      <trkpt lat="49.35801" lon="1.07207">
        <ele>79.7</ele>
        <time>2019-11-11T11:11:09Z</time>
      </trkpt>
      <trkpt lat="49.35803" lon="1.07203">
        <ele>79.8</ele>
        <time>2019-11-11T11:11:10Z</time>
      </trkpt>
      <trkpt lat="49.35806" lon="1.07199">
        <ele>79.9</ele>
        <time>2019-11-11T11:11:11Z</time>
      </trkpt>
      <trkpt lat="49.35808" lon="1.07195">
        <ele>79.9</ele>
        <time>2019-11-11T11:11:12Z</time>
      </trkpt>
      <trkpt lat="49.3581" lon="1.07191">
        <ele>80</ele>
        <time>2019-11-11T11:11:13Z</time>
      </trkpt>
      <trkpt lat="49.35812" lon="1.07186">
        <ele>80.1</ele>
        <time>2019-11-11T11:11:14Z</time>
      </trkpt>
      <trkpt lat="49.35814" lon="1.07182">
        <ele>80.2</ele>
        <time>2019-11-11T11:11:15Z</time>
      </trkpt>
      <trkpt lat="49.35816" lon="1.07178">
        <ele>80.3</ele>
        <time>2019-11-11T11:11:16Z</time>
      </trkpt>
      <trkpt lat="49.35818" lon="1.07174">
        <ele>80.4</ele>
        <time>2019-11-11T11:11:17Z</time>
      </trkpt>
      <trkpt lat="49.35821" lon="1.0717">
        <ele>80.5</ele>
        <time>2019-11-11T11:11:18Z</time>
      </trkpt>
      <trkpt lat="49.35823" lon="1.07166">
        <ele>81.3</ele>
        <time>2019-11-11T11:11:19Z</time>
      </trkpt>
      <trkpt lat="49.35825" lon="1.07162">
        <ele>81.3</ele>
        <time>2019-11-11T11:11:20Z</time>
      </trkpt>
      <trkpt lat="49.35827" lon="1.07158">
        <ele>81.4</ele>
        <time>2019-11-11T11:11:21Z</time>
      </trkpt>
      <trkpt lat="49.35829" lon="1.07154">
        <ele>81.4</ele>
        <time>2019-11-11T11:11:22Z</time>
      </trkpt>
      <trkpt lat="49.35831" lon="1.0715">
        <ele>81.5</ele>
        <time>2019-11-11T11:11:23Z</time>
      </trkpt>
      <trkpt lat="49.35834" lon="1.07146">
        <ele>82</ele>
        <time>2019-11-11T11:11:24Z</time>
      </trkpt>
      <trkpt lat="49.35836" lon="1.07142">
        <ele>82.1</ele>
        <time>2019-11-11T11:11:25Z</time>
      </trkpt>
      <trkpt lat="49.35838" lon="1.07138">
        <ele>82.2</ele>
        <time>2019-11-11T11:11:26Z</time>
      </trkpt>
      <trkpt lat="49.3584" lon="1.07134">
        <ele>82.3</ele>
        <time>2019-11-11T11:11:27Z</time>
      </trkpt>
      <trkpt lat="49.35842" lon="1.0713">
        <ele>82.4</ele>
        <time>2019-11-11T11:11:28Z</time>
      </trkpt>
      <trkpt lat="49.35845" lon="1.07126">
        <ele>82.5</ele>
        <time>2019-11-11T11:11:29Z</time>
      </trkpt>
      <trkpt lat="49.35846" lon="1.07123">
        <ele>82.6</ele>
        <time>2019-11-11T11:11:30Z</time>
      </trkpt>
      <trkpt lat="49.35848" lon="1.07119">
        <ele>82.6</ele>
        <time>2019-11-11T11:11:31Z</time>
      </trkpt>
      <trkpt lat="49.3585" lon="1.07115">
        <ele>82.7</ele>
        <time>2019-11-11T11:11:32Z</time>
      </trkpt>
      <trkpt lat="49.35853" lon="1.07111">
        <ele>82.7</ele>
        <time>2019-11-11T11:11:33Z</time>
      </trkpt>
      <trkpt lat="49.35855" lon="1.07107">
        <ele>82.8</ele>
        <time>2019-11-11T11:11:34Z</time>
      </trkpt>
      <trkpt lat="49.35857" lon="1.07102">
        <ele>82.8</ele>
        <time>2019-11-11T11:11:35Z</time>
      </trkpt>
      <trkpt lat="49.35859" lon="1.07098">
        <ele>82.9</ele>
        <time>2019-11-11T11:11:36Z</time>
      </trkpt>
      <trkpt lat="49.35861" lon="1.07094">
        <ele>82.9</ele>
        <time>2019-11-11T11:11:37Z</time>
      </trkpt>
      <trkpt lat="49.35863" lon="1.0709">
        <ele>82.9</ele>
        <time>2019-11-11T11:11:38Z</time>
      </trkpt>
      <trkpt lat="49.35866" lon="1.07086">
        <ele>83</ele>
        <time>2019-11-11T11:11:39Z</time>
      </trkpt>
      <trkpt lat="49.35868" lon="1.07081">
        <ele>83.9</ele>
        <time>2019-11-11T11:11:40Z</time>
      </trkpt>
      <trkpt lat="49.3587" lon="1.07077">
        <ele>83.9</ele>
        <time>2019-11-11T11:11:41Z</time>
      </trkpt>
      <trkpt lat="49.35873" lon="1.07073">
        <ele>84</ele>
        <time>2019-11-11T11:11:42Z</time>
      </trkpt>
      <trkpt lat="49.35875" lon="1.07069">
        <ele>84</ele>
        <time>2019-11-11T11:11:43Z</time>
      </trkpt>
      <trkpt lat="49.35877" lon="1.07065">
        <ele>84.1</ele>
        <time>2019-11-11T11:11:44Z</time>
      </trkpt>
      <trkpt lat="49.35879" lon="1.07061">
        <ele>84.1</ele>
        <time>2019-11-11T11:11:45Z</time>
      </trkpt>
      <trkpt lat="49.35882" lon="1.07057">
        <ele>84.1</ele>
        <time>2019-11-11T11:11:46Z</time>
      </trkpt>
      <trkpt lat="49.35884" lon="1.07054">
        <ele>84.2</ele>
        <time>2019-11-11T11:11:47Z</time>
      </trkpt>
      <trkpt lat="49.35887" lon="1.0705">
        <ele>84.2</ele>
        <time>2019-11-11T11:11:48Z</time>
      </trkpt>
      <trkpt lat="49.35889" lon="1.07046">
        <ele>84.3</ele>
        <time>2019-11-11T11:11:49Z</time>
      </trkpt>
      <trkpt lat="49.35892" lon="1.07042">
        <ele>84.3</ele>
        <time>2019-11-11T11:11:50Z</time>
      </trkpt>
      <trkpt lat="49.35894" lon="1.07038">
        <ele>84.3</ele>
        <time>2019-11-11T11:11:51Z</time>
      </trkpt>
      <trkpt lat="49.35896" lon="1.07034">
        <ele>84.4</ele>
        <time>2019-11-11T11:11:52Z</time>
      </trkpt>
      <trkpt lat="49.35898" lon="1.0703">
        <ele>84.4</ele>
        <time>2019-11-11T11:11:53Z</time>
      </trkpt>
      <trkpt lat="49.35901" lon="1.07026">
        <ele>84.5</ele>
        <time>2019-11-11T11:11:54Z</time>
      </trkpt>
      <trkpt lat="49.35903" lon="1.07021">
        <ele>84.5</ele>
        <time>2019-11-11T11:11:55Z</time>
      </trkpt>
      <trkpt lat="49.35906" lon="1.07018">
        <ele>84.6</ele>
        <time>2019-11-11T11:11:56Z</time>
      </trkpt>
      <trkpt lat="49.35909" lon="1.07014">
        <ele>84.7</ele>
        <time>2019-11-11T11:11:57Z</time>
      </trkpt>
      <trkpt lat="49.35911" lon="1.07009">
        <ele>84.8</ele>
        <time>2019-11-11T11:11:58Z</time>
      </trkpt>
      <trkpt lat="49.35914" lon="1.07005">
        <ele>84.9</ele>
        <time>2019-11-11T11:11:59Z</time>
      </trkpt>
      <trkpt lat="49.35917" lon="1.07">
        <ele>85</ele>
        <time>2019-11-11T11:12:00Z</time>
      </trkpt>
      <trkpt lat="49.35919" lon="1.06996">
        <ele>84.9</ele>
        <time>2019-11-11T11:12:01Z</time>
      </trkpt>
      <trkpt lat="49.35922" lon="1.06991">
        <ele>84.7</ele>
        <time>2019-11-11T11:12:02Z</time>
      </trkpt>
      <trkpt lat="49.35924" lon="1.06986">
        <ele>84.6</ele>
        <time>2019-11-11T11:12:03Z</time>
      </trkpt>
      <trkpt lat="49.35927" lon="1.06981">
        <ele>84.6</ele>
        <time>2019-11-11T11:12:04Z</time>
      </trkpt>
      <trkpt lat="49.35929" lon="1.06977">
        <ele>84.5</ele>
        <time>2019-11-11T11:12:05Z</time>
      </trkpt>
      <trkpt lat="49.35932" lon="1.06972">
        <ele>84.5</ele>
        <time>2019-11-11T11:12:06Z</time>
      </trkpt>
      <trkpt lat="49.35934" lon="1.06968">
        <ele>84.5</ele>
        <time>2019-11-11T11:12:07Z</time>
      </trkpt>
      <trkpt lat="49.35937" lon="1.06963">
        <ele>84.4</ele>
        <time>2019-11-11T11:12:08Z</time>
      </trkpt>
      <trkpt lat="49.35939" lon="1.06958">
        <ele>84.4</ele>
        <time>2019-11-11T11:12:09Z</time>
      </trkpt>
      <trkpt lat="49.35942" lon="1.06954">
        <ele>84.4</ele>
        <time>2019-11-11T11:12:10Z</time>
      </trkpt>
      <trkpt lat="49.35944" lon="1.06949">
        <ele>84.4</ele>
        <time>2019-11-11T11:12:11Z</time>
      </trkpt>
      <trkpt lat="49.35947" lon="1.06944">
        <ele>84.4</ele>
        <time>2019-11-11T11:12:12Z</time>
      </trkpt>
      <trkpt lat="49.3595" lon="1.06939">
        <ele>84.4</ele>
        <time>2019-11-11T11:12:13Z</time>
      </trkpt>
      <trkpt lat="49.35952" lon="1.06935">
        <ele>84.4</ele>
        <time>2019-11-11T11:12:14Z</time>
      </trkpt>
      <trkpt lat="49.35955" lon="1.0693">
        <ele>84.4</ele>
        <time>2019-11-11T11:12:15Z</time>
      </trkpt>
      <trkpt lat="49.35958" lon="1.06925">
        <ele>84.3</ele>
        <time>2019-11-11T11:12:16Z</time>
      </trkpt>
      <trkpt lat="49.3596" lon="1.06921">
        <ele>84.3</ele>
        <time>2019-11-11T11:12:17Z</time>
      </trkpt>
      <trkpt lat="49.35963" lon="1.06916">
        <ele>84.5</ele>
        <time>2019-11-11T11:12:18Z</time>
      </trkpt>
      <trkpt lat="49.35966" lon="1.06911">
        <ele>84.4</ele>
        <time>2019-11-11T11:12:19Z</time>
      </trkpt>
      <trkpt lat="49.35968" lon="1.06906">
        <ele>84.4</ele>
        <time>2019-11-11T11:12:20Z</time>
      </trkpt>
      <trkpt lat="49.35971" lon="1.069">
        <ele>84.4</ele>
        <time>2019-11-11T11:12:21Z</time>
      </trkpt>
      <trkpt lat="49.35973" lon="1.06895">
        <ele>84.4</ele>
        <time>2019-11-11T11:12:22Z</time>
      </trkpt>
      <trkpt lat="49.35975" lon="1.06892">
        <ele>84.4</ele>
        <time>2019-11-11T11:12:23Z</time>
      </trkpt>
      <trkpt lat="49.35977" lon="1.06887">
        <ele>84.4</ele>
        <time>2019-11-11T11:12:24Z</time>
      </trkpt>
      <trkpt lat="49.3598" lon="1.06882">
        <ele>84.4</ele>
        <time>2019-11-11T11:12:25Z</time>
      </trkpt>
      <trkpt lat="49.35983" lon="1.06877">
        <ele>84.4</ele>
        <time>2019-11-11T11:12:26Z</time>
      </trkpt>
      <trkpt lat="49.35985" lon="1.06872">
        <ele>84.4</ele>
        <time>2019-11-11T11:12:27Z</time>
      </trkpt>
      <trkpt lat="49.35988" lon="1.06867">
        <ele>84.3</ele>
        <time>2019-11-11T11:12:28Z</time>
      </trkpt>
      <trkpt lat="49.3599" lon="1.06862">
        <ele>84.3</ele>
        <time>2019-11-11T11:12:29Z</time>
      </trkpt>
      <trkpt lat="49.35993" lon="1.06857">
        <ele>84.3</ele>
        <time>2019-11-11T11:12:30Z</time>
      </trkpt>
      <trkpt lat="49.35996" lon="1.06852">
        <ele>84.2</ele>
        <time>2019-11-11T11:12:31Z</time>
      </trkpt>
      <trkpt lat="49.35998" lon="1.06847">
        <ele>84.2</ele>
        <time>2019-11-11T11:12:32Z</time>
      </trkpt>
      <trkpt lat="49.36001" lon="1.06842">
        <ele>83.9</ele>
        <time>2019-11-11T11:12:33Z</time>
      </trkpt>
      <trkpt lat="49.36004" lon="1.06836">
        <ele>83.9</ele>
        <time>2019-11-11T11:12:34Z</time>
      </trkpt>
      <trkpt lat="49.36006" lon="1.06831">
        <ele>84</ele>
        <time>2019-11-11T11:12:35Z</time>
      </trkpt>
      <trkpt lat="49.36009" lon="1.06826">
        <ele>84</ele>
        <time>2019-11-11T11:12:36Z</time>
      </trkpt>
      <trkpt lat="49.36012" lon="1.06821">
        <ele>84</ele>
        <time>2019-11-11T11:12:37Z</time>
      </trkpt>
      <trkpt lat="49.36015" lon="1.06816">
        <ele>84</ele>
        <time>2019-11-11T11:12:38Z</time>
      </trkpt>
      <trkpt lat="49.36018" lon="1.0681">
        <ele>84</ele>
        <time>2019-11-11T11:12:39Z</time>
      </trkpt>
      <trkpt lat="49.3602" lon="1.06805">
        <ele>84</ele>
        <time>2019-11-11T11:12:40Z</time>
      </trkpt>
      <trkpt lat="49.36023" lon="1.068">
        <ele>84.1</ele>
        <time>2019-11-11T11:12:41Z</time>
      </trkpt>
      <trkpt lat="49.36026" lon="1.06794">
        <ele>84.1</ele>
        <time>2019-11-11T11:12:42Z</time>
      </trkpt>
      <trkpt lat="49.36029" lon="1.06789">
        <ele>84.1</ele>
        <time>2019-11-11T11:12:43Z</time>
      </trkpt>
      <trkpt lat="49.36032" lon="1.06784">
        <ele>84.1</ele>
        <time>2019-11-11T11:12:44Z</time>
      </trkpt>
      <trkpt lat="49.36035" lon="1.06779">
        <ele>84.1</ele>
        <time>2019-11-11T11:12:45Z</time>
      </trkpt>
      <trkpt lat="49.36037" lon="1.06773">
        <ele>84.1</ele>
        <time>2019-11-11T11:12:46Z</time>
      </trkpt>
      <trkpt lat="49.3604" lon="1.06768">
        <ele>84.1</ele>
        <time>2019-11-11T11:12:47Z</time>
      </trkpt>
      <trkpt lat="49.36043" lon="1.06763">
        <ele>84.1</ele>
        <time>2019-11-11T11:12:48Z</time>
      </trkpt>
      <trkpt lat="49.36046" lon="1.06757">
        <ele>84.1</ele>
        <time>2019-11-11T11:12:49Z</time>
      </trkpt>
      <trkpt lat="49.36049" lon="1.06752">
        <ele>84.1</ele>
        <time>2019-11-11T11:12:50Z</time>
      </trkpt>
      <trkpt lat="49.36052" lon="1.06747">
        <ele>84.7</ele>
        <time>2019-11-11T11:12:51Z</time>
      </trkpt>
      <trkpt lat="49.36055" lon="1.06742">
        <ele>84.7</ele>
        <time>2019-11-11T11:12:52Z</time>
      </trkpt>
      <trkpt lat="49.36058" lon="1.06737">
        <ele>84.7</ele>
        <time>2019-11-11T11:12:53Z</time>
      </trkpt>
      <trkpt lat="49.36061" lon="1.06731">
        <ele>84.7</ele>
        <time>2019-11-11T11:12:54Z</time>
      </trkpt>
      <trkpt lat="49.36064" lon="1.06726">
        <ele>84.7</ele>
        <time>2019-11-11T11:12:55Z</time>
      </trkpt>
      <trkpt lat="49.36067" lon="1.0672">
        <ele>84.8</ele>
        <time>2019-11-11T11:12:56Z</time>
      </trkpt>
      <trkpt lat="49.3607" lon="1.06715">
        <ele>84.8</ele>
        <time>2019-11-11T11:12:57Z</time>
      </trkpt>
      <trkpt lat="49.36073" lon="1.0671">
        <ele>84.8</ele>
        <time>2019-11-11T11:12:58Z</time>
      </trkpt>
      <trkpt lat="49.36076" lon="1.06704">
        <ele>84.9</ele>
        <time>2019-11-11T11:12:59Z</time>
      </trkpt>
      <trkpt lat="49.36079" lon="1.06699">
        <ele>84.9</ele>
        <time>2019-11-11T11:13:00Z</time>
      </trkpt>
      <trkpt lat="49.36082" lon="1.06694">
        <ele>84.9</ele>
        <time>2019-11-11T11:13:01Z</time>
      </trkpt>
      <trkpt lat="49.36085" lon="1.06688">
        <ele>84.2</ele>
        <time>2019-11-11T11:13:02Z</time>
      </trkpt>
      <trkpt lat="49.36089" lon="1.06683">
        <ele>84.3</ele>
        <time>2019-11-11T11:13:03Z</time>
      </trkpt>
      <trkpt lat="49.36092" lon="1.06677">
        <ele>84.4</ele>
        <time>2019-11-11T11:13:04Z</time>
      </trkpt>
      <trkpt lat="49.36095" lon="1.06671">
        <ele>84.4</ele>
        <time>2019-11-11T11:13:05Z</time>
      </trkpt>
      <trkpt lat="49.36098" lon="1.06665">
        <ele>84.7</ele>
        <time>2019-11-11T11:13:06Z</time>
      </trkpt>
      <trkpt lat="49.36101" lon="1.0666">
        <ele>84.7</ele>
        <time>2019-11-11T11:13:07Z</time>
      </trkpt>
      <trkpt lat="49.36104" lon="1.06654">
        <ele>84.6</ele>
        <time>2019-11-11T11:13:08Z</time>
      </trkpt>
      <trkpt lat="49.36106" lon="1.06649">
        <ele>84.6</ele>
        <time>2019-11-11T11:13:09Z</time>
      </trkpt>
      <trkpt lat="49.36109" lon="1.06643">
        <ele>84.6</ele>
        <time>2019-11-11T11:13:10Z</time>
      </trkpt>
      <trkpt lat="49.36112" lon="1.06637">
        <ele>84.5</ele>
        <time>2019-11-11T11:13:11Z</time>
      </trkpt>
      <trkpt lat="49.36115" lon="1.06632">
        <ele>84.5</ele>
        <time>2019-11-11T11:13:12Z</time>
      </trkpt>
      <trkpt lat="49.36118" lon="1.06626">
        <ele>84.5</ele>
        <time>2019-11-11T11:13:13Z</time>
      </trkpt>
      <trkpt lat="49.36121" lon="1.0662">
        <ele>84.6</ele>
        <time>2019-11-11T11:13:14Z</time>
      </trkpt>
      <trkpt lat="49.36125" lon="1.06615">
        <ele>84.6</ele>
        <time>2019-11-11T11:13:15Z</time>
      </trkpt>
      <trkpt lat="49.36128" lon="1.06609">
        <ele>84.6</ele>
        <time>2019-11-11T11:13:16Z</time>
      </trkpt>
      <trkpt lat="49.36131" lon="1.06603">
        <ele>84.6</ele>
        <time>2019-11-11T11:13:17Z</time>
      </trkpt>
      <trkpt lat="49.36135" lon="1.06598">
        <ele>84.6</ele>
        <time>2019-11-11T11:13:18Z</time>
      </trkpt>
      <trkpt lat="49.36138" lon="1.06592">
        <ele>84.7</ele>
        <time>2019-11-11T11:13:19Z</time>
      </trkpt>
      <trkpt lat="49.36141" lon="1.06586">
        <ele>84.7</ele>
        <time>2019-11-11T11:13:20Z</time>
      </trkpt>
      <trkpt lat="49.36144" lon="1.06581">
        <ele>84.9</ele>
        <time>2019-11-11T11:13:21Z</time>
      </trkpt>
      <trkpt lat="49.36148" lon="1.06575">
        <ele>84.9</ele>
        <time>2019-11-11T11:13:22Z</time>
      </trkpt>
      <trkpt lat="49.36151" lon="1.0657">
        <ele>84.8</ele>
        <time>2019-11-11T11:13:23Z</time>
      </trkpt>
      <trkpt lat="49.36154" lon="1.06564">
        <ele>84.8</ele>
        <time>2019-11-11T11:13:24Z</time>
      </trkpt>
      <trkpt lat="49.36157" lon="1.06558">
        <ele>84.8</ele>
        <time>2019-11-11T11:13:25Z</time>
      </trkpt>
      <trkpt lat="49.36161" lon="1.06553">
        <ele>84.7</ele>
        <time>2019-11-11T11:13:26Z</time>
      </trkpt>
      <trkpt lat="49.36164" lon="1.06547">
        <ele>84.7</ele>
        <time>2019-11-11T11:13:27Z</time>
      </trkpt>
      <trkpt lat="49.36167" lon="1.06541">
        <ele>84.2</ele>
        <time>2019-11-11T11:13:28Z</time>
      </trkpt>
      <trkpt lat="49.3617" lon="1.06535">
        <ele>84.1</ele>
        <time>2019-11-11T11:13:29Z</time>
      </trkpt>
      <trkpt lat="49.36173" lon="1.0653">
        <ele>84.1</ele>
        <time>2019-11-11T11:13:30Z</time>
      </trkpt>
      <trkpt lat="49.36176" lon="1.06523">
        <ele>84.1</ele>
        <time>2019-11-11T11:13:31Z</time>
      </trkpt>
      <trkpt lat="49.36179" lon="1.06518">
        <ele>84.1</ele>
        <time>2019-11-11T11:13:32Z</time>
      </trkpt>
      <trkpt lat="49.36182" lon="1.06513">
        <ele>84</ele>
        <time>2019-11-11T11:13:33Z</time>
      </trkpt>
      <trkpt lat="49.36185" lon="1.06507">
        <ele>84</ele>
        <time>2019-11-11T11:13:34Z</time>
      </trkpt>
      <trkpt lat="49.36188" lon="1.06501">
        <ele>84</ele>
        <time>2019-11-11T11:13:35Z</time>
      </trkpt>
      <trkpt lat="49.36192" lon="1.06496">
        <ele>84.6</ele>
        <time>2019-11-11T11:13:36Z</time>
      </trkpt>
      <trkpt lat="49.36194" lon="1.0649">
        <ele>84.6</ele>
        <time>2019-11-11T11:13:37Z</time>
      </trkpt>
      <trkpt lat="49.36197" lon="1.06485">
        <ele>84.7</ele>
        <time>2019-11-11T11:13:38Z</time>
      </trkpt>
      <trkpt lat="49.362" lon="1.06479">
        <ele>84.8</ele>
        <time>2019-11-11T11:13:39Z</time>
      </trkpt>
      <trkpt lat="49.36203" lon="1.06474">
        <ele>84.8</ele>
        <time>2019-11-11T11:13:40Z</time>
      </trkpt>
      <trkpt lat="49.36206" lon="1.06468">
        <ele>84.9</ele>
        <time>2019-11-11T11:13:41Z</time>
      </trkpt>
      <trkpt lat="49.36209" lon="1.06462">
        <ele>85</ele>
        <time>2019-11-11T11:13:42Z</time>
      </trkpt>
      <trkpt lat="49.36212" lon="1.06457">
        <ele>85</ele>
        <time>2019-11-11T11:13:43Z</time>
      </trkpt>
      <trkpt lat="49.36215" lon="1.06451">
        <ele>85.1</ele>
        <time>2019-11-11T11:13:44Z</time>
      </trkpt>
      <trkpt lat="49.36218" lon="1.06446">
        <ele>85.2</ele>
        <time>2019-11-11T11:13:45Z</time>
      </trkpt>
      <trkpt lat="49.36221" lon="1.0644">
        <ele>85.2</ele>
        <time>2019-11-11T11:13:46Z</time>
      </trkpt>
      <trkpt lat="49.36224" lon="1.06434">
        <ele>85.3</ele>
        <time>2019-11-11T11:13:47Z</time>
      </trkpt>
      <trkpt lat="49.36227" lon="1.06429">
        <ele>85.4</ele>
        <time>2019-11-11T11:13:48Z</time>
      </trkpt>
      <trkpt lat="49.3623" lon="1.06423">
        <ele>85.5</ele>
        <time>2019-11-11T11:13:49Z</time>
      </trkpt>
      <trkpt lat="49.36233" lon="1.06417">
        <ele>85.6</ele>
        <time>2019-11-11T11:13:50Z</time>
      </trkpt>
      <trkpt lat="49.36237" lon="1.06412">
        <ele>86.6</ele>
        <time>2019-11-11T11:13:51Z</time>
      </trkpt>
      <trkpt lat="49.36239" lon="1.06405">
        <ele>86.8</ele>
        <time>2019-11-11T11:13:52Z</time>
      </trkpt>
      <trkpt lat="49.36242" lon="1.064">
        <ele>86.9</ele>
        <time>2019-11-11T11:13:53Z</time>
      </trkpt>
      <trkpt lat="49.36245" lon="1.06394">
        <ele>87</ele>
        <time>2019-11-11T11:13:54Z</time>
      </trkpt>
      <trkpt lat="49.36248" lon="1.06388">
        <ele>87.2</ele>
        <time>2019-11-11T11:13:55Z</time>
      </trkpt>
      <trkpt lat="49.36251" lon="1.06382">
        <ele>86.2</ele>
        <time>2019-11-11T11:13:56Z</time>
      </trkpt>
      <trkpt lat="49.36254" lon="1.06376">
        <ele>86.4</ele>
        <time>2019-11-11T11:13:57Z</time>
      </trkpt>
      <trkpt lat="49.36258" lon="1.06371">
        <ele>86.5</ele>
        <time>2019-11-11T11:13:58Z</time>
      </trkpt>
      <trkpt lat="49.36261" lon="1.06364">
        <ele>86.7</ele>
        <time>2019-11-11T11:13:59Z</time>
      </trkpt>
      <trkpt lat="49.36264" lon="1.06359">
        <ele>86.9</ele>
        <time>2019-11-11T11:14:00Z</time>
      </trkpt>
      <trkpt lat="49.36267" lon="1.06353">
        <ele>87</ele>
        <time>2019-11-11T11:14:01Z</time>
      </trkpt>
      <trkpt lat="49.3627" lon="1.06347">
        <ele>87.1</ele>
        <time>2019-11-11T11:14:02Z</time>
      </trkpt>
      <trkpt lat="49.36273" lon="1.06341">
        <ele>87.1</ele>
        <time>2019-11-11T11:14:03Z</time>
      </trkpt>
      <trkpt lat="49.36276" lon="1.06335">
        <ele>87</ele>
        <time>2019-11-11T11:14:04Z</time>
      </trkpt>
      <trkpt lat="49.36279" lon="1.06329">
        <ele>88.1</ele>
        <time>2019-11-11T11:14:05Z</time>
      </trkpt>
      <trkpt lat="49.36283" lon="1.06324">
        <ele>87.9</ele>
        <time>2019-11-11T11:14:06Z</time>
      </trkpt>
      <trkpt lat="49.36286" lon="1.06318">
        <ele>87.8</ele>
        <time>2019-11-11T11:14:07Z</time>
      </trkpt>
      <trkpt lat="49.36289" lon="1.06312">
        <ele>87.7</ele>
        <time>2019-11-11T11:14:08Z</time>
      </trkpt>
      <trkpt lat="49.36292" lon="1.06307">
        <ele>87.6</ele>
        <time>2019-11-11T11:14:09Z</time>
      </trkpt>
      <trkpt lat="49.36295" lon="1.06301">
        <ele>87.6</ele>
        <time>2019-11-11T11:14:10Z</time>
      </trkpt>
      <trkpt lat="49.36298" lon="1.06295">
        <ele>87.5</ele>
        <time>2019-11-11T11:14:11Z</time>
      </trkpt>
      <trkpt lat="49.36301" lon="1.0629">
        <ele>87.5</ele>
        <time>2019-11-11T11:14:12Z</time>
      </trkpt>
      <trkpt lat="49.36304" lon="1.06284">
        <ele>87.5</ele>
        <time>2019-11-11T11:14:13Z</time>
      </trkpt>
      <trkpt lat="49.36308" lon="1.06278">
        <ele>87.5</ele>
        <time>2019-11-11T11:14:14Z</time>
      </trkpt>
      <trkpt lat="49.36311" lon="1.06273">
        <ele>87.5</ele>
        <time>2019-11-11T11:14:15Z</time>
      </trkpt>
      <trkpt lat="49.36314" lon="1.06268">
        <ele>87.4</ele>
        <time>2019-11-11T11:14:16Z</time>
      </trkpt>
      <trkpt lat="49.36317" lon="1.06262">
        <ele>87.4</ele>
        <time>2019-11-11T11:14:17Z</time>
      </trkpt>
      <trkpt lat="49.3632" lon="1.06256">
        <ele>87.3</ele>
        <time>2019-11-11T11:14:18Z</time>
      </trkpt>
      <trkpt lat="49.36323" lon="1.06251">
        <ele>87.2</ele>
        <time>2019-11-11T11:14:19Z</time>
      </trkpt>
      <trkpt lat="49.36326" lon="1.06246">
        <ele>87.6</ele>
        <time>2019-11-11T11:14:20Z</time>
      </trkpt>
      <trkpt lat="49.36329" lon="1.0624">
        <ele>87.7</ele>
        <time>2019-11-11T11:14:21Z</time>
      </trkpt>
      <trkpt lat="49.36332" lon="1.06234">
        <ele>87.9</ele>
        <time>2019-11-11T11:14:22Z</time>
      </trkpt>
      <trkpt lat="49.36335" lon="1.06229">
        <ele>86.9</ele>
        <time>2019-11-11T11:14:23Z</time>
      </trkpt>
      <trkpt lat="49.36338" lon="1.06223">
        <ele>87</ele>
        <time>2019-11-11T11:14:24Z</time>
      </trkpt>
      <trkpt lat="49.36341" lon="1.06217">
        <ele>87</ele>
        <time>2019-11-11T11:14:25Z</time>
      </trkpt>
      <trkpt lat="49.36344" lon="1.06212">
        <ele>87.1</ele>
        <time>2019-11-11T11:14:26Z</time>
      </trkpt>
      <trkpt lat="49.36348" lon="1.06206">
        <ele>87.1</ele>
        <time>2019-11-11T11:14:27Z</time>
      </trkpt>
      <trkpt lat="49.36351" lon="1.062">
        <ele>87.2</ele>
        <time>2019-11-11T11:14:28Z</time>
      </trkpt>
      <trkpt lat="49.36354" lon="1.06195">
        <ele>87.3</ele>
        <time>2019-11-11T11:14:29Z</time>
      </trkpt>
      <trkpt lat="49.36357" lon="1.06189">
        <ele>87.3</ele>
        <time>2019-11-11T11:14:30Z</time>
      </trkpt>
      <trkpt lat="49.3636" lon="1.06184">
        <ele>87.4</ele>
        <time>2019-11-11T11:14:31Z</time>
      </trkpt>
      <trkpt lat="49.36363" lon="1.06178">
        <ele>87.3</ele>
        <time>2019-11-11T11:14:32Z</time>
      </trkpt>
      <trkpt lat="49.36366" lon="1.06172">
        <ele>87.3</ele>
        <time>2019-11-11T11:14:33Z</time>
      </trkpt>
      <trkpt lat="49.36369" lon="1.06166">
        <ele>88.4</ele>
        <time>2019-11-11T11:14:34Z</time>
      </trkpt>
      <trkpt lat="49.36371" lon="1.06161">
        <ele>88.3</ele>
        <time>2019-11-11T11:14:35Z</time>
      </trkpt>
      <trkpt lat="49.36374" lon="1.06156">
        <ele>88.2</ele>
        <time>2019-11-11T11:14:36Z</time>
      </trkpt>
      <trkpt lat="49.36377" lon="1.0615">
        <ele>88.2</ele>
        <time>2019-11-11T11:14:37Z</time>
      </trkpt>
      <trkpt lat="49.3638" lon="1.06145">
        <ele>88.1</ele>
        <time>2019-11-11T11:14:38Z</time>
      </trkpt>
      <trkpt lat="49.36383" lon="1.0614">
        <ele>88.1</ele>
        <time>2019-11-11T11:14:39Z</time>
      </trkpt>
      <trkpt lat="49.36386" lon="1.06135">
        <ele>88.1</ele>
        <time>2019-11-11T11:14:40Z</time>
      </trkpt>
      <trkpt lat="49.36389" lon="1.06129">
        <ele>88.1</ele>
        <time>2019-11-11T11:14:41Z</time>
      </trkpt>
      <trkpt lat="49.36392" lon="1.06124">
        <ele>88.1</ele>
        <time>2019-11-11T11:14:42Z</time>
      </trkpt>
      <trkpt lat="49.36395" lon="1.06118">
        <ele>88.2</ele>
        <time>2019-11-11T11:14:43Z</time>
      </trkpt>
      <trkpt lat="49.36398" lon="1.06112">
        <ele>88.2</ele>
        <time>2019-11-11T11:14:44Z</time>
      </trkpt>
      <trkpt lat="49.36401" lon="1.06107">
        <ele>88.2</ele>
        <time>2019-11-11T11:14:45Z</time>
      </trkpt>
      <trkpt lat="49.36404" lon="1.06101">
        <ele>88.2</ele>
        <time>2019-11-11T11:14:46Z</time>
      </trkpt>
      <trkpt lat="49.36407" lon="1.06095">
        <ele>88.2</ele>
        <time>2019-11-11T11:14:47Z</time>
      </trkpt>
      <trkpt lat="49.3641" lon="1.06089">
        <ele>88.1</ele>
        <time>2019-11-11T11:14:48Z</time>
      </trkpt>
      <trkpt lat="49.36413" lon="1.06084">
        <ele>88.1</ele>
        <time>2019-11-11T11:14:49Z</time>
      </trkpt>
      <trkpt lat="49.36416" lon="1.06078">
        <ele>88.6</ele>
        <time>2019-11-11T11:14:50Z</time>
      </trkpt>
      <trkpt lat="49.36419" lon="1.06072">
        <ele>88.3</ele>
        <time>2019-11-11T11:14:51Z</time>
      </trkpt>
      <trkpt lat="49.36422" lon="1.06067">
        <ele>88.4</ele>
        <time>2019-11-11T11:14:52Z</time>
      </trkpt>
      <trkpt lat="49.36425" lon="1.06061">
        <ele>88.5</ele>
        <time>2019-11-11T11:14:53Z</time>
      </trkpt>
      <trkpt lat="49.36428" lon="1.06055">
        <ele>88.6</ele>
        <time>2019-11-11T11:14:54Z</time>
      </trkpt>
      <trkpt lat="49.36432" lon="1.0605">
        <ele>88.7</ele>
        <time>2019-11-11T11:14:55Z</time>
      </trkpt>
      <trkpt lat="49.36435" lon="1.06044">
        <ele>88.8</ele>
        <time>2019-11-11T11:14:56Z</time>
      </trkpt>
      <trkpt lat="49.36438" lon="1.06039">
        <ele>88.9</ele>
        <time>2019-11-11T11:14:57Z</time>
      </trkpt>
      <trkpt lat="49.36441" lon="1.06033">
        <ele>89</ele>
        <time>2019-11-11T11:14:58Z</time>
      </trkpt>
      <trkpt lat="49.36444" lon="1.06027">
        <ele>89.1</ele>
        <time>2019-11-11T11:14:59Z</time>
      </trkpt>
      <trkpt lat="49.36447" lon="1.06022">
        <ele>89.1</ele>
        <time>2019-11-11T11:15:00Z</time>
      </trkpt>
      <trkpt lat="49.36451" lon="1.06016">
        <ele>89</ele>
        <time>2019-11-11T11:15:01Z</time>
      </trkpt>
      <trkpt lat="49.36454" lon="1.06011">
        <ele>89</ele>
        <time>2019-11-11T11:15:02Z</time>
      </trkpt>
      <trkpt lat="49.36457" lon="1.06005">
        <ele>88.9</ele>
        <time>2019-11-11T11:15:03Z</time>
      </trkpt>
      <trkpt lat="49.3646" lon="1.05999">
        <ele>90</ele>
        <time>2019-11-11T11:15:04Z</time>
      </trkpt>
      <trkpt lat="49.36464" lon="1.05993">
        <ele>89.9</ele>
        <time>2019-11-11T11:15:05Z</time>
      </trkpt>
      <trkpt lat="49.36467" lon="1.05987">
        <ele>89.8</ele>
        <time>2019-11-11T11:15:06Z</time>
      </trkpt>
      <trkpt lat="49.3647" lon="1.05981">
        <ele>89.8</ele>
        <time>2019-11-11T11:15:07Z</time>
      </trkpt>
      <trkpt lat="49.36473" lon="1.05976">
        <ele>89.8</ele>
        <time>2019-11-11T11:15:08Z</time>
      </trkpt>
      <trkpt lat="49.36476" lon="1.0597">
        <ele>89.9</ele>
        <time>2019-11-11T11:15:09Z</time>
      </trkpt>
      <trkpt lat="49.36479" lon="1.05964">
        <ele>89.9</ele>
        <time>2019-11-11T11:15:10Z</time>
      </trkpt>
      <trkpt lat="49.36482" lon="1.05958">
        <ele>90</ele>
        <time>2019-11-11T11:15:11Z</time>
      </trkpt>
      <trkpt lat="49.36486" lon="1.05952">
        <ele>90</ele>
        <time>2019-11-11T11:15:12Z</time>
      </trkpt>
      <trkpt lat="49.36489" lon="1.05947">
        <ele>90.1</ele>
        <time>2019-11-11T11:15:13Z</time>
      </trkpt>
      <trkpt lat="49.36492" lon="1.05941">
        <ele>90.1</ele>
        <time>2019-11-11T11:15:14Z</time>
      </trkpt>
      <trkpt lat="49.36495" lon="1.05935">
        <ele>90.1</ele>
        <time>2019-11-11T11:15:15Z</time>
      </trkpt>
      <trkpt lat="49.36498" lon="1.05929">
        <ele>90.1</ele>
        <time>2019-11-11T11:15:16Z</time>
      </trkpt>
      <trkpt lat="49.36501" lon="1.05923">
        <ele>89.5</ele>
        <time>2019-11-11T11:15:17Z</time>
      </trkpt>
      <trkpt lat="49.36505" lon="1.05917">
        <ele>89.6</ele>
        <time>2019-11-11T11:15:18Z</time>
      </trkpt>
      <trkpt lat="49.36508" lon="1.05911">
        <ele>89.8</ele>
        <time>2019-11-11T11:15:19Z</time>
      </trkpt>
      <trkpt lat="49.36511" lon="1.05906">
        <ele>89.8</ele>
        <time>2019-11-11T11:15:20Z</time>
      </trkpt>
      <trkpt lat="49.36514" lon="1.059">
        <ele>89.7</ele>
        <time>2019-11-11T11:15:21Z</time>
      </trkpt>
      <trkpt lat="49.36517" lon="1.05894">
        <ele>89.7</ele>
        <time>2019-11-11T11:15:22Z</time>
      </trkpt>
      <trkpt lat="49.36521" lon="1.05888">
        <ele>89.7</ele>
        <time>2019-11-11T11:15:23Z</time>
      </trkpt>
      <trkpt lat="49.36524" lon="1.05882">
        <ele>89.7</ele>
        <time>2019-11-11T11:15:24Z</time>
      </trkpt>
      <trkpt lat="49.36527" lon="1.05876">
        <ele>89.7</ele>
        <time>2019-11-11T11:15:25Z</time>
      </trkpt>
      <trkpt lat="49.3653" lon="1.0587">
        <ele>89.8</ele>
        <time>2019-11-11T11:15:26Z</time>
      </trkpt>
      <trkpt lat="49.36534" lon="1.05864">
        <ele>89.8</ele>
        <time>2019-11-11T11:15:27Z</time>
      </trkpt>
      <trkpt lat="49.36537" lon="1.05858">
        <ele>89.8</ele>
        <time>2019-11-11T11:15:28Z</time>
      </trkpt>
      <trkpt lat="49.3654" lon="1.05853">
        <ele>89.8</ele>
        <time>2019-11-11T11:15:29Z</time>
      </trkpt>
      <trkpt lat="49.36544" lon="1.05847">
        <ele>89.7</ele>
        <time>2019-11-11T11:15:30Z</time>
      </trkpt>
      <trkpt lat="49.36547" lon="1.05841">
        <ele>89.7</ele>
        <time>2019-11-11T11:15:31Z</time>
      </trkpt>
      <trkpt lat="49.3655" lon="1.05835">
        <ele>89.7</ele>
        <time>2019-11-11T11:15:32Z</time>
      </trkpt>
      <trkpt lat="49.36553" lon="1.05829">
        <ele>91.1</ele>
        <time>2019-11-11T11:15:33Z</time>
      </trkpt>
      <trkpt lat="49.36556" lon="1.05823">
        <ele>91.1</ele>
        <time>2019-11-11T11:15:34Z</time>
      </trkpt>
      <trkpt lat="49.3656" lon="1.05817">
        <ele>91.1</ele>
        <time>2019-11-11T11:15:35Z</time>
      </trkpt>
      <trkpt lat="49.36563" lon="1.05811">
        <ele>91.2</ele>
        <time>2019-11-11T11:15:36Z</time>
      </trkpt>
      <trkpt lat="49.36566" lon="1.05806">
        <ele>91.3</ele>
        <time>2019-11-11T11:15:37Z</time>
      </trkpt>
      <trkpt lat="49.36569" lon="1.05801">
        <ele>91.4</ele>
        <time>2019-11-11T11:15:38Z</time>
      </trkpt>
      <trkpt lat="49.36572" lon="1.05796">
        <ele>91.5</ele>
        <time>2019-11-11T11:15:39Z</time>
      </trkpt>
      <trkpt lat="49.36574" lon="1.0579">
        <ele>91.7</ele>
        <time>2019-11-11T11:15:40Z</time>
      </trkpt>
      <trkpt lat="49.36577" lon="1.05785">
        <ele>91.9</ele>
        <time>2019-11-11T11:15:41Z</time>
      </trkpt>
      <trkpt lat="49.36579" lon="1.0578">
        <ele>92</ele>
        <time>2019-11-11T11:15:42Z</time>
      </trkpt>
      <trkpt lat="49.36582" lon="1.05775">
        <ele>92.2</ele>
        <time>2019-11-11T11:15:43Z</time>
      </trkpt>
      <trkpt lat="49.36585" lon="1.05771">
        <ele>91</ele>
        <time>2019-11-11T11:15:44Z</time>
      </trkpt>
      <trkpt lat="49.36587" lon="1.05767">
        <ele>91.2</ele>
        <time>2019-11-11T11:15:45Z</time>
      </trkpt>
      <trkpt lat="49.3659" lon="1.05762">
        <ele>91.5</ele>
        <time>2019-11-11T11:15:46Z</time>
      </trkpt>
      <trkpt lat="49.36593" lon="1.05757">
        <ele>91.6</ele>
        <time>2019-11-11T11:15:47Z</time>
      </trkpt>
      <trkpt lat="49.36595" lon="1.05751">
        <ele>91.7</ele>
        <time>2019-11-11T11:15:48Z</time>
      </trkpt>
      <trkpt lat="49.36598" lon="1.05746">
        <ele>91.9</ele>
        <time>2019-11-11T11:15:49Z</time>
      </trkpt>
      <trkpt lat="49.36601" lon="1.05742">
        <ele>91.7</ele>
        <time>2019-11-11T11:15:50Z</time>
      </trkpt>
      <trkpt lat="49.36604" lon="1.05737">
        <ele>91.5</ele>
        <time>2019-11-11T11:15:51Z</time>
      </trkpt>
      <trkpt lat="49.36607" lon="1.05732">
        <ele>91.3</ele>
        <time>2019-11-11T11:15:52Z</time>
      </trkpt>
      <trkpt lat="49.3661" lon="1.05728">
        <ele>91.2</ele>
        <time>2019-11-11T11:15:53Z</time>
      </trkpt>
      <trkpt lat="49.36613" lon="1.05726">
        <ele>91.1</ele>
        <time>2019-11-11T11:15:54Z</time>
      </trkpt>
      <trkpt lat="49.36617" lon="1.05725">
        <ele>91</ele>
        <time>2019-11-11T11:15:55Z</time>
      </trkpt>
      <trkpt lat="49.36621" lon="1.05725">
        <ele>90.9</ele>
        <time>2019-11-11T11:15:56Z</time>
      </trkpt>
      <trkpt lat="49.36625" lon="1.05726">
        <ele>90.8</ele>
        <time>2019-11-11T11:15:57Z</time>
      </trkpt>
      <trkpt lat="49.36629" lon="1.05728">
        <ele>90.7</ele>
        <time>2019-11-11T11:15:58Z</time>
      </trkpt>
      <trkpt lat="49.36633" lon="1.05731">
        <ele>90.6</ele>
        <time>2019-11-11T11:15:59Z</time>
      </trkpt>
      <trkpt lat="49.36637" lon="1.05734">
        <ele>90.5</ele>
        <time>2019-11-11T11:16:00Z</time>
      </trkpt>
      <trkpt lat="49.36642" lon="1.05737">
        <ele>90.3</ele>
        <time>2019-11-11T11:16:01Z</time>
      </trkpt>
      <trkpt lat="49.36646" lon="1.0574">
        <ele>90.2</ele>
        <time>2019-11-11T11:16:02Z</time>
      </trkpt>
      <trkpt lat="49.36651" lon="1.05743">
        <ele>90</ele>
        <time>2019-11-11T11:16:03Z</time>
      </trkpt>
      <trkpt lat="49.36655" lon="1.05746">
        <ele>89.7</ele>
        <time>2019-11-11T11:16:04Z</time>
      </trkpt>
      <trkpt lat="49.3666" lon="1.0575">
        <ele>89.2</ele>
        <time>2019-11-11T11:16:05Z</time>
      </trkpt>
      <trkpt lat="49.36664" lon="1.05753">
        <ele>89.1</ele>
        <time>2019-11-11T11:16:06Z</time>
      </trkpt>
      <trkpt lat="49.36669" lon="1.05756">
        <ele>88.5</ele>
        <time>2019-11-11T11:16:07Z</time>
      </trkpt>
      <trkpt lat="49.36674" lon="1.05759">
        <ele>88.2</ele>
        <time>2019-11-11T11:16:08Z</time>
      </trkpt>
      <trkpt lat="49.36678" lon="1.05762">
        <ele>88</ele>
        <time>2019-11-11T11:16:09Z</time>
      </trkpt>
      <trkpt lat="49.36683" lon="1.05765">
        <ele>87.8</ele>
        <time>2019-11-11T11:16:10Z</time>
      </trkpt>
      <trkpt lat="49.36688" lon="1.05769">
        <ele>87.6</ele>
        <time>2019-11-11T11:16:11Z</time>
      </trkpt>
      <trkpt lat="49.36692" lon="1.05772">
        <ele>87.4</ele>
        <time>2019-11-11T11:16:12Z</time>
      </trkpt>
      <trkpt lat="49.36697" lon="1.05776">
        <ele>87.3</ele>
        <time>2019-11-11T11:16:13Z</time>
      </trkpt>
      <trkpt lat="49.36702" lon="1.05779">
        <ele>87.2</ele>
        <time>2019-11-11T11:16:14Z</time>
      </trkpt>
      <trkpt lat="49.36707" lon="1.05783">
        <ele>87.1</ele>
        <time>2019-11-11T11:16:15Z</time>
      </trkpt>
      <trkpt lat="49.36712" lon="1.05786">
        <ele>87</ele>
        <time>2019-11-11T11:16:16Z</time>
      </trkpt>
      <trkpt lat="49.36718" lon="1.0579">
        <ele>86.9</ele>
        <time>2019-11-11T11:16:17Z</time>
      </trkpt>
      <trkpt lat="49.36723" lon="1.05794">
        <ele>86.8</ele>
        <time>2019-11-11T11:16:18Z</time>
      </trkpt>
      <trkpt lat="49.36728" lon="1.05798">
        <ele>86.8</ele>
        <time>2019-11-11T11:16:19Z</time>
      </trkpt>
      <trkpt lat="49.36733" lon="1.05802">
        <ele>86.7</ele>
        <time>2019-11-11T11:16:20Z</time>
      </trkpt>
      <trkpt lat="49.36738" lon="1.05806">
        <ele>86.6</ele>
        <time>2019-11-11T11:16:21Z</time>
      </trkpt>
      <trkpt lat="49.36744" lon="1.05811">
        <ele>86.5</ele>
        <time>2019-11-11T11:16:22Z</time>
      </trkpt>
      <trkpt lat="49.36749" lon="1.05815">
        <ele>86.4</ele>
        <time>2019-11-11T11:16:23Z</time>
      </trkpt>
      <trkpt lat="49.36755" lon="1.05818">
        <ele>85.8</ele>
        <time>2019-11-11T11:16:24Z</time>
      </trkpt>
      <trkpt lat="49.3676" lon="1.05822">
        <ele>85.8</ele>
        <time>2019-11-11T11:16:25Z</time>
      </trkpt>
      <trkpt lat="49.36766" lon="1.05825">
        <ele>85.7</ele>
        <time>2019-11-11T11:16:26Z</time>
      </trkpt>
      <trkpt lat="49.36771" lon="1.05829">
        <ele>85.7</ele>
        <time>2019-11-11T11:16:27Z</time>
      </trkpt>
      <trkpt lat="49.36776" lon="1.05833">
        <ele>85.6</ele>
        <time>2019-11-11T11:16:28Z</time>
      </trkpt>
      <trkpt lat="49.36782" lon="1.05837">
        <ele>85.3</ele>
        <time>2019-11-11T11:16:29Z</time>
      </trkpt>
      <trkpt lat="49.36787" lon="1.05841">
        <ele>85.2</ele>
        <time>2019-11-11T11:16:30Z</time>
      </trkpt>
      <trkpt lat="49.36793" lon="1.05845">
        <ele>85.1</ele>
        <time>2019-11-11T11:16:31Z</time>
      </trkpt>
      <trkpt lat="49.36798" lon="1.05849">
        <ele>85.1</ele>
        <time>2019-11-11T11:16:32Z</time>
      </trkpt>
      <trkpt lat="49.36803" lon="1.05853">
        <ele>85</ele>
        <time>2019-11-11T11:16:33Z</time>
      </trkpt>
      <trkpt lat="49.36809" lon="1.05857">
        <ele>85</ele>
        <time>2019-11-11T11:16:34Z</time>
      </trkpt>
      <trkpt lat="49.36814" lon="1.05861">
        <ele>85</ele>
        <time>2019-11-11T11:16:35Z</time>
      </trkpt>
      <trkpt lat="49.3682" lon="1.05865">
        <ele>84.9</ele>
        <time>2019-11-11T11:16:36Z</time>
      </trkpt>
      <trkpt lat="49.36826" lon="1.05869">
        <ele>84.9</ele>
        <time>2019-11-11T11:16:37Z</time>
      </trkpt>
      <trkpt lat="49.36831" lon="1.05873">
        <ele>84.8</ele>
        <time>2019-11-11T11:16:38Z</time>
      </trkpt>
      <trkpt lat="49.36837" lon="1.05877">
        <ele>84.6</ele>
        <time>2019-11-11T11:16:39Z</time>
      </trkpt>
      <trkpt lat="49.36842" lon="1.05881">
        <ele>84.6</ele>
        <time>2019-11-11T11:16:40Z</time>
      </trkpt>
      <trkpt lat="49.36848" lon="1.05886">
        <ele>84.6</ele>
        <time>2019-11-11T11:16:41Z</time>
      </trkpt>
      <trkpt lat="49.36854" lon="1.0589">
        <ele>84.6</ele>
        <time>2019-11-11T11:16:42Z</time>
      </trkpt>
      <trkpt lat="49.36859" lon="1.05894">
        <ele>84.6</ele>
        <time>2019-11-11T11:16:43Z</time>
      </trkpt>
      <trkpt lat="49.36865" lon="1.05898">
        <ele>84.6</ele>
        <time>2019-11-11T11:16:44Z</time>
      </trkpt>
      <trkpt lat="49.36871" lon="1.05902">
        <ele>84.6</ele>
        <time>2019-11-11T11:16:45Z</time>
      </trkpt>
      <trkpt lat="49.36876" lon="1.05906">
        <ele>84.7</ele>
        <time>2019-11-11T11:16:46Z</time>
      </trkpt>
      <trkpt lat="49.36882" lon="1.0591">
        <ele>84.7</ele>
        <time>2019-11-11T11:16:47Z</time>
      </trkpt>
      <trkpt lat="49.36887" lon="1.05914">
        <ele>84.7</ele>
        <time>2019-11-11T11:16:48Z</time>
      </trkpt>
      <trkpt lat="49.36893" lon="1.05918">
        <ele>84.5</ele>
        <time>2019-11-11T11:16:49Z</time>
      </trkpt>
      <trkpt lat="49.36898" lon="1.05922">
        <ele>84.6</ele>
        <time>2019-11-11T11:16:50Z</time>
      </trkpt>
      <trkpt lat="49.36903" lon="1.05926">
        <ele>84.6</ele>
        <time>2019-11-11T11:16:51Z</time>
      </trkpt>
      <trkpt lat="49.36909" lon="1.0593">
        <ele>84.6</ele>
        <time>2019-11-11T11:16:52Z</time>
      </trkpt>
      <trkpt lat="49.36914" lon="1.05934">
        <ele>84.6</ele>
        <time>2019-11-11T11:16:53Z</time>
      </trkpt>
      <trkpt lat="49.36919" lon="1.05938">
        <ele>84.4</ele>
        <time>2019-11-11T11:16:54Z</time>
      </trkpt>
      <trkpt lat="49.36924" lon="1.05942">
        <ele>84.4</ele>
        <time>2019-11-11T11:16:55Z</time>
      </trkpt>
      <trkpt lat="49.3693" lon="1.05945">
        <ele>84.3</ele>
        <time>2019-11-11T11:16:56Z</time>
      </trkpt>
      <trkpt lat="49.36935" lon="1.05949">
        <ele>84.2</ele>
        <time>2019-11-11T11:16:57Z</time>
      </trkpt>
      <trkpt lat="49.36941" lon="1.05953">
        <ele>84.1</ele>
        <time>2019-11-11T11:16:58Z</time>
      </trkpt>
      <trkpt lat="49.36946" lon="1.05957">
        <ele>84.1</ele>
        <time>2019-11-11T11:16:59Z</time>
      </trkpt>
      <trkpt lat="49.36952" lon="1.05961">
        <ele>84</ele>
        <time>2019-11-11T11:17:00Z</time>
      </trkpt>
      <trkpt lat="49.36957" lon="1.05965">
        <ele>84</ele>
        <time>2019-11-11T11:17:01Z</time>
      </trkpt>
      <trkpt lat="49.36963" lon="1.05969">
        <ele>83.9</ele>
        <time>2019-11-11T11:17:02Z</time>
      </trkpt>
      <trkpt lat="49.36968" lon="1.05973">
        <ele>83.8</ele>
        <time>2019-11-11T11:17:03Z</time>
      </trkpt>
      <trkpt lat="49.36974" lon="1.05976">
        <ele>83.8</ele>
        <time>2019-11-11T11:17:04Z</time>
      </trkpt>
      <trkpt lat="49.3698" lon="1.0598">
        <ele>83.7</ele>
        <time>2019-11-11T11:17:05Z</time>
      </trkpt>
      <trkpt lat="49.36985" lon="1.05984">
        <ele>83.6</ele>
        <time>2019-11-11T11:17:06Z</time>
      </trkpt>
      <trkpt lat="49.36991" lon="1.05988">
        <ele>83.4</ele>
        <time>2019-11-11T11:17:07Z</time>
      </trkpt>
      <trkpt lat="49.36996" lon="1.05992">
        <ele>83.3</ele>
        <time>2019-11-11T11:17:08Z</time>
      </trkpt>
      <trkpt lat="49.37002" lon="1.05996">
        <ele>83</ele>
        <time>2019-11-11T11:17:09Z</time>
      </trkpt>
      <trkpt lat="49.37008" lon="1.06">
        <ele>82.7</ele>
        <time>2019-11-11T11:17:10Z</time>
      </trkpt>
      <trkpt lat="49.37013" lon="1.06004">
        <ele>82.6</ele>
        <time>2019-11-11T11:17:11Z</time>
      </trkpt>
      <trkpt lat="49.37018" lon="1.06008">
        <ele>82.5</ele>
        <time>2019-11-11T11:17:12Z</time>
      </trkpt>
      <trkpt lat="49.37023" lon="1.06012">
        <ele>82.4</ele>
        <time>2019-11-11T11:17:13Z</time>
      </trkpt>
      <trkpt lat="49.37029" lon="1.06016">
        <ele>82.3</ele>
        <time>2019-11-11T11:17:14Z</time>
      </trkpt>
      <trkpt lat="49.37035" lon="1.0602">
        <ele>82.2</ele>
        <time>2019-11-11T11:17:15Z</time>
      </trkpt>
      <trkpt lat="49.37041" lon="1.06024">
        <ele>82.1</ele>
        <time>2019-11-11T11:17:16Z</time>
      </trkpt>
      <trkpt lat="49.37046" lon="1.06028">
        <ele>82.1</ele>
        <time>2019-11-11T11:17:17Z</time>
      </trkpt>
      <trkpt lat="49.37052" lon="1.06032">
        <ele>82</ele>
        <time>2019-11-11T11:17:18Z</time>
      </trkpt>
      <trkpt lat="49.37058" lon="1.06036">
        <ele>81.9</ele>
        <time>2019-11-11T11:17:19Z</time>
      </trkpt>
      <trkpt lat="49.37064" lon="1.0604">
        <ele>81.9</ele>
        <time>2019-11-11T11:17:20Z</time>
      </trkpt>
      <trkpt lat="49.3707" lon="1.06045">
        <ele>81.8</ele>
        <time>2019-11-11T11:17:21Z</time>
      </trkpt>
      <trkpt lat="49.37075" lon="1.06049">
        <ele>81.8</ele>
        <time>2019-11-11T11:17:22Z</time>
      </trkpt>
      <trkpt lat="49.37081" lon="1.06053">
        <ele>81.7</ele>
        <time>2019-11-11T11:17:23Z</time>
      </trkpt>
      <trkpt lat="49.37087" lon="1.06057">
        <ele>81.1</ele>
        <time>2019-11-11T11:17:24Z</time>
      </trkpt>
      <trkpt lat="49.37093" lon="1.06061">
        <ele>81.1</ele>
        <time>2019-11-11T11:17:25Z</time>
      </trkpt>
      <trkpt lat="49.37098" lon="1.06066">
        <ele>81.1</ele>
        <time>2019-11-11T11:17:26Z</time>
      </trkpt>
      <trkpt lat="49.37104" lon="1.0607">
        <ele>81</ele>
        <time>2019-11-11T11:17:27Z</time>
      </trkpt>
      <trkpt lat="49.3711" lon="1.06074">
        <ele>81</ele>
        <time>2019-11-11T11:17:28Z</time>
      </trkpt>
      <trkpt lat="49.37115" lon="1.06079">
        <ele>81</ele>
        <time>2019-11-11T11:17:29Z</time>
      </trkpt>
      <trkpt lat="49.37121" lon="1.06083">
        <ele>81</ele>
        <time>2019-11-11T11:17:30Z</time>
      </trkpt>
      <trkpt lat="49.37127" lon="1.06087">
        <ele>81.3</ele>
        <time>2019-11-11T11:17:31Z</time>
      </trkpt>
      <trkpt lat="49.37133" lon="1.06092">
        <ele>81.3</ele>
        <time>2019-11-11T11:17:32Z</time>
      </trkpt>
      <trkpt lat="49.37138" lon="1.06096">
        <ele>81.3</ele>
        <time>2019-11-11T11:17:33Z</time>
      </trkpt>
      <trkpt lat="49.37144" lon="1.061">
        <ele>81.3</ele>
        <time>2019-11-11T11:17:34Z</time>
      </trkpt>
      <trkpt lat="49.3715" lon="1.06104">
        <ele>81.3</ele>
        <time>2019-11-11T11:17:35Z</time>
      </trkpt>
      <trkpt lat="49.37156" lon="1.06108">
        <ele>81.4</ele>
        <time>2019-11-11T11:17:36Z</time>
      </trkpt>
      <trkpt lat="49.37161" lon="1.06113">
        <ele>81.4</ele>
        <time>2019-11-11T11:17:37Z</time>
      </trkpt>
      <trkpt lat="49.37167" lon="1.06117">
        <ele>81</ele>
        <time>2019-11-11T11:17:38Z</time>
      </trkpt>
      <trkpt lat="49.37173" lon="1.06121">
        <ele>81</ele>
        <time>2019-11-11T11:17:39Z</time>
      </trkpt>
      <trkpt lat="49.37178" lon="1.06125">
        <ele>81</ele>
        <time>2019-11-11T11:17:40Z</time>
      </trkpt>
      <trkpt lat="49.37184" lon="1.06129">
        <ele>81</ele>
        <time>2019-11-11T11:17:41Z</time>
      </trkpt>
      <trkpt lat="49.37189" lon="1.06133">
        <ele>81</ele>
        <time>2019-11-11T11:17:42Z</time>
      </trkpt>
      <trkpt lat="49.37195" lon="1.06137">
        <ele>81</ele>
        <time>2019-11-11T11:17:43Z</time>
      </trkpt>
      <trkpt lat="49.372" lon="1.06141">
        <ele>81</ele>
        <time>2019-11-11T11:17:44Z</time>
      </trkpt>
      <trkpt lat="49.37205" lon="1.06145">
        <ele>80.9</ele>
        <time>2019-11-11T11:17:45Z</time>
      </trkpt>
      <trkpt lat="49.37211" lon="1.06149">
        <ele>80.9</ele>
        <time>2019-11-11T11:17:46Z</time>
      </trkpt>
      <trkpt lat="49.37216" lon="1.06153">
        <ele>80.9</ele>
        <time>2019-11-11T11:17:47Z</time>
      </trkpt>
      <trkpt lat="49.37222" lon="1.06157">
        <ele>80.9</ele>
        <time>2019-11-11T11:17:48Z</time>
      </trkpt>
      <trkpt lat="49.37228" lon="1.06161">
        <ele>80.9</ele>
        <time>2019-11-11T11:17:49Z</time>
      </trkpt>
      <trkpt lat="49.37233" lon="1.06165">
        <ele>80.9</ele>
        <time>2019-11-11T11:17:50Z</time>
      </trkpt>
      <trkpt lat="49.37239" lon="1.06169">
        <ele>81.3</ele>
        <time>2019-11-11T11:17:51Z</time>
      </trkpt>
      <trkpt lat="49.37245" lon="1.06173">
        <ele>81.2</ele>
        <time>2019-11-11T11:17:52Z</time>
      </trkpt>
      <trkpt lat="49.3725" lon="1.06177">
        <ele>80.8</ele>
        <time>2019-11-11T11:17:53Z</time>
      </trkpt>
      <trkpt lat="49.37256" lon="1.06181">
        <ele>80.7</ele>
        <time>2019-11-11T11:17:54Z</time>
      </trkpt>
      <trkpt lat="49.37262" lon="1.06185">
        <ele>80.6</ele>
        <time>2019-11-11T11:17:55Z</time>
      </trkpt>
      <trkpt lat="49.37267" lon="1.06189">
        <ele>80.5</ele>
        <time>2019-11-11T11:17:56Z</time>
      </trkpt>
      <trkpt lat="49.37273" lon="1.06193">
        <ele>80.5</ele>
        <time>2019-11-11T11:17:57Z</time>
      </trkpt>
      <trkpt lat="49.37278" lon="1.06197">
        <ele>80.4</ele>
        <time>2019-11-11T11:17:58Z</time>
      </trkpt>
      <trkpt lat="49.37283" lon="1.06201">
        <ele>80.4</ele>
        <time>2019-11-11T11:17:59Z</time>
      </trkpt>
      <trkpt lat="49.37289" lon="1.06205">
        <ele>80.3</ele>
        <time>2019-11-11T11:18:00Z</time>
      </trkpt>
      <trkpt lat="49.37294" lon="1.06209">
        <ele>80.2</ele>
        <time>2019-11-11T11:18:01Z</time>
      </trkpt>
      <trkpt lat="49.373" lon="1.06213">
        <ele>80.1</ele>
        <time>2019-11-11T11:18:02Z</time>
      </trkpt>
      <trkpt lat="49.37305" lon="1.06216">
        <ele>80.1</ele>
        <time>2019-11-11T11:18:03Z</time>
      </trkpt>
      <trkpt lat="49.37311" lon="1.0622">
        <ele>80</ele>
        <time>2019-11-11T11:18:04Z</time>
      </trkpt>
      <trkpt lat="49.37316" lon="1.06224">
        <ele>79.9</ele>
        <time>2019-11-11T11:18:05Z</time>
      </trkpt>
      <trkpt lat="49.37322" lon="1.06228">
        <ele>79.8</ele>
        <time>2019-11-11T11:18:06Z</time>
      </trkpt>
      <trkpt lat="49.37327" lon="1.06232">
        <ele>79.6</ele>
        <time>2019-11-11T11:18:07Z</time>
      </trkpt>
      <trkpt lat="49.37333" lon="1.06236">
        <ele>79.5</ele>
        <time>2019-11-11T11:18:08Z</time>
      </trkpt>
      <trkpt lat="49.37338" lon="1.06239">
        <ele>79.4</ele>
        <time>2019-11-11T11:18:09Z</time>
      </trkpt>
      <trkpt lat="49.37344" lon="1.06243">
        <ele>79.4</ele>
        <time>2019-11-11T11:18:10Z</time>
      </trkpt>
      <trkpt lat="49.37349" lon="1.06247">
        <ele>79.5</ele>
        <time>2019-11-11T11:18:11Z</time>
      </trkpt>
      <trkpt lat="49.37355" lon="1.06251">
        <ele>79.5</ele>
        <time>2019-11-11T11:18:12Z</time>
      </trkpt>
      <trkpt lat="49.37361" lon="1.06255">
        <ele>79.6</ele>
        <time>2019-11-11T11:18:13Z</time>
      </trkpt>
      <trkpt lat="49.37366" lon="1.06259">
        <ele>79.7</ele>
        <time>2019-11-11T11:18:14Z</time>
      </trkpt>
      <trkpt lat="49.37372" lon="1.06264">
        <ele>79.8</ele>
        <time>2019-11-11T11:18:15Z</time>
      </trkpt>
      <trkpt lat="49.37377" lon="1.06268">
        <ele>79.8</ele>
        <time>2019-11-11T11:18:16Z</time>
      </trkpt>
      <trkpt lat="49.37383" lon="1.06272">
        <ele>79.9</ele>
        <time>2019-11-11T11:18:17Z</time>
      </trkpt>
      <trkpt lat="49.37388" lon="1.06276">
        <ele>79.9</ele>
        <time>2019-11-11T11:18:18Z</time>
      </trkpt>
      <trkpt lat="49.37394" lon="1.0628">
        <ele>79.9</ele>
        <time>2019-11-11T11:18:19Z</time>
      </trkpt>
      <trkpt lat="49.37399" lon="1.06284">
        <ele>79.9</ele>
        <time>2019-11-11T11:18:20Z</time>
      </trkpt>
      <trkpt lat="49.37405" lon="1.06288">
        <ele>79.9</ele>
        <time>2019-11-11T11:18:21Z</time>
      </trkpt>
      <trkpt lat="49.3741" lon="1.06291">
        <ele>79.8</ele>
        <time>2019-11-11T11:18:22Z</time>
      </trkpt>
      <trkpt lat="49.37416" lon="1.06295">
        <ele>79.8</ele>
        <time>2019-11-11T11:18:23Z</time>
      </trkpt>
      <trkpt lat="49.37421" lon="1.06299">
        <ele>79.4</ele>
        <time>2019-11-11T11:18:24Z</time>
      </trkpt>
      <trkpt lat="49.37427" lon="1.06303">
        <ele>79.3</ele>
        <time>2019-11-11T11:18:25Z</time>
      </trkpt>
      <trkpt lat="49.37432" lon="1.06307">
        <ele>79.3</ele>
        <time>2019-11-11T11:18:26Z</time>
      </trkpt>
      <trkpt lat="49.37438" lon="1.06311">
        <ele>79.2</ele>
        <time>2019-11-11T11:18:27Z</time>
      </trkpt>
      <trkpt lat="49.37444" lon="1.06315">
        <ele>79.2</ele>
        <time>2019-11-11T11:18:28Z</time>
      </trkpt>
      <trkpt lat="49.37449" lon="1.06319">
        <ele>79.1</ele>
        <time>2019-11-11T11:18:29Z</time>
      </trkpt>
      <trkpt lat="49.37455" lon="1.06323">
        <ele>79</ele>
        <time>2019-11-11T11:18:30Z</time>
      </trkpt>
      <trkpt lat="49.37461" lon="1.06327">
        <ele>79</ele>
        <time>2019-11-11T11:18:31Z</time>
      </trkpt>
      <trkpt lat="49.37466" lon="1.06331">
        <ele>78.9</ele>
        <time>2019-11-11T11:18:32Z</time>
      </trkpt>
      <trkpt lat="49.37472" lon="1.06335">
        <ele>77.9</ele>
        <time>2019-11-11T11:18:33Z</time>
      </trkpt>
      <trkpt lat="49.37478" lon="1.06339">
        <ele>77.9</ele>
        <time>2019-11-11T11:18:34Z</time>
      </trkpt>
      <trkpt lat="49.37484" lon="1.06342">
        <ele>77.9</ele>
        <time>2019-11-11T11:18:35Z</time>
      </trkpt>
      <trkpt lat="49.3749" lon="1.06343">
        <ele>77.9</ele>
        <time>2019-11-11T11:18:36Z</time>
      </trkpt>
      <trkpt lat="49.37497" lon="1.06343">
        <ele>77.9</ele>
        <time>2019-11-11T11:18:37Z</time>
      </trkpt>
      <trkpt lat="49.37503" lon="1.06343">
        <ele>78.1</ele>
        <time>2019-11-11T11:18:38Z</time>
      </trkpt>
      <trkpt lat="49.37509" lon="1.06345">
        <ele>78.2</ele>
        <time>2019-11-11T11:18:39Z</time>
      </trkpt>
      <trkpt lat="49.37515" lon="1.06348">
        <ele>78.3</ele>
        <time>2019-11-11T11:18:40Z</time>
      </trkpt>
      <trkpt lat="49.37521" lon="1.0635">
        <ele>78.4</ele>
        <time>2019-11-11T11:18:41Z</time>
      </trkpt>
      <trkpt lat="49.37527" lon="1.0635">
        <ele>78.5</ele>
        <time>2019-11-11T11:18:42Z</time>
      </trkpt>
      <trkpt lat="49.37533" lon="1.0635">
        <ele>78.6</ele>
        <time>2019-11-11T11:18:43Z</time>
      </trkpt>
      <trkpt lat="49.37539" lon="1.06349">
        <ele>78.7</ele>
        <time>2019-11-11T11:18:44Z</time>
      </trkpt>
      <trkpt lat="49.37544" lon="1.06347">
        <ele>78.9</ele>
        <time>2019-11-11T11:18:45Z</time>
      </trkpt>
      <trkpt lat="49.3755" lon="1.06345">
        <ele>79</ele>
        <time>2019-11-11T11:18:46Z</time>
      </trkpt>
      <trkpt lat="49.37556" lon="1.06344">
        <ele>79.2</ele>
        <time>2019-11-11T11:18:47Z</time>
      </trkpt>
      <trkpt lat="49.37562" lon="1.06342">
        <ele>79.5</ele>
        <time>2019-11-11T11:18:48Z</time>
      </trkpt>
      <trkpt lat="49.37567" lon="1.0634">
        <ele>79.7</ele>
        <time>2019-11-11T11:18:49Z</time>
      </trkpt>
      <trkpt lat="49.37573" lon="1.06338">
        <ele>80.1</ele>
        <time>2019-11-11T11:18:50Z</time>
      </trkpt>
      <trkpt lat="49.37579" lon="1.06336">
        <ele>80.5</ele>
        <time>2019-11-11T11:18:51Z</time>
      </trkpt>
      <trkpt lat="49.37585" lon="1.06334">
        <ele>80.9</ele>
        <time>2019-11-11T11:18:52Z</time>
      </trkpt>
      <trkpt lat="49.37591" lon="1.06331">
        <ele>81.4</ele>
        <time>2019-11-11T11:18:53Z</time>
      </trkpt>
      <trkpt lat="49.37597" lon="1.06329">
        <ele>81.6</ele>
        <time>2019-11-11T11:18:54Z</time>
      </trkpt>
      <trkpt lat="49.37603" lon="1.06327">
        <ele>81.8</ele>
        <time>2019-11-11T11:18:55Z</time>
      </trkpt>
      <trkpt lat="49.37609" lon="1.06325">
        <ele>81.9</ele>
        <time>2019-11-11T11:18:56Z</time>
      </trkpt>
      <trkpt lat="49.37615" lon="1.06323">
        <ele>82</ele>
        <time>2019-11-11T11:18:57Z</time>
      </trkpt>
      <trkpt lat="49.37621" lon="1.06321">
        <ele>82</ele>
        <time>2019-11-11T11:18:58Z</time>
      </trkpt>
      <trkpt lat="49.37627" lon="1.06319">
        <ele>82.1</ele>
        <time>2019-11-11T11:18:59Z</time>
      </trkpt>
      <trkpt lat="49.37633" lon="1.06318">
        <ele>82.1</ele>
        <time>2019-11-11T11:19:00Z</time>
      </trkpt>
      <trkpt lat="49.37639" lon="1.06317">
        <ele>82.1</ele>
        <time>2019-11-11T11:19:01Z</time>
      </trkpt>
      <trkpt lat="49.37646" lon="1.06316">
        <ele>82</ele>
        <time>2019-11-11T11:19:02Z</time>
      </trkpt>
      <trkpt lat="49.37652" lon="1.06314">
        <ele>82</ele>
        <time>2019-11-11T11:19:03Z</time>
      </trkpt>
      <trkpt lat="49.37658" lon="1.06312">
        <ele>82</ele>
        <time>2019-11-11T11:19:04Z</time>
      </trkpt>
      <trkpt lat="49.37665" lon="1.06311">
        <ele>82</ele>
        <time>2019-11-11T11:19:05Z</time>
      </trkpt>
      <trkpt lat="49.37671" lon="1.0631">
        <ele>81.7</ele>
        <time>2019-11-11T11:19:06Z</time>
      </trkpt>
      <trkpt lat="49.37677" lon="1.06309">
        <ele>81.7</ele>
        <time>2019-11-11T11:19:07Z</time>
      </trkpt>
      <trkpt lat="49.37684" lon="1.06307">
        <ele>81.7</ele>
        <time>2019-11-11T11:19:08Z</time>
      </trkpt>
      <trkpt lat="49.3769" lon="1.06306">
        <ele>81.7</ele>
        <time>2019-11-11T11:19:09Z</time>
      </trkpt>
      <trkpt lat="49.37696" lon="1.06305">
        <ele>81.7</ele>
        <time>2019-11-11T11:19:10Z</time>
      </trkpt>
      <trkpt lat="49.37702" lon="1.06303">
        <ele>81.7</ele>
        <time>2019-11-11T11:19:11Z</time>
      </trkpt>
      <trkpt lat="49.37709" lon="1.06301">
        <ele>81.6</ele>
        <time>2019-11-11T11:19:12Z</time>
      </trkpt>
      <trkpt lat="49.37715" lon="1.063">
        <ele>81.5</ele>
        <time>2019-11-11T11:19:13Z</time>
      </trkpt>
      <trkpt lat="49.37721" lon="1.06298">
        <ele>81.5</ele>
        <time>2019-11-11T11:19:14Z</time>
      </trkpt>
      <trkpt lat="49.37727" lon="1.06296">
        <ele>81.4</ele>
        <time>2019-11-11T11:19:15Z</time>
      </trkpt>
      <trkpt lat="49.37733" lon="1.06293">
        <ele>81.4</ele>
        <time>2019-11-11T11:19:16Z</time>
      </trkpt>
      <trkpt lat="49.37739" lon="1.06292">
        <ele>81.3</ele>
        <time>2019-11-11T11:19:17Z</time>
      </trkpt>
      <trkpt lat="49.37746" lon="1.06289">
        <ele>81.3</ele>
        <time>2019-11-11T11:19:18Z</time>
      </trkpt>
      <trkpt lat="49.37752" lon="1.06287">
        <ele>79.3</ele>
        <time>2019-11-11T11:19:19Z</time>
      </trkpt>
      <trkpt lat="49.37758" lon="1.06285">
        <ele>79.3</ele>
        <time>2019-11-11T11:19:20Z</time>
      </trkpt>
      <trkpt lat="49.37765" lon="1.06283">
        <ele>79.2</ele>
        <time>2019-11-11T11:19:21Z</time>
      </trkpt>
      <trkpt lat="49.37771" lon="1.06281">
        <ele>79.1</ele>
        <time>2019-11-11T11:19:22Z</time>
      </trkpt>
      <trkpt lat="49.37777" lon="1.06279">
        <ele>79</ele>
        <time>2019-11-11T11:19:23Z</time>
      </trkpt>
      <trkpt lat="49.37784" lon="1.06277">
        <ele>78.8</ele>
        <time>2019-11-11T11:19:24Z</time>
      </trkpt>
      <trkpt lat="49.3779" lon="1.06275">
        <ele>78.6</ele>
        <time>2019-11-11T11:19:25Z</time>
      </trkpt>
      <trkpt lat="49.37796" lon="1.06273">
        <ele>78.5</ele>
        <time>2019-11-11T11:19:26Z</time>
      </trkpt>
      <trkpt lat="49.37802" lon="1.06271">
        <ele>78.3</ele>
        <time>2019-11-11T11:19:27Z</time>
      </trkpt>
      <trkpt lat="49.37808" lon="1.06269">
        <ele>78.2</ele>
        <time>2019-11-11T11:19:28Z</time>
      </trkpt>
      <trkpt lat="49.37814" lon="1.06267">
        <ele>78</ele>
        <time>2019-11-11T11:19:29Z</time>
      </trkpt>
      <trkpt lat="49.37821" lon="1.06264">
        <ele>77.8</ele>
        <time>2019-11-11T11:19:30Z</time>
      </trkpt>
      <trkpt lat="49.37826" lon="1.06262">
        <ele>77.6</ele>
        <time>2019-11-11T11:19:31Z</time>
      </trkpt>
      <trkpt lat="49.37833" lon="1.0626">
        <ele>77.5</ele>
        <time>2019-11-11T11:19:32Z</time>
      </trkpt>
      <trkpt lat="49.37839" lon="1.06259">
        <ele>76.6</ele>
        <time>2019-11-11T11:19:33Z</time>
      </trkpt>
      <trkpt lat="49.37845" lon="1.06256">
        <ele>76.5</ele>
        <time>2019-11-11T11:19:34Z</time>
      </trkpt>
      <trkpt lat="49.37851" lon="1.06255">
        <ele>76.3</ele>
        <time>2019-11-11T11:19:35Z</time>
      </trkpt>
      <trkpt lat="49.37857" lon="1.06253">
        <ele>76.2</ele>
        <time>2019-11-11T11:19:36Z</time>
      </trkpt>
      <trkpt lat="49.37863" lon="1.06251">
        <ele>76.1</ele>
        <time>2019-11-11T11:19:37Z</time>
      </trkpt>
      <trkpt lat="49.37869" lon="1.06249">
        <ele>76.6</ele>
        <time>2019-11-11T11:19:38Z</time>
      </trkpt>
      <trkpt lat="49.37875" lon="1.06248">
        <ele>76.5</ele>
        <time>2019-11-11T11:19:39Z</time>
      </trkpt>
      <trkpt lat="49.37881" lon="1.06246">
        <ele>76.4</ele>
        <time>2019-11-11T11:19:40Z</time>
      </trkpt>
      <trkpt lat="49.37886" lon="1.06244">
        <ele>76.3</ele>
        <time>2019-11-11T11:19:41Z</time>
      </trkpt>
      <trkpt lat="49.37892" lon="1.06242">
        <ele>76.2</ele>
        <time>2019-11-11T11:19:42Z</time>
      </trkpt>
      <trkpt lat="49.37898" lon="1.06239">
        <ele>76</ele>
        <time>2019-11-11T11:19:43Z</time>
      </trkpt>
      <trkpt lat="49.37903" lon="1.06238">
        <ele>75.9</ele>
        <time>2019-11-11T11:19:44Z</time>
      </trkpt>
      <trkpt lat="49.37908" lon="1.06236">
        <ele>75.9</ele>
        <time>2019-11-11T11:19:45Z</time>
      </trkpt>
      <trkpt lat="49.37913" lon="1.06235">
        <ele>75.8</ele>
        <time>2019-11-11T11:19:46Z</time>
      </trkpt>
      <trkpt lat="49.37918" lon="1.06233">
        <ele>75</ele>
        <time>2019-11-11T11:19:47Z</time>
      </trkpt>
      <trkpt lat="49.37924" lon="1.06232">
        <ele>74.9</ele>
        <time>2019-11-11T11:19:48Z</time>
      </trkpt>
      <trkpt lat="49.37929" lon="1.0623">
        <ele>74.9</ele>
        <time>2019-11-11T11:19:49Z</time>
      </trkpt>
      <trkpt lat="49.37935" lon="1.06229">
        <ele>74.9</ele>
        <time>2019-11-11T11:19:50Z</time>
      </trkpt>
      <trkpt lat="49.3794" lon="1.06227">
        <ele>74.8</ele>
        <time>2019-11-11T11:19:51Z</time>
      </trkpt>
      <trkpt lat="49.37945" lon="1.06226">
        <ele>74.8</ele>
        <time>2019-11-11T11:19:52Z</time>
      </trkpt>
      <trkpt lat="49.3795" lon="1.06224">
        <ele>74.7</ele>
        <time>2019-11-11T11:19:53Z</time>
      </trkpt>
      <trkpt lat="49.37955" lon="1.06223">
        <ele>74.7</ele>
        <time>2019-11-11T11:19:54Z</time>
      </trkpt>
      <trkpt lat="49.3796" lon="1.06221">
        <ele>74.6</ele>
        <time>2019-11-11T11:19:55Z</time>
      </trkpt>
      <trkpt lat="49.37965" lon="1.0622">
        <ele>74.5</ele>
        <time>2019-11-11T11:19:56Z</time>
      </trkpt>
      <trkpt lat="49.3797" lon="1.06218">
        <ele>74.5</ele>
        <time>2019-11-11T11:19:57Z</time>
      </trkpt>
      <trkpt lat="49.37975" lon="1.06217">
        <ele>74.4</ele>
        <time>2019-11-11T11:19:58Z</time>
      </trkpt>
      <trkpt lat="49.37981" lon="1.06216">
        <ele>74.4</ele>
        <time>2019-11-11T11:19:59Z</time>
      </trkpt>
      <trkpt lat="49.37986" lon="1.06214">
        <ele>74.3</ele>
        <time>2019-11-11T11:20:00Z</time>
      </trkpt>
      <trkpt lat="49.37991" lon="1.06213">
        <ele>74.3</ele>
        <time>2019-11-11T11:20:01Z</time>
      </trkpt>
      <trkpt lat="49.37997" lon="1.06211">
        <ele>74.3</ele>
        <time>2019-11-11T11:20:02Z</time>
      </trkpt>
      <trkpt lat="49.38002" lon="1.0621">
        <ele>73</ele>
        <time>2019-11-11T11:20:03Z</time>
      </trkpt>
      <trkpt lat="49.38008" lon="1.06208">
        <ele>73</ele>
        <time>2019-11-11T11:20:04Z</time>
      </trkpt>
      <trkpt lat="49.38013" lon="1.06207">
        <ele>73</ele>
        <time>2019-11-11T11:20:05Z</time>
      </trkpt>
      <trkpt lat="49.38019" lon="1.06205">
        <ele>73</ele>
        <time>2019-11-11T11:20:06Z</time>
      </trkpt>
      <trkpt lat="49.38024" lon="1.06204">
        <ele>72.9</ele>
        <time>2019-11-11T11:20:07Z</time>
      </trkpt>
      <trkpt lat="49.38029" lon="1.06202">
        <ele>72.9</ele>
        <time>2019-11-11T11:20:08Z</time>
      </trkpt>
      <trkpt lat="49.38034" lon="1.06201">
        <ele>72.8</ele>
        <time>2019-11-11T11:20:09Z</time>
      </trkpt>
      <trkpt lat="49.38039" lon="1.06199">
        <ele>72.8</ele>
        <time>2019-11-11T11:20:10Z</time>
      </trkpt>
      <trkpt lat="49.38044" lon="1.06197">
        <ele>72.8</ele>
        <time>2019-11-11T11:20:11Z</time>
      </trkpt>
      <trkpt lat="49.38049" lon="1.06196">
        <ele>72.7</ele>
        <time>2019-11-11T11:20:12Z</time>
      </trkpt>
      <trkpt lat="49.38053" lon="1.06194">
        <ele>72.7</ele>
        <time>2019-11-11T11:20:13Z</time>
      </trkpt>
      <trkpt lat="49.38058" lon="1.06192">
        <ele>72.6</ele>
        <time>2019-11-11T11:20:14Z</time>
      </trkpt>
      <trkpt lat="49.38063" lon="1.06191">
        <ele>72.6</ele>
        <time>2019-11-11T11:20:15Z</time>
      </trkpt>
      <trkpt lat="49.38068" lon="1.0619">
        <ele>72.5</ele>
        <time>2019-11-11T11:20:16Z</time>
      </trkpt>
      <trkpt lat="49.38073" lon="1.06188">
        <ele>72.4</ele>
        <time>2019-11-11T11:20:17Z</time>
      </trkpt>
      <trkpt lat="49.38078" lon="1.06186">
        <ele>72.4</ele>
        <time>2019-11-11T11:20:18Z</time>
      </trkpt>
      <trkpt lat="49.38083" lon="1.06185">
        <ele>72.4</ele>
        <time>2019-11-11T11:20:19Z</time>
      </trkpt>
      <trkpt lat="49.38088" lon="1.06184">
        <ele>72.8</ele>
        <time>2019-11-11T11:20:20Z</time>
      </trkpt>
      <trkpt lat="49.38093" lon="1.06182">
        <ele>72.8</ele>
        <time>2019-11-11T11:20:21Z</time>
      </trkpt>
      <trkpt lat="49.38097" lon="1.06181">
        <ele>72.9</ele>
        <time>2019-11-11T11:20:22Z</time>
      </trkpt>
      <trkpt lat="49.38102" lon="1.06179">
        <ele>73</ele>
        <time>2019-11-11T11:20:23Z</time>
      </trkpt>
      <trkpt lat="49.38106" lon="1.06178">
        <ele>73.1</ele>
        <time>2019-11-11T11:20:24Z</time>
      </trkpt>
      <trkpt lat="49.38111" lon="1.06177">
        <ele>73.2</ele>
        <time>2019-11-11T11:20:25Z</time>
      </trkpt>
      <trkpt lat="49.38114" lon="1.06176">
        <ele>73.3</ele>
        <time>2019-11-11T11:20:26Z</time>
      </trkpt>
      <trkpt lat="49.38118" lon="1.06176">
        <ele>73.4</ele>
        <time>2019-11-11T11:20:27Z</time>
      </trkpt>
      <trkpt lat="49.38122" lon="1.06175">
        <ele>73.4</ele>
        <time>2019-11-11T11:20:28Z</time>
      </trkpt>
      <trkpt lat="49.38126" lon="1.06173">
        <ele>73.5</ele>
        <time>2019-11-11T11:20:29Z</time>
      </trkpt>
      <trkpt lat="49.3813" lon="1.06172">
        <ele>73.6</ele>
        <time>2019-11-11T11:20:30Z</time>
      </trkpt>
      <trkpt lat="49.38135" lon="1.0617">
        <ele>73.7</ele>
        <time>2019-11-11T11:20:31Z</time>
      </trkpt>
      <trkpt lat="49.38139" lon="1.06169">
        <ele>73.7</ele>
        <time>2019-11-11T11:20:32Z</time>
      </trkpt>
      <trkpt lat="49.38143" lon="1.06167">
        <ele>73.8</ele>
        <time>2019-11-11T11:20:33Z</time>
      </trkpt>
      <trkpt lat="49.38147" lon="1.06167">
        <ele>73.8</ele>
        <time>2019-11-11T11:20:34Z</time>
      </trkpt>
      <trkpt lat="49.38152" lon="1.06165">
        <ele>73.4</ele>
        <time>2019-11-11T11:20:35Z</time>
      </trkpt>
      <trkpt lat="49.38157" lon="1.06164">
        <ele>73.6</ele>
        <time>2019-11-11T11:20:36Z</time>
      </trkpt>
      <trkpt lat="49.38162" lon="1.06163">
        <ele>73.7</ele>
        <time>2019-11-11T11:20:37Z</time>
      </trkpt>
      <trkpt lat="49.38166" lon="1.06162">
        <ele>73.8</ele>
        <time>2019-11-11T11:20:38Z</time>
      </trkpt>
      <trkpt lat="49.3817" lon="1.0616">
        <ele>73.9</ele>
        <time>2019-11-11T11:20:39Z</time>
      </trkpt>
      <trkpt lat="49.38174" lon="1.06159">
        <ele>73.8</ele>
        <time>2019-11-11T11:20:40Z</time>
      </trkpt>
      <trkpt lat="49.38179" lon="1.06157">
        <ele>73.8</ele>
        <time>2019-11-11T11:20:41Z</time>
      </trkpt>
      <trkpt lat="49.38184" lon="1.06156">
        <ele>73.7</ele>
        <time>2019-11-11T11:20:42Z</time>
      </trkpt>
      <trkpt lat="49.38188" lon="1.06155">
        <ele>73.7</ele>
        <time>2019-11-11T11:20:43Z</time>
      </trkpt>
      <trkpt lat="49.38193" lon="1.06153">
        <ele>73.6</ele>
        <time>2019-11-11T11:20:44Z</time>
      </trkpt>
      <trkpt lat="49.38198" lon="1.06152">
        <ele>73.6</ele>
        <time>2019-11-11T11:20:45Z</time>
      </trkpt>
      <trkpt lat="49.38202" lon="1.0615">
        <ele>73.5</ele>
        <time>2019-11-11T11:20:46Z</time>
      </trkpt>
      <trkpt lat="49.38207" lon="1.06149">
        <ele>73.5</ele>
        <time>2019-11-11T11:20:47Z</time>
      </trkpt>
      <trkpt lat="49.38212" lon="1.06148">
        <ele>73.5</ele>
        <time>2019-11-11T11:20:48Z</time>
      </trkpt>
      <trkpt lat="49.38217" lon="1.06147">
        <ele>73.4</ele>
        <time>2019-11-11T11:20:49Z</time>
      </trkpt>
      <trkpt lat="49.38221" lon="1.06145">
        <ele>73.4</ele>
        <time>2019-11-11T11:20:50Z</time>
      </trkpt>
      <trkpt lat="49.38225" lon="1.06144">
        <ele>73.4</ele>
        <time>2019-11-11T11:20:51Z</time>
      </trkpt>
      <trkpt lat="49.3823" lon="1.06142">
        <ele>73.4</ele>
        <time>2019-11-11T11:20:52Z</time>
      </trkpt>
      <trkpt lat="49.38235" lon="1.0614">
        <ele>73.3</ele>
        <time>2019-11-11T11:20:53Z</time>
      </trkpt>
      <trkpt lat="49.3824" lon="1.06139">
        <ele>73.3</ele>
        <time>2019-11-11T11:20:54Z</time>
      </trkpt>
      <trkpt lat="49.38245" lon="1.06138">
        <ele>73.3</ele>
        <time>2019-11-11T11:20:55Z</time>
      </trkpt>
      <trkpt lat="49.38249" lon="1.06137">
        <ele>73.3</ele>
        <time>2019-11-11T11:20:56Z</time>
      </trkpt>
      <trkpt lat="49.38254" lon="1.06135">
        <ele>73.2</ele>
        <time>2019-11-11T11:20:57Z</time>
      </trkpt>
      <trkpt lat="49.3826" lon="1.06134">
        <ele>73.2</ele>
        <time>2019-11-11T11:20:58Z</time>
      </trkpt>
      <trkpt lat="49.38265" lon="1.06132">
        <ele>73.2</ele>
        <time>2019-11-11T11:20:59Z</time>
      </trkpt>
      <trkpt lat="49.3827" lon="1.06131">
        <ele>73.2</ele>
        <time>2019-11-11T11:21:00Z</time>
      </trkpt>
      <trkpt lat="49.38275" lon="1.0613">
        <ele>73.2</ele>
        <time>2019-11-11T11:21:01Z</time>
      </trkpt>
      <trkpt lat="49.3828" lon="1.06129">
        <ele>73.2</ele>
        <time>2019-11-11T11:21:02Z</time>
      </trkpt>
      <trkpt lat="49.38285" lon="1.06128">
        <ele>73.2</ele>
        <time>2019-11-11T11:21:03Z</time>
      </trkpt>
      <trkpt lat="49.38289" lon="1.06126">
        <ele>73.2</ele>
        <time>2019-11-11T11:21:04Z</time>
      </trkpt>
      <trkpt lat="49.38294" lon="1.06125">
        <ele>73.3</ele>
        <time>2019-11-11T11:21:05Z</time>
      </trkpt>
      <trkpt lat="49.38298" lon="1.06123">
        <ele>73.3</ele>
        <time>2019-11-11T11:21:06Z</time>
      </trkpt>
      <trkpt lat="49.38303" lon="1.06121">
        <ele>73.3</ele>
        <time>2019-11-11T11:21:07Z</time>
      </trkpt>
      <trkpt lat="49.38307" lon="1.0612">
        <ele>73.3</ele>
        <time>2019-11-11T11:21:08Z</time>
      </trkpt>
      <trkpt lat="49.38312" lon="1.06118">
        <ele>73.3</ele>
        <time>2019-11-11T11:21:09Z</time>
      </trkpt>
      <trkpt lat="49.38317" lon="1.06117">
        <ele>73.3</ele>
        <time>2019-11-11T11:21:10Z</time>
      </trkpt>
      <trkpt lat="49.38323" lon="1.06116">
        <ele>73.3</ele>
        <time>2019-11-11T11:21:11Z</time>
      </trkpt>
      <trkpt lat="49.38328" lon="1.06114">
        <ele>73.3</ele>
        <time>2019-11-11T11:21:12Z</time>
      </trkpt>
      <trkpt lat="49.38333" lon="1.06113">
        <ele>73.3</ele>
        <time>2019-11-11T11:21:13Z</time>
      </trkpt>
      <trkpt lat="49.38338" lon="1.06112">
        <ele>73.8</ele>
        <time>2019-11-11T11:21:14Z</time>
      </trkpt>
      <trkpt lat="49.38342" lon="1.06111">
        <ele>73.9</ele>
        <time>2019-11-11T11:21:15Z</time>
      </trkpt>
      <trkpt lat="49.38347" lon="1.0611">
        <ele>73.9</ele>
        <time>2019-11-11T11:21:16Z</time>
      </trkpt>
      <trkpt lat="49.38352" lon="1.06109">
        <ele>73.9</ele>
        <time>2019-11-11T11:21:17Z</time>
      </trkpt>
      <trkpt lat="49.38356" lon="1.06107">
        <ele>74</ele>
        <time>2019-11-11T11:21:18Z</time>
      </trkpt>
      <trkpt lat="49.38361" lon="1.06106">
        <ele>74</ele>
        <time>2019-11-11T11:21:19Z</time>
      </trkpt>
      <trkpt lat="49.38366" lon="1.06106">
        <ele>74.1</ele>
        <time>2019-11-11T11:21:20Z</time>
      </trkpt>
      <trkpt lat="49.3837" lon="1.06105">
        <ele>74.1</ele>
        <time>2019-11-11T11:21:21Z</time>
      </trkpt>
      <trkpt lat="49.38375" lon="1.06104">
        <ele>74.2</ele>
        <time>2019-11-11T11:21:22Z</time>
      </trkpt>
      <trkpt lat="49.38379" lon="1.06102">
        <ele>74.2</ele>
        <time>2019-11-11T11:21:23Z</time>
      </trkpt>
      <trkpt lat="49.38384" lon="1.06101">
        <ele>74.3</ele>
        <time>2019-11-11T11:21:24Z</time>
      </trkpt>
      <trkpt lat="49.38388" lon="1.06099">
        <ele>74.4</ele>
        <time>2019-11-11T11:21:25Z</time>
      </trkpt>
      <trkpt lat="49.38393" lon="1.06097">
        <ele>74.4</ele>
        <time>2019-11-11T11:21:26Z</time>
      </trkpt>
      <trkpt lat="49.38397" lon="1.06096">
        <ele>74.5</ele>
        <time>2019-11-11T11:21:27Z</time>
      </trkpt>
      <trkpt lat="49.38401" lon="1.06094">
        <ele>74.6</ele>
        <time>2019-11-11T11:21:28Z</time>
      </trkpt>
      <trkpt lat="49.38404" lon="1.06093">
        <ele>74.6</ele>
        <time>2019-11-11T11:21:29Z</time>
      </trkpt>
      <trkpt lat="49.38407" lon="1.06091">
        <ele>74.7</ele>
        <time>2019-11-11T11:21:30Z</time>
      </trkpt>
      <trkpt lat="49.3841" lon="1.06089">
        <ele>74.8</ele>
        <time>2019-11-11T11:21:31Z</time>
      </trkpt>
      <trkpt lat="49.38413" lon="1.06088">
        <ele>74.8</ele>
        <time>2019-11-11T11:21:32Z</time>
      </trkpt>
      <trkpt lat="49.38417" lon="1.06086">
        <ele>75.1</ele>
        <time>2019-11-11T11:21:33Z</time>
      </trkpt>
      <trkpt lat="49.38421" lon="1.06084">
        <ele>75.1</ele>
        <time>2019-11-11T11:21:34Z</time>
      </trkpt>
      <trkpt lat="49.38425" lon="1.06082">
        <ele>75.1</ele>
        <time>2019-11-11T11:21:35Z</time>
      </trkpt>
      <trkpt lat="49.3843" lon="1.06081">
        <ele>75.1</ele>
        <time>2019-11-11T11:21:36Z</time>
      </trkpt>
      <trkpt lat="49.38435" lon="1.0608">
        <ele>75.1</ele>
        <time>2019-11-11T11:21:37Z</time>
      </trkpt>
      <trkpt lat="49.3844" lon="1.06078">
        <ele>75.2</ele>
        <time>2019-11-11T11:21:38Z</time>
      </trkpt>
      <trkpt lat="49.38445" lon="1.06078">
        <ele>75.2</ele>
        <time>2019-11-11T11:21:39Z</time>
      </trkpt>
      <trkpt lat="49.38449" lon="1.06076">
        <ele>75.3</ele>
        <time>2019-11-11T11:21:40Z</time>
      </trkpt>
      <trkpt lat="49.38454" lon="1.06075">
        <ele>75.3</ele>
        <time>2019-11-11T11:21:41Z</time>
      </trkpt>
      <trkpt lat="49.38458" lon="1.06073">
        <ele>75.3</ele>
        <time>2019-11-11T11:21:42Z</time>
      </trkpt>
      <trkpt lat="49.38463" lon="1.06072">
        <ele>75.4</ele>
        <time>2019-11-11T11:21:43Z</time>
      </trkpt>
      <trkpt lat="49.38468" lon="1.0607">
        <ele>75.4</ele>
        <time>2019-11-11T11:21:44Z</time>
      </trkpt>
      <trkpt lat="49.38473" lon="1.06068">
        <ele>75.5</ele>
        <time>2019-11-11T11:21:45Z</time>
      </trkpt>
      <trkpt lat="49.38479" lon="1.06067">
        <ele>75.5</ele>
        <time>2019-11-11T11:21:46Z</time>
      </trkpt>
      <trkpt lat="49.38484" lon="1.06066">
        <ele>75.6</ele>
        <time>2019-11-11T11:21:47Z</time>
      </trkpt>
      <trkpt lat="49.38488" lon="1.06065">
        <ele>75.6</ele>
        <time>2019-11-11T11:21:48Z</time>
      </trkpt>
      <trkpt lat="49.38494" lon="1.06064">
        <ele>75.6</ele>
        <time>2019-11-11T11:21:49Z</time>
      </trkpt>
      <trkpt lat="49.38499" lon="1.06063">
        <ele>75.6</ele>
        <time>2019-11-11T11:21:50Z</time>
      </trkpt>
      <trkpt lat="49.38504" lon="1.06062">
        <ele>75.4</ele>
        <time>2019-11-11T11:21:51Z</time>
      </trkpt>
      <trkpt lat="49.38509" lon="1.0606">
        <ele>75.3</ele>
        <time>2019-11-11T11:21:52Z</time>
      </trkpt>
      <trkpt lat="49.38514" lon="1.06059">
        <ele>75.2</ele>
        <time>2019-11-11T11:21:53Z</time>
      </trkpt>
      <trkpt lat="49.38518" lon="1.06057">
        <ele>75.1</ele>
        <time>2019-11-11T11:21:54Z</time>
      </trkpt>
      <trkpt lat="49.38523" lon="1.06055">
        <ele>75.1</ele>
        <time>2019-11-11T11:21:55Z</time>
      </trkpt>
      <trkpt lat="49.38528" lon="1.06054">
        <ele>75</ele>
        <time>2019-11-11T11:21:56Z</time>
      </trkpt>
      <trkpt lat="49.38533" lon="1.06053">
        <ele>74.9</ele>
        <time>2019-11-11T11:21:57Z</time>
      </trkpt>
      <trkpt lat="49.38538" lon="1.06051">
        <ele>74.8</ele>
        <time>2019-11-11T11:21:58Z</time>
      </trkpt>
      <trkpt lat="49.38542" lon="1.0605">
        <ele>74.8</ele>
        <time>2019-11-11T11:21:59Z</time>
      </trkpt>
      <trkpt lat="49.38547" lon="1.06048">
        <ele>74.7</ele>
        <time>2019-11-11T11:22:00Z</time>
      </trkpt>
      <trkpt lat="49.38551" lon="1.06047">
        <ele>74.6</ele>
        <time>2019-11-11T11:22:01Z</time>
      </trkpt>
      <trkpt lat="49.38556" lon="1.06045">
        <ele>74.6</ele>
        <time>2019-11-11T11:22:02Z</time>
      </trkpt>
      <trkpt lat="49.38561" lon="1.06044">
        <ele>74.5</ele>
        <time>2019-11-11T11:22:03Z</time>
      </trkpt>
      <trkpt lat="49.38566" lon="1.06043">
        <ele>74.4</ele>
        <time>2019-11-11T11:22:04Z</time>
      </trkpt>
      <trkpt lat="49.3857" lon="1.06042">
        <ele>74.4</ele>
        <time>2019-11-11T11:22:05Z</time>
      </trkpt>
      <trkpt lat="49.38575" lon="1.0604">
        <ele>74.3</ele>
        <time>2019-11-11T11:22:06Z</time>
      </trkpt>
      <trkpt lat="49.3858" lon="1.06039">
        <ele>74.3</ele>
        <time>2019-11-11T11:22:07Z</time>
      </trkpt>
      <trkpt lat="49.38585" lon="1.06038">
        <ele>73.5</ele>
        <time>2019-11-11T11:22:08Z</time>
      </trkpt>
      <trkpt lat="49.3859" lon="1.06036">
        <ele>73.5</ele>
        <time>2019-11-11T11:22:09Z</time>
      </trkpt>
      <trkpt lat="49.38595" lon="1.06035">
        <ele>73.5</ele>
        <time>2019-11-11T11:22:10Z</time>
      </trkpt>
      <trkpt lat="49.386" lon="1.06034">
        <ele>73.5</ele>
        <time>2019-11-11T11:22:11Z</time>
      </trkpt>
      <trkpt lat="49.38604" lon="1.06032">
        <ele>73.5</ele>
        <time>2019-11-11T11:22:12Z</time>
      </trkpt>
      <trkpt lat="49.38609" lon="1.06031">
        <ele>73.5</ele>
        <time>2019-11-11T11:22:13Z</time>
      </trkpt>
      <trkpt lat="49.38614" lon="1.06029">
        <ele>73.5</ele>
        <time>2019-11-11T11:22:14Z</time>
      </trkpt>
      <trkpt lat="49.3862" lon="1.06027">
        <ele>73.5</ele>
        <time>2019-11-11T11:22:15Z</time>
      </trkpt>
      <trkpt lat="49.38625" lon="1.06026">
        <ele>73.5</ele>
        <time>2019-11-11T11:22:16Z</time>
      </trkpt>
      <trkpt lat="49.38629" lon="1.06024">
        <ele>73.5</ele>
        <time>2019-11-11T11:22:17Z</time>
      </trkpt>
      <trkpt lat="49.38634" lon="1.06023">
        <ele>73.5</ele>
        <time>2019-11-11T11:22:18Z</time>
      </trkpt>
      <trkpt lat="49.38639" lon="1.06022">
        <ele>73.6</ele>
        <time>2019-11-11T11:22:19Z</time>
      </trkpt>
      <trkpt lat="49.38644" lon="1.06021">
        <ele>73.6</ele>
        <time>2019-11-11T11:22:20Z</time>
      </trkpt>
      <trkpt lat="49.38649" lon="1.0602">
        <ele>73.6</ele>
        <time>2019-11-11T11:22:21Z</time>
      </trkpt>
      <trkpt lat="49.38654" lon="1.06019">
        <ele>73.7</ele>
        <time>2019-11-11T11:22:22Z</time>
      </trkpt>
      <trkpt lat="49.38659" lon="1.06017">
        <ele>73.7</ele>
        <time>2019-11-11T11:22:23Z</time>
      </trkpt>
      <trkpt lat="49.38664" lon="1.06016">
        <ele>73.7</ele>
        <time>2019-11-11T11:22:24Z</time>
      </trkpt>
      <trkpt lat="49.38669" lon="1.06014">
        <ele>73.9</ele>
        <time>2019-11-11T11:22:25Z</time>
      </trkpt>
      <trkpt lat="49.38674" lon="1.06012">
        <ele>73.9</ele>
        <time>2019-11-11T11:22:26Z</time>
      </trkpt>
      <trkpt lat="49.38678" lon="1.06011">
        <ele>73.9</ele>
        <time>2019-11-11T11:22:27Z</time>
      </trkpt>
      <trkpt lat="49.38683" lon="1.0601">
        <ele>73.9</ele>
        <time>2019-11-11T11:22:28Z</time>
      </trkpt>
      <trkpt lat="49.38688" lon="1.06008">
        <ele>73.8</ele>
        <time>2019-11-11T11:22:29Z</time>
      </trkpt>
      <trkpt lat="49.38692" lon="1.06006">
        <ele>73.8</ele>
        <time>2019-11-11T11:22:30Z</time>
      </trkpt>
      <trkpt lat="49.38697" lon="1.06005">
        <ele>73.8</ele>
        <time>2019-11-11T11:22:31Z</time>
      </trkpt>
      <trkpt lat="49.38702" lon="1.06004">
        <ele>73.8</ele>
        <time>2019-11-11T11:22:32Z</time>
      </trkpt>
      <trkpt lat="49.38707" lon="1.06003">
        <ele>73.8</ele>
        <time>2019-11-11T11:22:33Z</time>
      </trkpt>
      <trkpt lat="49.38712" lon="1.06002">
        <ele>73.8</ele>
        <time>2019-11-11T11:22:34Z</time>
      </trkpt>
      <trkpt lat="49.38717" lon="1.06">
        <ele>73.9</ele>
        <time>2019-11-11T11:22:35Z</time>
      </trkpt>
      <trkpt lat="49.38722" lon="1.05999">
        <ele>73.3</ele>
        <time>2019-11-11T11:22:36Z</time>
      </trkpt>
      <trkpt lat="49.38727" lon="1.05997">
        <ele>73.4</ele>
        <time>2019-11-11T11:22:37Z</time>
      </trkpt>
      <trkpt lat="49.38731" lon="1.05996">
        <ele>73.4</ele>
        <time>2019-11-11T11:22:38Z</time>
      </trkpt>
      <trkpt lat="49.38736" lon="1.05995">
        <ele>73.5</ele>
        <time>2019-11-11T11:22:39Z</time>
      </trkpt>
      <trkpt lat="49.38741" lon="1.05994">
        <ele>73.6</ele>
        <time>2019-11-11T11:22:40Z</time>
      </trkpt>
      <trkpt lat="49.38747" lon="1.05993">
        <ele>73.7</ele>
        <time>2019-11-11T11:22:41Z</time>
      </trkpt>
      <trkpt lat="49.38752" lon="1.05992">
        <ele>73.7</ele>
        <time>2019-11-11T11:22:42Z</time>
      </trkpt>
      <trkpt lat="49.38756" lon="1.05991">
        <ele>73.6</ele>
        <time>2019-11-11T11:22:43Z</time>
      </trkpt>
      <trkpt lat="49.38762" lon="1.05989">
        <ele>73.5</ele>
        <time>2019-11-11T11:22:44Z</time>
      </trkpt>
      <trkpt lat="49.38767" lon="1.05987">
        <ele>73.4</ele>
        <time>2019-11-11T11:22:45Z</time>
      </trkpt>
      <trkpt lat="49.38772" lon="1.05986">
        <ele>73.3</ele>
        <time>2019-11-11T11:22:46Z</time>
      </trkpt>
      <trkpt lat="49.38777" lon="1.05985">
        <ele>73.2</ele>
        <time>2019-11-11T11:22:47Z</time>
      </trkpt>
      <trkpt lat="49.38781" lon="1.05984">
        <ele>73.1</ele>
        <time>2019-11-11T11:22:48Z</time>
      </trkpt>
      <trkpt lat="49.38786" lon="1.05982">
        <ele>73.1</ele>
        <time>2019-11-11T11:22:49Z</time>
      </trkpt>
      <trkpt lat="49.3879" lon="1.0598">
        <ele>73</ele>
        <time>2019-11-11T11:22:50Z</time>
      </trkpt>
      <trkpt lat="49.38795" lon="1.05979">
        <ele>73</ele>
        <time>2019-11-11T11:22:51Z</time>
      </trkpt>
      <trkpt lat="49.38799" lon="1.05977">
        <ele>72.9</ele>
        <time>2019-11-11T11:22:52Z</time>
      </trkpt>
      <trkpt lat="49.38804" lon="1.05976">
        <ele>72.9</ele>
        <time>2019-11-11T11:22:53Z</time>
      </trkpt>
      <trkpt lat="49.38808" lon="1.05975">
        <ele>72.8</ele>
        <time>2019-11-11T11:22:54Z</time>
      </trkpt>
      <trkpt lat="49.38812" lon="1.05973">
        <ele>72.8</ele>
        <time>2019-11-11T11:22:55Z</time>
      </trkpt>
      <trkpt lat="49.38817" lon="1.05971">
        <ele>72.8</ele>
        <time>2019-11-11T11:22:56Z</time>
      </trkpt>
      <trkpt lat="49.38821" lon="1.05969">
        <ele>72.8</ele>
        <time>2019-11-11T11:22:57Z</time>
      </trkpt>
      <trkpt lat="49.38824" lon="1.05967">
        <ele>72.8</ele>
        <time>2019-11-11T11:22:58Z</time>
      </trkpt>
      <trkpt lat="49.38828" lon="1.05967">
        <ele>72.7</ele>
        <time>2019-11-11T11:22:59Z</time>
      </trkpt>
      <trkpt lat="49.38832" lon="1.05966">
        <ele>72.7</ele>
        <time>2019-11-11T11:23:00Z</time>
      </trkpt>
      <trkpt lat="49.38836" lon="1.05965">
        <ele>72.3</ele>
        <time>2019-11-11T11:23:01Z</time>
      </trkpt>
      <trkpt lat="49.38839" lon="1.05964">
        <ele>72.3</ele>
        <time>2019-11-11T11:23:02Z</time>
      </trkpt>
      <trkpt lat="49.38843" lon="1.05963">
        <ele>72.3</ele>
        <time>2019-11-11T11:23:03Z</time>
      </trkpt>
      <trkpt lat="49.38846" lon="1.05963">
        <ele>72.3</ele>
        <time>2019-11-11T11:23:04Z</time>
      </trkpt>
      <trkpt lat="49.38849" lon="1.05962">
        <ele>72.3</ele>
        <time>2019-11-11T11:23:05Z</time>
      </trkpt>
      <trkpt lat="49.38853" lon="1.05961">
        <ele>72.3</ele>
        <time>2019-11-11T11:23:06Z</time>
      </trkpt>
      <trkpt lat="49.38856" lon="1.0596">
        <ele>72.3</ele>
        <time>2019-11-11T11:23:07Z</time>
      </trkpt>
      <trkpt lat="49.38859" lon="1.0596">
        <ele>72.3</ele>
        <time>2019-11-11T11:23:08Z</time>
      </trkpt>
      <trkpt lat="49.38862" lon="1.05961">
        <ele>72.3</ele>
        <time>2019-11-11T11:23:09Z</time>
      </trkpt>
      <trkpt lat="49.38865" lon="1.05963">
        <ele>72.2</ele>
        <time>2019-11-11T11:23:10Z</time>
      </trkpt>
      <trkpt lat="49.38867" lon="1.05964">
        <ele>72.2</ele>
        <time>2019-11-11T11:23:11Z</time>
      </trkpt>
      <trkpt lat="49.38868" lon="1.05964">
        <ele>72.2</ele>
        <time>2019-11-11T11:23:12Z</time>
      </trkpt>
      <trkpt lat="49.38868" lon="1.05964">
        <ele>72.2</ele>
        <time>2019-11-11T11:23:13Z</time>
      </trkpt>
      <trkpt lat="49.38868" lon="1.05964">
        <ele>72.2</ele>
        <time>2019-11-11T11:23:14Z</time>
      </trkpt>
      <trkpt lat="49.38868" lon="1.05964">
        <ele>72.2</ele>
        <time>2019-11-11T11:23:15Z</time>
      </trkpt>
      <trkpt lat="49.3887" lon="1.05955">
        <ele>72.3</ele>
        <time>2019-11-11T11:26:03Z</time>
      </trkpt>
      <trkpt lat="49.38871" lon="1.05954">
        <ele>72.3</ele>
        <time>2019-11-11T11:26:04Z</time>
      </trkpt>
      <trkpt lat="49.38873" lon="1.05953">
        <ele>72.3</ele>
        <time>2019-11-11T11:26:05Z</time>
      </trkpt>
      <trkpt lat="49.38875" lon="1.05953">
        <ele>72.3</ele>
        <time>2019-11-11T11:26:06Z</time>
      </trkpt>
      <trkpt lat="49.38876" lon="1.05952">
        <ele>72.3</ele>
        <time>2019-11-11T11:26:07Z</time>
      </trkpt>
      <trkpt lat="49.38878" lon="1.05952">
        <ele>72.3</ele>
        <time>2019-11-11T11:26:08Z</time>
      </trkpt>
      <trkpt lat="49.38879" lon="1.05952">
        <ele>72.3</ele>
        <time>2019-11-11T11:26:09Z</time>
      </trkpt>
      <trkpt lat="49.38881" lon="1.05952">
        <ele>72.3</ele>
        <time>2019-11-11T11:26:10Z</time>
      </trkpt>
      <trkpt lat="49.38882" lon="1.05951">
        <ele>72.3</ele>
        <time>2019-11-11T11:26:11Z</time>
      </trkpt>
      <trkpt lat="49.38884" lon="1.0595">
        <ele>72.3</ele>
        <time>2019-11-11T11:26:12Z</time>
      </trkpt>
      <trkpt lat="49.38886" lon="1.05949">
        <ele>72.3</ele>
        <time>2019-11-11T11:26:13Z</time>
      </trkpt>
      <trkpt lat="49.38889" lon="1.05948">
        <ele>72.3</ele>
        <time>2019-11-11T11:26:14Z</time>
      </trkpt>
      <trkpt lat="49.38891" lon="1.05946">
        <ele>72.3</ele>
        <time>2019-11-11T11:26:15Z</time>
      </trkpt>
      <trkpt lat="49.38893" lon="1.05943">
        <ele>72.4</ele>
        <time>2019-11-11T11:26:16Z</time>
      </trkpt>
      <trkpt lat="49.38896" lon="1.05941">
        <ele>72.4</ele>
        <time>2019-11-11T11:26:17Z</time>
      </trkpt>
      <trkpt lat="49.38899" lon="1.05941">
        <ele>72.4</ele>
        <time>2019-11-11T11:26:18Z</time>
      </trkpt>
      <trkpt lat="49.38903" lon="1.05941">
        <ele>72.4</ele>
        <time>2019-11-11T11:26:19Z</time>
      </trkpt>
      <trkpt lat="49.38906" lon="1.05941">
        <ele>72.4</ele>
        <time>2019-11-11T11:26:20Z</time>
      </trkpt>
      <trkpt lat="49.38909" lon="1.05941">
        <ele>72.4</ele>
        <time>2019-11-11T11:26:21Z</time>
      </trkpt>
      <trkpt lat="49.38913" lon="1.05941">
        <ele>72.4</ele>
        <time>2019-11-11T11:26:22Z</time>
      </trkpt>
      <trkpt lat="49.38917" lon="1.05941">
        <ele>72.7</ele>
        <time>2019-11-11T11:26:23Z</time>
      </trkpt>
      <trkpt lat="49.38921" lon="1.05941">
        <ele>72.7</ele>
        <time>2019-11-11T11:26:24Z</time>
      </trkpt>
      <trkpt lat="49.38925" lon="1.0594">
        <ele>72.7</ele>
        <time>2019-11-11T11:26:25Z</time>
      </trkpt>
      <trkpt lat="49.38929" lon="1.05939">
        <ele>72.8</ele>
        <time>2019-11-11T11:26:26Z</time>
      </trkpt>
      <trkpt lat="49.38932" lon="1.05938">
        <ele>72.8</ele>
        <time>2019-11-11T11:26:27Z</time>
      </trkpt>
      <trkpt lat="49.38936" lon="1.05937">
        <ele>72.8</ele>
        <time>2019-11-11T11:26:28Z</time>
      </trkpt>
      <trkpt lat="49.3894" lon="1.05936">
        <ele>72.8</ele>
        <time>2019-11-11T11:26:29Z</time>
      </trkpt>
      <trkpt lat="49.38944" lon="1.05935">
        <ele>72.8</ele>
        <time>2019-11-11T11:26:30Z</time>
      </trkpt>
      <trkpt lat="49.38948" lon="1.05934">
        <ele>72.9</ele>
        <time>2019-11-11T11:26:31Z</time>
      </trkpt>
      <trkpt lat="49.38952" lon="1.05933">
        <ele>72.9</ele>
        <time>2019-11-11T11:26:32Z</time>
      </trkpt>
      <trkpt lat="49.38957" lon="1.05932">
        <ele>73</ele>
        <time>2019-11-11T11:26:33Z</time>
      </trkpt>
      <trkpt lat="49.38961" lon="1.05931">
        <ele>73</ele>
        <time>2019-11-11T11:26:34Z</time>
      </trkpt>
      <trkpt lat="49.38965" lon="1.05929">
        <ele>73.1</ele>
        <time>2019-11-11T11:26:35Z</time>
      </trkpt>
      <trkpt lat="49.38969" lon="1.05928">
        <ele>73.1</ele>
        <time>2019-11-11T11:26:36Z</time>
      </trkpt>
      <trkpt lat="49.38973" lon="1.05927">
        <ele>73.2</ele>
        <time>2019-11-11T11:26:37Z</time>
      </trkpt>
      <trkpt lat="49.38978" lon="1.05926">
        <ele>73.3</ele>
        <time>2019-11-11T11:26:38Z</time>
      </trkpt>
      <trkpt lat="49.38982" lon="1.05924">
        <ele>73.4</ele>
        <time>2019-11-11T11:26:39Z</time>
      </trkpt>
      <trkpt lat="49.38987" lon="1.05923">
        <ele>73.5</ele>
        <time>2019-11-11T11:26:40Z</time>
      </trkpt>
      <trkpt lat="49.38991" lon="1.05922">
        <ele>73.6</ele>
        <time>2019-11-11T11:26:41Z</time>
      </trkpt>
      <trkpt lat="49.38996" lon="1.05921">
        <ele>73.7</ele>
        <time>2019-11-11T11:26:42Z</time>
      </trkpt>
      <trkpt lat="49.39001" lon="1.05919">
        <ele>73.9</ele>
        <time>2019-11-11T11:26:43Z</time>
      </trkpt>
      <trkpt lat="49.39005" lon="1.05918">
        <ele>73.8</ele>
        <time>2019-11-11T11:26:44Z</time>
      </trkpt>
      <trkpt lat="49.3901" lon="1.05917">
        <ele>73.7</ele>
        <time>2019-11-11T11:26:45Z</time>
      </trkpt>
      <trkpt lat="49.39015" lon="1.05916">
        <ele>73.7</ele>
        <time>2019-11-11T11:26:46Z</time>
      </trkpt>
      <trkpt lat="49.3902" lon="1.05914">
        <ele>73.7</ele>
        <time>2019-11-11T11:26:47Z</time>
      </trkpt>
      <trkpt lat="49.39025" lon="1.05913">
        <ele>73.6</ele>
        <time>2019-11-11T11:26:48Z</time>
      </trkpt>
      <trkpt lat="49.3903" lon="1.05911">
        <ele>73.5</ele>
        <time>2019-11-11T11:26:49Z</time>
      </trkpt>
      <trkpt lat="49.39035" lon="1.05911">
        <ele>73.4</ele>
        <time>2019-11-11T11:26:50Z</time>
      </trkpt>
      <trkpt lat="49.39039" lon="1.0591">
        <ele>73.4</ele>
        <time>2019-11-11T11:26:51Z</time>
      </trkpt>
      <trkpt lat="49.39043" lon="1.05908">
        <ele>73.3</ele>
        <time>2019-11-11T11:26:52Z</time>
      </trkpt>
      <trkpt lat="49.39048" lon="1.05907">
        <ele>73.2</ele>
        <time>2019-11-11T11:26:53Z</time>
      </trkpt>
      <trkpt lat="49.39053" lon="1.05905">
        <ele>73.1</ele>
        <time>2019-11-11T11:26:54Z</time>
      </trkpt>
      <trkpt lat="49.39057" lon="1.05903">
        <ele>73.1</ele>
        <time>2019-11-11T11:26:55Z</time>
      </trkpt>
      <trkpt lat="49.39062" lon="1.05902">
        <ele>73</ele>
        <time>2019-11-11T11:26:56Z</time>
      </trkpt>
      <trkpt lat="49.39067" lon="1.059">
        <ele>72.9</ele>
        <time>2019-11-11T11:26:57Z</time>
      </trkpt>
      <trkpt lat="49.39072" lon="1.05899">
        <ele>72.8</ele>
        <time>2019-11-11T11:26:58Z</time>
      </trkpt>
      <trkpt lat="49.39077" lon="1.05898">
        <ele>72.8</ele>
        <time>2019-11-11T11:26:59Z</time>
      </trkpt>
      <trkpt lat="49.39082" lon="1.05897">
        <ele>72.8</ele>
        <time>2019-11-11T11:27:00Z</time>
      </trkpt>
      <trkpt lat="49.39087" lon="1.05895">
        <ele>71.5</ele>
        <time>2019-11-11T11:27:01Z</time>
      </trkpt>
      <trkpt lat="49.39092" lon="1.05893">
        <ele>71.5</ele>
        <time>2019-11-11T11:27:02Z</time>
      </trkpt>
      <trkpt lat="49.39097" lon="1.05892">
        <ele>71.4</ele>
        <time>2019-11-11T11:27:03Z</time>
      </trkpt>
      <trkpt lat="49.39102" lon="1.0589">
        <ele>71.4</ele>
        <time>2019-11-11T11:27:04Z</time>
      </trkpt>
      <trkpt lat="49.39107" lon="1.05889">
        <ele>71.3</ele>
        <time>2019-11-11T11:27:05Z</time>
      </trkpt>
      <trkpt lat="49.39112" lon="1.05888">
        <ele>71.2</ele>
        <time>2019-11-11T11:27:06Z</time>
      </trkpt>
      <trkpt lat="49.39116" lon="1.05886">
        <ele>71.1</ele>
        <time>2019-11-11T11:27:07Z</time>
      </trkpt>
      <trkpt lat="49.39121" lon="1.05885">
        <ele>71.1</ele>
        <time>2019-11-11T11:27:08Z</time>
      </trkpt>
      <trkpt lat="49.39126" lon="1.05883">
        <ele>71</ele>
        <time>2019-11-11T11:27:09Z</time>
      </trkpt>
      <trkpt lat="49.39131" lon="1.05882">
        <ele>70.9</ele>
        <time>2019-11-11T11:27:10Z</time>
      </trkpt>
      <trkpt lat="49.39135" lon="1.0588">
        <ele>70.8</ele>
        <time>2019-11-11T11:27:11Z</time>
      </trkpt>
      <trkpt lat="49.3914" lon="1.05879">
        <ele>70.7</ele>
        <time>2019-11-11T11:27:12Z</time>
      </trkpt>
      <trkpt lat="49.39145" lon="1.05878">
        <ele>70.7</ele>
        <time>2019-11-11T11:27:13Z</time>
      </trkpt>
      <trkpt lat="49.3915" lon="1.05876">
        <ele>70.6</ele>
        <time>2019-11-11T11:27:14Z</time>
      </trkpt>
      <trkpt lat="49.39155" lon="1.05875">
        <ele>70.5</ele>
        <time>2019-11-11T11:27:15Z</time>
      </trkpt>
      <trkpt lat="49.3916" lon="1.05873">
        <ele>70.5</ele>
        <time>2019-11-11T11:27:16Z</time>
      </trkpt>
      <trkpt lat="49.39164" lon="1.05872">
        <ele>70.4</ele>
        <time>2019-11-11T11:27:17Z</time>
      </trkpt>
      <trkpt lat="49.39169" lon="1.0587">
        <ele>68.8</ele>
        <time>2019-11-11T11:27:18Z</time>
      </trkpt>
      <trkpt lat="49.39173" lon="1.05869">
        <ele>68.8</ele>
        <time>2019-11-11T11:27:19Z</time>
      </trkpt>
      <trkpt lat="49.39178" lon="1.05868">
        <ele>68.8</ele>
        <time>2019-11-11T11:27:20Z</time>
      </trkpt>
      <trkpt lat="49.39182" lon="1.05866">
        <ele>68.7</ele>
        <time>2019-11-11T11:27:21Z</time>
      </trkpt>
      <trkpt lat="49.39186" lon="1.05865">
        <ele>68.7</ele>
        <time>2019-11-11T11:27:22Z</time>
      </trkpt>
      <trkpt lat="49.3919" lon="1.05864">
        <ele>68.7</ele>
        <time>2019-11-11T11:27:23Z</time>
      </trkpt>
      <trkpt lat="49.39193" lon="1.05863">
        <ele>68.7</ele>
        <time>2019-11-11T11:27:24Z</time>
      </trkpt>
      <trkpt lat="49.39197" lon="1.05862">
        <ele>68.6</ele>
        <time>2019-11-11T11:27:25Z</time>
      </trkpt>
      <trkpt lat="49.392" lon="1.0586">
        <ele>68.6</ele>
        <time>2019-11-11T11:27:26Z</time>
      </trkpt>
      <trkpt lat="49.39203" lon="1.05857">
        <ele>68.6</ele>
        <time>2019-11-11T11:27:27Z</time>
      </trkpt>
      <trkpt lat="49.39206" lon="1.05854">
        <ele>68.5</ele>
        <time>2019-11-11T11:27:28Z</time>
      </trkpt>
      <trkpt lat="49.39209" lon="1.05851">
        <ele>68.5</ele>
        <time>2019-11-11T11:27:29Z</time>
      </trkpt>
      <trkpt lat="49.39211" lon="1.05847">
        <ele>68.5</ele>
        <time>2019-11-11T11:27:30Z</time>
      </trkpt>
      <trkpt lat="49.39211" lon="1.05843">
        <ele>68.5</ele>
        <time>2019-11-11T11:27:31Z</time>
      </trkpt>
      <trkpt lat="49.3921" lon="1.05839">
        <ele>68.5</ele>
        <time>2019-11-11T11:27:32Z</time>
      </trkpt>
      <trkpt lat="49.39207" lon="1.05836">
        <ele>68.5</ele>
        <time>2019-11-11T11:27:33Z</time>
      </trkpt>
      <trkpt lat="49.39205" lon="1.05834">
        <ele>68.5</ele>
        <time>2019-11-11T11:27:34Z</time>
      </trkpt>
      <trkpt lat="49.39203" lon="1.05832">
        <ele>68.5</ele>
        <time>2019-11-11T11:27:35Z</time>
      </trkpt>
      <trkpt lat="49.39201" lon="1.0583">
        <ele>68.5</ele>
        <time>2019-11-11T11:27:36Z</time>
      </trkpt>
      <trkpt lat="49.392" lon="1.05829">
        <ele>68.5</ele>
        <time>2019-11-11T11:27:37Z</time>
      </trkpt>
      <trkpt lat="49.392" lon="1.05828">
        <ele>68.5</ele>
        <time>2019-11-11T11:27:38Z</time>
      </trkpt>
      <trkpt lat="49.39199" lon="1.05828">
        <ele>68.6</ele>
        <time>2019-11-11T11:27:39Z</time>
      </trkpt>
      <trkpt lat="49.39199" lon="1.05828">
        <ele>68.6</ele>
        <time>2019-11-11T11:27:40Z</time>
      </trkpt>
      <trkpt lat="49.392" lon="1.05822">
        <ele>68.5</ele>
        <time>2019-11-11T11:27:54Z</time>
      </trkpt>
      <trkpt lat="49.392" lon="1.05818">
        <ele>68.5</ele>
        <time>2019-11-11T11:27:55Z</time>
      </trkpt>
      <trkpt lat="49.39201" lon="1.05813">
        <ele>68.5</ele>
        <time>2019-11-11T11:27:56Z</time>
      </trkpt>
      <trkpt lat="49.392" lon="1.05808">
        <ele>68.5</ele>
        <time>2019-11-11T11:27:57Z</time>
      </trkpt>
      <trkpt lat="49.39199" lon="1.05801">
        <ele>68.5</ele>
        <time>2019-11-11T11:27:58Z</time>
      </trkpt>
      <trkpt lat="49.39196" lon="1.05797">
        <ele>68.5</ele>
        <time>2019-11-11T11:27:59Z</time>
      </trkpt>
      <trkpt lat="49.39192" lon="1.05793">
        <ele>68.4</ele>
        <time>2019-11-11T11:28:00Z</time>
      </trkpt>
      <trkpt lat="49.39188" lon="1.05788">
        <ele>68.4</ele>
        <time>2019-11-11T11:28:01Z</time>
      </trkpt>
      <trkpt lat="49.39184" lon="1.05784">
        <ele>68.3</ele>
        <time>2019-11-11T11:28:02Z</time>
      </trkpt>
      <trkpt lat="49.3918" lon="1.0578">
        <ele>68.2</ele>
        <time>2019-11-11T11:28:03Z</time>
      </trkpt>
      <trkpt lat="49.39176" lon="1.05775">
        <ele>68.1</ele>
        <time>2019-11-11T11:28:04Z</time>
      </trkpt>
      <trkpt lat="49.39172" lon="1.05771">
        <ele>67.9</ele>
        <time>2019-11-11T11:28:05Z</time>
      </trkpt>
      <trkpt lat="49.39168" lon="1.05768">
        <ele>67.8</ele>
        <time>2019-11-11T11:28:06Z</time>
      </trkpt>
      <trkpt lat="49.39163" lon="1.05765">
        <ele>67.9</ele>
        <time>2019-11-11T11:28:07Z</time>
      </trkpt>
      <trkpt lat="49.39159" lon="1.05762">
        <ele>67.8</ele>
        <time>2019-11-11T11:28:08Z</time>
      </trkpt>
      <trkpt lat="49.39155" lon="1.05758">
        <ele>67.8</ele>
        <time>2019-11-11T11:28:09Z</time>
      </trkpt>
      <trkpt lat="49.3915" lon="1.05755">
        <ele>67.9</ele>
        <time>2019-11-11T11:28:10Z</time>
      </trkpt>
      <trkpt lat="49.39146" lon="1.05752">
        <ele>68</ele>
        <time>2019-11-11T11:28:11Z</time>
      </trkpt>
      <trkpt lat="49.39141" lon="1.05748">
        <ele>66.6</ele>
        <time>2019-11-11T11:28:12Z</time>
      </trkpt>
      <trkpt lat="49.39137" lon="1.05745">
        <ele>66.5</ele>
        <time>2019-11-11T11:28:13Z</time>
      </trkpt>
      <trkpt lat="49.39132" lon="1.05742">
        <ele>66.5</ele>
        <time>2019-11-11T11:28:14Z</time>
      </trkpt>
      <trkpt lat="49.39128" lon="1.05738">
        <ele>66.5</ele>
        <time>2019-11-11T11:28:15Z</time>
      </trkpt>
      <trkpt lat="49.39123" lon="1.05735">
        <ele>66.5</ele>
        <time>2019-11-11T11:28:16Z</time>
      </trkpt>
      <trkpt lat="49.39119" lon="1.05731">
        <ele>66.5</ele>
        <time>2019-11-11T11:28:17Z</time>
      </trkpt>
      <trkpt lat="49.39114" lon="1.05728">
        <ele>66.4</ele>
        <time>2019-11-11T11:28:18Z</time>
      </trkpt>
      <trkpt lat="49.39109" lon="1.05725">
        <ele>66.4</ele>
        <time>2019-11-11T11:28:19Z</time>
      </trkpt>
      <trkpt lat="49.39105" lon="1.05722">
        <ele>66.4</ele>
        <time>2019-11-11T11:28:20Z</time>
      </trkpt>
      <trkpt lat="49.391" lon="1.05718">
        <ele>66.4</ele>
        <time>2019-11-11T11:28:21Z</time>
      </trkpt>
      <trkpt lat="49.39095" lon="1.05715">
        <ele>66.4</ele>
        <time>2019-11-11T11:28:22Z</time>
      </trkpt>
      <trkpt lat="49.39091" lon="1.05712">
        <ele>66.4</ele>
        <time>2019-11-11T11:28:23Z</time>
      </trkpt>
      <trkpt lat="49.39086" lon="1.05708">
        <ele>66.3</ele>
        <time>2019-11-11T11:28:24Z</time>
      </trkpt>
      <trkpt lat="49.39081" lon="1.05705">
        <ele>68.2</ele>
        <time>2019-11-11T11:28:25Z</time>
      </trkpt>
      <trkpt lat="49.39076" lon="1.05702">
        <ele>68.2</ele>
        <time>2019-11-11T11:28:26Z</time>
      </trkpt>
      <trkpt lat="49.39071" lon="1.05699">
        <ele>68.2</ele>
        <time>2019-11-11T11:28:27Z</time>
      </trkpt>
      <trkpt lat="49.39067" lon="1.05695">
        <ele>68.2</ele>
        <time>2019-11-11T11:28:28Z</time>
      </trkpt>
      <trkpt lat="49.39062" lon="1.05692">
        <ele>68.3</ele>
        <time>2019-11-11T11:28:29Z</time>
      </trkpt>
      <trkpt lat="49.39057" lon="1.05689">
        <ele>68.4</ele>
        <time>2019-11-11T11:28:30Z</time>
      </trkpt>
      <trkpt lat="49.39052" lon="1.05685">
        <ele>68.6</ele>
        <time>2019-11-11T11:28:31Z</time>
      </trkpt>
      <trkpt lat="49.39048" lon="1.05682">
        <ele>68.7</ele>
        <time>2019-11-11T11:28:32Z</time>
      </trkpt>
      <trkpt lat="49.39043" lon="1.05679">
        <ele>68.8</ele>
        <time>2019-11-11T11:28:33Z</time>
      </trkpt>
      <trkpt lat="49.39038" lon="1.05675">
        <ele>69</ele>
        <time>2019-11-11T11:28:34Z</time>
      </trkpt>
      <trkpt lat="49.39033" lon="1.05671">
        <ele>69.1</ele>
        <time>2019-11-11T11:28:35Z</time>
      </trkpt>
      <trkpt lat="49.39028" lon="1.05668">
        <ele>69.3</ele>
        <time>2019-11-11T11:28:36Z</time>
      </trkpt>
      <trkpt lat="49.39023" lon="1.05664">
        <ele>68.2</ele>
        <time>2019-11-11T11:28:37Z</time>
      </trkpt>
      <trkpt lat="49.39018" lon="1.05661">
        <ele>68.4</ele>
        <time>2019-11-11T11:28:38Z</time>
      </trkpt>
      <trkpt lat="49.39013" lon="1.05657">
        <ele>68.6</ele>
        <time>2019-11-11T11:28:39Z</time>
      </trkpt>
      <trkpt lat="49.39008" lon="1.05653">
        <ele>68.6</ele>
        <time>2019-11-11T11:28:40Z</time>
      </trkpt>
      <trkpt lat="49.39003" lon="1.0565">
        <ele>68.6</ele>
        <time>2019-11-11T11:28:41Z</time>
      </trkpt>
      <trkpt lat="49.38998" lon="1.05646">
        <ele>69.1</ele>
        <time>2019-11-11T11:28:42Z</time>
      </trkpt>
      <trkpt lat="49.38993" lon="1.05643">
        <ele>69</ele>
        <time>2019-11-11T11:28:43Z</time>
      </trkpt>
      <trkpt lat="49.38988" lon="1.05639">
        <ele>68.9</ele>
        <time>2019-11-11T11:28:44Z</time>
      </trkpt>
      <trkpt lat="49.38983" lon="1.05636">
        <ele>68.8</ele>
        <time>2019-11-11T11:28:45Z</time>
      </trkpt>
      <trkpt lat="49.38978" lon="1.05632">
        <ele>68.7</ele>
        <time>2019-11-11T11:28:46Z</time>
      </trkpt>
      <trkpt lat="49.38973" lon="1.05629">
        <ele>68.6</ele>
        <time>2019-11-11T11:28:47Z</time>
      </trkpt>
      <trkpt lat="49.38968" lon="1.05626">
        <ele>68.6</ele>
        <time>2019-11-11T11:28:48Z</time>
      </trkpt>
      <trkpt lat="49.38963" lon="1.05622">
        <ele>68.5</ele>
        <time>2019-11-11T11:28:49Z</time>
      </trkpt>
      <trkpt lat="49.38958" lon="1.05619">
        <ele>68.5</ele>
        <time>2019-11-11T11:28:50Z</time>
      </trkpt>
      <trkpt lat="49.38953" lon="1.05616">
        <ele>68.4</ele>
        <time>2019-11-11T11:28:51Z</time>
      </trkpt>
      <trkpt lat="49.38948" lon="1.05612">
        <ele>68.4</ele>
        <time>2019-11-11T11:28:52Z</time>
      </trkpt>
      <trkpt lat="49.38943" lon="1.05608">
        <ele>68.3</ele>
        <time>2019-11-11T11:28:53Z</time>
      </trkpt>
      <trkpt lat="49.38939" lon="1.05605">
        <ele>68.3</ele>
        <time>2019-11-11T11:28:54Z</time>
      </trkpt>
      <trkpt lat="49.38934" lon="1.056">
        <ele>68.3</ele>
        <time>2019-11-11T11:28:55Z</time>
      </trkpt>
      <trkpt lat="49.3893" lon="1.05595">
        <ele>68.2</ele>
        <time>2019-11-11T11:28:56Z</time>
      </trkpt>
      <trkpt lat="49.38926" lon="1.05589">
        <ele>68.1</ele>
        <time>2019-11-11T11:28:57Z</time>
      </trkpt>
      <trkpt lat="49.38923" lon="1.05582">
        <ele>67.9</ele>
        <time>2019-11-11T11:28:58Z</time>
      </trkpt>
      <trkpt lat="49.38921" lon="1.05575">
        <ele>67.8</ele>
        <time>2019-11-11T11:28:59Z</time>
      </trkpt>
      <trkpt lat="49.38918" lon="1.05568">
        <ele>67.7</ele>
        <time>2019-11-11T11:29:00Z</time>
      </trkpt>
      <trkpt lat="49.38916" lon="1.05561">
        <ele>67.4</ele>
        <time>2019-11-11T11:29:01Z</time>
      </trkpt>
      <trkpt lat="49.38914" lon="1.05554">
        <ele>67.2</ele>
        <time>2019-11-11T11:29:02Z</time>
      </trkpt>
      <trkpt lat="49.38913" lon="1.05547">
        <ele>67.1</ele>
        <time>2019-11-11T11:29:03Z</time>
      </trkpt>
      <trkpt lat="49.38912" lon="1.0554">
        <ele>67</ele>
        <time>2019-11-11T11:29:04Z</time>
      </trkpt>
      <trkpt lat="49.38912" lon="1.05532">
        <ele>66.8</ele>
        <time>2019-11-11T11:29:05Z</time>
      </trkpt>
      <trkpt lat="49.38913" lon="1.05524">
        <ele>66.7</ele>
        <time>2019-11-11T11:29:06Z</time>
      </trkpt>
      <trkpt lat="49.38913" lon="1.05516">
        <ele>66.5</ele>
        <time>2019-11-11T11:29:07Z</time>
      </trkpt>
      <trkpt lat="49.38914" lon="1.05508">
        <ele>66.3</ele>
        <time>2019-11-11T11:29:08Z</time>
      </trkpt>
      <trkpt lat="49.38915" lon="1.055">
        <ele>66</ele>
        <time>2019-11-11T11:29:09Z</time>
      </trkpt>
      <trkpt lat="49.38917" lon="1.05492">
        <ele>66.3</ele>
        <time>2019-11-11T11:29:10Z</time>
      </trkpt>
      <trkpt lat="49.38918" lon="1.05484">
        <ele>66.6</ele>
        <time>2019-11-11T11:29:11Z</time>
      </trkpt>
      <trkpt lat="49.3892" lon="1.05477">
        <ele>66.7</ele>
        <time>2019-11-11T11:29:12Z</time>
      </trkpt>
      <trkpt lat="49.38922" lon="1.05469">
        <ele>66.8</ele>
        <time>2019-11-11T11:29:13Z</time>
      </trkpt>
      <trkpt lat="49.38924" lon="1.05462">
        <ele>66.8</ele>
        <time>2019-11-11T11:29:14Z</time>
      </trkpt>
      <trkpt lat="49.38926" lon="1.05454">
        <ele>66.8</ele>
        <time>2019-11-11T11:29:15Z</time>
      </trkpt>
      <trkpt lat="49.38928" lon="1.05446">
        <ele>66.7</ele>
        <time>2019-11-11T11:29:16Z</time>
      </trkpt>
      <trkpt lat="49.3893" lon="1.05439">
        <ele>66.6</ele>
        <time>2019-11-11T11:29:17Z</time>
      </trkpt>
      <trkpt lat="49.38932" lon="1.05431">
        <ele>66.5</ele>
        <time>2019-11-11T11:29:18Z</time>
      </trkpt>
      <trkpt lat="49.38934" lon="1.05424">
        <ele>66.5</ele>
        <time>2019-11-11T11:29:19Z</time>
      </trkpt>
      <trkpt lat="49.38936" lon="1.05416">
        <ele>66.3</ele>
        <time>2019-11-11T11:29:20Z</time>
      </trkpt>
      <trkpt lat="49.38939" lon="1.05409">
        <ele>66.4</ele>
        <time>2019-11-11T11:29:21Z</time>
      </trkpt>
      <trkpt lat="49.38941" lon="1.05401">
        <ele>66.6</ele>
        <time>2019-11-11T11:29:22Z</time>
      </trkpt>
      <trkpt lat="49.38943" lon="1.05394">
        <ele>66.7</ele>
        <time>2019-11-11T11:29:23Z</time>
      </trkpt>
      <trkpt lat="49.38945" lon="1.05386">
        <ele>66.7</ele>
        <time>2019-11-11T11:29:24Z</time>
      </trkpt>
      <trkpt lat="49.38948" lon="1.05378">
        <ele>66.8</ele>
        <time>2019-11-11T11:29:25Z</time>
      </trkpt>
      <trkpt lat="49.3895" lon="1.05371">
        <ele>66.8</ele>
        <time>2019-11-11T11:29:26Z</time>
      </trkpt>
      <trkpt lat="49.38952" lon="1.05363">
        <ele>66.7</ele>
        <time>2019-11-11T11:29:27Z</time>
      </trkpt>
      <trkpt lat="49.38955" lon="1.05355">
        <ele>66.7</ele>
        <time>2019-11-11T11:29:28Z</time>
      </trkpt>
      <trkpt lat="49.38957" lon="1.05347">
        <ele>66.7</ele>
        <time>2019-11-11T11:29:29Z</time>
      </trkpt>
      <trkpt lat="49.38959" lon="1.05339">
        <ele>66.7</ele>
        <time>2019-11-11T11:29:30Z</time>
      </trkpt>
      <trkpt lat="49.38962" lon="1.05331">
        <ele>65.4</ele>
        <time>2019-11-11T11:29:31Z</time>
      </trkpt>
      <trkpt lat="49.38964" lon="1.05323">
        <ele>65.4</ele>
        <time>2019-11-11T11:29:32Z</time>
      </trkpt>
      <trkpt lat="49.38966" lon="1.05314">
        <ele>65.4</ele>
        <time>2019-11-11T11:29:33Z</time>
      </trkpt>
      <trkpt lat="49.38969" lon="1.05306">
        <ele>65.3</ele>
        <time>2019-11-11T11:29:34Z</time>
      </trkpt>
      <trkpt lat="49.38971" lon="1.05297">
        <ele>65.2</ele>
        <time>2019-11-11T11:29:35Z</time>
      </trkpt>
      <trkpt lat="49.38973" lon="1.05289">
        <ele>65.1</ele>
        <time>2019-11-11T11:29:36Z</time>
      </trkpt>
      <trkpt lat="49.38976" lon="1.0528">
        <ele>65.1</ele>
        <time>2019-11-11T11:29:37Z</time>
      </trkpt>
      <trkpt lat="49.38978" lon="1.05272">
        <ele>65</ele>
        <time>2019-11-11T11:29:38Z</time>
      </trkpt>
      <trkpt lat="49.38981" lon="1.05263">
        <ele>65</ele>
        <time>2019-11-11T11:29:39Z</time>
      </trkpt>
      <trkpt lat="49.38984" lon="1.05254">
        <ele>64.9</ele>
        <time>2019-11-11T11:29:40Z</time>
      </trkpt>
      <trkpt lat="49.38986" lon="1.05246">
        <ele>64.1</ele>
        <time>2019-11-11T11:29:41Z</time>
      </trkpt>
      <trkpt lat="49.38989" lon="1.05238">
        <ele>64</ele>
        <time>2019-11-11T11:29:42Z</time>
      </trkpt>
      <trkpt lat="49.38991" lon="1.0523">
        <ele>63.8</ele>
        <time>2019-11-11T11:29:43Z</time>
      </trkpt>
      <trkpt lat="49.38993" lon="1.05222">
        <ele>63.5</ele>
        <time>2019-11-11T11:29:44Z</time>
      </trkpt>
      <trkpt lat="49.38996" lon="1.05213">
        <ele>63.3</ele>
        <time>2019-11-11T11:29:45Z</time>
      </trkpt>
      <trkpt lat="49.38998" lon="1.05206">
        <ele>63.1</ele>
        <time>2019-11-11T11:29:46Z</time>
      </trkpt>
      <trkpt lat="49.39" lon="1.05197">
        <ele>62.5</ele>
        <time>2019-11-11T11:29:47Z</time>
      </trkpt>
      <trkpt lat="49.39003" lon="1.05189">
        <ele>62.3</ele>
        <time>2019-11-11T11:29:48Z</time>
      </trkpt>
      <trkpt lat="49.39005" lon="1.05181">
        <ele>62.2</ele>
        <time>2019-11-11T11:29:49Z</time>
      </trkpt>
      <trkpt lat="49.39007" lon="1.05173">
        <ele>62.1</ele>
        <time>2019-11-11T11:29:50Z</time>
      </trkpt>
      <trkpt lat="49.3901" lon="1.05165">
        <ele>62.2</ele>
        <time>2019-11-11T11:29:51Z</time>
      </trkpt>
      <trkpt lat="49.39012" lon="1.05157">
        <ele>62.4</ele>
        <time>2019-11-11T11:29:52Z</time>
      </trkpt>
      <trkpt lat="49.39015" lon="1.05148">
        <ele>62.5</ele>
        <time>2019-11-11T11:29:53Z</time>
      </trkpt>
      <trkpt lat="49.39017" lon="1.0514">
        <ele>62.7</ele>
        <time>2019-11-11T11:29:54Z</time>
      </trkpt>
      <trkpt lat="49.3902" lon="1.05132">
        <ele>62.8</ele>
        <time>2019-11-11T11:29:55Z</time>
      </trkpt>
      <trkpt lat="49.39022" lon="1.05124">
        <ele>62.9</ele>
        <time>2019-11-11T11:29:56Z</time>
      </trkpt>
      <trkpt lat="49.39024" lon="1.05116">
        <ele>63.1</ele>
        <time>2019-11-11T11:29:57Z</time>
      </trkpt>
      <trkpt lat="49.39027" lon="1.05109">
        <ele>63.2</ele>
        <time>2019-11-11T11:29:58Z</time>
      </trkpt>
      <trkpt lat="49.39029" lon="1.05102">
        <ele>63.3</ele>
        <time>2019-11-11T11:29:59Z</time>
      </trkpt>
      <trkpt lat="49.3903" lon="1.05096">
        <ele>63.4</ele>
        <time>2019-11-11T11:30:00Z</time>
      </trkpt>
      <trkpt lat="49.39032" lon="1.05089">
        <ele>63.4</ele>
        <time>2019-11-11T11:30:01Z</time>
      </trkpt>
      <trkpt lat="49.39033" lon="1.05082">
        <ele>64.9</ele>
        <time>2019-11-11T11:30:02Z</time>
      </trkpt>
      <trkpt lat="49.39034" lon="1.05075">
        <ele>65</ele>
        <time>2019-11-11T11:30:03Z</time>
      </trkpt>
      <trkpt lat="49.39034" lon="1.05068">
        <ele>65</ele>
        <time>2019-11-11T11:30:04Z</time>
      </trkpt>
      <trkpt lat="49.39032" lon="1.05062">
        <ele>65.1</ele>
        <time>2019-11-11T11:30:05Z</time>
      </trkpt>
      <trkpt lat="49.3903" lon="1.05056">
        <ele>65.2</ele>
        <time>2019-11-11T11:30:06Z</time>
      </trkpt>
      <trkpt lat="49.39026" lon="1.05051">
        <ele>65.3</ele>
        <time>2019-11-11T11:30:07Z</time>
      </trkpt>
      <trkpt lat="49.39022" lon="1.05048">
        <ele>65.4</ele>
        <time>2019-11-11T11:30:08Z</time>
      </trkpt>
      <trkpt lat="49.39017" lon="1.05046">
        <ele>65.5</ele>
        <time>2019-11-11T11:30:09Z</time>
      </trkpt>
      <trkpt lat="49.39011" lon="1.05046">
        <ele>65.5</ele>
        <time>2019-11-11T11:30:10Z</time>
      </trkpt>
      <trkpt lat="49.39006" lon="1.05048">
        <ele>65.5</ele>
        <time>2019-11-11T11:30:11Z</time>
      </trkpt>
      <trkpt lat="49.39001" lon="1.05049">
        <ele>65.5</ele>
        <time>2019-11-11T11:30:12Z</time>
      </trkpt>
      <trkpt lat="49.38996" lon="1.05049">
        <ele>64.3</ele>
        <time>2019-11-11T11:30:13Z</time>
      </trkpt>
      <trkpt lat="49.38991" lon="1.05048">
        <ele>64.2</ele>
        <time>2019-11-11T11:30:14Z</time>
      </trkpt>
      <trkpt lat="49.38986" lon="1.05045">
        <ele>64.1</ele>
        <time>2019-11-11T11:30:15Z</time>
      </trkpt>
      <trkpt lat="49.38981" lon="1.05041">
        <ele>64.1</ele>
        <time>2019-11-11T11:30:16Z</time>
      </trkpt>
      <trkpt lat="49.38976" lon="1.05038">
        <ele>64</ele>
        <time>2019-11-11T11:30:17Z</time>
      </trkpt>
      <trkpt lat="49.38971" lon="1.05034">
        <ele>63.9</ele>
        <time>2019-11-11T11:30:18Z</time>
      </trkpt>
      <trkpt lat="49.38967" lon="1.0503">
        <ele>63.9</ele>
        <time>2019-11-11T11:30:19Z</time>
      </trkpt>
      <trkpt lat="49.38962" lon="1.05027">
        <ele>63.7</ele>
        <time>2019-11-11T11:30:20Z</time>
      </trkpt>
      <trkpt lat="49.38957" lon="1.05023">
        <ele>63.6</ele>
        <time>2019-11-11T11:30:21Z</time>
      </trkpt>
      <trkpt lat="49.38953" lon="1.05019">
        <ele>63.5</ele>
        <time>2019-11-11T11:30:22Z</time>
      </trkpt>
      <trkpt lat="49.38948" lon="1.05016">
        <ele>63.3</ele>
        <time>2019-11-11T11:30:23Z</time>
      </trkpt>
      <trkpt lat="49.38943" lon="1.05012">
        <ele>63.1</ele>
        <time>2019-11-11T11:30:24Z</time>
      </trkpt>
      <trkpt lat="49.38938" lon="1.05009">
        <ele>62.9</ele>
        <time>2019-11-11T11:30:25Z</time>
      </trkpt>
      <trkpt lat="49.38934" lon="1.05005">
        <ele>62.8</ele>
        <time>2019-11-11T11:30:26Z</time>
      </trkpt>
      <trkpt lat="49.38929" lon="1.05002">
        <ele>62.6</ele>
        <time>2019-11-11T11:30:27Z</time>
      </trkpt>
      <trkpt lat="49.38924" lon="1.04998">
        <ele>63.1</ele>
        <time>2019-11-11T11:30:28Z</time>
      </trkpt>
      <trkpt lat="49.3892" lon="1.04994">
        <ele>63</ele>
        <time>2019-11-11T11:30:29Z</time>
      </trkpt>
      <trkpt lat="49.38915" lon="1.04991">
        <ele>63</ele>
        <time>2019-11-11T11:30:30Z</time>
      </trkpt>
      <trkpt lat="49.3891" lon="1.04987">
        <ele>63.4</ele>
        <time>2019-11-11T11:30:31Z</time>
      </trkpt>
      <trkpt lat="49.38906" lon="1.04983">
        <ele>63.7</ele>
        <time>2019-11-11T11:30:32Z</time>
      </trkpt>
      <trkpt lat="49.38901" lon="1.0498">
        <ele>64</ele>
        <time>2019-11-11T11:30:33Z</time>
      </trkpt>
      <trkpt lat="49.38896" lon="1.04977">
        <ele>64.2</ele>
        <time>2019-11-11T11:30:34Z</time>
      </trkpt>
      <trkpt lat="49.38892" lon="1.04973">
        <ele>64.4</ele>
        <time>2019-11-11T11:30:35Z</time>
      </trkpt>
      <trkpt lat="49.38887" lon="1.04969">
        <ele>64.6</ele>
        <time>2019-11-11T11:30:36Z</time>
      </trkpt>
      <trkpt lat="49.38882" lon="1.04965">
        <ele>64.8</ele>
        <time>2019-11-11T11:30:37Z</time>
      </trkpt>
      <trkpt lat="49.38878" lon="1.0496">
        <ele>64.9</ele>
        <time>2019-11-11T11:30:38Z</time>
      </trkpt>
      <trkpt lat="49.38873" lon="1.04955">
        <ele>65.1</ele>
        <time>2019-11-11T11:30:39Z</time>
      </trkpt>
      <trkpt lat="49.38869" lon="1.04949">
        <ele>65.3</ele>
        <time>2019-11-11T11:30:40Z</time>
      </trkpt>
      <trkpt lat="49.38864" lon="1.04944">
        <ele>65.4</ele>
        <time>2019-11-11T11:30:41Z</time>
      </trkpt>
      <trkpt lat="49.3886" lon="1.04938">
        <ele>65.6</ele>
        <time>2019-11-11T11:30:42Z</time>
      </trkpt>
      <trkpt lat="49.38856" lon="1.04932">
        <ele>65.8</ele>
        <time>2019-11-11T11:30:43Z</time>
      </trkpt>
      <trkpt lat="49.38853" lon="1.04925">
        <ele>66</ele>
        <time>2019-11-11T11:30:44Z</time>
      </trkpt>
      <trkpt lat="49.38849" lon="1.04918">
        <ele>66.2</ele>
        <time>2019-11-11T11:30:45Z</time>
      </trkpt>
      <trkpt lat="49.38846" lon="1.04911">
        <ele>67.2</ele>
        <time>2019-11-11T11:30:46Z</time>
      </trkpt>
      <trkpt lat="49.38843" lon="1.04904">
        <ele>67.2</ele>
        <time>2019-11-11T11:30:47Z</time>
      </trkpt>
      <trkpt lat="49.3884" lon="1.04897">
        <ele>67.2</ele>
        <time>2019-11-11T11:30:48Z</time>
      </trkpt>
      <trkpt lat="49.38837" lon="1.0489">
        <ele>67.3</ele>
        <time>2019-11-11T11:30:49Z</time>
      </trkpt>
      <trkpt lat="49.38834" lon="1.04883">
        <ele>67.3</ele>
        <time>2019-11-11T11:30:50Z</time>
      </trkpt>
      <trkpt lat="49.38831" lon="1.04875">
        <ele>68.3</ele>
        <time>2019-11-11T11:30:51Z</time>
      </trkpt>
      <trkpt lat="49.38828" lon="1.04868">
        <ele>68.3</ele>
        <time>2019-11-11T11:30:52Z</time>
      </trkpt>
      <trkpt lat="49.38825" lon="1.04861">
        <ele>68.2</ele>
        <time>2019-11-11T11:30:53Z</time>
      </trkpt>
      <trkpt lat="49.38823" lon="1.04853">
        <ele>68.1</ele>
        <time>2019-11-11T11:30:54Z</time>
      </trkpt>
      <trkpt lat="49.3882" lon="1.04846">
        <ele>68</ele>
        <time>2019-11-11T11:30:55Z</time>
      </trkpt>
      <trkpt lat="49.38817" lon="1.04839">
        <ele>68</ele>
        <time>2019-11-11T11:30:56Z</time>
      </trkpt>
      <trkpt lat="49.38815" lon="1.04832">
        <ele>67.2</ele>
        <time>2019-11-11T11:30:57Z</time>
      </trkpt>
      <trkpt lat="49.38812" lon="1.04825">
        <ele>67.2</ele>
        <time>2019-11-11T11:30:58Z</time>
      </trkpt>
      <trkpt lat="49.38809" lon="1.04818">
        <ele>67.2</ele>
        <time>2019-11-11T11:30:59Z</time>
      </trkpt>
      <trkpt lat="49.38807" lon="1.0481">
        <ele>67.1</ele>
        <time>2019-11-11T11:31:00Z</time>
      </trkpt>
      <trkpt lat="49.38804" lon="1.04803">
        <ele>67.1</ele>
        <time>2019-11-11T11:31:01Z</time>
      </trkpt>
      <trkpt lat="49.38801" lon="1.04795">
        <ele>67</ele>
        <time>2019-11-11T11:31:02Z</time>
      </trkpt>
      <trkpt lat="49.38798" lon="1.04787">
        <ele>66.9</ele>
        <time>2019-11-11T11:31:03Z</time>
      </trkpt>
      <trkpt lat="49.38795" lon="1.04779">
        <ele>66.8</ele>
        <time>2019-11-11T11:31:04Z</time>
      </trkpt>
      <trkpt lat="49.38792" lon="1.0477">
        <ele>66.6</ele>
        <time>2019-11-11T11:31:05Z</time>
      </trkpt>
      <trkpt lat="49.38789" lon="1.04762">
        <ele>66.5</ele>
        <time>2019-11-11T11:31:06Z</time>
      </trkpt>
      <trkpt lat="49.38785" lon="1.04753">
        <ele>66.4</ele>
        <time>2019-11-11T11:31:07Z</time>
      </trkpt>
      <trkpt lat="49.38781" lon="1.04743">
        <ele>64.6</ele>
        <time>2019-11-11T11:31:08Z</time>
      </trkpt>
      <trkpt lat="49.38778" lon="1.04734">
        <ele>64.5</ele>
        <time>2019-11-11T11:31:09Z</time>
      </trkpt>
      <trkpt lat="49.38774" lon="1.04723">
        <ele>64.3</ele>
        <time>2019-11-11T11:31:10Z</time>
      </trkpt>
      <trkpt lat="49.3877" lon="1.04713">
        <ele>64.1</ele>
        <time>2019-11-11T11:31:11Z</time>
      </trkpt>
      <trkpt lat="49.38766" lon="1.04703">
        <ele>63.7</ele>
        <time>2019-11-11T11:31:12Z</time>
      </trkpt>
      <trkpt lat="49.38762" lon="1.04692">
        <ele>63.3</ele>
        <time>2019-11-11T11:31:13Z</time>
      </trkpt>
      <trkpt lat="49.38758" lon="1.04682">
        <ele>62.7</ele>
        <time>2019-11-11T11:31:14Z</time>
      </trkpt>
      <trkpt lat="49.38753" lon="1.04673">
        <ele>61.8</ele>
        <time>2019-11-11T11:31:15Z</time>
      </trkpt>
      <trkpt lat="49.38748" lon="1.04664">
        <ele>61.3</ele>
        <time>2019-11-11T11:31:16Z</time>
      </trkpt>
      <trkpt lat="49.38744" lon="1.04654">
        <ele>62.1</ele>
        <time>2019-11-11T11:31:17Z</time>
      </trkpt>
      <trkpt lat="49.38739" lon="1.04644">
        <ele>62.6</ele>
        <time>2019-11-11T11:31:18Z</time>
      </trkpt>
      <trkpt lat="49.38736" lon="1.04634">
        <ele>62.8</ele>
        <time>2019-11-11T11:31:19Z</time>
      </trkpt>
      <trkpt lat="49.38733" lon="1.04623">
        <ele>62.9</ele>
        <time>2019-11-11T11:31:20Z</time>
      </trkpt>
      <trkpt lat="49.3873" lon="1.04612">
        <ele>62.8</ele>
        <time>2019-11-11T11:31:21Z</time>
      </trkpt>
      <trkpt lat="49.38727" lon="1.04602">
        <ele>62.8</ele>
        <time>2019-11-11T11:31:22Z</time>
      </trkpt>
      <trkpt lat="49.38723" lon="1.04593">
        <ele>62.9</ele>
        <time>2019-11-11T11:31:23Z</time>
      </trkpt>
      <trkpt lat="49.38719" lon="1.04584">
        <ele>63.1</ele>
        <time>2019-11-11T11:31:24Z</time>
      </trkpt>
      <trkpt lat="49.38716" lon="1.04574">
        <ele>63.7</ele>
        <time>2019-11-11T11:31:25Z</time>
      </trkpt>
      <trkpt lat="49.38713" lon="1.04565">
        <ele>63.9</ele>
        <time>2019-11-11T11:31:26Z</time>
      </trkpt>
      <trkpt lat="49.3871" lon="1.04556">
        <ele>64.1</ele>
        <time>2019-11-11T11:31:27Z</time>
      </trkpt>
      <trkpt lat="49.38707" lon="1.04547">
        <ele>64.3</ele>
        <time>2019-11-11T11:31:28Z</time>
      </trkpt>
      <trkpt lat="49.38704" lon="1.04538">
        <ele>64.4</ele>
        <time>2019-11-11T11:31:29Z</time>
      </trkpt>
      <trkpt lat="49.38702" lon="1.04529">
        <ele>64.5</ele>
        <time>2019-11-11T11:31:30Z</time>
      </trkpt>
      <trkpt lat="49.38699" lon="1.0452">
        <ele>64.6</ele>
        <time>2019-11-11T11:31:31Z</time>
      </trkpt>
      <trkpt lat="49.38697" lon="1.04511">
        <ele>64.7</ele>
        <time>2019-11-11T11:31:32Z</time>
      </trkpt>
      <trkpt lat="49.38695" lon="1.04501">
        <ele>64.8</ele>
        <time>2019-11-11T11:31:33Z</time>
      </trkpt>
      <trkpt lat="49.38694" lon="1.04492">
        <ele>65.3</ele>
        <time>2019-11-11T11:31:34Z</time>
      </trkpt>
      <trkpt lat="49.38694" lon="1.04483">
        <ele>65.3</ele>
        <time>2019-11-11T11:31:35Z</time>
      </trkpt>
      <trkpt lat="49.38693" lon="1.04474">
        <ele>65.3</ele>
        <time>2019-11-11T11:31:36Z</time>
      </trkpt>
      <trkpt lat="49.38693" lon="1.04466">
        <ele>65.3</ele>
        <time>2019-11-11T11:31:37Z</time>
      </trkpt>
      <trkpt lat="49.38693" lon="1.04457">
        <ele>65.4</ele>
        <time>2019-11-11T11:31:38Z</time>
      </trkpt>
      <trkpt lat="49.38693" lon="1.04448">
        <ele>65.4</ele>
        <time>2019-11-11T11:31:39Z</time>
      </trkpt>
      <trkpt lat="49.38694" lon="1.0444">
        <ele>65.5</ele>
        <time>2019-11-11T11:31:40Z</time>
      </trkpt>
      <trkpt lat="49.38695" lon="1.04432">
        <ele>65.5</ele>
        <time>2019-11-11T11:31:41Z</time>
      </trkpt>
      <trkpt lat="49.38696" lon="1.04424">
        <ele>65.6</ele>
        <time>2019-11-11T11:31:42Z</time>
      </trkpt>
      <trkpt lat="49.38697" lon="1.04417">
        <ele>65.6</ele>
        <time>2019-11-11T11:31:43Z</time>
      </trkpt>
      <trkpt lat="49.38699" lon="1.0441">
        <ele>66.5</ele>
        <time>2019-11-11T11:31:44Z</time>
      </trkpt>
      <trkpt lat="49.387" lon="1.04402">
        <ele>66.5</ele>
        <time>2019-11-11T11:31:45Z</time>
      </trkpt>
      <trkpt lat="49.38702" lon="1.04395">
        <ele>66.6</ele>
        <time>2019-11-11T11:31:46Z</time>
      </trkpt>
      <trkpt lat="49.38704" lon="1.04388">
        <ele>66.6</ele>
        <time>2019-11-11T11:31:47Z</time>
      </trkpt>
      <trkpt lat="49.38707" lon="1.04382">
        <ele>66.7</ele>
        <time>2019-11-11T11:31:48Z</time>
      </trkpt>
      <trkpt lat="49.38709" lon="1.04375">
        <ele>66.8</ele>
        <time>2019-11-11T11:31:49Z</time>
      </trkpt>
      <trkpt lat="49.38711" lon="1.04368">
        <ele>66.8</ele>
        <time>2019-11-11T11:31:50Z</time>
      </trkpt>
      <trkpt lat="49.38713" lon="1.04361">
        <ele>66.9</ele>
        <time>2019-11-11T11:31:51Z</time>
      </trkpt>
      <trkpt lat="49.38715" lon="1.04355">
        <ele>67</ele>
        <time>2019-11-11T11:31:52Z</time>
      </trkpt>
      <trkpt lat="49.38717" lon="1.04348">
        <ele>67</ele>
        <time>2019-11-11T11:31:53Z</time>
      </trkpt>
      <trkpt lat="49.38719" lon="1.04342">
        <ele>67.1</ele>
        <time>2019-11-11T11:31:54Z</time>
      </trkpt>
      <trkpt lat="49.38721" lon="1.04335">
        <ele>67.2</ele>
        <time>2019-11-11T11:31:55Z</time>
      </trkpt>
      <trkpt lat="49.38723" lon="1.04328">
        <ele>67.9</ele>
        <time>2019-11-11T11:31:56Z</time>
      </trkpt>
      <trkpt lat="49.38726" lon="1.04322">
        <ele>68</ele>
        <time>2019-11-11T11:31:57Z</time>
      </trkpt>
      <trkpt lat="49.38728" lon="1.04315">
        <ele>68</ele>
        <time>2019-11-11T11:31:58Z</time>
      </trkpt>
      <trkpt lat="49.3873" lon="1.04308">
        <ele>68.1</ele>
        <time>2019-11-11T11:31:59Z</time>
      </trkpt>
      <trkpt lat="49.38732" lon="1.04301">
        <ele>68.2</ele>
        <time>2019-11-11T11:32:00Z</time>
      </trkpt>
      <trkpt lat="49.38734" lon="1.04294">
        <ele>68.2</ele>
        <time>2019-11-11T11:32:01Z</time>
      </trkpt>
      <trkpt lat="49.38737" lon="1.04287">
        <ele>68.4</ele>
        <time>2019-11-11T11:32:02Z</time>
      </trkpt>
      <trkpt lat="49.38739" lon="1.04281">
        <ele>68.5</ele>
        <time>2019-11-11T11:32:03Z</time>
      </trkpt>
      <trkpt lat="49.38741" lon="1.04274">
        <ele>68.7</ele>
        <time>2019-11-11T11:32:04Z</time>
      </trkpt>
      <trkpt lat="49.38743" lon="1.04268">
        <ele>68.9</ele>
        <time>2019-11-11T11:32:05Z</time>
      </trkpt>
      <trkpt lat="49.38745" lon="1.04261">
        <ele>69.2</ele>
        <time>2019-11-11T11:32:06Z</time>
      </trkpt>
      <trkpt lat="49.38747" lon="1.04255">
        <ele>69.6</ele>
        <time>2019-11-11T11:32:07Z</time>
      </trkpt>
      <trkpt lat="49.38749" lon="1.04248">
        <ele>69.9</ele>
        <time>2019-11-11T11:32:08Z</time>
      </trkpt>
      <trkpt lat="49.38751" lon="1.04242">
        <ele>69.8</ele>
        <time>2019-11-11T11:32:09Z</time>
      </trkpt>
      <trkpt lat="49.38753" lon="1.04236">
        <ele>69.7</ele>
        <time>2019-11-11T11:32:10Z</time>
      </trkpt>
      <trkpt lat="49.38755" lon="1.0423">
        <ele>69.6</ele>
        <time>2019-11-11T11:32:11Z</time>
      </trkpt>
      <trkpt lat="49.38756" lon="1.04224">
        <ele>69.6</ele>
        <time>2019-11-11T11:32:12Z</time>
      </trkpt>
      <trkpt lat="49.38758" lon="1.04218">
        <ele>69.6</ele>
        <time>2019-11-11T11:32:13Z</time>
      </trkpt>
      <trkpt lat="49.38759" lon="1.04213">
        <ele>69.6</ele>
        <time>2019-11-11T11:32:14Z</time>
      </trkpt>
      <trkpt lat="49.38761" lon="1.04207">
        <ele>69.7</ele>
        <time>2019-11-11T11:32:15Z</time>
      </trkpt>
      <trkpt lat="49.38762" lon="1.04201">
        <ele>69.7</ele>
        <time>2019-11-11T11:32:16Z</time>
      </trkpt>
      <trkpt lat="49.38764" lon="1.04196">
        <ele>69.8</ele>
        <time>2019-11-11T11:32:17Z</time>
      </trkpt>
      <trkpt lat="49.38765" lon="1.04191">
        <ele>69.8</ele>
        <time>2019-11-11T11:32:18Z</time>
      </trkpt>
      <trkpt lat="49.38766" lon="1.04186">
        <ele>69.9</ele>
        <time>2019-11-11T11:32:19Z</time>
      </trkpt>
      <trkpt lat="49.38768" lon="1.04181">
        <ele>70</ele>
        <time>2019-11-11T11:32:20Z</time>
      </trkpt>
      <trkpt lat="49.3877" lon="1.04175">
        <ele>70</ele>
        <time>2019-11-11T11:32:21Z</time>
      </trkpt>
      <trkpt lat="49.38772" lon="1.04169">
        <ele>70</ele>
        <time>2019-11-11T11:32:22Z</time>
      </trkpt>
      <trkpt lat="49.38774" lon="1.04163">
        <ele>70.3</ele>
        <time>2019-11-11T11:32:23Z</time>
      </trkpt>
      <trkpt lat="49.38776" lon="1.04157">
        <ele>70.3</ele>
        <time>2019-11-11T11:32:24Z</time>
      </trkpt>
      <trkpt lat="49.38778" lon="1.04151">
        <ele>70.2</ele>
        <time>2019-11-11T11:32:25Z</time>
      </trkpt>
      <trkpt lat="49.38781" lon="1.04146">
        <ele>70.2</ele>
        <time>2019-11-11T11:32:26Z</time>
      </trkpt>
      <trkpt lat="49.38785" lon="1.04145">
        <ele>70.1</ele>
        <time>2019-11-11T11:32:27Z</time>
      </trkpt>
      <trkpt lat="49.38789" lon="1.04145">
        <ele>70</ele>
        <time>2019-11-11T11:32:28Z</time>
      </trkpt>
      <trkpt lat="49.38792" lon="1.04146">
        <ele>70</ele>
        <time>2019-11-11T11:32:29Z</time>
      </trkpt>
      <trkpt lat="49.38796" lon="1.04148">
        <ele>69.9</ele>
        <time>2019-11-11T11:32:30Z</time>
      </trkpt>
      <trkpt lat="49.38799" lon="1.04151">
        <ele>69.9</ele>
        <time>2019-11-11T11:32:31Z</time>
      </trkpt>
      <trkpt lat="49.38803" lon="1.04153">
        <ele>69.8</ele>
        <time>2019-11-11T11:32:32Z</time>
      </trkpt>
      <trkpt lat="49.38807" lon="1.04156">
        <ele>69.7</ele>
        <time>2019-11-11T11:32:33Z</time>
      </trkpt>
      <trkpt lat="49.38811" lon="1.04159">
        <ele>69.7</ele>
        <time>2019-11-11T11:32:34Z</time>
      </trkpt>
      <trkpt lat="49.38815" lon="1.04162">
        <ele>69.6</ele>
        <time>2019-11-11T11:32:35Z</time>
      </trkpt>
      <trkpt lat="49.38819" lon="1.04165">
        <ele>69.5</ele>
        <time>2019-11-11T11:32:36Z</time>
      </trkpt>
      <trkpt lat="49.38823" lon="1.04168">
        <ele>69.1</ele>
        <time>2019-11-11T11:32:37Z</time>
      </trkpt>
      <trkpt lat="49.38828" lon="1.04171">
        <ele>69.1</ele>
        <time>2019-11-11T11:32:38Z</time>
      </trkpt>
      <trkpt lat="49.38832" lon="1.04174">
        <ele>69</ele>
        <time>2019-11-11T11:32:39Z</time>
      </trkpt>
      <trkpt lat="49.38836" lon="1.04176">
        <ele>68.1</ele>
        <time>2019-11-11T11:32:40Z</time>
      </trkpt>
      <trkpt lat="49.38841" lon="1.04179">
        <ele>67.8</ele>
        <time>2019-11-11T11:32:41Z</time>
      </trkpt>
      <trkpt lat="49.38845" lon="1.04181">
        <ele>67.5</ele>
        <time>2019-11-11T11:32:42Z</time>
      </trkpt>
      <trkpt lat="49.3885" lon="1.04184">
        <ele>67.2</ele>
        <time>2019-11-11T11:32:43Z</time>
      </trkpt>
      <trkpt lat="49.38854" lon="1.04187">
        <ele>67</ele>
        <time>2019-11-11T11:32:44Z</time>
      </trkpt>
      <trkpt lat="49.38859" lon="1.0419">
        <ele>66.8</ele>
        <time>2019-11-11T11:32:45Z</time>
      </trkpt>
      <trkpt lat="49.38864" lon="1.04193">
        <ele>66.6</ele>
        <time>2019-11-11T11:32:46Z</time>
      </trkpt>
      <trkpt lat="49.38869" lon="1.04196">
        <ele>66.4</ele>
        <time>2019-11-11T11:32:47Z</time>
      </trkpt>
      <trkpt lat="49.38874" lon="1.042">
        <ele>66.3</ele>
        <time>2019-11-11T11:32:48Z</time>
      </trkpt>
      <trkpt lat="49.38879" lon="1.04203">
        <ele>66.2</ele>
        <time>2019-11-11T11:32:49Z</time>
      </trkpt>
      <trkpt lat="49.38884" lon="1.04207">
        <ele>66.1</ele>
        <time>2019-11-11T11:32:50Z</time>
      </trkpt>
      <trkpt lat="49.38889" lon="1.0421">
        <ele>66</ele>
        <time>2019-11-11T11:32:51Z</time>
      </trkpt>
      <trkpt lat="49.38894" lon="1.04213">
        <ele>65.9</ele>
        <time>2019-11-11T11:32:52Z</time>
      </trkpt>
      <trkpt lat="49.389" lon="1.04216">
        <ele>65.8</ele>
        <time>2019-11-11T11:32:53Z</time>
      </trkpt>
      <trkpt lat="49.38905" lon="1.04219">
        <ele>65.7</ele>
        <time>2019-11-11T11:32:54Z</time>
      </trkpt>
      <trkpt lat="49.38911" lon="1.0422">
        <ele>65.6</ele>
        <time>2019-11-11T11:32:55Z</time>
      </trkpt>
      <trkpt lat="49.38917" lon="1.04221">
        <ele>63.8</ele>
        <time>2019-11-11T11:32:56Z</time>
      </trkpt>
      <trkpt lat="49.38922" lon="1.04221">
        <ele>63.7</ele>
        <time>2019-11-11T11:32:57Z</time>
      </trkpt>
      <trkpt lat="49.38928" lon="1.04219">
        <ele>63.6</ele>
        <time>2019-11-11T11:32:58Z</time>
      </trkpt>
      <trkpt lat="49.38934" lon="1.04217">
        <ele>63.5</ele>
        <time>2019-11-11T11:32:59Z</time>
      </trkpt>
      <trkpt lat="49.38939" lon="1.04214">
        <ele>63.4</ele>
        <time>2019-11-11T11:33:00Z</time>
      </trkpt>
      <trkpt lat="49.38944" lon="1.04211">
        <ele>63.3</ele>
        <time>2019-11-11T11:33:01Z</time>
      </trkpt>
      <trkpt lat="49.38949" lon="1.04206">
        <ele>63.2</ele>
        <time>2019-11-11T11:33:02Z</time>
      </trkpt>
      <trkpt lat="49.38954" lon="1.04201">
        <ele>63</ele>
        <time>2019-11-11T11:33:03Z</time>
      </trkpt>
      <trkpt lat="49.38959" lon="1.04195">
        <ele>62.9</ele>
        <time>2019-11-11T11:33:04Z</time>
      </trkpt>
      <trkpt lat="49.38963" lon="1.04189">
        <ele>62.8</ele>
        <time>2019-11-11T11:33:05Z</time>
      </trkpt>
      <trkpt lat="49.38968" lon="1.04182">
        <ele>62.6</ele>
        <time>2019-11-11T11:33:06Z</time>
      </trkpt>
      <trkpt lat="49.38972" lon="1.04175">
        <ele>62.4</ele>
        <time>2019-11-11T11:33:07Z</time>
      </trkpt>
      <trkpt lat="49.38976" lon="1.04169">
        <ele>62.3</ele>
        <time>2019-11-11T11:33:08Z</time>
      </trkpt>
      <trkpt lat="49.38981" lon="1.04162">
        <ele>61.5</ele>
        <time>2019-11-11T11:33:09Z</time>
      </trkpt>
      <trkpt lat="49.38985" lon="1.04155">
        <ele>61.4</ele>
        <time>2019-11-11T11:33:10Z</time>
      </trkpt>
      <trkpt lat="49.3899" lon="1.04148">
        <ele>61.3</ele>
        <time>2019-11-11T11:33:11Z</time>
      </trkpt>
      <trkpt lat="49.38994" lon="1.04141">
        <ele>61.3</ele>
        <time>2019-11-11T11:33:12Z</time>
      </trkpt>
      <trkpt lat="49.38998" lon="1.04134">
        <ele>61.2</ele>
        <time>2019-11-11T11:33:13Z</time>
      </trkpt>
      <trkpt lat="49.39002" lon="1.04127">
        <ele>59.7</ele>
        <time>2019-11-11T11:33:14Z</time>
      </trkpt>
      <trkpt lat="49.39006" lon="1.0412">
        <ele>59.6</ele>
        <time>2019-11-11T11:33:15Z</time>
      </trkpt>
      <trkpt lat="49.39011" lon="1.04113">
        <ele>59.5</ele>
        <time>2019-11-11T11:33:16Z</time>
      </trkpt>
      <trkpt lat="49.39015" lon="1.04106">
        <ele>59.5</ele>
        <time>2019-11-11T11:33:17Z</time>
      </trkpt>
      <trkpt lat="49.39019" lon="1.04099">
        <ele>59.4</ele>
        <time>2019-11-11T11:33:18Z</time>
      </trkpt>
      <trkpt lat="49.39023" lon="1.04092">
        <ele>59.4</ele>
        <time>2019-11-11T11:33:19Z</time>
      </trkpt>
      <trkpt lat="49.39028" lon="1.04087">
        <ele>59.4</ele>
        <time>2019-11-11T11:33:20Z</time>
      </trkpt>
      <trkpt lat="49.39032" lon="1.04082">
        <ele>58.8</ele>
        <time>2019-11-11T11:33:21Z</time>
      </trkpt>
      <trkpt lat="49.39036" lon="1.04077">
        <ele>58.8</ele>
        <time>2019-11-11T11:33:22Z</time>
      </trkpt>
      <trkpt lat="49.39039" lon="1.04071">
        <ele>58.8</ele>
        <time>2019-11-11T11:33:23Z</time>
      </trkpt>
      <trkpt lat="49.39042" lon="1.04065">
        <ele>58.8</ele>
        <time>2019-11-11T11:33:24Z</time>
      </trkpt>
      <trkpt lat="49.39045" lon="1.0406">
        <ele>58.7</ele>
        <time>2019-11-11T11:33:25Z</time>
      </trkpt>
      <trkpt lat="49.39049" lon="1.04056">
        <ele>58.7</ele>
        <time>2019-11-11T11:33:26Z</time>
      </trkpt>
      <trkpt lat="49.39054" lon="1.04053">
        <ele>58.7</ele>
        <time>2019-11-11T11:33:27Z</time>
      </trkpt>
      <trkpt lat="49.39059" lon="1.04049">
        <ele>58.6</ele>
        <time>2019-11-11T11:33:28Z</time>
      </trkpt>
      <trkpt lat="49.39064" lon="1.04046">
        <ele>58.6</ele>
        <time>2019-11-11T11:33:29Z</time>
      </trkpt>
      <trkpt lat="49.39069" lon="1.04043">
        <ele>58.5</ele>
        <time>2019-11-11T11:33:30Z</time>
      </trkpt>
      <trkpt lat="49.39074" lon="1.04039">
        <ele>58.4</ele>
        <time>2019-11-11T11:33:31Z</time>
      </trkpt>
      <trkpt lat="49.3908" lon="1.04036">
        <ele>58.4</ele>
        <time>2019-11-11T11:33:32Z</time>
      </trkpt>
      <trkpt lat="49.39085" lon="1.04032">
        <ele>57</ele>
        <time>2019-11-11T11:33:33Z</time>
      </trkpt>
      <trkpt lat="49.39091" lon="1.04027">
        <ele>56.9</ele>
        <time>2019-11-11T11:33:34Z</time>
      </trkpt>
      <trkpt lat="49.39095" lon="1.04021">
        <ele>56.8</ele>
        <time>2019-11-11T11:33:35Z</time>
      </trkpt>
      <trkpt lat="49.39099" lon="1.04014">
        <ele>56.7</ele>
        <time>2019-11-11T11:33:36Z</time>
      </trkpt>
      <trkpt lat="49.39103" lon="1.04006">
        <ele>56.6</ele>
        <time>2019-11-11T11:33:37Z</time>
      </trkpt>
      <trkpt lat="49.39107" lon="1.03999">
        <ele>55.2</ele>
        <time>2019-11-11T11:33:38Z</time>
      </trkpt>
      <trkpt lat="49.39111" lon="1.03992">
        <ele>55</ele>
        <time>2019-11-11T11:33:39Z</time>
      </trkpt>
      <trkpt lat="49.39116" lon="1.03984">
        <ele>54.7</ele>
        <time>2019-11-11T11:33:40Z</time>
      </trkpt>
      <trkpt lat="49.3912" lon="1.03977">
        <ele>54.5</ele>
        <time>2019-11-11T11:33:41Z</time>
      </trkpt>
      <trkpt lat="49.39124" lon="1.03969">
        <ele>54.4</ele>
        <time>2019-11-11T11:33:42Z</time>
      </trkpt>
      <trkpt lat="49.39128" lon="1.03962">
        <ele>54.2</ele>
        <time>2019-11-11T11:33:43Z</time>
      </trkpt>
      <trkpt lat="49.39132" lon="1.03954">
        <ele>54.1</ele>
        <time>2019-11-11T11:33:44Z</time>
      </trkpt>
      <trkpt lat="49.39135" lon="1.03946">
        <ele>54</ele>
        <time>2019-11-11T11:33:45Z</time>
      </trkpt>
      <trkpt lat="49.39138" lon="1.03939">
        <ele>53.9</ele>
        <time>2019-11-11T11:33:46Z</time>
      </trkpt>
      <trkpt lat="49.39141" lon="1.03932">
        <ele>53.8</ele>
        <time>2019-11-11T11:33:47Z</time>
      </trkpt>
      <trkpt lat="49.39144" lon="1.03924">
        <ele>53.7</ele>
        <time>2019-11-11T11:33:48Z</time>
      </trkpt>
      <trkpt lat="49.39147" lon="1.03918">
        <ele>53.6</ele>
        <time>2019-11-11T11:33:49Z</time>
      </trkpt>
      <trkpt lat="49.39151" lon="1.03912">
        <ele>52.7</ele>
        <time>2019-11-11T11:33:50Z</time>
      </trkpt>
      <trkpt lat="49.39155" lon="1.03906">
        <ele>52.7</ele>
        <time>2019-11-11T11:33:51Z</time>
      </trkpt>
      <trkpt lat="49.39159" lon="1.03901">
        <ele>52.6</ele>
        <time>2019-11-11T11:33:52Z</time>
      </trkpt>
      <trkpt lat="49.39162" lon="1.03895">
        <ele>52.5</ele>
        <time>2019-11-11T11:33:53Z</time>
      </trkpt>
      <trkpt lat="49.39166" lon="1.03888">
        <ele>52.4</ele>
        <time>2019-11-11T11:33:54Z</time>
      </trkpt>
      <trkpt lat="49.3917" lon="1.03881">
        <ele>51.6</ele>
        <time>2019-11-11T11:33:55Z</time>
      </trkpt>
      <trkpt lat="49.39173" lon="1.03874">
        <ele>51.5</ele>
        <time>2019-11-11T11:33:56Z</time>
      </trkpt>
      <trkpt lat="49.39175" lon="1.03865">
        <ele>51.4</ele>
        <time>2019-11-11T11:33:57Z</time>
      </trkpt>
      <trkpt lat="49.39176" lon="1.03856">
        <ele>51.2</ele>
        <time>2019-11-11T11:33:58Z</time>
      </trkpt>
      <trkpt lat="49.39177" lon="1.03847">
        <ele>51.2</ele>
        <time>2019-11-11T11:33:59Z</time>
      </trkpt>
      <trkpt lat="49.39178" lon="1.03837">
        <ele>51.1</ele>
        <time>2019-11-11T11:34:00Z</time>
      </trkpt>
      <trkpt lat="49.39179" lon="1.03827">
        <ele>49.8</ele>
        <time>2019-11-11T11:34:01Z</time>
      </trkpt>
      <trkpt lat="49.3918" lon="1.03818">
        <ele>49.4</ele>
        <time>2019-11-11T11:34:02Z</time>
      </trkpt>
      <trkpt lat="49.39181" lon="1.0381">
        <ele>49.1</ele>
        <time>2019-11-11T11:34:03Z</time>
      </trkpt>
      <trkpt lat="49.39181" lon="1.03804">
        <ele>48.8</ele>
        <time>2019-11-11T11:34:04Z</time>
      </trkpt>
      <trkpt lat="49.39179" lon="1.03798">
        <ele>48.6</ele>
        <time>2019-11-11T11:34:05Z</time>
      </trkpt>
      <trkpt lat="49.39176" lon="1.03795">
        <ele>48.5</ele>
        <time>2019-11-11T11:34:06Z</time>
      </trkpt>
      <trkpt lat="49.39172" lon="1.03793">
        <ele>48.4</ele>
        <time>2019-11-11T11:34:07Z</time>
      </trkpt>
      <trkpt lat="49.39168" lon="1.03793">
        <ele>48.4</ele>
        <time>2019-11-11T11:34:08Z</time>
      </trkpt>
      <trkpt lat="49.39165" lon="1.03794">
        <ele>49.1</ele>
        <time>2019-11-11T11:34:09Z</time>
      </trkpt>
      <trkpt lat="49.39162" lon="1.03798">
        <ele>49.2</ele>
        <time>2019-11-11T11:34:10Z</time>
      </trkpt>
      <trkpt lat="49.39161" lon="1.03801">
        <ele>49.4</ele>
        <time>2019-11-11T11:34:11Z</time>
      </trkpt>
      <trkpt lat="49.39161" lon="1.03802">
        <ele>49.4</ele>
        <time>2019-11-11T11:34:12Z</time>
      </trkpt>
      <trkpt lat="49.39161" lon="1.03802">
        <ele>49.4</ele>
        <time>2019-11-11T11:34:13Z</time>
      </trkpt>
      <trkpt lat="49.39161" lon="1.03802">
        <ele>49.4</ele>
        <time>2019-11-11T11:34:14Z</time>
      </trkpt>
      <trkpt lat="49.39161" lon="1.03802">
        <ele>49.4</ele>
        <time>2019-11-11T11:34:24Z</time>
      </trkpt>
    </trkseg>
  </trk>
</gpx>